<?xml version="1.0" encoding="UTF-8" standalone="yes"?>
<?xml-stylesheet type="text/xsl" href="details.xsl"?>
<gpx
 version="1.1"
 creator="My Tracks for the G1 running Android"
 xmlns:xsi="http://www.w3.org/2001/XMLSchema-instance"
 xmlns="http://www.topografix.com/GPX/1/1"
 xmlns:topografix="http://www.topografix.com/GPX/Private/TopoGrafix/0/1" xsi:schemaLocation="http://www.topografix.com/GPX/1/1 http://www.topografix.com/GPX/1/1/gpx.xsd http://www.topografix.com/GPX/Private/TopoGrafix/0/1 http://www.topografix.com/GPX/Private/TopoGrafix/0/1/topografix.xsd">
<trk>
<name><![CDATA[2011-05-03 10:33]]></name>
<desc><![CDATA[]]></desc>
<number>20</number>
<extensions><topografix:color>c0c0c0</topografix:color></extensions>
<trkseg>
<trkpt lat="45.22444" lon="13.59441">
<ele>47</ele>
<time>2011-05-03T08:36:57Z</time>
</trkpt>
<trkpt lat="45.22444" lon="13.59441">
<ele>47</ele>
<time>2011-05-03T08:36:57Z</time>
</trkpt>
<trkpt lat="45.22444" lon="13.59441">
<ele>47</ele>
<time>2011-05-03T08:37:01Z</time>
</trkpt>
<trkpt lat="45.22448" lon="13.59442">
<ele>44</ele>
<time>2011-05-03T08:37:02Z</time>
</trkpt>
<trkpt lat="45.22446" lon="13.59436">
<ele>41</ele>
<time>2011-05-03T08:37:13Z</time>
</trkpt>
<trkpt lat="45.22443" lon="13.59431">
<ele>46</ele>
<time>2011-05-03T08:37:24Z</time>
</trkpt>
<trkpt lat="45.22447" lon="13.59435">
<ele>47</ele>
<time>2011-05-03T08:38:10Z</time>
</trkpt>
<trkpt lat="45.22451" lon="13.59438">
<ele>47</ele>
<time>2011-05-03T08:38:15Z</time>
</trkpt>
<trkpt lat="45.22456" lon="13.59442">
<ele>47</ele>
<time>2011-05-03T08:38:19Z</time>
</trkpt>
<trkpt lat="45.22461" lon="13.59446">
<ele>47</ele>
<time>2011-05-03T08:38:23Z</time>
</trkpt>
<trkpt lat="45.22466" lon="13.59449">
<ele>47</ele>
<time>2011-05-03T08:38:27Z</time>
</trkpt>
<trkpt lat="45.2247" lon="13.59452">
<ele>47</ele>
<time>2011-05-03T08:38:31Z</time>
</trkpt>
<trkpt lat="45.22475" lon="13.59454">
<ele>46</ele>
<time>2011-05-03T08:38:35Z</time>
</trkpt>
<trkpt lat="45.2248" lon="13.59453">
<ele>46</ele>
<time>2011-05-03T08:38:39Z</time>
</trkpt>
<trkpt lat="45.22486" lon="13.5945">
<ele>46</ele>
<time>2011-05-03T08:38:43Z</time>
</trkpt>
<trkpt lat="45.2249" lon="13.59445">
<ele>46</ele>
<time>2011-05-03T08:38:47Z</time>
</trkpt>
<trkpt lat="45.22493" lon="13.59439">
<ele>46</ele>
<time>2011-05-03T08:38:51Z</time>
</trkpt>
<trkpt lat="45.22496" lon="13.59433">
<ele>46</ele>
<time>2011-05-03T08:38:55Z</time>
</trkpt>
<trkpt lat="45.225" lon="13.59426">
<ele>46</ele>
<time>2011-05-03T08:38:58Z</time>
</trkpt>
<trkpt lat="45.22504" lon="13.5942">
<ele>46</ele>
<time>2011-05-03T08:39:00Z</time>
</trkpt>
<trkpt lat="45.22508" lon="13.59414">
<ele>46</ele>
<time>2011-05-03T08:39:02Z</time>
</trkpt>
<trkpt lat="45.22513" lon="13.59407">
<ele>46</ele>
<time>2011-05-03T08:39:04Z</time>
</trkpt>
<trkpt lat="45.22517" lon="13.594">
<ele>46</ele>
<time>2011-05-03T08:39:06Z</time>
</trkpt>
<trkpt lat="45.22522" lon="13.59392">
<ele>46</ele>
<time>2011-05-03T08:39:08Z</time>
</trkpt>
<trkpt lat="45.22527" lon="13.59384">
<ele>46</ele>
<time>2011-05-03T08:39:10Z</time>
</trkpt>
<trkpt lat="45.22532" lon="13.59377">
<ele>46</ele>
<time>2011-05-03T08:39:12Z</time>
</trkpt>
<trkpt lat="45.22538" lon="13.5937">
<ele>46</ele>
<time>2011-05-03T08:39:14Z</time>
</trkpt>
<trkpt lat="45.22544" lon="13.59362">
<ele>46</ele>
<time>2011-05-03T08:39:16Z</time>
</trkpt>
<trkpt lat="45.22549" lon="13.59355">
<ele>46</ele>
<time>2011-05-03T08:39:18Z</time>
</trkpt>
<trkpt lat="45.22554" lon="13.59347">
<ele>46</ele>
<time>2011-05-03T08:39:20Z</time>
</trkpt>
<trkpt lat="45.22558" lon="13.59338">
<ele>46</ele>
<time>2011-05-03T08:39:22Z</time>
</trkpt>
<trkpt lat="45.22562" lon="13.5933">
<ele>45</ele>
<time>2011-05-03T08:39:24Z</time>
</trkpt>
<trkpt lat="45.22565" lon="13.59323">
<ele>45</ele>
<time>2011-05-03T08:39:26Z</time>
</trkpt>
<trkpt lat="45.22569" lon="13.59315">
<ele>45</ele>
<time>2011-05-03T08:39:28Z</time>
</trkpt>
<trkpt lat="45.22571" lon="13.59307">
<ele>45</ele>
<time>2011-05-03T08:39:30Z</time>
</trkpt>
<trkpt lat="45.22574" lon="13.593">
<ele>45</ele>
<time>2011-05-03T08:39:32Z</time>
</trkpt>
<trkpt lat="45.22575" lon="13.59294">
<ele>45</ele>
<time>2011-05-03T08:39:34Z</time>
</trkpt>
<trkpt lat="45.22577" lon="13.59287">
<ele>45</ele>
<time>2011-05-03T08:39:36Z</time>
</trkpt>
<trkpt lat="45.22578" lon="13.59281">
<ele>45</ele>
<time>2011-05-03T08:39:38Z</time>
</trkpt>
<trkpt lat="45.2258" lon="13.59274">
<ele>45</ele>
<time>2011-05-03T08:39:40Z</time>
</trkpt>
<trkpt lat="45.22581" lon="13.59268">
<ele>45</ele>
<time>2011-05-03T08:39:42Z</time>
</trkpt>
<trkpt lat="45.22583" lon="13.59262">
<ele>45</ele>
<time>2011-05-03T08:39:44Z</time>
</trkpt>
<trkpt lat="45.22585" lon="13.59256">
<ele>45</ele>
<time>2011-05-03T08:39:46Z</time>
</trkpt>
<trkpt lat="45.22587" lon="13.59247">
<ele>45</ele>
<time>2011-05-03T08:39:49Z</time>
</trkpt>
<trkpt lat="45.2259" lon="13.59239">
<ele>46</ele>
<time>2011-05-03T08:39:52Z</time>
</trkpt>
<trkpt lat="45.22593" lon="13.5923">
<ele>46</ele>
<time>2011-05-03T08:39:55Z</time>
</trkpt>
<trkpt lat="45.22596" lon="13.59222">
<ele>46</ele>
<time>2011-05-03T08:39:58Z</time>
</trkpt>
<trkpt lat="45.22598" lon="13.59214">
<ele>46</ele>
<time>2011-05-03T08:40:01Z</time>
</trkpt>
<trkpt lat="45.226" lon="13.59206">
<ele>46</ele>
<time>2011-05-03T08:40:04Z</time>
</trkpt>
<trkpt lat="45.22603" lon="13.59198">
<ele>46</ele>
<time>2011-05-03T08:40:07Z</time>
</trkpt>
<trkpt lat="45.22605" lon="13.59191">
<ele>46</ele>
<time>2011-05-03T08:40:10Z</time>
</trkpt>
<trkpt lat="45.22608" lon="13.59183">
<ele>46</ele>
<time>2011-05-03T08:40:13Z</time>
</trkpt>
<trkpt lat="45.2261" lon="13.59176">
<ele>46</ele>
<time>2011-05-03T08:40:16Z</time>
</trkpt>
<trkpt lat="45.22613" lon="13.59168">
<ele>46</ele>
<time>2011-05-03T08:40:19Z</time>
</trkpt>
<trkpt lat="45.22616" lon="13.59161">
<ele>46</ele>
<time>2011-05-03T08:40:22Z</time>
</trkpt>
<trkpt lat="45.22618" lon="13.59154">
<ele>46</ele>
<time>2011-05-03T08:40:25Z</time>
</trkpt>
<trkpt lat="45.22621" lon="13.59146">
<ele>46</ele>
<time>2011-05-03T08:40:28Z</time>
</trkpt>
<trkpt lat="45.22624" lon="13.59139">
<ele>46</ele>
<time>2011-05-03T08:40:31Z</time>
</trkpt>
<trkpt lat="45.22626" lon="13.59132">
<ele>46</ele>
<time>2011-05-03T08:40:34Z</time>
</trkpt>
<trkpt lat="45.22629" lon="13.59125">
<ele>46</ele>
<time>2011-05-03T08:40:37Z</time>
</trkpt>
<trkpt lat="45.22632" lon="13.59118">
<ele>46</ele>
<time>2011-05-03T08:40:40Z</time>
</trkpt>
<trkpt lat="45.22635" lon="13.59111">
<ele>46</ele>
<time>2011-05-03T08:40:43Z</time>
</trkpt>
<trkpt lat="45.22638" lon="13.59104">
<ele>46</ele>
<time>2011-05-03T08:40:46Z</time>
</trkpt>
<trkpt lat="45.22641" lon="13.59098">
<ele>46</ele>
<time>2011-05-03T08:40:49Z</time>
</trkpt>
<trkpt lat="45.22644" lon="13.5909">
<ele>46</ele>
<time>2011-05-03T08:40:52Z</time>
</trkpt>
<trkpt lat="45.22646" lon="13.59083">
<ele>46</ele>
<time>2011-05-03T08:40:55Z</time>
</trkpt>
<trkpt lat="45.22649" lon="13.59075">
<ele>46</ele>
<time>2011-05-03T08:40:58Z</time>
</trkpt>
<trkpt lat="45.22652" lon="13.59068">
<ele>46</ele>
<time>2011-05-03T08:41:01Z</time>
</trkpt>
<trkpt lat="45.22655" lon="13.59061">
<ele>46</ele>
<time>2011-05-03T08:41:04Z</time>
</trkpt>
<trkpt lat="45.22658" lon="13.59053">
<ele>46</ele>
<time>2011-05-03T08:41:07Z</time>
</trkpt>
<trkpt lat="45.22661" lon="13.59046">
<ele>46</ele>
<time>2011-05-03T08:41:10Z</time>
</trkpt>
<trkpt lat="45.22664" lon="13.59039">
<ele>46</ele>
<time>2011-05-03T08:41:13Z</time>
</trkpt>
<trkpt lat="45.22667" lon="13.59032">
<ele>46</ele>
<time>2011-05-03T08:41:16Z</time>
</trkpt>
<trkpt lat="45.2267" lon="13.59025">
<ele>47</ele>
<time>2011-05-03T08:41:19Z</time>
</trkpt>
<trkpt lat="45.22673" lon="13.59018">
<ele>47</ele>
<time>2011-05-03T08:41:22Z</time>
</trkpt>
<trkpt lat="45.22676" lon="13.59011">
<ele>47</ele>
<time>2011-05-03T08:41:25Z</time>
</trkpt>
<trkpt lat="45.22679" lon="13.59004">
<ele>47</ele>
<time>2011-05-03T08:41:28Z</time>
</trkpt>
<trkpt lat="45.22682" lon="13.58997">
<ele>47</ele>
<time>2011-05-03T08:41:31Z</time>
</trkpt>
<trkpt lat="45.22685" lon="13.5899">
<ele>47</ele>
<time>2011-05-03T08:41:34Z</time>
</trkpt>
<trkpt lat="45.22688" lon="13.58983">
<ele>47</ele>
<time>2011-05-03T08:41:37Z</time>
</trkpt>
<trkpt lat="45.22691" lon="13.58976">
<ele>47</ele>
<time>2011-05-03T08:41:40Z</time>
</trkpt>
<trkpt lat="45.22694" lon="13.58969">
<ele>47</ele>
<time>2011-05-03T08:41:43Z</time>
</trkpt>
<trkpt lat="45.22697" lon="13.58961">
<ele>47</ele>
<time>2011-05-03T08:41:47Z</time>
</trkpt>
<trkpt lat="45.22699" lon="13.58954">
<ele>47</ele>
<time>2011-05-03T08:41:50Z</time>
</trkpt>
<trkpt lat="45.22701" lon="13.58946">
<ele>47</ele>
<time>2011-05-03T08:41:53Z</time>
</trkpt>
<trkpt lat="45.22704" lon="13.58939">
<ele>46</ele>
<time>2011-05-03T08:41:56Z</time>
</trkpt>
<trkpt lat="45.22706" lon="13.58931">
<ele>46</ele>
<time>2011-05-03T08:41:59Z</time>
</trkpt>
<trkpt lat="45.22708" lon="13.58924">
<ele>46</ele>
<time>2011-05-03T08:42:02Z</time>
</trkpt>
<trkpt lat="45.22712" lon="13.58917">
<ele>46</ele>
<time>2011-05-03T08:42:05Z</time>
</trkpt>
<trkpt lat="45.22716" lon="13.58908">
<ele>46</ele>
<time>2011-05-03T08:42:08Z</time>
</trkpt>
<trkpt lat="45.2272" lon="13.58902">
<ele>46</ele>
<time>2011-05-03T08:42:11Z</time>
</trkpt>
<trkpt lat="45.22723" lon="13.58895">
<ele>46</ele>
<time>2011-05-03T08:42:14Z</time>
</trkpt>
<trkpt lat="45.22726" lon="13.58888">
<ele>46</ele>
<time>2011-05-03T08:42:17Z</time>
</trkpt>
<trkpt lat="45.22729" lon="13.5888">
<ele>46</ele>
<time>2011-05-03T08:42:20Z</time>
</trkpt>
<trkpt lat="45.22731" lon="13.58873">
<ele>46</ele>
<time>2011-05-03T08:42:23Z</time>
</trkpt>
<trkpt lat="45.22734" lon="13.58865">
<ele>46</ele>
<time>2011-05-03T08:42:26Z</time>
</trkpt>
<trkpt lat="45.22737" lon="13.58857">
<ele>46</ele>
<time>2011-05-03T08:42:29Z</time>
</trkpt>
<trkpt lat="45.2274" lon="13.5885">
<ele>46</ele>
<time>2011-05-03T08:42:32Z</time>
</trkpt>
<trkpt lat="45.22743" lon="13.58843">
<ele>46</ele>
<time>2011-05-03T08:42:35Z</time>
</trkpt>
<trkpt lat="45.22747" lon="13.58836">
<ele>46</ele>
<time>2011-05-03T08:42:38Z</time>
</trkpt>
<trkpt lat="45.2275" lon="13.58832">
<ele>46</ele>
<time>2011-05-03T08:42:40Z</time>
</trkpt>
<trkpt lat="45.22755" lon="13.58825">
<ele>46</ele>
<time>2011-05-03T08:42:43Z</time>
</trkpt>
<trkpt lat="45.22759" lon="13.58819">
<ele>46</ele>
<time>2011-05-03T08:42:46Z</time>
</trkpt>
<trkpt lat="45.22763" lon="13.58812">
<ele>46</ele>
<time>2011-05-03T08:42:49Z</time>
</trkpt>
<trkpt lat="45.22767" lon="13.58804">
<ele>46</ele>
<time>2011-05-03T08:42:52Z</time>
</trkpt>
<trkpt lat="45.2277" lon="13.58798">
<ele>46</ele>
<time>2011-05-03T08:42:55Z</time>
</trkpt>
<trkpt lat="45.22774" lon="13.58791">
<ele>46</ele>
<time>2011-05-03T08:42:58Z</time>
</trkpt>
<trkpt lat="45.22778" lon="13.58784">
<ele>46</ele>
<time>2011-05-03T08:43:01Z</time>
</trkpt>
<trkpt lat="45.22781" lon="13.58777">
<ele>46</ele>
<time>2011-05-03T08:43:04Z</time>
</trkpt>
<trkpt lat="45.22785" lon="13.5877">
<ele>46</ele>
<time>2011-05-03T08:43:07Z</time>
</trkpt>
<trkpt lat="45.22789" lon="13.58764">
<ele>46</ele>
<time>2011-05-03T08:43:10Z</time>
</trkpt>
<trkpt lat="45.22792" lon="13.58757">
<ele>46</ele>
<time>2011-05-03T08:43:13Z</time>
</trkpt>
<trkpt lat="45.22796" lon="13.5875">
<ele>46</ele>
<time>2011-05-03T08:43:16Z</time>
</trkpt>
<trkpt lat="45.228" lon="13.58743">
<ele>46</ele>
<time>2011-05-03T08:43:19Z</time>
</trkpt>
<trkpt lat="45.22804" lon="13.58736">
<ele>46</ele>
<time>2011-05-03T08:43:22Z</time>
</trkpt>
<trkpt lat="45.22808" lon="13.58729">
<ele>46</ele>
<time>2011-05-03T08:43:25Z</time>
</trkpt>
<trkpt lat="45.22812" lon="13.58723">
<ele>46</ele>
<time>2011-05-03T08:43:28Z</time>
</trkpt>
<trkpt lat="45.22816" lon="13.58716">
<ele>46</ele>
<time>2011-05-03T08:43:31Z</time>
</trkpt>
<trkpt lat="45.2282" lon="13.5871">
<ele>46</ele>
<time>2011-05-03T08:43:34Z</time>
</trkpt>
<trkpt lat="45.22825" lon="13.58703">
<ele>46</ele>
<time>2011-05-03T08:43:37Z</time>
</trkpt>
<trkpt lat="45.22829" lon="13.58697">
<ele>46</ele>
<time>2011-05-03T08:43:40Z</time>
</trkpt>
<trkpt lat="45.22833" lon="13.5869">
<ele>46</ele>
<time>2011-05-03T08:43:43Z</time>
</trkpt>
<trkpt lat="45.22837" lon="13.58684">
<ele>46</ele>
<time>2011-05-03T08:43:46Z</time>
</trkpt>
<trkpt lat="45.22841" lon="13.58678">
<ele>46</ele>
<time>2011-05-03T08:43:49Z</time>
</trkpt>
<trkpt lat="45.22845" lon="13.58672">
<ele>46</ele>
<time>2011-05-03T08:43:52Z</time>
</trkpt>
<trkpt lat="45.22849" lon="13.58665">
<ele>46</ele>
<time>2011-05-03T08:43:55Z</time>
</trkpt>
<trkpt lat="45.22854" lon="13.58659">
<ele>46</ele>
<time>2011-05-03T08:43:58Z</time>
</trkpt>
<trkpt lat="45.22858" lon="13.58653">
<ele>46</ele>
<time>2011-05-03T08:44:01Z</time>
</trkpt>
<trkpt lat="45.22862" lon="13.58647">
<ele>46</ele>
<time>2011-05-03T08:44:04Z</time>
</trkpt>
<trkpt lat="45.22866" lon="13.5864">
<ele>46</ele>
<time>2011-05-03T08:44:07Z</time>
</trkpt>
<trkpt lat="45.2287" lon="13.58634">
<ele>46</ele>
<time>2011-05-03T08:44:10Z</time>
</trkpt>
<trkpt lat="45.22874" lon="13.58628">
<ele>45</ele>
<time>2011-05-03T08:44:13Z</time>
</trkpt>
<trkpt lat="45.22878" lon="13.58621">
<ele>45</ele>
<time>2011-05-03T08:44:16Z</time>
</trkpt>
<trkpt lat="45.22882" lon="13.58614">
<ele>45</ele>
<time>2011-05-03T08:44:19Z</time>
</trkpt>
<trkpt lat="45.22885" lon="13.58607">
<ele>45</ele>
<time>2011-05-03T08:44:22Z</time>
</trkpt>
<trkpt lat="45.22889" lon="13.586">
<ele>45</ele>
<time>2011-05-03T08:44:25Z</time>
</trkpt>
<trkpt lat="45.22893" lon="13.58594">
<ele>45</ele>
<time>2011-05-03T08:44:28Z</time>
</trkpt>
<trkpt lat="45.22896" lon="13.58587">
<ele>45</ele>
<time>2011-05-03T08:44:31Z</time>
</trkpt>
<trkpt lat="45.229" lon="13.5858">
<ele>45</ele>
<time>2011-05-03T08:44:34Z</time>
</trkpt>
<trkpt lat="45.22903" lon="13.58573">
<ele>45</ele>
<time>2011-05-03T08:44:37Z</time>
</trkpt>
<trkpt lat="45.22907" lon="13.58566">
<ele>45</ele>
<time>2011-05-03T08:44:40Z</time>
</trkpt>
<trkpt lat="45.2291" lon="13.58559">
<ele>45</ele>
<time>2011-05-03T08:44:43Z</time>
</trkpt>
<trkpt lat="45.22913" lon="13.58552">
<ele>45</ele>
<time>2011-05-03T08:44:46Z</time>
</trkpt>
<trkpt lat="45.22916" lon="13.58545">
<ele>45</ele>
<time>2011-05-03T08:44:49Z</time>
</trkpt>
<trkpt lat="45.22918" lon="13.58538">
<ele>45</ele>
<time>2011-05-03T08:44:52Z</time>
</trkpt>
<trkpt lat="45.22921" lon="13.5853">
<ele>45</ele>
<time>2011-05-03T08:44:55Z</time>
</trkpt>
<trkpt lat="45.22924" lon="13.58523">
<ele>45</ele>
<time>2011-05-03T08:44:58Z</time>
</trkpt>
<trkpt lat="45.22927" lon="13.58516">
<ele>45</ele>
<time>2011-05-03T08:45:01Z</time>
</trkpt>
<trkpt lat="45.22929" lon="13.58509">
<ele>45</ele>
<time>2011-05-03T08:45:04Z</time>
</trkpt>
<trkpt lat="45.22931" lon="13.58502">
<ele>45</ele>
<time>2011-05-03T08:45:07Z</time>
</trkpt>
<trkpt lat="45.22934" lon="13.58494">
<ele>45</ele>
<time>2011-05-03T08:45:10Z</time>
</trkpt>
<trkpt lat="45.22936" lon="13.58487">
<ele>45</ele>
<time>2011-05-03T08:45:13Z</time>
</trkpt>
<trkpt lat="45.22938" lon="13.58479">
<ele>46</ele>
<time>2011-05-03T08:45:16Z</time>
</trkpt>
<trkpt lat="45.2294" lon="13.58472">
<ele>46</ele>
<time>2011-05-03T08:45:19Z</time>
</trkpt>
<trkpt lat="45.22942" lon="13.58464">
<ele>46</ele>
<time>2011-05-03T08:45:22Z</time>
</trkpt>
<trkpt lat="45.22944" lon="13.58456">
<ele>46</ele>
<time>2011-05-03T08:45:25Z</time>
</trkpt>
<trkpt lat="45.22946" lon="13.58448">
<ele>46</ele>
<time>2011-05-03T08:45:28Z</time>
</trkpt>
<trkpt lat="45.22948" lon="13.58441">
<ele>46</ele>
<time>2011-05-03T08:45:31Z</time>
</trkpt>
<trkpt lat="45.22949" lon="13.58433">
<ele>46</ele>
<time>2011-05-03T08:45:34Z</time>
</trkpt>
<trkpt lat="45.22951" lon="13.58425">
<ele>46</ele>
<time>2011-05-03T08:45:37Z</time>
</trkpt>
<trkpt lat="45.22953" lon="13.58418">
<ele>46</ele>
<time>2011-05-03T08:45:40Z</time>
</trkpt>
<trkpt lat="45.22955" lon="13.5841">
<ele>46</ele>
<time>2011-05-03T08:45:43Z</time>
</trkpt>
<trkpt lat="45.22956" lon="13.58403">
<ele>46</ele>
<time>2011-05-03T08:45:46Z</time>
</trkpt>
<trkpt lat="45.22957" lon="13.58395">
<ele>46</ele>
<time>2011-05-03T08:45:49Z</time>
</trkpt>
<trkpt lat="45.22958" lon="13.58387">
<ele>46</ele>
<time>2011-05-03T08:45:52Z</time>
</trkpt>
<trkpt lat="45.22959" lon="13.58379">
<ele>46</ele>
<time>2011-05-03T08:45:55Z</time>
</trkpt>
<trkpt lat="45.22959" lon="13.58371">
<ele>46</ele>
<time>2011-05-03T08:45:58Z</time>
</trkpt>
<trkpt lat="45.2296" lon="13.58363">
<ele>46</ele>
<time>2011-05-03T08:46:01Z</time>
</trkpt>
<trkpt lat="45.2296" lon="13.58355">
<ele>46</ele>
<time>2011-05-03T08:46:04Z</time>
</trkpt>
<trkpt lat="45.22961" lon="13.58347">
<ele>46</ele>
<time>2011-05-03T08:46:07Z</time>
</trkpt>
<trkpt lat="45.22961" lon="13.58339">
<ele>46</ele>
<time>2011-05-03T08:46:10Z</time>
</trkpt>
<trkpt lat="45.22961" lon="13.58331">
<ele>46</ele>
<time>2011-05-03T08:46:13Z</time>
</trkpt>
<trkpt lat="45.22961" lon="13.58324">
<ele>46</ele>
<time>2011-05-03T08:46:16Z</time>
</trkpt>
<trkpt lat="45.22961" lon="13.58316">
<ele>46</ele>
<time>2011-05-03T08:46:19Z</time>
</trkpt>
<trkpt lat="45.22961" lon="13.58309">
<ele>47</ele>
<time>2011-05-03T08:46:22Z</time>
</trkpt>
<trkpt lat="45.22961" lon="13.58302">
<ele>47</ele>
<time>2011-05-03T08:46:25Z</time>
</trkpt>
<trkpt lat="45.2296" lon="13.58294">
<ele>47</ele>
<time>2011-05-03T08:46:28Z</time>
</trkpt>
<trkpt lat="45.22959" lon="13.58287">
<ele>47</ele>
<time>2011-05-03T08:46:31Z</time>
</trkpt>
<trkpt lat="45.22958" lon="13.5828">
<ele>47</ele>
<time>2011-05-03T08:46:34Z</time>
</trkpt>
<trkpt lat="45.22958" lon="13.58272">
<ele>47</ele>
<time>2011-05-03T08:46:37Z</time>
</trkpt>
<trkpt lat="45.22957" lon="13.58265">
<ele>47</ele>
<time>2011-05-03T08:46:40Z</time>
</trkpt>
<trkpt lat="45.22956" lon="13.58258">
<ele>47</ele>
<time>2011-05-03T08:46:43Z</time>
</trkpt>
<trkpt lat="45.22955" lon="13.58251">
<ele>47</ele>
<time>2011-05-03T08:46:46Z</time>
</trkpt>
<trkpt lat="45.22954" lon="13.58244">
<ele>47</ele>
<time>2011-05-03T08:46:49Z</time>
</trkpt>
<trkpt lat="45.22953" lon="13.58237">
<ele>47</ele>
<time>2011-05-03T08:46:52Z</time>
</trkpt>
<trkpt lat="45.22952" lon="13.5823">
<ele>47</ele>
<time>2011-05-03T08:46:55Z</time>
</trkpt>
<trkpt lat="45.22952" lon="13.58224">
<ele>47</ele>
<time>2011-05-03T08:46:58Z</time>
</trkpt>
<trkpt lat="45.2295" lon="13.58217">
<ele>47</ele>
<time>2011-05-03T08:47:01Z</time>
</trkpt>
<trkpt lat="45.22949" lon="13.5821">
<ele>47</ele>
<time>2011-05-03T08:47:04Z</time>
</trkpt>
<trkpt lat="45.22948" lon="13.58204">
<ele>47</ele>
<time>2011-05-03T08:47:07Z</time>
</trkpt>
<trkpt lat="45.22946" lon="13.58198">
<ele>47</ele>
<time>2011-05-03T08:47:10Z</time>
</trkpt>
<trkpt lat="45.22945" lon="13.58192">
<ele>47</ele>
<time>2011-05-03T08:47:13Z</time>
</trkpt>
<trkpt lat="45.22943" lon="13.58185">
<ele>47</ele>
<time>2011-05-03T08:47:16Z</time>
</trkpt>
<trkpt lat="45.22941" lon="13.58179">
<ele>47</ele>
<time>2011-05-03T08:47:19Z</time>
</trkpt>
<trkpt lat="45.2294" lon="13.58172">
<ele>47</ele>
<time>2011-05-03T08:47:22Z</time>
</trkpt>
<trkpt lat="45.22938" lon="13.58166">
<ele>47</ele>
<time>2011-05-03T08:47:25Z</time>
</trkpt>
<trkpt lat="45.22936" lon="13.5816">
<ele>47</ele>
<time>2011-05-03T08:47:28Z</time>
</trkpt>
<trkpt lat="45.22935" lon="13.58153">
<ele>47</ele>
<time>2011-05-03T08:47:31Z</time>
</trkpt>
<trkpt lat="45.22933" lon="13.58147">
<ele>47</ele>
<time>2011-05-03T08:47:34Z</time>
</trkpt>
<trkpt lat="45.22931" lon="13.58141">
<ele>47</ele>
<time>2011-05-03T08:47:37Z</time>
</trkpt>
<trkpt lat="45.2293" lon="13.58134">
<ele>46</ele>
<time>2011-05-03T08:47:40Z</time>
</trkpt>
<trkpt lat="45.22928" lon="13.58128">
<ele>46</ele>
<time>2011-05-03T08:47:43Z</time>
</trkpt>
<trkpt lat="45.22926" lon="13.58122">
<ele>46</ele>
<time>2011-05-03T08:47:46Z</time>
</trkpt>
<trkpt lat="45.22923" lon="13.58116">
<ele>46</ele>
<time>2011-05-03T08:47:49Z</time>
</trkpt>
<trkpt lat="45.22921" lon="13.5811">
<ele>46</ele>
<time>2011-05-03T08:47:52Z</time>
</trkpt>
<trkpt lat="45.22918" lon="13.58103">
<ele>46</ele>
<time>2011-05-03T08:47:56Z</time>
</trkpt>
<trkpt lat="45.22914" lon="13.58097">
<ele>46</ele>
<time>2011-05-03T08:48:00Z</time>
</trkpt>
<trkpt lat="45.22911" lon="13.5809">
<ele>46</ele>
<time>2011-05-03T08:48:04Z</time>
</trkpt>
<trkpt lat="45.22907" lon="13.58086">
<ele>46</ele>
<time>2011-05-03T08:48:07Z</time>
</trkpt>
<trkpt lat="45.22903" lon="13.58082">
<ele>46</ele>
<time>2011-05-03T08:48:10Z</time>
</trkpt>
<trkpt lat="45.22898" lon="13.58078">
<ele>46</ele>
<time>2011-05-03T08:48:14Z</time>
</trkpt>
<trkpt lat="45.22893" lon="13.58073">
<ele>46</ele>
<time>2011-05-03T08:48:18Z</time>
</trkpt>
<trkpt lat="45.22888" lon="13.58069">
<ele>46</ele>
<time>2011-05-03T08:48:22Z</time>
</trkpt>
<trkpt lat="45.22884" lon="13.58066">
<ele>46</ele>
<time>2011-05-03T08:48:25Z</time>
</trkpt>
<trkpt lat="45.2288" lon="13.58063">
<ele>46</ele>
<time>2011-05-03T08:48:28Z</time>
</trkpt>
<trkpt lat="45.22876" lon="13.5806">
<ele>46</ele>
<time>2011-05-03T08:48:31Z</time>
</trkpt>
<trkpt lat="45.22871" lon="13.58058">
<ele>46</ele>
<time>2011-05-03T08:48:34Z</time>
</trkpt>
<trkpt lat="45.22867" lon="13.58055">
<ele>46</ele>
<time>2011-05-03T08:48:37Z</time>
</trkpt>
<trkpt lat="45.22862" lon="13.58052">
<ele>46</ele>
<time>2011-05-03T08:48:40Z</time>
</trkpt>
<trkpt lat="45.22858" lon="13.58049">
<ele>46</ele>
<time>2011-05-03T08:48:43Z</time>
</trkpt>
<trkpt lat="45.22853" lon="13.58046">
<ele>46</ele>
<time>2011-05-03T08:48:47Z</time>
</trkpt>
<trkpt lat="45.22847" lon="13.58042">
<ele>46</ele>
<time>2011-05-03T08:48:51Z</time>
</trkpt>
<trkpt lat="45.22842" lon="13.58039">
<ele>46</ele>
<time>2011-05-03T08:48:55Z</time>
</trkpt>
<trkpt lat="45.22838" lon="13.58036">
<ele>46</ele>
<time>2011-05-03T08:48:59Z</time>
</trkpt>
<trkpt lat="45.22833" lon="13.58032">
<ele>46</ele>
<time>2011-05-03T08:49:03Z</time>
</trkpt>
<trkpt lat="45.22828" lon="13.58028">
<ele>46</ele>
<time>2011-05-03T08:49:07Z</time>
</trkpt>
<trkpt lat="45.22824" lon="13.58023">
<ele>47</ele>
<time>2011-05-03T08:49:11Z</time>
</trkpt>
<trkpt lat="45.22819" lon="13.58018">
<ele>47</ele>
<time>2011-05-03T08:49:15Z</time>
</trkpt>
<trkpt lat="45.22815" lon="13.58013">
<ele>47</ele>
<time>2011-05-03T08:49:19Z</time>
</trkpt>
<trkpt lat="45.22811" lon="13.58008">
<ele>47</ele>
<time>2011-05-03T08:49:23Z</time>
</trkpt>
<trkpt lat="45.22807" lon="13.58002">
<ele>47</ele>
<time>2011-05-03T08:49:27Z</time>
</trkpt>
<trkpt lat="45.22803" lon="13.57997">
<ele>47</ele>
<time>2011-05-03T08:49:31Z</time>
</trkpt>
<trkpt lat="45.228" lon="13.57992">
<ele>47</ele>
<time>2011-05-03T08:49:35Z</time>
</trkpt>
<trkpt lat="45.22795" lon="13.57988">
<ele>47</ele>
<time>2011-05-03T08:49:39Z</time>
</trkpt>
<trkpt lat="45.22791" lon="13.57983">
<ele>47</ele>
<time>2011-05-03T08:49:43Z</time>
</trkpt>
<trkpt lat="45.22786" lon="13.57978">
<ele>47</ele>
<time>2011-05-03T08:49:47Z</time>
</trkpt>
<trkpt lat="45.22782" lon="13.57974">
<ele>47</ele>
<time>2011-05-03T08:49:51Z</time>
</trkpt>
<trkpt lat="45.22777" lon="13.5797">
<ele>47</ele>
<time>2011-05-03T08:49:55Z</time>
</trkpt>
<trkpt lat="45.22772" lon="13.57966">
<ele>47</ele>
<time>2011-05-03T08:49:59Z</time>
</trkpt>
<trkpt lat="45.22767" lon="13.57962">
<ele>47</ele>
<time>2011-05-03T08:50:03Z</time>
</trkpt>
<trkpt lat="45.22763" lon="13.57959">
<ele>47</ele>
<time>2011-05-03T08:50:06Z</time>
</trkpt>
<trkpt lat="45.22758" lon="13.57956">
<ele>47</ele>
<time>2011-05-03T08:50:09Z</time>
</trkpt>
<trkpt lat="45.22753" lon="13.57954">
<ele>47</ele>
<time>2011-05-03T08:50:13Z</time>
</trkpt>
<trkpt lat="45.22748" lon="13.57952">
<ele>47</ele>
<time>2011-05-03T08:50:16Z</time>
</trkpt>
<trkpt lat="45.22743" lon="13.5795">
<ele>47</ele>
<time>2011-05-03T08:50:19Z</time>
</trkpt>
<trkpt lat="45.22738" lon="13.57948">
<ele>47</ele>
<time>2011-05-03T08:50:22Z</time>
</trkpt>
<trkpt lat="45.22733" lon="13.57945">
<ele>47</ele>
<time>2011-05-03T08:50:25Z</time>
</trkpt>
<trkpt lat="45.22726" lon="13.57942">
<ele>47</ele>
<time>2011-05-03T08:50:28Z</time>
</trkpt>
<trkpt lat="45.22722" lon="13.5794">
<ele>47</ele>
<time>2011-05-03T08:50:30Z</time>
</trkpt>
<trkpt lat="45.22715" lon="13.57937">
<ele>47</ele>
<time>2011-05-03T08:50:33Z</time>
</trkpt>
<trkpt lat="45.22711" lon="13.57934">
<ele>47</ele>
<time>2011-05-03T08:50:35Z</time>
</trkpt>
<trkpt lat="45.22707" lon="13.57932">
<ele>47</ele>
<time>2011-05-03T08:50:37Z</time>
</trkpt>
<trkpt lat="45.22702" lon="13.5793">
<ele>47</ele>
<time>2011-05-03T08:50:39Z</time>
</trkpt>
<trkpt lat="45.22696" lon="13.57928">
<ele>47</ele>
<time>2011-05-03T08:50:42Z</time>
</trkpt>
<trkpt lat="45.22692" lon="13.57926">
<ele>47</ele>
<time>2011-05-03T08:50:44Z</time>
</trkpt>
<trkpt lat="45.22687" lon="13.57924">
<ele>47</ele>
<time>2011-05-03T08:50:46Z</time>
</trkpt>
<trkpt lat="45.22682" lon="13.57923">
<ele>47</ele>
<time>2011-05-03T08:50:48Z</time>
</trkpt>
<trkpt lat="45.22678" lon="13.57921">
<ele>47</ele>
<time>2011-05-03T08:50:50Z</time>
</trkpt>
<trkpt lat="45.22673" lon="13.57919">
<ele>47</ele>
<time>2011-05-03T08:50:52Z</time>
</trkpt>
<trkpt lat="45.22668" lon="13.57916">
<ele>47</ele>
<time>2011-05-03T08:50:54Z</time>
</trkpt>
<trkpt lat="45.22663" lon="13.57914">
<ele>46</ele>
<time>2011-05-03T08:50:56Z</time>
</trkpt>
<trkpt lat="45.22658" lon="13.57912">
<ele>46</ele>
<time>2011-05-03T08:50:58Z</time>
</trkpt>
<trkpt lat="45.22654" lon="13.57909">
<ele>46</ele>
<time>2011-05-03T08:51:00Z</time>
</trkpt>
<trkpt lat="45.22649" lon="13.57906">
<ele>46</ele>
<time>2011-05-03T08:51:02Z</time>
</trkpt>
<trkpt lat="45.22644" lon="13.57904">
<ele>46</ele>
<time>2011-05-03T08:51:04Z</time>
</trkpt>
<trkpt lat="45.2264" lon="13.57902">
<ele>46</ele>
<time>2011-05-03T08:51:06Z</time>
</trkpt>
<trkpt lat="45.22635" lon="13.579">
<ele>46</ele>
<time>2011-05-03T08:51:08Z</time>
</trkpt>
<trkpt lat="45.2263" lon="13.57897">
<ele>46</ele>
<time>2011-05-03T08:51:10Z</time>
</trkpt>
<trkpt lat="45.22626" lon="13.57894">
<ele>46</ele>
<time>2011-05-03T08:51:12Z</time>
</trkpt>
<trkpt lat="45.22621" lon="13.57892">
<ele>46</ele>
<time>2011-05-03T08:51:14Z</time>
</trkpt>
<trkpt lat="45.22616" lon="13.57889">
<ele>46</ele>
<time>2011-05-03T08:51:16Z</time>
</trkpt>
<trkpt lat="45.22611" lon="13.57886">
<ele>46</ele>
<time>2011-05-03T08:51:18Z</time>
</trkpt>
<trkpt lat="45.22606" lon="13.57883">
<ele>46</ele>
<time>2011-05-03T08:51:20Z</time>
</trkpt>
<trkpt lat="45.22602" lon="13.57881">
<ele>46</ele>
<time>2011-05-03T08:51:22Z</time>
</trkpt>
<trkpt lat="45.22597" lon="13.57879">
<ele>46</ele>
<time>2011-05-03T08:51:24Z</time>
</trkpt>
<trkpt lat="45.22592" lon="13.57876">
<ele>46</ele>
<time>2011-05-03T08:51:26Z</time>
</trkpt>
<trkpt lat="45.22588" lon="13.57874">
<ele>46</ele>
<time>2011-05-03T08:51:28Z</time>
</trkpt>
<trkpt lat="45.22583" lon="13.57872">
<ele>46</ele>
<time>2011-05-03T08:51:30Z</time>
</trkpt>
<trkpt lat="45.22578" lon="13.57871">
<ele>46</ele>
<time>2011-05-03T08:51:32Z</time>
</trkpt>
<trkpt lat="45.22573" lon="13.57869">
<ele>46</ele>
<time>2011-05-03T08:51:34Z</time>
</trkpt>
<trkpt lat="45.22568" lon="13.57867">
<ele>46</ele>
<time>2011-05-03T08:51:36Z</time>
</trkpt>
<trkpt lat="45.22564" lon="13.57865">
<ele>46</ele>
<time>2011-05-03T08:51:38Z</time>
</trkpt>
<trkpt lat="45.22559" lon="13.57863">
<ele>46</ele>
<time>2011-05-03T08:51:40Z</time>
</trkpt>
<trkpt lat="45.22554" lon="13.5786">
<ele>46</ele>
<time>2011-05-03T08:51:42Z</time>
</trkpt>
<trkpt lat="45.22549" lon="13.57858">
<ele>46</ele>
<time>2011-05-03T08:51:44Z</time>
</trkpt>
<trkpt lat="45.22545" lon="13.57855">
<ele>46</ele>
<time>2011-05-03T08:51:46Z</time>
</trkpt>
<trkpt lat="45.2254" lon="13.57852">
<ele>46</ele>
<time>2011-05-03T08:51:48Z</time>
</trkpt>
<trkpt lat="45.22535" lon="13.5785">
<ele>46</ele>
<time>2011-05-03T08:51:50Z</time>
</trkpt>
<trkpt lat="45.2253" lon="13.57847">
<ele>46</ele>
<time>2011-05-03T08:51:52Z</time>
</trkpt>
<trkpt lat="45.22526" lon="13.57844">
<ele>46</ele>
<time>2011-05-03T08:51:54Z</time>
</trkpt>
<trkpt lat="45.22521" lon="13.57842">
<ele>46</ele>
<time>2011-05-03T08:51:56Z</time>
</trkpt>
<trkpt lat="45.22516" lon="13.57839">
<ele>46</ele>
<time>2011-05-03T08:51:58Z</time>
</trkpt>
<trkpt lat="45.22512" lon="13.57836">
<ele>46</ele>
<time>2011-05-03T08:52:00Z</time>
</trkpt>
<trkpt lat="45.22507" lon="13.57834">
<ele>46</ele>
<time>2011-05-03T08:52:02Z</time>
</trkpt>
<trkpt lat="45.22502" lon="13.57832">
<ele>46</ele>
<time>2011-05-03T08:52:04Z</time>
</trkpt>
<trkpt lat="45.22497" lon="13.57829">
<ele>46</ele>
<time>2011-05-03T08:52:06Z</time>
</trkpt>
<trkpt lat="45.22493" lon="13.57827">
<ele>46</ele>
<time>2011-05-03T08:52:08Z</time>
</trkpt>
<trkpt lat="45.22488" lon="13.57824">
<ele>46</ele>
<time>2011-05-03T08:52:10Z</time>
</trkpt>
<trkpt lat="45.22483" lon="13.57822">
<ele>46</ele>
<time>2011-05-03T08:52:12Z</time>
</trkpt>
<trkpt lat="45.22478" lon="13.5782">
<ele>46</ele>
<time>2011-05-03T08:52:14Z</time>
</trkpt>
<trkpt lat="45.22474" lon="13.57817">
<ele>46</ele>
<time>2011-05-03T08:52:16Z</time>
</trkpt>
<trkpt lat="45.22469" lon="13.57815">
<ele>46</ele>
<time>2011-05-03T08:52:18Z</time>
</trkpt>
<trkpt lat="45.22464" lon="13.57813">
<ele>46</ele>
<time>2011-05-03T08:52:20Z</time>
</trkpt>
<trkpt lat="45.22459" lon="13.57811">
<ele>46</ele>
<time>2011-05-03T08:52:22Z</time>
</trkpt>
<trkpt lat="45.22454" lon="13.57809">
<ele>46</ele>
<time>2011-05-03T08:52:24Z</time>
</trkpt>
<trkpt lat="45.22449" lon="13.57806">
<ele>46</ele>
<time>2011-05-03T08:52:26Z</time>
</trkpt>
<trkpt lat="45.22444" lon="13.57804">
<ele>46</ele>
<time>2011-05-03T08:52:28Z</time>
</trkpt>
<trkpt lat="45.2244" lon="13.57802">
<ele>46</ele>
<time>2011-05-03T08:52:30Z</time>
</trkpt>
<trkpt lat="45.22435" lon="13.578">
<ele>46</ele>
<time>2011-05-03T08:52:32Z</time>
</trkpt>
<trkpt lat="45.2243" lon="13.57798">
<ele>46</ele>
<time>2011-05-03T08:52:34Z</time>
</trkpt>
<trkpt lat="45.22426" lon="13.57795">
<ele>46</ele>
<time>2011-05-03T08:52:36Z</time>
</trkpt>
<trkpt lat="45.22421" lon="13.57793">
<ele>46</ele>
<time>2011-05-03T08:52:38Z</time>
</trkpt>
<trkpt lat="45.22416" lon="13.57791">
<ele>46</ele>
<time>2011-05-03T08:52:40Z</time>
</trkpt>
<trkpt lat="45.22412" lon="13.57788">
<ele>46</ele>
<time>2011-05-03T08:52:42Z</time>
</trkpt>
<trkpt lat="45.22407" lon="13.57785">
<ele>46</ele>
<time>2011-05-03T08:52:44Z</time>
</trkpt>
<trkpt lat="45.22402" lon="13.57783">
<ele>46</ele>
<time>2011-05-03T08:52:46Z</time>
</trkpt>
<trkpt lat="45.22398" lon="13.5778">
<ele>46</ele>
<time>2011-05-03T08:52:48Z</time>
</trkpt>
<trkpt lat="45.22393" lon="13.57778">
<ele>46</ele>
<time>2011-05-03T08:52:50Z</time>
</trkpt>
<trkpt lat="45.22388" lon="13.57776">
<ele>46</ele>
<time>2011-05-03T08:52:52Z</time>
</trkpt>
<trkpt lat="45.22383" lon="13.57773">
<ele>46</ele>
<time>2011-05-03T08:52:54Z</time>
</trkpt>
<trkpt lat="45.22378" lon="13.57771">
<ele>46</ele>
<time>2011-05-03T08:52:56Z</time>
</trkpt>
<trkpt lat="45.22373" lon="13.57769">
<ele>46</ele>
<time>2011-05-03T08:52:58Z</time>
</trkpt>
<trkpt lat="45.22368" lon="13.57766">
<ele>46</ele>
<time>2011-05-03T08:53:00Z</time>
</trkpt>
<trkpt lat="45.22363" lon="13.57764">
<ele>46</ele>
<time>2011-05-03T08:53:02Z</time>
</trkpt>
<trkpt lat="45.22358" lon="13.57762">
<ele>46</ele>
<time>2011-05-03T08:53:04Z</time>
</trkpt>
<trkpt lat="45.22353" lon="13.5776">
<ele>46</ele>
<time>2011-05-03T08:53:06Z</time>
</trkpt>
<trkpt lat="45.22348" lon="13.57758">
<ele>46</ele>
<time>2011-05-03T08:53:08Z</time>
</trkpt>
<trkpt lat="45.22343" lon="13.57756">
<ele>46</ele>
<time>2011-05-03T08:53:10Z</time>
</trkpt>
<trkpt lat="45.22338" lon="13.57754">
<ele>46</ele>
<time>2011-05-03T08:53:12Z</time>
</trkpt>
<trkpt lat="45.22333" lon="13.57751">
<ele>46</ele>
<time>2011-05-03T08:53:14Z</time>
</trkpt>
<trkpt lat="45.22328" lon="13.57749">
<ele>46</ele>
<time>2011-05-03T08:53:16Z</time>
</trkpt>
<trkpt lat="45.22323" lon="13.57747">
<ele>46</ele>
<time>2011-05-03T08:53:18Z</time>
</trkpt>
<trkpt lat="45.22318" lon="13.57745">
<ele>46</ele>
<time>2011-05-03T08:53:20Z</time>
</trkpt>
<trkpt lat="45.22314" lon="13.57743">
<ele>46</ele>
<time>2011-05-03T08:53:22Z</time>
</trkpt>
<trkpt lat="45.22309" lon="13.5774">
<ele>46</ele>
<time>2011-05-03T08:53:24Z</time>
</trkpt>
<trkpt lat="45.22304" lon="13.57738">
<ele>46</ele>
<time>2011-05-03T08:53:26Z</time>
</trkpt>
<trkpt lat="45.22299" lon="13.57736">
<ele>46</ele>
<time>2011-05-03T08:53:28Z</time>
</trkpt>
<trkpt lat="45.22294" lon="13.57733">
<ele>46</ele>
<time>2011-05-03T08:53:30Z</time>
</trkpt>
<trkpt lat="45.2229" lon="13.57731">
<ele>46</ele>
<time>2011-05-03T08:53:32Z</time>
</trkpt>
<trkpt lat="45.22285" lon="13.57728">
<ele>46</ele>
<time>2011-05-03T08:53:34Z</time>
</trkpt>
<trkpt lat="45.2228" lon="13.57726">
<ele>46</ele>
<time>2011-05-03T08:53:36Z</time>
</trkpt>
<trkpt lat="45.22275" lon="13.57724">
<ele>46</ele>
<time>2011-05-03T08:53:38Z</time>
</trkpt>
<trkpt lat="45.2227" lon="13.57721">
<ele>46</ele>
<time>2011-05-03T08:53:40Z</time>
</trkpt>
<trkpt lat="45.22266" lon="13.57719">
<ele>46</ele>
<time>2011-05-03T08:53:42Z</time>
</trkpt>
<trkpt lat="45.22261" lon="13.57717">
<ele>46</ele>
<time>2011-05-03T08:53:44Z</time>
</trkpt>
<trkpt lat="45.22256" lon="13.57715">
<ele>46</ele>
<time>2011-05-03T08:53:46Z</time>
</trkpt>
<trkpt lat="45.22252" lon="13.57712">
<ele>46</ele>
<time>2011-05-03T08:53:48Z</time>
</trkpt>
<trkpt lat="45.22247" lon="13.5771">
<ele>47</ele>
<time>2011-05-03T08:53:50Z</time>
</trkpt>
<trkpt lat="45.22242" lon="13.57707">
<ele>47</ele>
<time>2011-05-03T08:53:52Z</time>
</trkpt>
<trkpt lat="45.22238" lon="13.57705">
<ele>47</ele>
<time>2011-05-03T08:53:54Z</time>
</trkpt>
<trkpt lat="45.22233" lon="13.57703">
<ele>47</ele>
<time>2011-05-03T08:53:56Z</time>
</trkpt>
<trkpt lat="45.22228" lon="13.577">
<ele>47</ele>
<time>2011-05-03T08:53:58Z</time>
</trkpt>
<trkpt lat="45.22223" lon="13.57698">
<ele>47</ele>
<time>2011-05-03T08:54:00Z</time>
</trkpt>
<trkpt lat="45.22218" lon="13.57696">
<ele>47</ele>
<time>2011-05-03T08:54:02Z</time>
</trkpt>
<trkpt lat="45.22214" lon="13.57694">
<ele>47</ele>
<time>2011-05-03T08:54:04Z</time>
</trkpt>
<trkpt lat="45.22209" lon="13.57691">
<ele>47</ele>
<time>2011-05-03T08:54:06Z</time>
</trkpt>
<trkpt lat="45.22204" lon="13.57689">
<ele>47</ele>
<time>2011-05-03T08:54:08Z</time>
</trkpt>
<trkpt lat="45.22199" lon="13.57687">
<ele>47</ele>
<time>2011-05-03T08:54:10Z</time>
</trkpt>
<trkpt lat="45.22195" lon="13.57684">
<ele>47</ele>
<time>2011-05-03T08:54:12Z</time>
</trkpt>
<trkpt lat="45.2219" lon="13.57682">
<ele>47</ele>
<time>2011-05-03T08:54:14Z</time>
</trkpt>
<trkpt lat="45.22185" lon="13.5768">
<ele>47</ele>
<time>2011-05-03T08:54:16Z</time>
</trkpt>
<trkpt lat="45.2218" lon="13.57677">
<ele>47</ele>
<time>2011-05-03T08:54:18Z</time>
</trkpt>
<trkpt lat="45.22175" lon="13.57675">
<ele>47</ele>
<time>2011-05-03T08:54:20Z</time>
</trkpt>
<trkpt lat="45.2217" lon="13.57673">
<ele>47</ele>
<time>2011-05-03T08:54:22Z</time>
</trkpt>
<trkpt lat="45.22166" lon="13.57671">
<ele>47</ele>
<time>2011-05-03T08:54:24Z</time>
</trkpt>
<trkpt lat="45.22161" lon="13.57669">
<ele>47</ele>
<time>2011-05-03T08:54:26Z</time>
</trkpt>
<trkpt lat="45.22156" lon="13.57667">
<ele>47</ele>
<time>2011-05-03T08:54:28Z</time>
</trkpt>
<trkpt lat="45.22152" lon="13.57665">
<ele>47</ele>
<time>2011-05-03T08:54:30Z</time>
</trkpt>
<trkpt lat="45.22147" lon="13.57663">
<ele>47</ele>
<time>2011-05-03T08:54:32Z</time>
</trkpt>
<trkpt lat="45.22142" lon="13.5766">
<ele>47</ele>
<time>2011-05-03T08:54:34Z</time>
</trkpt>
<trkpt lat="45.22138" lon="13.57658">
<ele>47</ele>
<time>2011-05-03T08:54:36Z</time>
</trkpt>
<trkpt lat="45.22133" lon="13.57656">
<ele>47</ele>
<time>2011-05-03T08:54:38Z</time>
</trkpt>
<trkpt lat="45.22128" lon="13.57654">
<ele>47</ele>
<time>2011-05-03T08:54:40Z</time>
</trkpt>
<trkpt lat="45.22124" lon="13.57651">
<ele>47</ele>
<time>2011-05-03T08:54:42Z</time>
</trkpt>
<trkpt lat="45.22119" lon="13.57649">
<ele>47</ele>
<time>2011-05-03T08:54:44Z</time>
</trkpt>
<trkpt lat="45.22114" lon="13.57647">
<ele>47</ele>
<time>2011-05-03T08:54:46Z</time>
</trkpt>
<trkpt lat="45.22109" lon="13.57645">
<ele>47</ele>
<time>2011-05-03T08:54:48Z</time>
</trkpt>
<trkpt lat="45.22105" lon="13.57643">
<ele>47</ele>
<time>2011-05-03T08:54:50Z</time>
</trkpt>
<trkpt lat="45.221" lon="13.5764">
<ele>47</ele>
<time>2011-05-03T08:54:52Z</time>
</trkpt>
<trkpt lat="45.22095" lon="13.57638">
<ele>47</ele>
<time>2011-05-03T08:54:54Z</time>
</trkpt>
<trkpt lat="45.2209" lon="13.57636">
<ele>47</ele>
<time>2011-05-03T08:54:56Z</time>
</trkpt>
<trkpt lat="45.22085" lon="13.57634">
<ele>47</ele>
<time>2011-05-03T08:54:58Z</time>
</trkpt>
<trkpt lat="45.2208" lon="13.57631">
<ele>48</ele>
<time>2011-05-03T08:55:00Z</time>
</trkpt>
<trkpt lat="45.22075" lon="13.57629">
<ele>48</ele>
<time>2011-05-03T08:55:02Z</time>
</trkpt>
<trkpt lat="45.2207" lon="13.57627">
<ele>48</ele>
<time>2011-05-03T08:55:04Z</time>
</trkpt>
<trkpt lat="45.22065" lon="13.57624">
<ele>48</ele>
<time>2011-05-03T08:55:06Z</time>
</trkpt>
<trkpt lat="45.2206" lon="13.57622">
<ele>48</ele>
<time>2011-05-03T08:55:08Z</time>
</trkpt>
<trkpt lat="45.22055" lon="13.5762">
<ele>48</ele>
<time>2011-05-03T08:55:10Z</time>
</trkpt>
<trkpt lat="45.2205" lon="13.57617">
<ele>48</ele>
<time>2011-05-03T08:55:12Z</time>
</trkpt>
<trkpt lat="45.22045" lon="13.57615">
<ele>48</ele>
<time>2011-05-03T08:55:14Z</time>
</trkpt>
<trkpt lat="45.2204" lon="13.57613">
<ele>48</ele>
<time>2011-05-03T08:55:16Z</time>
</trkpt>
<trkpt lat="45.22035" lon="13.5761">
<ele>48</ele>
<time>2011-05-03T08:55:18Z</time>
</trkpt>
<trkpt lat="45.22031" lon="13.57608">
<ele>48</ele>
<time>2011-05-03T08:55:20Z</time>
</trkpt>
<trkpt lat="45.22026" lon="13.57606">
<ele>48</ele>
<time>2011-05-03T08:55:22Z</time>
</trkpt>
<trkpt lat="45.22021" lon="13.57603">
<ele>48</ele>
<time>2011-05-03T08:55:24Z</time>
</trkpt>
<trkpt lat="45.22016" lon="13.57601">
<ele>48</ele>
<time>2011-05-03T08:55:26Z</time>
</trkpt>
<trkpt lat="45.22011" lon="13.57598">
<ele>48</ele>
<time>2011-05-03T08:55:28Z</time>
</trkpt>
<trkpt lat="45.22006" lon="13.57596">
<ele>48</ele>
<time>2011-05-03T08:55:30Z</time>
</trkpt>
<trkpt lat="45.22001" lon="13.57593">
<ele>48</ele>
<time>2011-05-03T08:55:32Z</time>
</trkpt>
<trkpt lat="45.21996" lon="13.57591">
<ele>48</ele>
<time>2011-05-03T08:55:34Z</time>
</trkpt>
<trkpt lat="45.21991" lon="13.57588">
<ele>48</ele>
<time>2011-05-03T08:55:36Z</time>
</trkpt>
<trkpt lat="45.21987" lon="13.57585">
<ele>48</ele>
<time>2011-05-03T08:55:38Z</time>
</trkpt>
<trkpt lat="45.21982" lon="13.57583">
<ele>48</ele>
<time>2011-05-03T08:55:40Z</time>
</trkpt>
<trkpt lat="45.21977" lon="13.57581">
<ele>48</ele>
<time>2011-05-03T08:55:42Z</time>
</trkpt>
<trkpt lat="45.21973" lon="13.57578">
<ele>48</ele>
<time>2011-05-03T08:55:44Z</time>
</trkpt>
<trkpt lat="45.21968" lon="13.57576">
<ele>48</ele>
<time>2011-05-03T08:55:46Z</time>
</trkpt>
<trkpt lat="45.21964" lon="13.57573">
<ele>48</ele>
<time>2011-05-03T08:55:48Z</time>
</trkpt>
<trkpt lat="45.21959" lon="13.57571">
<ele>48</ele>
<time>2011-05-03T08:55:50Z</time>
</trkpt>
<trkpt lat="45.21955" lon="13.57568">
<ele>48</ele>
<time>2011-05-03T08:55:52Z</time>
</trkpt>
<trkpt lat="45.2195" lon="13.57566">
<ele>48</ele>
<time>2011-05-03T08:55:54Z</time>
</trkpt>
<trkpt lat="45.21946" lon="13.57563">
<ele>48</ele>
<time>2011-05-03T08:55:56Z</time>
</trkpt>
<trkpt lat="45.21941" lon="13.5756">
<ele>48</ele>
<time>2011-05-03T08:55:58Z</time>
</trkpt>
<trkpt lat="45.21937" lon="13.57558">
<ele>48</ele>
<time>2011-05-03T08:56:00Z</time>
</trkpt>
<trkpt lat="45.21932" lon="13.57555">
<ele>48</ele>
<time>2011-05-03T08:56:02Z</time>
</trkpt>
<trkpt lat="45.21927" lon="13.57552">
<ele>48</ele>
<time>2011-05-03T08:56:04Z</time>
</trkpt>
<trkpt lat="45.21923" lon="13.5755">
<ele>48</ele>
<time>2011-05-03T08:56:06Z</time>
</trkpt>
<trkpt lat="45.21918" lon="13.57548">
<ele>48</ele>
<time>2011-05-03T08:56:08Z</time>
</trkpt>
<trkpt lat="45.21913" lon="13.57545">
<ele>48</ele>
<time>2011-05-03T08:56:10Z</time>
</trkpt>
<trkpt lat="45.21909" lon="13.57543">
<ele>48</ele>
<time>2011-05-03T08:56:12Z</time>
</trkpt>
<trkpt lat="45.21904" lon="13.57541">
<ele>48</ele>
<time>2011-05-03T08:56:14Z</time>
</trkpt>
<trkpt lat="45.21899" lon="13.57539">
<ele>48</ele>
<time>2011-05-03T08:56:16Z</time>
</trkpt>
<trkpt lat="45.21895" lon="13.57537">
<ele>48</ele>
<time>2011-05-03T08:56:18Z</time>
</trkpt>
<trkpt lat="45.2189" lon="13.57535">
<ele>48</ele>
<time>2011-05-03T08:56:20Z</time>
</trkpt>
<trkpt lat="45.21885" lon="13.57533">
<ele>48</ele>
<time>2011-05-03T08:56:22Z</time>
</trkpt>
<trkpt lat="45.21881" lon="13.5753">
<ele>48</ele>
<time>2011-05-03T08:56:24Z</time>
</trkpt>
<trkpt lat="45.21876" lon="13.57528">
<ele>48</ele>
<time>2011-05-03T08:56:26Z</time>
</trkpt>
<trkpt lat="45.21872" lon="13.57525">
<ele>48</ele>
<time>2011-05-03T08:56:28Z</time>
</trkpt>
<trkpt lat="45.21867" lon="13.57523">
<ele>48</ele>
<time>2011-05-03T08:56:30Z</time>
</trkpt>
<trkpt lat="45.21862" lon="13.57521">
<ele>48</ele>
<time>2011-05-03T08:56:32Z</time>
</trkpt>
<trkpt lat="45.21858" lon="13.57518">
<ele>48</ele>
<time>2011-05-03T08:56:34Z</time>
</trkpt>
<trkpt lat="45.21853" lon="13.57516">
<ele>48</ele>
<time>2011-05-03T08:56:36Z</time>
</trkpt>
<trkpt lat="45.21848" lon="13.57514">
<ele>48</ele>
<time>2011-05-03T08:56:38Z</time>
</trkpt>
<trkpt lat="45.21844" lon="13.57512">
<ele>48</ele>
<time>2011-05-03T08:56:40Z</time>
</trkpt>
<trkpt lat="45.21839" lon="13.5751">
<ele>48</ele>
<time>2011-05-03T08:56:42Z</time>
</trkpt>
<trkpt lat="45.21834" lon="13.57507">
<ele>48</ele>
<time>2011-05-03T08:56:44Z</time>
</trkpt>
<trkpt lat="45.2183" lon="13.57505">
<ele>48</ele>
<time>2011-05-03T08:56:46Z</time>
</trkpt>
<trkpt lat="45.21825" lon="13.57502">
<ele>48</ele>
<time>2011-05-03T08:56:48Z</time>
</trkpt>
<trkpt lat="45.21821" lon="13.575">
<ele>48</ele>
<time>2011-05-03T08:56:50Z</time>
</trkpt>
<trkpt lat="45.21816" lon="13.57498">
<ele>48</ele>
<time>2011-05-03T08:56:52Z</time>
</trkpt>
<trkpt lat="45.21812" lon="13.57495">
<ele>48</ele>
<time>2011-05-03T08:56:54Z</time>
</trkpt>
<trkpt lat="45.21807" lon="13.57493">
<ele>48</ele>
<time>2011-05-03T08:56:56Z</time>
</trkpt>
<trkpt lat="45.21803" lon="13.5749">
<ele>48</ele>
<time>2011-05-03T08:56:58Z</time>
</trkpt>
<trkpt lat="45.21798" lon="13.57488">
<ele>48</ele>
<time>2011-05-03T08:57:00Z</time>
</trkpt>
<trkpt lat="45.21793" lon="13.57485">
<ele>47</ele>
<time>2011-05-03T08:57:02Z</time>
</trkpt>
<trkpt lat="45.21788" lon="13.57483">
<ele>47</ele>
<time>2011-05-03T08:57:04Z</time>
</trkpt>
<trkpt lat="45.21784" lon="13.57481">
<ele>47</ele>
<time>2011-05-03T08:57:06Z</time>
</trkpt>
<trkpt lat="45.21779" lon="13.57478">
<ele>47</ele>
<time>2011-05-03T08:57:08Z</time>
</trkpt>
<trkpt lat="45.21774" lon="13.57476">
<ele>47</ele>
<time>2011-05-03T08:57:10Z</time>
</trkpt>
<trkpt lat="45.21769" lon="13.57474">
<ele>47</ele>
<time>2011-05-03T08:57:12Z</time>
</trkpt>
<trkpt lat="45.21764" lon="13.57472">
<ele>47</ele>
<time>2011-05-03T08:57:14Z</time>
</trkpt>
<trkpt lat="45.21759" lon="13.5747">
<ele>47</ele>
<time>2011-05-03T08:57:16Z</time>
</trkpt>
<trkpt lat="45.21754" lon="13.57467">
<ele>47</ele>
<time>2011-05-03T08:57:18Z</time>
</trkpt>
<trkpt lat="45.2175" lon="13.57465">
<ele>47</ele>
<time>2011-05-03T08:57:20Z</time>
</trkpt>
<trkpt lat="45.21745" lon="13.57463">
<ele>47</ele>
<time>2011-05-03T08:57:22Z</time>
</trkpt>
<trkpt lat="45.2174" lon="13.5746">
<ele>47</ele>
<time>2011-05-03T08:57:24Z</time>
</trkpt>
<trkpt lat="45.21736" lon="13.57458">
<ele>47</ele>
<time>2011-05-03T08:57:26Z</time>
</trkpt>
<trkpt lat="45.21731" lon="13.57455">
<ele>47</ele>
<time>2011-05-03T08:57:28Z</time>
</trkpt>
<trkpt lat="45.21726" lon="13.57453">
<ele>47</ele>
<time>2011-05-03T08:57:30Z</time>
</trkpt>
<trkpt lat="45.21721" lon="13.57451">
<ele>47</ele>
<time>2011-05-03T08:57:32Z</time>
</trkpt>
<trkpt lat="45.21716" lon="13.57449">
<ele>47</ele>
<time>2011-05-03T08:57:34Z</time>
</trkpt>
<trkpt lat="45.21712" lon="13.57448">
<ele>47</ele>
<time>2011-05-03T08:57:36Z</time>
</trkpt>
<trkpt lat="45.21707" lon="13.57445">
<ele>47</ele>
<time>2011-05-03T08:57:38Z</time>
</trkpt>
<trkpt lat="45.21702" lon="13.57442">
<ele>47</ele>
<time>2011-05-03T08:57:40Z</time>
</trkpt>
<trkpt lat="45.21697" lon="13.57439">
<ele>47</ele>
<time>2011-05-03T08:57:42Z</time>
</trkpt>
<trkpt lat="45.21692" lon="13.57436">
<ele>47</ele>
<time>2011-05-03T08:57:44Z</time>
</trkpt>
<trkpt lat="45.21688" lon="13.57434">
<ele>47</ele>
<time>2011-05-03T08:57:46Z</time>
</trkpt>
<trkpt lat="45.21683" lon="13.57431">
<ele>47</ele>
<time>2011-05-03T08:57:48Z</time>
</trkpt>
<trkpt lat="45.21678" lon="13.57428">
<ele>47</ele>
<time>2011-05-03T08:57:50Z</time>
</trkpt>
<trkpt lat="45.21673" lon="13.57425">
<ele>47</ele>
<time>2011-05-03T08:57:52Z</time>
</trkpt>
<trkpt lat="45.21669" lon="13.57422">
<ele>47</ele>
<time>2011-05-03T08:57:54Z</time>
</trkpt>
<trkpt lat="45.21664" lon="13.57419">
<ele>47</ele>
<time>2011-05-03T08:57:56Z</time>
</trkpt>
<trkpt lat="45.21659" lon="13.57417">
<ele>47</ele>
<time>2011-05-03T08:57:58Z</time>
</trkpt>
<trkpt lat="45.21655" lon="13.57414">
<ele>46</ele>
<time>2011-05-03T08:58:00Z</time>
</trkpt>
<trkpt lat="45.2165" lon="13.57411">
<ele>46</ele>
<time>2011-05-03T08:58:02Z</time>
</trkpt>
<trkpt lat="45.21645" lon="13.57408">
<ele>46</ele>
<time>2011-05-03T08:58:04Z</time>
</trkpt>
<trkpt lat="45.2164" lon="13.57406">
<ele>46</ele>
<time>2011-05-03T08:58:06Z</time>
</trkpt>
<trkpt lat="45.21636" lon="13.57403">
<ele>46</ele>
<time>2011-05-03T08:58:08Z</time>
</trkpt>
<trkpt lat="45.21631" lon="13.57401">
<ele>46</ele>
<time>2011-05-03T08:58:10Z</time>
</trkpt>
<trkpt lat="45.21626" lon="13.57398">
<ele>46</ele>
<time>2011-05-03T08:58:12Z</time>
</trkpt>
<trkpt lat="45.21621" lon="13.57395">
<ele>46</ele>
<time>2011-05-03T08:58:14Z</time>
</trkpt>
<trkpt lat="45.21617" lon="13.57393">
<ele>46</ele>
<time>2011-05-03T08:58:16Z</time>
</trkpt>
<trkpt lat="45.21612" lon="13.5739">
<ele>46</ele>
<time>2011-05-03T08:58:18Z</time>
</trkpt>
<trkpt lat="45.21607" lon="13.57388">
<ele>46</ele>
<time>2011-05-03T08:58:20Z</time>
</trkpt>
<trkpt lat="45.21602" lon="13.57384">
<ele>46</ele>
<time>2011-05-03T08:58:22Z</time>
</trkpt>
<trkpt lat="45.21598" lon="13.57381">
<ele>46</ele>
<time>2011-05-03T08:58:24Z</time>
</trkpt>
<trkpt lat="45.21594" lon="13.57377">
<ele>46</ele>
<time>2011-05-03T08:58:26Z</time>
</trkpt>
<trkpt lat="45.2159" lon="13.57373">
<ele>46</ele>
<time>2011-05-03T08:58:28Z</time>
</trkpt>
<trkpt lat="45.21586" lon="13.57369">
<ele>46</ele>
<time>2011-05-03T08:58:30Z</time>
</trkpt>
<trkpt lat="45.21582" lon="13.57365">
<ele>46</ele>
<time>2011-05-03T08:58:32Z</time>
</trkpt>
<trkpt lat="45.21578" lon="13.57361">
<ele>46</ele>
<time>2011-05-03T08:58:34Z</time>
</trkpt>
<trkpt lat="45.21574" lon="13.57356">
<ele>46</ele>
<time>2011-05-03T08:58:36Z</time>
</trkpt>
<trkpt lat="45.2157" lon="13.57352">
<ele>46</ele>
<time>2011-05-03T08:58:38Z</time>
</trkpt>
<trkpt lat="45.21566" lon="13.57348">
<ele>46</ele>
<time>2011-05-03T08:58:40Z</time>
</trkpt>
<trkpt lat="45.21562" lon="13.57344">
<ele>46</ele>
<time>2011-05-03T08:58:42Z</time>
</trkpt>
<trkpt lat="45.21558" lon="13.5734">
<ele>46</ele>
<time>2011-05-03T08:58:44Z</time>
</trkpt>
<trkpt lat="45.21553" lon="13.57336">
<ele>46</ele>
<time>2011-05-03T08:58:46Z</time>
</trkpt>
<trkpt lat="45.21549" lon="13.57332">
<ele>46</ele>
<time>2011-05-03T08:58:48Z</time>
</trkpt>
<trkpt lat="45.21546" lon="13.57327">
<ele>46</ele>
<time>2011-05-03T08:58:50Z</time>
</trkpt>
<trkpt lat="45.21542" lon="13.57322">
<ele>47</ele>
<time>2011-05-03T08:58:52Z</time>
</trkpt>
<trkpt lat="45.21538" lon="13.57318">
<ele>47</ele>
<time>2011-05-03T08:58:54Z</time>
</trkpt>
<trkpt lat="45.21534" lon="13.57314">
<ele>47</ele>
<time>2011-05-03T08:58:56Z</time>
</trkpt>
<trkpt lat="45.2153" lon="13.57309">
<ele>47</ele>
<time>2011-05-03T08:58:58Z</time>
</trkpt>
<trkpt lat="45.21526" lon="13.57305">
<ele>47</ele>
<time>2011-05-03T08:59:00Z</time>
</trkpt>
<trkpt lat="45.21522" lon="13.57301">
<ele>47</ele>
<time>2011-05-03T08:59:02Z</time>
</trkpt>
<trkpt lat="45.21518" lon="13.57297">
<ele>47</ele>
<time>2011-05-03T08:59:04Z</time>
</trkpt>
<trkpt lat="45.21514" lon="13.57293">
<ele>47</ele>
<time>2011-05-03T08:59:06Z</time>
</trkpt>
<trkpt lat="45.2151" lon="13.57288">
<ele>47</ele>
<time>2011-05-03T08:59:08Z</time>
</trkpt>
<trkpt lat="45.21506" lon="13.57284">
<ele>47</ele>
<time>2011-05-03T08:59:10Z</time>
</trkpt>
<trkpt lat="45.21502" lon="13.5728">
<ele>47</ele>
<time>2011-05-03T08:59:12Z</time>
</trkpt>
<trkpt lat="45.21498" lon="13.57276">
<ele>47</ele>
<time>2011-05-03T08:59:14Z</time>
</trkpt>
<trkpt lat="45.21494" lon="13.57271">
<ele>47</ele>
<time>2011-05-03T08:59:16Z</time>
</trkpt>
<trkpt lat="45.2149" lon="13.57267">
<ele>47</ele>
<time>2011-05-03T08:59:18Z</time>
</trkpt>
<trkpt lat="45.21486" lon="13.57262">
<ele>47</ele>
<time>2011-05-03T08:59:20Z</time>
</trkpt>
<trkpt lat="45.21482" lon="13.57258">
<ele>47</ele>
<time>2011-05-03T08:59:22Z</time>
</trkpt>
<trkpt lat="45.21478" lon="13.57254">
<ele>47</ele>
<time>2011-05-03T08:59:24Z</time>
</trkpt>
<trkpt lat="45.21474" lon="13.57249">
<ele>47</ele>
<time>2011-05-03T08:59:26Z</time>
</trkpt>
<trkpt lat="45.2147" lon="13.57244">
<ele>47</ele>
<time>2011-05-03T08:59:28Z</time>
</trkpt>
<trkpt lat="45.21467" lon="13.5724">
<ele>47</ele>
<time>2011-05-03T08:59:30Z</time>
</trkpt>
<trkpt lat="45.21463" lon="13.57235">
<ele>47</ele>
<time>2011-05-03T08:59:32Z</time>
</trkpt>
<trkpt lat="45.2146" lon="13.5723">
<ele>47</ele>
<time>2011-05-03T08:59:34Z</time>
</trkpt>
<trkpt lat="45.21456" lon="13.57226">
<ele>47</ele>
<time>2011-05-03T08:59:36Z</time>
</trkpt>
<trkpt lat="45.21453" lon="13.57221">
<ele>47</ele>
<time>2011-05-03T08:59:38Z</time>
</trkpt>
<trkpt lat="45.21449" lon="13.57217">
<ele>47</ele>
<time>2011-05-03T08:59:40Z</time>
</trkpt>
<trkpt lat="45.21446" lon="13.57212">
<ele>47</ele>
<time>2011-05-03T08:59:42Z</time>
</trkpt>
<trkpt lat="45.21442" lon="13.57207">
<ele>47</ele>
<time>2011-05-03T08:59:44Z</time>
</trkpt>
<trkpt lat="45.21438" lon="13.57202">
<ele>48</ele>
<time>2011-05-03T08:59:46Z</time>
</trkpt>
<trkpt lat="45.21434" lon="13.57197">
<ele>48</ele>
<time>2011-05-03T08:59:48Z</time>
</trkpt>
<trkpt lat="45.21431" lon="13.57192">
<ele>48</ele>
<time>2011-05-03T08:59:50Z</time>
</trkpt>
<trkpt lat="45.21427" lon="13.57188">
<ele>48</ele>
<time>2011-05-03T08:59:52Z</time>
</trkpt>
<trkpt lat="45.21423" lon="13.57183">
<ele>48</ele>
<time>2011-05-03T08:59:54Z</time>
</trkpt>
<trkpt lat="45.21419" lon="13.57178">
<ele>48</ele>
<time>2011-05-03T08:59:56Z</time>
</trkpt>
<trkpt lat="45.21415" lon="13.57174">
<ele>48</ele>
<time>2011-05-03T08:59:58Z</time>
</trkpt>
<trkpt lat="45.21412" lon="13.57169">
<ele>48</ele>
<time>2011-05-03T09:00:00Z</time>
</trkpt>
<trkpt lat="45.21408" lon="13.57164">
<ele>48</ele>
<time>2011-05-03T09:00:02Z</time>
</trkpt>
<trkpt lat="45.21405" lon="13.57159">
<ele>48</ele>
<time>2011-05-03T09:00:04Z</time>
</trkpt>
<trkpt lat="45.21401" lon="13.57154">
<ele>48</ele>
<time>2011-05-03T09:00:06Z</time>
</trkpt>
<trkpt lat="45.21397" lon="13.57149">
<ele>48</ele>
<time>2011-05-03T09:00:08Z</time>
</trkpt>
<trkpt lat="45.21394" lon="13.57144">
<ele>48</ele>
<time>2011-05-03T09:00:10Z</time>
</trkpt>
<trkpt lat="45.2139" lon="13.5714">
<ele>48</ele>
<time>2011-05-03T09:00:12Z</time>
</trkpt>
<trkpt lat="45.21386" lon="13.57135">
<ele>48</ele>
<time>2011-05-03T09:00:14Z</time>
</trkpt>
<trkpt lat="45.21382" lon="13.5713">
<ele>48</ele>
<time>2011-05-03T09:00:16Z</time>
</trkpt>
<trkpt lat="45.21379" lon="13.57125">
<ele>48</ele>
<time>2011-05-03T09:00:18Z</time>
</trkpt>
<trkpt lat="45.21375" lon="13.5712">
<ele>48</ele>
<time>2011-05-03T09:00:20Z</time>
</trkpt>
<trkpt lat="45.21371" lon="13.57115">
<ele>48</ele>
<time>2011-05-03T09:00:22Z</time>
</trkpt>
<trkpt lat="45.21368" lon="13.5711">
<ele>48</ele>
<time>2011-05-03T09:00:24Z</time>
</trkpt>
<trkpt lat="45.21364" lon="13.57106">
<ele>49</ele>
<time>2011-05-03T09:00:26Z</time>
</trkpt>
<trkpt lat="45.2136" lon="13.571">
<ele>49</ele>
<time>2011-05-03T09:00:28Z</time>
</trkpt>
<trkpt lat="45.21357" lon="13.57095">
<ele>49</ele>
<time>2011-05-03T09:00:30Z</time>
</trkpt>
<trkpt lat="45.21353" lon="13.5709">
<ele>49</ele>
<time>2011-05-03T09:00:32Z</time>
</trkpt>
<trkpt lat="45.21349" lon="13.57085">
<ele>49</ele>
<time>2011-05-03T09:00:34Z</time>
</trkpt>
<trkpt lat="45.21346" lon="13.57079">
<ele>49</ele>
<time>2011-05-03T09:00:36Z</time>
</trkpt>
<trkpt lat="45.21342" lon="13.57074">
<ele>49</ele>
<time>2011-05-03T09:00:38Z</time>
</trkpt>
<trkpt lat="45.21338" lon="13.57069">
<ele>49</ele>
<time>2011-05-03T09:00:40Z</time>
</trkpt>
<trkpt lat="45.21335" lon="13.57063">
<ele>49</ele>
<time>2011-05-03T09:00:42Z</time>
</trkpt>
<trkpt lat="45.21331" lon="13.57057">
<ele>49</ele>
<time>2011-05-03T09:00:44Z</time>
</trkpt>
<trkpt lat="45.21328" lon="13.57052">
<ele>49</ele>
<time>2011-05-03T09:00:46Z</time>
</trkpt>
<trkpt lat="45.21324" lon="13.57046">
<ele>49</ele>
<time>2011-05-03T09:00:48Z</time>
</trkpt>
<trkpt lat="45.21321" lon="13.57041">
<ele>49</ele>
<time>2011-05-03T09:00:50Z</time>
</trkpt>
<trkpt lat="45.21317" lon="13.57036">
<ele>49</ele>
<time>2011-05-03T09:00:52Z</time>
</trkpt>
<trkpt lat="45.21314" lon="13.5703">
<ele>49</ele>
<time>2011-05-03T09:00:54Z</time>
</trkpt>
<trkpt lat="45.2131" lon="13.57025">
<ele>49</ele>
<time>2011-05-03T09:00:56Z</time>
</trkpt>
<trkpt lat="45.21307" lon="13.57019">
<ele>49</ele>
<time>2011-05-03T09:00:58Z</time>
</trkpt>
<trkpt lat="45.21304" lon="13.57014">
<ele>49</ele>
<time>2011-05-03T09:01:00Z</time>
</trkpt>
<trkpt lat="45.213" lon="13.57009">
<ele>49</ele>
<time>2011-05-03T09:01:02Z</time>
</trkpt>
<trkpt lat="45.21297" lon="13.57004">
<ele>49</ele>
<time>2011-05-03T09:01:04Z</time>
</trkpt>
<trkpt lat="45.21293" lon="13.56999">
<ele>49</ele>
<time>2011-05-03T09:01:06Z</time>
</trkpt>
<trkpt lat="45.2129" lon="13.56994">
<ele>49</ele>
<time>2011-05-03T09:01:08Z</time>
</trkpt>
<trkpt lat="45.21286" lon="13.56989">
<ele>49</ele>
<time>2011-05-03T09:01:10Z</time>
</trkpt>
<trkpt lat="45.21283" lon="13.56984">
<ele>49</ele>
<time>2011-05-03T09:01:12Z</time>
</trkpt>
<trkpt lat="45.21279" lon="13.5698">
<ele>49</ele>
<time>2011-05-03T09:01:14Z</time>
</trkpt>
<trkpt lat="45.21276" lon="13.56974">
<ele>49</ele>
<time>2011-05-03T09:01:16Z</time>
</trkpt>
<trkpt lat="45.21273" lon="13.56969">
<ele>49</ele>
<time>2011-05-03T09:01:18Z</time>
</trkpt>
<trkpt lat="45.21269" lon="13.56964">
<ele>49</ele>
<time>2011-05-03T09:01:20Z</time>
</trkpt>
<trkpt lat="45.21266" lon="13.56958">
<ele>49</ele>
<time>2011-05-03T09:01:22Z</time>
</trkpt>
<trkpt lat="45.21263" lon="13.56953">
<ele>49</ele>
<time>2011-05-03T09:01:24Z</time>
</trkpt>
<trkpt lat="45.2126" lon="13.56947">
<ele>49</ele>
<time>2011-05-03T09:01:26Z</time>
</trkpt>
<trkpt lat="45.21256" lon="13.56942">
<ele>49</ele>
<time>2011-05-03T09:01:28Z</time>
</trkpt>
<trkpt lat="45.21253" lon="13.56937">
<ele>49</ele>
<time>2011-05-03T09:01:30Z</time>
</trkpt>
<trkpt lat="45.2125" lon="13.56931">
<ele>49</ele>
<time>2011-05-03T09:01:32Z</time>
</trkpt>
<trkpt lat="45.21246" lon="13.56926">
<ele>49</ele>
<time>2011-05-03T09:01:34Z</time>
</trkpt>
<trkpt lat="45.21243" lon="13.56921">
<ele>49</ele>
<time>2011-05-03T09:01:36Z</time>
</trkpt>
<trkpt lat="45.21239" lon="13.56915">
<ele>49</ele>
<time>2011-05-03T09:01:38Z</time>
</trkpt>
<trkpt lat="45.21236" lon="13.5691">
<ele>49</ele>
<time>2011-05-03T09:01:40Z</time>
</trkpt>
<trkpt lat="45.21232" lon="13.56904">
<ele>49</ele>
<time>2011-05-03T09:01:42Z</time>
</trkpt>
<trkpt lat="45.21229" lon="13.56899">
<ele>49</ele>
<time>2011-05-03T09:01:44Z</time>
</trkpt>
<trkpt lat="45.21225" lon="13.56894">
<ele>49</ele>
<time>2011-05-03T09:01:46Z</time>
</trkpt>
<trkpt lat="45.21222" lon="13.56889">
<ele>49</ele>
<time>2011-05-03T09:01:48Z</time>
</trkpt>
<trkpt lat="45.21219" lon="13.56883">
<ele>49</ele>
<time>2011-05-03T09:01:50Z</time>
</trkpt>
<trkpt lat="45.21216" lon="13.56878">
<ele>49</ele>
<time>2011-05-03T09:01:52Z</time>
</trkpt>
<trkpt lat="45.21212" lon="13.56873">
<ele>49</ele>
<time>2011-05-03T09:01:54Z</time>
</trkpt>
<trkpt lat="45.21209" lon="13.56868">
<ele>49</ele>
<time>2011-05-03T09:01:56Z</time>
</trkpt>
<trkpt lat="45.21205" lon="13.56862">
<ele>49</ele>
<time>2011-05-03T09:01:58Z</time>
</trkpt>
<trkpt lat="45.21202" lon="13.56857">
<ele>49</ele>
<time>2011-05-03T09:02:00Z</time>
</trkpt>
<trkpt lat="45.21198" lon="13.56852">
<ele>49</ele>
<time>2011-05-03T09:02:02Z</time>
</trkpt>
<trkpt lat="45.21194" lon="13.56847">
<ele>49</ele>
<time>2011-05-03T09:02:04Z</time>
</trkpt>
<trkpt lat="45.21191" lon="13.56842">
<ele>49</ele>
<time>2011-05-03T09:02:06Z</time>
</trkpt>
<trkpt lat="45.21187" lon="13.56837">
<ele>49</ele>
<time>2011-05-03T09:02:08Z</time>
</trkpt>
<trkpt lat="45.21184" lon="13.56832">
<ele>49</ele>
<time>2011-05-03T09:02:10Z</time>
</trkpt>
<trkpt lat="45.2118" lon="13.56826">
<ele>49</ele>
<time>2011-05-03T09:02:12Z</time>
</trkpt>
<trkpt lat="45.21176" lon="13.56822">
<ele>49</ele>
<time>2011-05-03T09:02:14Z</time>
</trkpt>
<trkpt lat="45.21172" lon="13.56817">
<ele>49</ele>
<time>2011-05-03T09:02:16Z</time>
</trkpt>
<trkpt lat="45.21169" lon="13.56812">
<ele>49</ele>
<time>2011-05-03T09:02:18Z</time>
</trkpt>
<trkpt lat="45.21165" lon="13.56808">
<ele>49</ele>
<time>2011-05-03T09:02:20Z</time>
</trkpt>
<trkpt lat="45.21162" lon="13.56803">
<ele>49</ele>
<time>2011-05-03T09:02:22Z</time>
</trkpt>
<trkpt lat="45.21158" lon="13.56798">
<ele>49</ele>
<time>2011-05-03T09:02:24Z</time>
</trkpt>
<trkpt lat="45.21155" lon="13.56794">
<ele>49</ele>
<time>2011-05-03T09:02:26Z</time>
</trkpt>
<trkpt lat="45.21151" lon="13.56789">
<ele>49</ele>
<time>2011-05-03T09:02:28Z</time>
</trkpt>
<trkpt lat="45.21148" lon="13.56784">
<ele>49</ele>
<time>2011-05-03T09:02:30Z</time>
</trkpt>
<trkpt lat="45.21144" lon="13.56778">
<ele>49</ele>
<time>2011-05-03T09:02:32Z</time>
</trkpt>
<trkpt lat="45.21141" lon="13.56773">
<ele>49</ele>
<time>2011-05-03T09:02:34Z</time>
</trkpt>
<trkpt lat="45.21138" lon="13.56768">
<ele>49</ele>
<time>2011-05-03T09:02:36Z</time>
</trkpt>
<trkpt lat="45.21135" lon="13.56763">
<ele>49</ele>
<time>2011-05-03T09:02:38Z</time>
</trkpt>
<trkpt lat="45.21132" lon="13.56757">
<ele>49</ele>
<time>2011-05-03T09:02:40Z</time>
</trkpt>
<trkpt lat="45.21129" lon="13.56752">
<ele>49</ele>
<time>2011-05-03T09:02:42Z</time>
</trkpt>
<trkpt lat="45.21126" lon="13.56747">
<ele>49</ele>
<time>2011-05-03T09:02:44Z</time>
</trkpt>
<trkpt lat="45.21122" lon="13.56741">
<ele>49</ele>
<time>2011-05-03T09:02:46Z</time>
</trkpt>
<trkpt lat="45.21119" lon="13.56736">
<ele>49</ele>
<time>2011-05-03T09:02:48Z</time>
</trkpt>
<trkpt lat="45.21116" lon="13.56731">
<ele>49</ele>
<time>2011-05-03T09:02:50Z</time>
</trkpt>
<trkpt lat="45.21113" lon="13.56725">
<ele>49</ele>
<time>2011-05-03T09:02:52Z</time>
</trkpt>
<trkpt lat="45.21109" lon="13.5672">
<ele>49</ele>
<time>2011-05-03T09:02:54Z</time>
</trkpt>
<trkpt lat="45.21106" lon="13.56714">
<ele>49</ele>
<time>2011-05-03T09:02:56Z</time>
</trkpt>
<trkpt lat="45.21103" lon="13.56709">
<ele>49</ele>
<time>2011-05-03T09:02:58Z</time>
</trkpt>
<trkpt lat="45.211" lon="13.56703">
<ele>49</ele>
<time>2011-05-03T09:03:00Z</time>
</trkpt>
<trkpt lat="45.21096" lon="13.56698">
<ele>49</ele>
<time>2011-05-03T09:03:02Z</time>
</trkpt>
<trkpt lat="45.21093" lon="13.56692">
<ele>49</ele>
<time>2011-05-03T09:03:04Z</time>
</trkpt>
<trkpt lat="45.2109" lon="13.56687">
<ele>49</ele>
<time>2011-05-03T09:03:06Z</time>
</trkpt>
<trkpt lat="45.21086" lon="13.56682">
<ele>49</ele>
<time>2011-05-03T09:03:08Z</time>
</trkpt>
<trkpt lat="45.21083" lon="13.56676">
<ele>49</ele>
<time>2011-05-03T09:03:10Z</time>
</trkpt>
<trkpt lat="45.2108" lon="13.56671">
<ele>49</ele>
<time>2011-05-03T09:03:12Z</time>
</trkpt>
<trkpt lat="45.21077" lon="13.56665">
<ele>49</ele>
<time>2011-05-03T09:03:14Z</time>
</trkpt>
<trkpt lat="45.21074" lon="13.56659">
<ele>49</ele>
<time>2011-05-03T09:03:16Z</time>
</trkpt>
<trkpt lat="45.21071" lon="13.56654">
<ele>49</ele>
<time>2011-05-03T09:03:18Z</time>
</trkpt>
<trkpt lat="45.21067" lon="13.56648">
<ele>49</ele>
<time>2011-05-03T09:03:20Z</time>
</trkpt>
<trkpt lat="45.21064" lon="13.56643">
<ele>49</ele>
<time>2011-05-03T09:03:22Z</time>
</trkpt>
<trkpt lat="45.21061" lon="13.56637">
<ele>49</ele>
<time>2011-05-03T09:03:24Z</time>
</trkpt>
<trkpt lat="45.21058" lon="13.56631">
<ele>49</ele>
<time>2011-05-03T09:03:26Z</time>
</trkpt>
<trkpt lat="45.21054" lon="13.56626">
<ele>49</ele>
<time>2011-05-03T09:03:28Z</time>
</trkpt>
<trkpt lat="45.2105" lon="13.5662">
<ele>49</ele>
<time>2011-05-03T09:03:30Z</time>
</trkpt>
<trkpt lat="45.21046" lon="13.56615">
<ele>49</ele>
<time>2011-05-03T09:03:32Z</time>
</trkpt>
<trkpt lat="45.21043" lon="13.56609">
<ele>49</ele>
<time>2011-05-03T09:03:34Z</time>
</trkpt>
<trkpt lat="45.21039" lon="13.56604">
<ele>49</ele>
<time>2011-05-03T09:03:36Z</time>
</trkpt>
<trkpt lat="45.21036" lon="13.56599">
<ele>49</ele>
<time>2011-05-03T09:03:38Z</time>
</trkpt>
<trkpt lat="45.21032" lon="13.56593">
<ele>49</ele>
<time>2011-05-03T09:03:40Z</time>
</trkpt>
<trkpt lat="45.21029" lon="13.56588">
<ele>49</ele>
<time>2011-05-03T09:03:42Z</time>
</trkpt>
<trkpt lat="45.21025" lon="13.56583">
<ele>49</ele>
<time>2011-05-03T09:03:44Z</time>
</trkpt>
<trkpt lat="45.21022" lon="13.56578">
<ele>49</ele>
<time>2011-05-03T09:03:46Z</time>
</trkpt>
<trkpt lat="45.21018" lon="13.56573">
<ele>49</ele>
<time>2011-05-03T09:03:48Z</time>
</trkpt>
<trkpt lat="45.21015" lon="13.56567">
<ele>49</ele>
<time>2011-05-03T09:03:50Z</time>
</trkpt>
<trkpt lat="45.21012" lon="13.56562">
<ele>49</ele>
<time>2011-05-03T09:03:52Z</time>
</trkpt>
<trkpt lat="45.21009" lon="13.56557">
<ele>49</ele>
<time>2011-05-03T09:03:54Z</time>
</trkpt>
<trkpt lat="45.21006" lon="13.56552">
<ele>48</ele>
<time>2011-05-03T09:03:56Z</time>
</trkpt>
<trkpt lat="45.21002" lon="13.56547">
<ele>48</ele>
<time>2011-05-03T09:03:58Z</time>
</trkpt>
<trkpt lat="45.20999" lon="13.56541">
<ele>48</ele>
<time>2011-05-03T09:04:00Z</time>
</trkpt>
<trkpt lat="45.20996" lon="13.56536">
<ele>48</ele>
<time>2011-05-03T09:04:02Z</time>
</trkpt>
<trkpt lat="45.20992" lon="13.5653">
<ele>48</ele>
<time>2011-05-03T09:04:04Z</time>
</trkpt>
<trkpt lat="45.20989" lon="13.56525">
<ele>48</ele>
<time>2011-05-03T09:04:06Z</time>
</trkpt>
<trkpt lat="45.20986" lon="13.56519">
<ele>48</ele>
<time>2011-05-03T09:04:08Z</time>
</trkpt>
<trkpt lat="45.20982" lon="13.56514">
<ele>48</ele>
<time>2011-05-03T09:04:10Z</time>
</trkpt>
<trkpt lat="45.20979" lon="13.56509">
<ele>48</ele>
<time>2011-05-03T09:04:12Z</time>
</trkpt>
<trkpt lat="45.20976" lon="13.56504">
<ele>48</ele>
<time>2011-05-03T09:04:14Z</time>
</trkpt>
<trkpt lat="45.20973" lon="13.56498">
<ele>48</ele>
<time>2011-05-03T09:04:16Z</time>
</trkpt>
<trkpt lat="45.2097" lon="13.56493">
<ele>48</ele>
<time>2011-05-03T09:04:18Z</time>
</trkpt>
<trkpt lat="45.20966" lon="13.56487">
<ele>48</ele>
<time>2011-05-03T09:04:20Z</time>
</trkpt>
<trkpt lat="45.20963" lon="13.56482">
<ele>48</ele>
<time>2011-05-03T09:04:22Z</time>
</trkpt>
<trkpt lat="45.2096" lon="13.56476">
<ele>48</ele>
<time>2011-05-03T09:04:24Z</time>
</trkpt>
<trkpt lat="45.20957" lon="13.56471">
<ele>48</ele>
<time>2011-05-03T09:04:26Z</time>
</trkpt>
<trkpt lat="45.20954" lon="13.56465">
<ele>48</ele>
<time>2011-05-03T09:04:28Z</time>
</trkpt>
<trkpt lat="45.20952" lon="13.56459">
<ele>48</ele>
<time>2011-05-03T09:04:30Z</time>
</trkpt>
<trkpt lat="45.20949" lon="13.56453">
<ele>48</ele>
<time>2011-05-03T09:04:32Z</time>
</trkpt>
<trkpt lat="45.20946" lon="13.56447">
<ele>48</ele>
<time>2011-05-03T09:04:34Z</time>
</trkpt>
<trkpt lat="45.20943" lon="13.5644">
<ele>48</ele>
<time>2011-05-03T09:04:36Z</time>
</trkpt>
<trkpt lat="45.2094" lon="13.56434">
<ele>48</ele>
<time>2011-05-03T09:04:38Z</time>
</trkpt>
<trkpt lat="45.20937" lon="13.56428">
<ele>48</ele>
<time>2011-05-03T09:04:40Z</time>
</trkpt>
<trkpt lat="45.20934" lon="13.56422">
<ele>48</ele>
<time>2011-05-03T09:04:42Z</time>
</trkpt>
<trkpt lat="45.20931" lon="13.56415">
<ele>48</ele>
<time>2011-05-03T09:04:44Z</time>
</trkpt>
<trkpt lat="45.20928" lon="13.56409">
<ele>48</ele>
<time>2011-05-03T09:04:46Z</time>
</trkpt>
<trkpt lat="45.20925" lon="13.56402">
<ele>48</ele>
<time>2011-05-03T09:04:48Z</time>
</trkpt>
<trkpt lat="45.20922" lon="13.56396">
<ele>48</ele>
<time>2011-05-03T09:04:50Z</time>
</trkpt>
<trkpt lat="45.20919" lon="13.5639">
<ele>48</ele>
<time>2011-05-03T09:04:52Z</time>
</trkpt>
<trkpt lat="45.20916" lon="13.56384">
<ele>48</ele>
<time>2011-05-03T09:04:54Z</time>
</trkpt>
<trkpt lat="45.20913" lon="13.56379">
<ele>48</ele>
<time>2011-05-03T09:04:56Z</time>
</trkpt>
<trkpt lat="45.2091" lon="13.56374">
<ele>48</ele>
<time>2011-05-03T09:04:58Z</time>
</trkpt>
<trkpt lat="45.20906" lon="13.5637">
<ele>48</ele>
<time>2011-05-03T09:05:00Z</time>
</trkpt>
<trkpt lat="45.20902" lon="13.56365">
<ele>48</ele>
<time>2011-05-03T09:05:02Z</time>
</trkpt>
<trkpt lat="45.20898" lon="13.56361">
<ele>48</ele>
<time>2011-05-03T09:05:04Z</time>
</trkpt>
<trkpt lat="45.20894" lon="13.56357">
<ele>48</ele>
<time>2011-05-03T09:05:06Z</time>
</trkpt>
<trkpt lat="45.20889" lon="13.56354">
<ele>48</ele>
<time>2011-05-03T09:05:08Z</time>
</trkpt>
<trkpt lat="45.20884" lon="13.56352">
<ele>48</ele>
<time>2011-05-03T09:05:10Z</time>
</trkpt>
<trkpt lat="45.20878" lon="13.5635">
<ele>48</ele>
<time>2011-05-03T09:05:12Z</time>
</trkpt>
<trkpt lat="45.20874" lon="13.5635">
<ele>48</ele>
<time>2011-05-03T09:05:14Z</time>
</trkpt>
<trkpt lat="45.20867" lon="13.5635">
<ele>48</ele>
<time>2011-05-03T09:05:17Z</time>
</trkpt>
<trkpt lat="45.20861" lon="13.5635">
<ele>48</ele>
<time>2011-05-03T09:05:20Z</time>
</trkpt>
<trkpt lat="45.20854" lon="13.56351">
<ele>48</ele>
<time>2011-05-03T09:05:23Z</time>
</trkpt>
<trkpt lat="45.20847" lon="13.56351">
<ele>48</ele>
<time>2011-05-03T09:05:26Z</time>
</trkpt>
<trkpt lat="45.20843" lon="13.56351">
<ele>48</ele>
<time>2011-05-03T09:05:28Z</time>
</trkpt>
<trkpt lat="45.20838" lon="13.56351">
<ele>48</ele>
<time>2011-05-03T09:05:30Z</time>
</trkpt>
<trkpt lat="45.20833" lon="13.56351">
<ele>48</ele>
<time>2011-05-03T09:05:32Z</time>
</trkpt>
<trkpt lat="45.20829" lon="13.56351">
<ele>48</ele>
<time>2011-05-03T09:05:34Z</time>
</trkpt>
<trkpt lat="45.20824" lon="13.56351">
<ele>48</ele>
<time>2011-05-03T09:05:36Z</time>
</trkpt>
<trkpt lat="45.20819" lon="13.56351">
<ele>48</ele>
<time>2011-05-03T09:05:38Z</time>
</trkpt>
<trkpt lat="45.20815" lon="13.56351">
<ele>48</ele>
<time>2011-05-03T09:05:40Z</time>
</trkpt>
<trkpt lat="45.2081" lon="13.56351">
<ele>48</ele>
<time>2011-05-03T09:05:42Z</time>
</trkpt>
<trkpt lat="45.20805" lon="13.56351">
<ele>48</ele>
<time>2011-05-03T09:05:44Z</time>
</trkpt>
<trkpt lat="45.208" lon="13.56351">
<ele>48</ele>
<time>2011-05-03T09:05:46Z</time>
</trkpt>
<trkpt lat="45.20795" lon="13.56351">
<ele>48</ele>
<time>2011-05-03T09:05:48Z</time>
</trkpt>
<trkpt lat="45.2079" lon="13.56351">
<ele>48</ele>
<time>2011-05-03T09:05:50Z</time>
</trkpt>
<trkpt lat="45.20785" lon="13.56351">
<ele>48</ele>
<time>2011-05-03T09:05:52Z</time>
</trkpt>
<trkpt lat="45.2078" lon="13.56352">
<ele>48</ele>
<time>2011-05-03T09:05:54Z</time>
</trkpt>
<trkpt lat="45.20775" lon="13.56352">
<ele>48</ele>
<time>2011-05-03T09:05:56Z</time>
</trkpt>
<trkpt lat="45.2077" lon="13.56353">
<ele>48</ele>
<time>2011-05-03T09:05:58Z</time>
</trkpt>
<trkpt lat="45.20765" lon="13.56353">
<ele>48</ele>
<time>2011-05-03T09:06:00Z</time>
</trkpt>
<trkpt lat="45.2076" lon="13.56353">
<ele>48</ele>
<time>2011-05-03T09:06:02Z</time>
</trkpt>
<trkpt lat="45.20755" lon="13.56354">
<ele>48</ele>
<time>2011-05-03T09:06:04Z</time>
</trkpt>
<trkpt lat="45.2075" lon="13.56354">
<ele>48</ele>
<time>2011-05-03T09:06:06Z</time>
</trkpt>
<trkpt lat="45.20746" lon="13.56353">
<ele>48</ele>
<time>2011-05-03T09:06:08Z</time>
</trkpt>
<trkpt lat="45.20741" lon="13.56353">
<ele>48</ele>
<time>2011-05-03T09:06:10Z</time>
</trkpt>
<trkpt lat="45.20736" lon="13.56354">
<ele>48</ele>
<time>2011-05-03T09:06:12Z</time>
</trkpt>
<trkpt lat="45.20731" lon="13.56354">
<ele>48</ele>
<time>2011-05-03T09:06:14Z</time>
</trkpt>
<trkpt lat="45.20726" lon="13.56354">
<ele>48</ele>
<time>2011-05-03T09:06:16Z</time>
</trkpt>
<trkpt lat="45.20721" lon="13.56354">
<ele>48</ele>
<time>2011-05-03T09:06:18Z</time>
</trkpt>
<trkpt lat="45.20716" lon="13.56354">
<ele>48</ele>
<time>2011-05-03T09:06:20Z</time>
</trkpt>
<trkpt lat="45.20712" lon="13.56355">
<ele>48</ele>
<time>2011-05-03T09:06:22Z</time>
</trkpt>
<trkpt lat="45.20707" lon="13.56355">
<ele>48</ele>
<time>2011-05-03T09:06:24Z</time>
</trkpt>
<trkpt lat="45.20702" lon="13.56355">
<ele>48</ele>
<time>2011-05-03T09:06:26Z</time>
</trkpt>
<trkpt lat="45.20696" lon="13.56356">
<ele>48</ele>
<time>2011-05-03T09:06:28Z</time>
</trkpt>
<trkpt lat="45.20692" lon="13.56356">
<ele>48</ele>
<time>2011-05-03T09:06:30Z</time>
</trkpt>
<trkpt lat="45.20686" lon="13.56357">
<ele>48</ele>
<time>2011-05-03T09:06:32Z</time>
</trkpt>
<trkpt lat="45.20681" lon="13.56358">
<ele>48</ele>
<time>2011-05-03T09:06:34Z</time>
</trkpt>
<trkpt lat="45.20676" lon="13.56359">
<ele>48</ele>
<time>2011-05-03T09:06:36Z</time>
</trkpt>
<trkpt lat="45.20672" lon="13.56359">
<ele>48</ele>
<time>2011-05-03T09:06:38Z</time>
</trkpt>
<trkpt lat="45.20667" lon="13.5636">
<ele>48</ele>
<time>2011-05-03T09:06:40Z</time>
</trkpt>
<trkpt lat="45.20662" lon="13.5636">
<ele>48</ele>
<time>2011-05-03T09:06:42Z</time>
</trkpt>
<trkpt lat="45.20657" lon="13.56361">
<ele>48</ele>
<time>2011-05-03T09:06:44Z</time>
</trkpt>
<trkpt lat="45.20652" lon="13.56361">
<ele>48</ele>
<time>2011-05-03T09:06:46Z</time>
</trkpt>
<trkpt lat="45.20647" lon="13.56361">
<ele>48</ele>
<time>2011-05-03T09:06:48Z</time>
</trkpt>
<trkpt lat="45.20642" lon="13.56362">
<ele>48</ele>
<time>2011-05-03T09:06:50Z</time>
</trkpt>
<trkpt lat="45.20637" lon="13.56362">
<ele>48</ele>
<time>2011-05-03T09:06:52Z</time>
</trkpt>
<trkpt lat="45.20632" lon="13.56362">
<ele>48</ele>
<time>2011-05-03T09:06:54Z</time>
</trkpt>
<trkpt lat="45.20628" lon="13.56363">
<ele>48</ele>
<time>2011-05-03T09:06:56Z</time>
</trkpt>
<trkpt lat="45.20623" lon="13.56364">
<ele>48</ele>
<time>2011-05-03T09:06:58Z</time>
</trkpt>
<trkpt lat="45.20618" lon="13.56364">
<ele>48</ele>
<time>2011-05-03T09:07:00Z</time>
</trkpt>
<trkpt lat="45.20614" lon="13.56364">
<ele>48</ele>
<time>2011-05-03T09:07:02Z</time>
</trkpt>
<trkpt lat="45.20609" lon="13.56364">
<ele>48</ele>
<time>2011-05-03T09:07:04Z</time>
</trkpt>
<trkpt lat="45.20604" lon="13.56364">
<ele>48</ele>
<time>2011-05-03T09:07:06Z</time>
</trkpt>
<trkpt lat="45.20599" lon="13.56364">
<ele>48</ele>
<time>2011-05-03T09:07:08Z</time>
</trkpt>
<trkpt lat="45.20594" lon="13.56364">
<ele>48</ele>
<time>2011-05-03T09:07:10Z</time>
</trkpt>
<trkpt lat="45.20589" lon="13.56364">
<ele>48</ele>
<time>2011-05-03T09:07:12Z</time>
</trkpt>
<trkpt lat="45.20584" lon="13.56364">
<ele>48</ele>
<time>2011-05-03T09:07:14Z</time>
</trkpt>
<trkpt lat="45.2058" lon="13.56364">
<ele>48</ele>
<time>2011-05-03T09:07:16Z</time>
</trkpt>
<trkpt lat="45.20575" lon="13.56364">
<ele>48</ele>
<time>2011-05-03T09:07:18Z</time>
</trkpt>
<trkpt lat="45.2057" lon="13.56365">
<ele>48</ele>
<time>2011-05-03T09:07:20Z</time>
</trkpt>
<trkpt lat="45.20565" lon="13.56365">
<ele>48</ele>
<time>2011-05-03T09:07:22Z</time>
</trkpt>
<trkpt lat="45.2056" lon="13.56365">
<ele>48</ele>
<time>2011-05-03T09:07:24Z</time>
</trkpt>
<trkpt lat="45.20555" lon="13.56366">
<ele>48</ele>
<time>2011-05-03T09:07:26Z</time>
</trkpt>
<trkpt lat="45.20551" lon="13.56366">
<ele>48</ele>
<time>2011-05-03T09:07:28Z</time>
</trkpt>
<trkpt lat="45.20546" lon="13.56366">
<ele>48</ele>
<time>2011-05-03T09:07:30Z</time>
</trkpt>
<trkpt lat="45.20541" lon="13.56367">
<ele>48</ele>
<time>2011-05-03T09:07:32Z</time>
</trkpt>
<trkpt lat="45.20536" lon="13.56367">
<ele>48</ele>
<time>2011-05-03T09:07:34Z</time>
</trkpt>
<trkpt lat="45.20531" lon="13.56368">
<ele>48</ele>
<time>2011-05-03T09:07:36Z</time>
</trkpt>
<trkpt lat="45.20526" lon="13.56368">
<ele>48</ele>
<time>2011-05-03T09:07:38Z</time>
</trkpt>
<trkpt lat="45.20521" lon="13.56369">
<ele>48</ele>
<time>2011-05-03T09:07:40Z</time>
</trkpt>
<trkpt lat="45.20516" lon="13.5637">
<ele>48</ele>
<time>2011-05-03T09:07:42Z</time>
</trkpt>
<trkpt lat="45.20511" lon="13.5637">
<ele>48</ele>
<time>2011-05-03T09:07:44Z</time>
</trkpt>
<trkpt lat="45.20506" lon="13.56371">
<ele>48</ele>
<time>2011-05-03T09:07:46Z</time>
</trkpt>
<trkpt lat="45.20501" lon="13.56371">
<ele>48</ele>
<time>2011-05-03T09:07:48Z</time>
</trkpt>
<trkpt lat="45.20497" lon="13.56372">
<ele>48</ele>
<time>2011-05-03T09:07:50Z</time>
</trkpt>
<trkpt lat="45.20492" lon="13.56372">
<ele>48</ele>
<time>2011-05-03T09:07:52Z</time>
</trkpt>
<trkpt lat="45.20487" lon="13.56372">
<ele>48</ele>
<time>2011-05-03T09:07:54Z</time>
</trkpt>
<trkpt lat="45.20482" lon="13.56373">
<ele>48</ele>
<time>2011-05-03T09:07:56Z</time>
</trkpt>
<trkpt lat="45.20477" lon="13.56373">
<ele>48</ele>
<time>2011-05-03T09:07:58Z</time>
</trkpt>
<trkpt lat="45.20472" lon="13.56373">
<ele>49</ele>
<time>2011-05-03T09:08:00Z</time>
</trkpt>
<trkpt lat="45.20467" lon="13.56374">
<ele>49</ele>
<time>2011-05-03T09:08:02Z</time>
</trkpt>
<trkpt lat="45.20462" lon="13.56374">
<ele>49</ele>
<time>2011-05-03T09:08:04Z</time>
</trkpt>
<trkpt lat="45.20457" lon="13.56374">
<ele>49</ele>
<time>2011-05-03T09:08:06Z</time>
</trkpt>
<trkpt lat="45.20452" lon="13.56375">
<ele>49</ele>
<time>2011-05-03T09:08:08Z</time>
</trkpt>
<trkpt lat="45.20447" lon="13.56375">
<ele>49</ele>
<time>2011-05-03T09:08:10Z</time>
</trkpt>
<trkpt lat="45.20442" lon="13.56375">
<ele>49</ele>
<time>2011-05-03T09:08:12Z</time>
</trkpt>
<trkpt lat="45.20438" lon="13.56376">
<ele>49</ele>
<time>2011-05-03T09:08:14Z</time>
</trkpt>
<trkpt lat="45.20433" lon="13.56376">
<ele>49</ele>
<time>2011-05-03T09:08:16Z</time>
</trkpt>
<trkpt lat="45.20428" lon="13.56376">
<ele>49</ele>
<time>2011-05-03T09:08:18Z</time>
</trkpt>
<trkpt lat="45.20423" lon="13.56376">
<ele>49</ele>
<time>2011-05-03T09:08:20Z</time>
</trkpt>
<trkpt lat="45.20418" lon="13.56376">
<ele>49</ele>
<time>2011-05-03T09:08:22Z</time>
</trkpt>
<trkpt lat="45.20413" lon="13.56377">
<ele>49</ele>
<time>2011-05-03T09:08:24Z</time>
</trkpt>
<trkpt lat="45.20408" lon="13.56377">
<ele>49</ele>
<time>2011-05-03T09:08:26Z</time>
</trkpt>
<trkpt lat="45.20403" lon="13.56377">
<ele>49</ele>
<time>2011-05-03T09:08:28Z</time>
</trkpt>
<trkpt lat="45.20398" lon="13.56377">
<ele>49</ele>
<time>2011-05-03T09:08:30Z</time>
</trkpt>
<trkpt lat="45.20393" lon="13.56377">
<ele>49</ele>
<time>2011-05-03T09:08:32Z</time>
</trkpt>
<trkpt lat="45.20388" lon="13.56377">
<ele>49</ele>
<time>2011-05-03T09:08:34Z</time>
</trkpt>
<trkpt lat="45.20384" lon="13.56376">
<ele>49</ele>
<time>2011-05-03T09:08:36Z</time>
</trkpt>
<trkpt lat="45.20379" lon="13.56376">
<ele>48</ele>
<time>2011-05-03T09:08:38Z</time>
</trkpt>
<trkpt lat="45.20374" lon="13.56376">
<ele>48</ele>
<time>2011-05-03T09:08:40Z</time>
</trkpt>
<trkpt lat="45.2037" lon="13.56376">
<ele>48</ele>
<time>2011-05-03T09:08:42Z</time>
</trkpt>
<trkpt lat="45.20365" lon="13.56376">
<ele>48</ele>
<time>2011-05-03T09:08:44Z</time>
</trkpt>
<trkpt lat="45.2036" lon="13.56376">
<ele>48</ele>
<time>2011-05-03T09:08:46Z</time>
</trkpt>
<trkpt lat="45.20355" lon="13.56377">
<ele>48</ele>
<time>2011-05-03T09:08:48Z</time>
</trkpt>
<trkpt lat="45.2035" lon="13.56377">
<ele>48</ele>
<time>2011-05-03T09:08:50Z</time>
</trkpt>
<trkpt lat="45.20346" lon="13.56376">
<ele>48</ele>
<time>2011-05-03T09:08:52Z</time>
</trkpt>
<trkpt lat="45.20341" lon="13.56377">
<ele>48</ele>
<time>2011-05-03T09:08:54Z</time>
</trkpt>
<trkpt lat="45.20336" lon="13.56377">
<ele>48</ele>
<time>2011-05-03T09:08:56Z</time>
</trkpt>
<trkpt lat="45.20331" lon="13.56377">
<ele>48</ele>
<time>2011-05-03T09:08:58Z</time>
</trkpt>
<trkpt lat="45.20326" lon="13.56377">
<ele>48</ele>
<time>2011-05-03T09:09:00Z</time>
</trkpt>
<trkpt lat="45.20321" lon="13.56377">
<ele>48</ele>
<time>2011-05-03T09:09:02Z</time>
</trkpt>
<trkpt lat="45.20317" lon="13.56377">
<ele>48</ele>
<time>2011-05-03T09:09:04Z</time>
</trkpt>
<trkpt lat="45.20312" lon="13.56378">
<ele>48</ele>
<time>2011-05-03T09:09:06Z</time>
</trkpt>
<trkpt lat="45.20307" lon="13.56378">
<ele>48</ele>
<time>2011-05-03T09:09:08Z</time>
</trkpt>
<trkpt lat="45.20302" lon="13.56378">
<ele>48</ele>
<time>2011-05-03T09:09:10Z</time>
</trkpt>
<trkpt lat="45.20297" lon="13.56378">
<ele>48</ele>
<time>2011-05-03T09:09:12Z</time>
</trkpt>
<trkpt lat="45.20292" lon="13.56378">
<ele>48</ele>
<time>2011-05-03T09:09:14Z</time>
</trkpt>
<trkpt lat="45.20287" lon="13.56379">
<ele>48</ele>
<time>2011-05-03T09:09:16Z</time>
</trkpt>
<trkpt lat="45.20282" lon="13.56379">
<ele>48</ele>
<time>2011-05-03T09:09:18Z</time>
</trkpt>
<trkpt lat="45.20277" lon="13.56379">
<ele>48</ele>
<time>2011-05-03T09:09:20Z</time>
</trkpt>
<trkpt lat="45.20272" lon="13.5638">
<ele>48</ele>
<time>2011-05-03T09:09:22Z</time>
</trkpt>
<trkpt lat="45.20268" lon="13.5638">
<ele>48</ele>
<time>2011-05-03T09:09:24Z</time>
</trkpt>
<trkpt lat="45.20263" lon="13.56381">
<ele>48</ele>
<time>2011-05-03T09:09:26Z</time>
</trkpt>
<trkpt lat="45.20258" lon="13.56382">
<ele>48</ele>
<time>2011-05-03T09:09:28Z</time>
</trkpt>
<trkpt lat="45.20254" lon="13.56383">
<ele>48</ele>
<time>2011-05-03T09:09:30Z</time>
</trkpt>
<trkpt lat="45.20249" lon="13.56385">
<ele>48</ele>
<time>2011-05-03T09:09:32Z</time>
</trkpt>
<trkpt lat="45.20242" lon="13.56386">
<ele>48</ele>
<time>2011-05-03T09:09:35Z</time>
</trkpt>
<trkpt lat="45.20238" lon="13.56387">
<ele>48</ele>
<time>2011-05-03T09:09:37Z</time>
</trkpt>
<trkpt lat="45.20233" lon="13.56387">
<ele>48</ele>
<time>2011-05-03T09:09:39Z</time>
</trkpt>
<trkpt lat="45.20229" lon="13.56388">
<ele>48</ele>
<time>2011-05-03T09:09:41Z</time>
</trkpt>
<trkpt lat="45.20224" lon="13.56389">
<ele>48</ele>
<time>2011-05-03T09:09:43Z</time>
</trkpt>
<trkpt lat="45.20219" lon="13.56389">
<ele>48</ele>
<time>2011-05-03T09:09:45Z</time>
</trkpt>
<trkpt lat="45.20214" lon="13.5639">
<ele>48</ele>
<time>2011-05-03T09:09:47Z</time>
</trkpt>
<trkpt lat="45.2021" lon="13.5639">
<ele>48</ele>
<time>2011-05-03T09:09:49Z</time>
</trkpt>
<trkpt lat="45.20205" lon="13.56391">
<ele>48</ele>
<time>2011-05-03T09:09:51Z</time>
</trkpt>
<trkpt lat="45.202" lon="13.56392">
<ele>48</ele>
<time>2011-05-03T09:09:53Z</time>
</trkpt>
<trkpt lat="45.20195" lon="13.56392">
<ele>48</ele>
<time>2011-05-03T09:09:55Z</time>
</trkpt>
<trkpt lat="45.2019" lon="13.56393">
<ele>48</ele>
<time>2011-05-03T09:09:57Z</time>
</trkpt>
<trkpt lat="45.20185" lon="13.56393">
<ele>48</ele>
<time>2011-05-03T09:09:59Z</time>
</trkpt>
<trkpt lat="45.2018" lon="13.56394">
<ele>48</ele>
<time>2011-05-03T09:10:01Z</time>
</trkpt>
<trkpt lat="45.20176" lon="13.56395">
<ele>48</ele>
<time>2011-05-03T09:10:03Z</time>
</trkpt>
<trkpt lat="45.20171" lon="13.56396">
<ele>48</ele>
<time>2011-05-03T09:10:05Z</time>
</trkpt>
<trkpt lat="45.20166" lon="13.56396">
<ele>48</ele>
<time>2011-05-03T09:10:07Z</time>
</trkpt>
<trkpt lat="45.20162" lon="13.56397">
<ele>48</ele>
<time>2011-05-03T09:10:09Z</time>
</trkpt>
<trkpt lat="45.20157" lon="13.56398">
<ele>48</ele>
<time>2011-05-03T09:10:11Z</time>
</trkpt>
<trkpt lat="45.20152" lon="13.56398">
<ele>48</ele>
<time>2011-05-03T09:10:13Z</time>
</trkpt>
<trkpt lat="45.20148" lon="13.56399">
<ele>48</ele>
<time>2011-05-03T09:10:15Z</time>
</trkpt>
<trkpt lat="45.20143" lon="13.564">
<ele>48</ele>
<time>2011-05-03T09:10:17Z</time>
</trkpt>
<trkpt lat="45.20138" lon="13.56401">
<ele>48</ele>
<time>2011-05-03T09:10:19Z</time>
</trkpt>
<trkpt lat="45.20134" lon="13.56402">
<ele>48</ele>
<time>2011-05-03T09:10:21Z</time>
</trkpt>
<trkpt lat="45.20129" lon="13.56402">
<ele>48</ele>
<time>2011-05-03T09:10:23Z</time>
</trkpt>
<trkpt lat="45.20124" lon="13.56403">
<ele>48</ele>
<time>2011-05-03T09:10:25Z</time>
</trkpt>
<trkpt lat="45.2012" lon="13.56404">
<ele>48</ele>
<time>2011-05-03T09:10:27Z</time>
</trkpt>
<trkpt lat="45.20115" lon="13.56405">
<ele>48</ele>
<time>2011-05-03T09:10:29Z</time>
</trkpt>
<trkpt lat="45.2011" lon="13.56406">
<ele>48</ele>
<time>2011-05-03T09:10:31Z</time>
</trkpt>
<trkpt lat="45.20106" lon="13.56407">
<ele>48</ele>
<time>2011-05-03T09:10:33Z</time>
</trkpt>
<trkpt lat="45.20101" lon="13.56408">
<ele>48</ele>
<time>2011-05-03T09:10:35Z</time>
</trkpt>
<trkpt lat="45.20096" lon="13.56409">
<ele>48</ele>
<time>2011-05-03T09:10:37Z</time>
</trkpt>
<trkpt lat="45.20092" lon="13.5641">
<ele>48</ele>
<time>2011-05-03T09:10:39Z</time>
</trkpt>
<trkpt lat="45.20087" lon="13.56412">
<ele>48</ele>
<time>2011-05-03T09:10:41Z</time>
</trkpt>
<trkpt lat="45.20083" lon="13.56413">
<ele>48</ele>
<time>2011-05-03T09:10:43Z</time>
</trkpt>
<trkpt lat="45.20078" lon="13.56414">
<ele>48</ele>
<time>2011-05-03T09:10:45Z</time>
</trkpt>
<trkpt lat="45.20073" lon="13.56415">
<ele>48</ele>
<time>2011-05-03T09:10:47Z</time>
</trkpt>
<trkpt lat="45.20069" lon="13.56416">
<ele>48</ele>
<time>2011-05-03T09:10:49Z</time>
</trkpt>
<trkpt lat="45.20064" lon="13.56418">
<ele>48</ele>
<time>2011-05-03T09:10:51Z</time>
</trkpt>
<trkpt lat="45.2006" lon="13.56419">
<ele>48</ele>
<time>2011-05-03T09:10:53Z</time>
</trkpt>
<trkpt lat="45.20055" lon="13.56421">
<ele>47</ele>
<time>2011-05-03T09:10:55Z</time>
</trkpt>
<trkpt lat="45.2005" lon="13.56422">
<ele>47</ele>
<time>2011-05-03T09:10:57Z</time>
</trkpt>
<trkpt lat="45.20046" lon="13.56423">
<ele>47</ele>
<time>2011-05-03T09:10:59Z</time>
</trkpt>
<trkpt lat="45.20041" lon="13.56424">
<ele>47</ele>
<time>2011-05-03T09:11:01Z</time>
</trkpt>
<trkpt lat="45.20037" lon="13.56425">
<ele>47</ele>
<time>2011-05-03T09:11:03Z</time>
</trkpt>
<trkpt lat="45.20032" lon="13.56426">
<ele>47</ele>
<time>2011-05-03T09:11:05Z</time>
</trkpt>
<trkpt lat="45.20027" lon="13.56426">
<ele>47</ele>
<time>2011-05-03T09:11:07Z</time>
</trkpt>
<trkpt lat="45.20022" lon="13.56428">
<ele>47</ele>
<time>2011-05-03T09:11:09Z</time>
</trkpt>
<trkpt lat="45.20018" lon="13.56429">
<ele>47</ele>
<time>2011-05-03T09:11:11Z</time>
</trkpt>
<trkpt lat="45.20013" lon="13.5643">
<ele>47</ele>
<time>2011-05-03T09:11:13Z</time>
</trkpt>
<trkpt lat="45.20008" lon="13.56432">
<ele>47</ele>
<time>2011-05-03T09:11:15Z</time>
</trkpt>
<trkpt lat="45.20004" lon="13.56434">
<ele>47</ele>
<time>2011-05-03T09:11:17Z</time>
</trkpt>
<trkpt lat="45.19999" lon="13.56434">
<ele>47</ele>
<time>2011-05-03T09:11:19Z</time>
</trkpt>
<trkpt lat="45.19994" lon="13.56435">
<ele>47</ele>
<time>2011-05-03T09:11:21Z</time>
</trkpt>
<trkpt lat="45.1999" lon="13.56437">
<ele>47</ele>
<time>2011-05-03T09:11:23Z</time>
</trkpt>
<trkpt lat="45.19985" lon="13.56439">
<ele>47</ele>
<time>2011-05-03T09:11:25Z</time>
</trkpt>
<trkpt lat="45.19979" lon="13.56442">
<ele>47</ele>
<time>2011-05-03T09:11:28Z</time>
</trkpt>
<trkpt lat="45.19973" lon="13.56443">
<ele>47</ele>
<time>2011-05-03T09:11:31Z</time>
</trkpt>
<trkpt lat="45.19966" lon="13.56443">
<ele>47</ele>
<time>2011-05-03T09:11:34Z</time>
</trkpt>
<trkpt lat="45.19962" lon="13.56444">
<ele>47</ele>
<time>2011-05-03T09:11:36Z</time>
</trkpt>
<trkpt lat="45.19957" lon="13.56445">
<ele>47</ele>
<time>2011-05-03T09:11:38Z</time>
</trkpt>
<trkpt lat="45.19952" lon="13.56445">
<ele>47</ele>
<time>2011-05-03T09:11:40Z</time>
</trkpt>
<trkpt lat="45.19948" lon="13.56446">
<ele>47</ele>
<time>2011-05-03T09:11:42Z</time>
</trkpt>
<trkpt lat="45.19943" lon="13.56446">
<ele>47</ele>
<time>2011-05-03T09:11:44Z</time>
</trkpt>
<trkpt lat="45.19938" lon="13.56447">
<ele>47</ele>
<time>2011-05-03T09:11:46Z</time>
</trkpt>
<trkpt lat="45.19932" lon="13.56448">
<ele>47</ele>
<time>2011-05-03T09:11:49Z</time>
</trkpt>
<trkpt lat="45.19925" lon="13.5645">
<ele>47</ele>
<time>2011-05-03T09:11:52Z</time>
</trkpt>
<trkpt lat="45.19918" lon="13.56451">
<ele>47</ele>
<time>2011-05-03T09:11:55Z</time>
</trkpt>
<trkpt lat="45.19914" lon="13.56452">
<ele>47</ele>
<time>2011-05-03T09:11:57Z</time>
</trkpt>
<trkpt lat="45.19907" lon="13.56454">
<ele>47</ele>
<time>2011-05-03T09:12:00Z</time>
</trkpt>
<trkpt lat="45.19902" lon="13.56455">
<ele>47</ele>
<time>2011-05-03T09:12:02Z</time>
</trkpt>
<trkpt lat="45.19898" lon="13.56456">
<ele>47</ele>
<time>2011-05-03T09:12:04Z</time>
</trkpt>
<trkpt lat="45.19893" lon="13.56456">
<ele>47</ele>
<time>2011-05-03T09:12:06Z</time>
</trkpt>
<trkpt lat="45.19888" lon="13.56457">
<ele>47</ele>
<time>2011-05-03T09:12:08Z</time>
</trkpt>
<trkpt lat="45.19884" lon="13.56458">
<ele>47</ele>
<time>2011-05-03T09:12:10Z</time>
</trkpt>
<trkpt lat="45.19879" lon="13.56458">
<ele>47</ele>
<time>2011-05-03T09:12:12Z</time>
</trkpt>
<trkpt lat="45.19874" lon="13.56459">
<ele>47</ele>
<time>2011-05-03T09:12:14Z</time>
</trkpt>
<trkpt lat="45.1987" lon="13.5646">
<ele>47</ele>
<time>2011-05-03T09:12:16Z</time>
</trkpt>
<trkpt lat="45.19865" lon="13.5646">
<ele>47</ele>
<time>2011-05-03T09:12:18Z</time>
</trkpt>
<trkpt lat="45.1986" lon="13.5646">
<ele>47</ele>
<time>2011-05-03T09:12:20Z</time>
</trkpt>
<trkpt lat="45.19854" lon="13.56461">
<ele>47</ele>
<time>2011-05-03T09:12:23Z</time>
</trkpt>
<trkpt lat="45.19849" lon="13.56462">
<ele>47</ele>
<time>2011-05-03T09:12:25Z</time>
</trkpt>
<trkpt lat="45.19844" lon="13.56462">
<ele>47</ele>
<time>2011-05-03T09:12:27Z</time>
</trkpt>
<trkpt lat="45.19838" lon="13.56464">
<ele>47</ele>
<time>2011-05-03T09:12:30Z</time>
</trkpt>
<trkpt lat="45.19831" lon="13.56464">
<ele>47</ele>
<time>2011-05-03T09:12:33Z</time>
</trkpt>
<trkpt lat="45.19826" lon="13.56464">
<ele>47</ele>
<time>2011-05-03T09:12:35Z</time>
</trkpt>
<trkpt lat="45.19822" lon="13.56465">
<ele>47</ele>
<time>2011-05-03T09:12:37Z</time>
</trkpt>
<trkpt lat="45.19817" lon="13.56465">
<ele>47</ele>
<time>2011-05-03T09:12:39Z</time>
</trkpt>
<trkpt lat="45.19812" lon="13.56466">
<ele>47</ele>
<time>2011-05-03T09:12:41Z</time>
</trkpt>
<trkpt lat="45.19807" lon="13.56466">
<ele>47</ele>
<time>2011-05-03T09:12:43Z</time>
</trkpt>
<trkpt lat="45.19802" lon="13.56467">
<ele>47</ele>
<time>2011-05-03T09:12:45Z</time>
</trkpt>
<trkpt lat="45.19798" lon="13.56468">
<ele>47</ele>
<time>2011-05-03T09:12:47Z</time>
</trkpt>
<trkpt lat="45.19793" lon="13.56469">
<ele>47</ele>
<time>2011-05-03T09:12:49Z</time>
</trkpt>
<trkpt lat="45.19788" lon="13.5647">
<ele>47</ele>
<time>2011-05-03T09:12:51Z</time>
</trkpt>
<trkpt lat="45.19783" lon="13.5647">
<ele>47</ele>
<time>2011-05-03T09:12:53Z</time>
</trkpt>
<trkpt lat="45.19778" lon="13.56471">
<ele>48</ele>
<time>2011-05-03T09:12:55Z</time>
</trkpt>
<trkpt lat="45.19774" lon="13.56472">
<ele>48</ele>
<time>2011-05-03T09:12:57Z</time>
</trkpt>
<trkpt lat="45.19767" lon="13.56473">
<ele>48</ele>
<time>2011-05-03T09:13:00Z</time>
</trkpt>
<trkpt lat="45.19761" lon="13.56474">
<ele>48</ele>
<time>2011-05-03T09:13:03Z</time>
</trkpt>
<trkpt lat="45.19754" lon="13.56474">
<ele>48</ele>
<time>2011-05-03T09:13:06Z</time>
</trkpt>
<trkpt lat="45.19747" lon="13.56476">
<ele>48</ele>
<time>2011-05-03T09:13:09Z</time>
</trkpt>
<trkpt lat="45.1974" lon="13.56477">
<ele>48</ele>
<time>2011-05-03T09:13:12Z</time>
</trkpt>
<trkpt lat="45.19734" lon="13.56478">
<ele>48</ele>
<time>2011-05-03T09:13:15Z</time>
</trkpt>
<trkpt lat="45.19729" lon="13.56479">
<ele>48</ele>
<time>2011-05-03T09:13:17Z</time>
</trkpt>
<trkpt lat="45.19723" lon="13.5648">
<ele>48</ele>
<time>2011-05-03T09:13:20Z</time>
</trkpt>
<trkpt lat="45.19716" lon="13.56482">
<ele>48</ele>
<time>2011-05-03T09:13:23Z</time>
</trkpt>
<trkpt lat="45.19709" lon="13.56483">
<ele>48</ele>
<time>2011-05-03T09:13:26Z</time>
</trkpt>
<trkpt lat="45.19702" lon="13.56484">
<ele>48</ele>
<time>2011-05-03T09:13:29Z</time>
</trkpt>
<trkpt lat="45.19698" lon="13.56484">
<ele>48</ele>
<time>2011-05-03T09:13:31Z</time>
</trkpt>
<trkpt lat="45.19693" lon="13.56485">
<ele>48</ele>
<time>2011-05-03T09:13:33Z</time>
</trkpt>
<trkpt lat="45.19688" lon="13.56486">
<ele>48</ele>
<time>2011-05-03T09:13:35Z</time>
</trkpt>
<trkpt lat="45.19683" lon="13.56487">
<ele>48</ele>
<time>2011-05-03T09:13:37Z</time>
</trkpt>
<trkpt lat="45.19678" lon="13.56488">
<ele>48</ele>
<time>2011-05-03T09:13:39Z</time>
</trkpt>
<trkpt lat="45.19674" lon="13.56489">
<ele>48</ele>
<time>2011-05-03T09:13:41Z</time>
</trkpt>
<trkpt lat="45.19669" lon="13.56489">
<ele>48</ele>
<time>2011-05-03T09:13:43Z</time>
</trkpt>
<trkpt lat="45.19664" lon="13.5649">
<ele>48</ele>
<time>2011-05-03T09:13:45Z</time>
</trkpt>
<trkpt lat="45.19659" lon="13.5649">
<ele>48</ele>
<time>2011-05-03T09:13:47Z</time>
</trkpt>
<trkpt lat="45.19654" lon="13.56491">
<ele>48</ele>
<time>2011-05-03T09:13:49Z</time>
</trkpt>
<trkpt lat="45.19649" lon="13.56491">
<ele>48</ele>
<time>2011-05-03T09:13:51Z</time>
</trkpt>
<trkpt lat="45.19644" lon="13.56492">
<ele>48</ele>
<time>2011-05-03T09:13:53Z</time>
</trkpt>
<trkpt lat="45.19639" lon="13.56492">
<ele>48</ele>
<time>2011-05-03T09:13:55Z</time>
</trkpt>
<trkpt lat="45.19634" lon="13.56493">
<ele>48</ele>
<time>2011-05-03T09:13:57Z</time>
</trkpt>
<trkpt lat="45.19629" lon="13.56494">
<ele>48</ele>
<time>2011-05-03T09:13:59Z</time>
</trkpt>
<trkpt lat="45.19624" lon="13.56495">
<ele>48</ele>
<time>2011-05-03T09:14:01Z</time>
</trkpt>
<trkpt lat="45.19619" lon="13.56496">
<ele>48</ele>
<time>2011-05-03T09:14:03Z</time>
</trkpt>
<trkpt lat="45.19614" lon="13.56496">
<ele>47</ele>
<time>2011-05-03T09:14:05Z</time>
</trkpt>
<trkpt lat="45.19609" lon="13.56496">
<ele>47</ele>
<time>2011-05-03T09:14:07Z</time>
</trkpt>
<trkpt lat="45.19604" lon="13.56497">
<ele>47</ele>
<time>2011-05-03T09:14:09Z</time>
</trkpt>
<trkpt lat="45.19599" lon="13.56498">
<ele>47</ele>
<time>2011-05-03T09:14:11Z</time>
</trkpt>
<trkpt lat="45.19594" lon="13.56499">
<ele>47</ele>
<time>2011-05-03T09:14:13Z</time>
</trkpt>
<trkpt lat="45.1959" lon="13.565">
<ele>47</ele>
<time>2011-05-03T09:14:15Z</time>
</trkpt>
<trkpt lat="45.19585" lon="13.56501">
<ele>47</ele>
<time>2011-05-03T09:14:17Z</time>
</trkpt>
<trkpt lat="45.1958" lon="13.56502">
<ele>47</ele>
<time>2011-05-03T09:14:19Z</time>
</trkpt>
<trkpt lat="45.19575" lon="13.56503">
<ele>47</ele>
<time>2011-05-03T09:14:21Z</time>
</trkpt>
<trkpt lat="45.19571" lon="13.56504">
<ele>47</ele>
<time>2011-05-03T09:14:23Z</time>
</trkpt>
<trkpt lat="45.19566" lon="13.56505">
<ele>47</ele>
<time>2011-05-03T09:14:25Z</time>
</trkpt>
<trkpt lat="45.19561" lon="13.56506">
<ele>47</ele>
<time>2011-05-03T09:14:27Z</time>
</trkpt>
<trkpt lat="45.19556" lon="13.56507">
<ele>47</ele>
<time>2011-05-03T09:14:29Z</time>
</trkpt>
<trkpt lat="45.19552" lon="13.56508">
<ele>47</ele>
<time>2011-05-03T09:14:31Z</time>
</trkpt>
<trkpt lat="45.19547" lon="13.5651">
<ele>47</ele>
<time>2011-05-03T09:14:33Z</time>
</trkpt>
<trkpt lat="45.19542" lon="13.56511">
<ele>47</ele>
<time>2011-05-03T09:14:35Z</time>
</trkpt>
<trkpt lat="45.19537" lon="13.56512">
<ele>47</ele>
<time>2011-05-03T09:14:37Z</time>
</trkpt>
<trkpt lat="45.19532" lon="13.56513">
<ele>47</ele>
<time>2011-05-03T09:14:39Z</time>
</trkpt>
<trkpt lat="45.19527" lon="13.56514">
<ele>47</ele>
<time>2011-05-03T09:14:41Z</time>
</trkpt>
<trkpt lat="45.19522" lon="13.56514">
<ele>47</ele>
<time>2011-05-03T09:14:43Z</time>
</trkpt>
<trkpt lat="45.19517" lon="13.56515">
<ele>47</ele>
<time>2011-05-03T09:14:45Z</time>
</trkpt>
<trkpt lat="45.19512" lon="13.56515">
<ele>47</ele>
<time>2011-05-03T09:14:47Z</time>
</trkpt>
<trkpt lat="45.19507" lon="13.56516">
<ele>47</ele>
<time>2011-05-03T09:14:49Z</time>
</trkpt>
<trkpt lat="45.19502" lon="13.56517">
<ele>47</ele>
<time>2011-05-03T09:14:51Z</time>
</trkpt>
<trkpt lat="45.19497" lon="13.56518">
<ele>46</ele>
<time>2011-05-03T09:14:53Z</time>
</trkpt>
<trkpt lat="45.19493" lon="13.56518">
<ele>46</ele>
<time>2011-05-03T09:14:55Z</time>
</trkpt>
<trkpt lat="45.19488" lon="13.56519">
<ele>46</ele>
<time>2011-05-03T09:14:57Z</time>
</trkpt>
<trkpt lat="45.19483" lon="13.5652">
<ele>46</ele>
<time>2011-05-03T09:14:59Z</time>
</trkpt>
<trkpt lat="45.19478" lon="13.5652">
<ele>46</ele>
<time>2011-05-03T09:15:01Z</time>
</trkpt>
<trkpt lat="45.19474" lon="13.56521">
<ele>46</ele>
<time>2011-05-03T09:15:03Z</time>
</trkpt>
<trkpt lat="45.19469" lon="13.56522">
<ele>46</ele>
<time>2011-05-03T09:15:05Z</time>
</trkpt>
<trkpt lat="45.19464" lon="13.56522">
<ele>46</ele>
<time>2011-05-03T09:15:07Z</time>
</trkpt>
<trkpt lat="45.19459" lon="13.56523">
<ele>46</ele>
<time>2011-05-03T09:15:09Z</time>
</trkpt>
<trkpt lat="45.19454" lon="13.56524">
<ele>46</ele>
<time>2011-05-03T09:15:11Z</time>
</trkpt>
<trkpt lat="45.1945" lon="13.56524">
<ele>46</ele>
<time>2011-05-03T09:15:13Z</time>
</trkpt>
<trkpt lat="45.19445" lon="13.56526">
<ele>46</ele>
<time>2011-05-03T09:15:15Z</time>
</trkpt>
<trkpt lat="45.1944" lon="13.56526">
<ele>46</ele>
<time>2011-05-03T09:15:17Z</time>
</trkpt>
<trkpt lat="45.19435" lon="13.56527">
<ele>46</ele>
<time>2011-05-03T09:15:19Z</time>
</trkpt>
<trkpt lat="45.19431" lon="13.56528">
<ele>46</ele>
<time>2011-05-03T09:15:21Z</time>
</trkpt>
<trkpt lat="45.19426" lon="13.56529">
<ele>46</ele>
<time>2011-05-03T09:15:23Z</time>
</trkpt>
<trkpt lat="45.19422" lon="13.5653">
<ele>46</ele>
<time>2011-05-03T09:15:25Z</time>
</trkpt>
<trkpt lat="45.19417" lon="13.56532">
<ele>46</ele>
<time>2011-05-03T09:15:27Z</time>
</trkpt>
<trkpt lat="45.19412" lon="13.56533">
<ele>46</ele>
<time>2011-05-03T09:15:29Z</time>
</trkpt>
<trkpt lat="45.19407" lon="13.56534">
<ele>45</ele>
<time>2011-05-03T09:15:31Z</time>
</trkpt>
<trkpt lat="45.19402" lon="13.56536">
<ele>45</ele>
<time>2011-05-03T09:15:33Z</time>
</trkpt>
<trkpt lat="45.19398" lon="13.56537">
<ele>45</ele>
<time>2011-05-03T09:15:35Z</time>
</trkpt>
<trkpt lat="45.19393" lon="13.56538">
<ele>45</ele>
<time>2011-05-03T09:15:37Z</time>
</trkpt>
<trkpt lat="45.19388" lon="13.56539">
<ele>45</ele>
<time>2011-05-03T09:15:39Z</time>
</trkpt>
<trkpt lat="45.19384" lon="13.5654">
<ele>45</ele>
<time>2011-05-03T09:15:41Z</time>
</trkpt>
<trkpt lat="45.19379" lon="13.56542">
<ele>45</ele>
<time>2011-05-03T09:15:43Z</time>
</trkpt>
<trkpt lat="45.19375" lon="13.56542">
<ele>45</ele>
<time>2011-05-03T09:15:45Z</time>
</trkpt>
<trkpt lat="45.1937" lon="13.56543">
<ele>45</ele>
<time>2011-05-03T09:15:47Z</time>
</trkpt>
<trkpt lat="45.19366" lon="13.56544">
<ele>45</ele>
<time>2011-05-03T09:15:49Z</time>
</trkpt>
<trkpt lat="45.19359" lon="13.56545">
<ele>45</ele>
<time>2011-05-03T09:15:52Z</time>
</trkpt>
<trkpt lat="45.19354" lon="13.56545">
<ele>45</ele>
<time>2011-05-03T09:15:54Z</time>
</trkpt>
<trkpt lat="45.1935" lon="13.56546">
<ele>45</ele>
<time>2011-05-03T09:15:56Z</time>
</trkpt>
<trkpt lat="45.19345" lon="13.56546">
<ele>46</ele>
<time>2011-05-03T09:15:58Z</time>
</trkpt>
<trkpt lat="45.1934" lon="13.56547">
<ele>46</ele>
<time>2011-05-03T09:16:00Z</time>
</trkpt>
<trkpt lat="45.19336" lon="13.56548">
<ele>46</ele>
<time>2011-05-03T09:16:02Z</time>
</trkpt>
<trkpt lat="45.19331" lon="13.56549">
<ele>46</ele>
<time>2011-05-03T09:16:04Z</time>
</trkpt>
<trkpt lat="45.19326" lon="13.56549">
<ele>46</ele>
<time>2011-05-03T09:16:06Z</time>
</trkpt>
<trkpt lat="45.19321" lon="13.5655">
<ele>46</ele>
<time>2011-05-03T09:16:08Z</time>
</trkpt>
<trkpt lat="45.19316" lon="13.56551">
<ele>46</ele>
<time>2011-05-03T09:16:10Z</time>
</trkpt>
<trkpt lat="45.19312" lon="13.56551">
<ele>46</ele>
<time>2011-05-03T09:16:12Z</time>
</trkpt>
<trkpt lat="45.19307" lon="13.56552">
<ele>46</ele>
<time>2011-05-03T09:16:14Z</time>
</trkpt>
<trkpt lat="45.19302" lon="13.56552">
<ele>46</ele>
<time>2011-05-03T09:16:16Z</time>
</trkpt>
<trkpt lat="45.19297" lon="13.56553">
<ele>46</ele>
<time>2011-05-03T09:16:18Z</time>
</trkpt>
<trkpt lat="45.19292" lon="13.56554">
<ele>46</ele>
<time>2011-05-03T09:16:20Z</time>
</trkpt>
<trkpt lat="45.19288" lon="13.56555">
<ele>46</ele>
<time>2011-05-03T09:16:22Z</time>
</trkpt>
<trkpt lat="45.19283" lon="13.56556">
<ele>46</ele>
<time>2011-05-03T09:16:24Z</time>
</trkpt>
<trkpt lat="45.19278" lon="13.56557">
<ele>46</ele>
<time>2011-05-03T09:16:26Z</time>
</trkpt>
<trkpt lat="45.19273" lon="13.56558">
<ele>46</ele>
<time>2011-05-03T09:16:28Z</time>
</trkpt>
<trkpt lat="45.19268" lon="13.56559">
<ele>46</ele>
<time>2011-05-03T09:16:30Z</time>
</trkpt>
<trkpt lat="45.19264" lon="13.5656">
<ele>46</ele>
<time>2011-05-03T09:16:32Z</time>
</trkpt>
<trkpt lat="45.19259" lon="13.56562">
<ele>46</ele>
<time>2011-05-03T09:16:34Z</time>
</trkpt>
<trkpt lat="45.19254" lon="13.56564">
<ele>46</ele>
<time>2011-05-03T09:16:36Z</time>
</trkpt>
<trkpt lat="45.1925" lon="13.56566">
<ele>46</ele>
<time>2011-05-03T09:16:38Z</time>
</trkpt>
<trkpt lat="45.19245" lon="13.56568">
<ele>46</ele>
<time>2011-05-03T09:16:40Z</time>
</trkpt>
<trkpt lat="45.1924" lon="13.56571">
<ele>46</ele>
<time>2011-05-03T09:16:42Z</time>
</trkpt>
<trkpt lat="45.19235" lon="13.56573">
<ele>46</ele>
<time>2011-05-03T09:16:44Z</time>
</trkpt>
<trkpt lat="45.1923" lon="13.56575">
<ele>46</ele>
<time>2011-05-03T09:16:46Z</time>
</trkpt>
<trkpt lat="45.19226" lon="13.56577">
<ele>46</ele>
<time>2011-05-03T09:16:48Z</time>
</trkpt>
<trkpt lat="45.19221" lon="13.5658">
<ele>46</ele>
<time>2011-05-03T09:16:50Z</time>
</trkpt>
<trkpt lat="45.19216" lon="13.56582">
<ele>46</ele>
<time>2011-05-03T09:16:52Z</time>
</trkpt>
<trkpt lat="45.19212" lon="13.56585">
<ele>46</ele>
<time>2011-05-03T09:16:54Z</time>
</trkpt>
<trkpt lat="45.19207" lon="13.56587">
<ele>46</ele>
<time>2011-05-03T09:16:56Z</time>
</trkpt>
<trkpt lat="45.19202" lon="13.56589">
<ele>46</ele>
<time>2011-05-03T09:16:58Z</time>
</trkpt>
<trkpt lat="45.19197" lon="13.56592">
<ele>46</ele>
<time>2011-05-03T09:17:00Z</time>
</trkpt>
<trkpt lat="45.19193" lon="13.56594">
<ele>46</ele>
<time>2011-05-03T09:17:02Z</time>
</trkpt>
<trkpt lat="45.19188" lon="13.56597">
<ele>46</ele>
<time>2011-05-03T09:17:04Z</time>
</trkpt>
<trkpt lat="45.19184" lon="13.56599">
<ele>46</ele>
<time>2011-05-03T09:17:06Z</time>
</trkpt>
<trkpt lat="45.19179" lon="13.56602">
<ele>46</ele>
<time>2011-05-03T09:17:08Z</time>
</trkpt>
<trkpt lat="45.19174" lon="13.56604">
<ele>46</ele>
<time>2011-05-03T09:17:10Z</time>
</trkpt>
<trkpt lat="45.1917" lon="13.56607">
<ele>46</ele>
<time>2011-05-03T09:17:12Z</time>
</trkpt>
<trkpt lat="45.19166" lon="13.5661">
<ele>46</ele>
<time>2011-05-03T09:17:14Z</time>
</trkpt>
<trkpt lat="45.19161" lon="13.56613">
<ele>46</ele>
<time>2011-05-03T09:17:16Z</time>
</trkpt>
<trkpt lat="45.19157" lon="13.56615">
<ele>46</ele>
<time>2011-05-03T09:17:18Z</time>
</trkpt>
<trkpt lat="45.19152" lon="13.56618">
<ele>46</ele>
<time>2011-05-03T09:17:20Z</time>
</trkpt>
<trkpt lat="45.19148" lon="13.5662">
<ele>46</ele>
<time>2011-05-03T09:17:22Z</time>
</trkpt>
<trkpt lat="45.19143" lon="13.56622">
<ele>46</ele>
<time>2011-05-03T09:17:24Z</time>
</trkpt>
<trkpt lat="45.19139" lon="13.56625">
<ele>46</ele>
<time>2011-05-03T09:17:26Z</time>
</trkpt>
<trkpt lat="45.19134" lon="13.56627">
<ele>46</ele>
<time>2011-05-03T09:17:28Z</time>
</trkpt>
<trkpt lat="45.1913" lon="13.56629">
<ele>46</ele>
<time>2011-05-03T09:17:30Z</time>
</trkpt>
<trkpt lat="45.19125" lon="13.56632">
<ele>46</ele>
<time>2011-05-03T09:17:32Z</time>
</trkpt>
<trkpt lat="45.1912" lon="13.56634">
<ele>46</ele>
<time>2011-05-03T09:17:34Z</time>
</trkpt>
<trkpt lat="45.19116" lon="13.56636">
<ele>46</ele>
<time>2011-05-03T09:17:36Z</time>
</trkpt>
<trkpt lat="45.19112" lon="13.56639">
<ele>46</ele>
<time>2011-05-03T09:17:38Z</time>
</trkpt>
<trkpt lat="45.19107" lon="13.56642">
<ele>46</ele>
<time>2011-05-03T09:17:40Z</time>
</trkpt>
<trkpt lat="45.19103" lon="13.56644">
<ele>46</ele>
<time>2011-05-03T09:17:42Z</time>
</trkpt>
<trkpt lat="45.19098" lon="13.56646">
<ele>46</ele>
<time>2011-05-03T09:17:44Z</time>
</trkpt>
<trkpt lat="45.19094" lon="13.56649">
<ele>46</ele>
<time>2011-05-03T09:17:46Z</time>
</trkpt>
<trkpt lat="45.19089" lon="13.56651">
<ele>46</ele>
<time>2011-05-03T09:17:48Z</time>
</trkpt>
<trkpt lat="45.19085" lon="13.56654">
<ele>46</ele>
<time>2011-05-03T09:17:50Z</time>
</trkpt>
<trkpt lat="45.1908" lon="13.56657">
<ele>46</ele>
<time>2011-05-03T09:17:52Z</time>
</trkpt>
<trkpt lat="45.19076" lon="13.56659">
<ele>46</ele>
<time>2011-05-03T09:17:54Z</time>
</trkpt>
<trkpt lat="45.19071" lon="13.56661">
<ele>46</ele>
<time>2011-05-03T09:17:56Z</time>
</trkpt>
<trkpt lat="45.19067" lon="13.56664">
<ele>46</ele>
<time>2011-05-03T09:17:58Z</time>
</trkpt>
<trkpt lat="45.19062" lon="13.56666">
<ele>46</ele>
<time>2011-05-03T09:18:00Z</time>
</trkpt>
<trkpt lat="45.19058" lon="13.56669">
<ele>46</ele>
<time>2011-05-03T09:18:02Z</time>
</trkpt>
<trkpt lat="45.19053" lon="13.56672">
<ele>46</ele>
<time>2011-05-03T09:18:04Z</time>
</trkpt>
<trkpt lat="45.19049" lon="13.56674">
<ele>47</ele>
<time>2011-05-03T09:18:06Z</time>
</trkpt>
<trkpt lat="45.19044" lon="13.56677">
<ele>47</ele>
<time>2011-05-03T09:18:08Z</time>
</trkpt>
<trkpt lat="45.1904" lon="13.5668">
<ele>47</ele>
<time>2011-05-03T09:18:10Z</time>
</trkpt>
<trkpt lat="45.19035" lon="13.56682">
<ele>47</ele>
<time>2011-05-03T09:18:12Z</time>
</trkpt>
<trkpt lat="45.1903" lon="13.56684">
<ele>47</ele>
<time>2011-05-03T09:18:14Z</time>
</trkpt>
<trkpt lat="45.19025" lon="13.56687">
<ele>47</ele>
<time>2011-05-03T09:18:16Z</time>
</trkpt>
<trkpt lat="45.19021" lon="13.56689">
<ele>47</ele>
<time>2011-05-03T09:18:18Z</time>
</trkpt>
<trkpt lat="45.19016" lon="13.56692">
<ele>47</ele>
<time>2011-05-03T09:18:20Z</time>
</trkpt>
<trkpt lat="45.19012" lon="13.56694">
<ele>47</ele>
<time>2011-05-03T09:18:22Z</time>
</trkpt>
<trkpt lat="45.19007" lon="13.56697">
<ele>47</ele>
<time>2011-05-03T09:18:24Z</time>
</trkpt>
<trkpt lat="45.19003" lon="13.56699">
<ele>47</ele>
<time>2011-05-03T09:18:26Z</time>
</trkpt>
<trkpt lat="45.18999" lon="13.56702">
<ele>47</ele>
<time>2011-05-03T09:18:28Z</time>
</trkpt>
<trkpt lat="45.18994" lon="13.56705">
<ele>47</ele>
<time>2011-05-03T09:18:30Z</time>
</trkpt>
<trkpt lat="45.1899" lon="13.56707">
<ele>47</ele>
<time>2011-05-03T09:18:32Z</time>
</trkpt>
<trkpt lat="45.18986" lon="13.5671">
<ele>47</ele>
<time>2011-05-03T09:18:34Z</time>
</trkpt>
<trkpt lat="45.18982" lon="13.56712">
<ele>47</ele>
<time>2011-05-03T09:18:36Z</time>
</trkpt>
<trkpt lat="45.18977" lon="13.56715">
<ele>47</ele>
<time>2011-05-03T09:18:38Z</time>
</trkpt>
<trkpt lat="45.18973" lon="13.56717">
<ele>47</ele>
<time>2011-05-03T09:18:40Z</time>
</trkpt>
<trkpt lat="45.18968" lon="13.56719">
<ele>47</ele>
<time>2011-05-03T09:18:42Z</time>
</trkpt>
<trkpt lat="45.18964" lon="13.56721">
<ele>47</ele>
<time>2011-05-03T09:18:44Z</time>
</trkpt>
<trkpt lat="45.18959" lon="13.56723">
<ele>47</ele>
<time>2011-05-03T09:18:46Z</time>
</trkpt>
<trkpt lat="45.18954" lon="13.56726">
<ele>46</ele>
<time>2011-05-03T09:18:48Z</time>
</trkpt>
<trkpt lat="45.1895" lon="13.56728">
<ele>46</ele>
<time>2011-05-03T09:18:50Z</time>
</trkpt>
<trkpt lat="45.18945" lon="13.5673">
<ele>46</ele>
<time>2011-05-03T09:18:52Z</time>
</trkpt>
<trkpt lat="45.1894" lon="13.56733">
<ele>46</ele>
<time>2011-05-03T09:18:54Z</time>
</trkpt>
<trkpt lat="45.18936" lon="13.56735">
<ele>46</ele>
<time>2011-05-03T09:18:56Z</time>
</trkpt>
<trkpt lat="45.18932" lon="13.56737">
<ele>46</ele>
<time>2011-05-03T09:18:58Z</time>
</trkpt>
<trkpt lat="45.18927" lon="13.5674">
<ele>46</ele>
<time>2011-05-03T09:19:00Z</time>
</trkpt>
<trkpt lat="45.18923" lon="13.56742">
<ele>47</ele>
<time>2011-05-03T09:19:02Z</time>
</trkpt>
<trkpt lat="45.18918" lon="13.56744">
<ele>47</ele>
<time>2011-05-03T09:19:04Z</time>
</trkpt>
<trkpt lat="45.18914" lon="13.56746">
<ele>47</ele>
<time>2011-05-03T09:19:06Z</time>
</trkpt>
<trkpt lat="45.18909" lon="13.56748">
<ele>47</ele>
<time>2011-05-03T09:19:08Z</time>
</trkpt>
<trkpt lat="45.18904" lon="13.5675">
<ele>47</ele>
<time>2011-05-03T09:19:10Z</time>
</trkpt>
<trkpt lat="45.189" lon="13.56752">
<ele>47</ele>
<time>2011-05-03T09:19:12Z</time>
</trkpt>
<trkpt lat="45.18895" lon="13.56755">
<ele>47</ele>
<time>2011-05-03T09:19:14Z</time>
</trkpt>
<trkpt lat="45.18891" lon="13.56757">
<ele>47</ele>
<time>2011-05-03T09:19:16Z</time>
</trkpt>
<trkpt lat="45.18886" lon="13.56759">
<ele>47</ele>
<time>2011-05-03T09:19:18Z</time>
</trkpt>
<trkpt lat="45.18882" lon="13.56761">
<ele>47</ele>
<time>2011-05-03T09:19:20Z</time>
</trkpt>
<trkpt lat="45.18877" lon="13.56764">
<ele>47</ele>
<time>2011-05-03T09:19:22Z</time>
</trkpt>
<trkpt lat="45.18872" lon="13.56766">
<ele>47</ele>
<time>2011-05-03T09:19:24Z</time>
</trkpt>
<trkpt lat="45.18867" lon="13.56768">
<ele>47</ele>
<time>2011-05-03T09:19:26Z</time>
</trkpt>
<trkpt lat="45.18863" lon="13.5677">
<ele>47</ele>
<time>2011-05-03T09:19:28Z</time>
</trkpt>
<trkpt lat="45.18858" lon="13.56773">
<ele>47</ele>
<time>2011-05-03T09:19:30Z</time>
</trkpt>
<trkpt lat="45.18853" lon="13.56775">
<ele>47</ele>
<time>2011-05-03T09:19:32Z</time>
</trkpt>
<trkpt lat="45.18848" lon="13.56777">
<ele>47</ele>
<time>2011-05-03T09:19:34Z</time>
</trkpt>
<trkpt lat="45.18844" lon="13.56779">
<ele>47</ele>
<time>2011-05-03T09:19:36Z</time>
</trkpt>
<trkpt lat="45.18839" lon="13.56781">
<ele>47</ele>
<time>2011-05-03T09:19:38Z</time>
</trkpt>
<trkpt lat="45.18834" lon="13.56783">
<ele>47</ele>
<time>2011-05-03T09:19:40Z</time>
</trkpt>
<trkpt lat="45.1883" lon="13.56786">
<ele>47</ele>
<time>2011-05-03T09:19:42Z</time>
</trkpt>
<trkpt lat="45.18825" lon="13.56788">
<ele>47</ele>
<time>2011-05-03T09:19:44Z</time>
</trkpt>
<trkpt lat="45.1882" lon="13.5679">
<ele>47</ele>
<time>2011-05-03T09:19:46Z</time>
</trkpt>
<trkpt lat="45.18816" lon="13.56792">
<ele>47</ele>
<time>2011-05-03T09:19:48Z</time>
</trkpt>
<trkpt lat="45.18811" lon="13.56794">
<ele>47</ele>
<time>2011-05-03T09:19:50Z</time>
</trkpt>
<trkpt lat="45.18806" lon="13.56797">
<ele>47</ele>
<time>2011-05-03T09:19:52Z</time>
</trkpt>
<trkpt lat="45.18802" lon="13.56799">
<ele>47</ele>
<time>2011-05-03T09:19:54Z</time>
</trkpt>
<trkpt lat="45.18797" lon="13.56801">
<ele>47</ele>
<time>2011-05-03T09:19:56Z</time>
</trkpt>
<trkpt lat="45.18792" lon="13.56803">
<ele>47</ele>
<time>2011-05-03T09:19:58Z</time>
</trkpt>
<trkpt lat="45.18788" lon="13.56806">
<ele>47</ele>
<time>2011-05-03T09:20:00Z</time>
</trkpt>
<trkpt lat="45.18783" lon="13.56808">
<ele>47</ele>
<time>2011-05-03T09:20:02Z</time>
</trkpt>
<trkpt lat="45.18779" lon="13.56811">
<ele>47</ele>
<time>2011-05-03T09:20:04Z</time>
</trkpt>
<trkpt lat="45.18774" lon="13.56813">
<ele>47</ele>
<time>2011-05-03T09:20:06Z</time>
</trkpt>
<trkpt lat="45.1877" lon="13.56815">
<ele>47</ele>
<time>2011-05-03T09:20:08Z</time>
</trkpt>
<trkpt lat="45.18765" lon="13.56817">
<ele>47</ele>
<time>2011-05-03T09:20:10Z</time>
</trkpt>
<trkpt lat="45.1876" lon="13.56819">
<ele>47</ele>
<time>2011-05-03T09:20:12Z</time>
</trkpt>
<trkpt lat="45.18755" lon="13.56822">
<ele>47</ele>
<time>2011-05-03T09:20:14Z</time>
</trkpt>
<trkpt lat="45.1875" lon="13.56824">
<ele>47</ele>
<time>2011-05-03T09:20:16Z</time>
</trkpt>
<trkpt lat="45.18746" lon="13.56826">
<ele>47</ele>
<time>2011-05-03T09:20:18Z</time>
</trkpt>
<trkpt lat="45.18741" lon="13.56828">
<ele>47</ele>
<time>2011-05-03T09:20:20Z</time>
</trkpt>
<trkpt lat="45.18736" lon="13.56831">
<ele>47</ele>
<time>2011-05-03T09:20:22Z</time>
</trkpt>
<trkpt lat="45.18731" lon="13.56833">
<ele>47</ele>
<time>2011-05-03T09:20:24Z</time>
</trkpt>
<trkpt lat="45.18727" lon="13.56835">
<ele>47</ele>
<time>2011-05-03T09:20:26Z</time>
</trkpt>
<trkpt lat="45.18722" lon="13.56838">
<ele>47</ele>
<time>2011-05-03T09:20:28Z</time>
</trkpt>
<trkpt lat="45.18718" lon="13.5684">
<ele>47</ele>
<time>2011-05-03T09:20:30Z</time>
</trkpt>
<trkpt lat="45.18713" lon="13.56843">
<ele>47</ele>
<time>2011-05-03T09:20:32Z</time>
</trkpt>
<trkpt lat="45.18708" lon="13.56845">
<ele>47</ele>
<time>2011-05-03T09:20:34Z</time>
</trkpt>
<trkpt lat="45.18704" lon="13.56847">
<ele>47</ele>
<time>2011-05-03T09:20:36Z</time>
</trkpt>
<trkpt lat="45.187" lon="13.5685">
<ele>47</ele>
<time>2011-05-03T09:20:38Z</time>
</trkpt>
<trkpt lat="45.18695" lon="13.56852">
<ele>47</ele>
<time>2011-05-03T09:20:40Z</time>
</trkpt>
<trkpt lat="45.1869" lon="13.56854">
<ele>47</ele>
<time>2011-05-03T09:20:42Z</time>
</trkpt>
<trkpt lat="45.18686" lon="13.56856">
<ele>47</ele>
<time>2011-05-03T09:20:44Z</time>
</trkpt>
<trkpt lat="45.18681" lon="13.56859">
<ele>47</ele>
<time>2011-05-03T09:20:46Z</time>
</trkpt>
<trkpt lat="45.18676" lon="13.56861">
<ele>47</ele>
<time>2011-05-03T09:20:48Z</time>
</trkpt>
<trkpt lat="45.18672" lon="13.56863">
<ele>47</ele>
<time>2011-05-03T09:20:50Z</time>
</trkpt>
<trkpt lat="45.18667" lon="13.56866">
<ele>47</ele>
<time>2011-05-03T09:20:52Z</time>
</trkpt>
<trkpt lat="45.18663" lon="13.56868">
<ele>47</ele>
<time>2011-05-03T09:20:54Z</time>
</trkpt>
<trkpt lat="45.18658" lon="13.5687">
<ele>47</ele>
<time>2011-05-03T09:20:56Z</time>
</trkpt>
<trkpt lat="45.18654" lon="13.56872">
<ele>47</ele>
<time>2011-05-03T09:20:58Z</time>
</trkpt>
<trkpt lat="45.18649" lon="13.56874">
<ele>47</ele>
<time>2011-05-03T09:21:00Z</time>
</trkpt>
<trkpt lat="45.18644" lon="13.56876">
<ele>47</ele>
<time>2011-05-03T09:21:02Z</time>
</trkpt>
<trkpt lat="45.1864" lon="13.56878">
<ele>47</ele>
<time>2011-05-03T09:21:04Z</time>
</trkpt>
<trkpt lat="45.18635" lon="13.5688">
<ele>47</ele>
<time>2011-05-03T09:21:06Z</time>
</trkpt>
<trkpt lat="45.1863" lon="13.56882">
<ele>47</ele>
<time>2011-05-03T09:21:08Z</time>
</trkpt>
<trkpt lat="45.18626" lon="13.56883">
<ele>47</ele>
<time>2011-05-03T09:21:10Z</time>
</trkpt>
<trkpt lat="45.18621" lon="13.56884">
<ele>47</ele>
<time>2011-05-03T09:21:12Z</time>
</trkpt>
<trkpt lat="45.18616" lon="13.56886">
<ele>47</ele>
<time>2011-05-03T09:21:14Z</time>
</trkpt>
<trkpt lat="45.18612" lon="13.56888">
<ele>47</ele>
<time>2011-05-03T09:21:16Z</time>
</trkpt>
<trkpt lat="45.18607" lon="13.56891">
<ele>47</ele>
<time>2011-05-03T09:21:18Z</time>
</trkpt>
<trkpt lat="45.18602" lon="13.56893">
<ele>47</ele>
<time>2011-05-03T09:21:20Z</time>
</trkpt>
<trkpt lat="45.18598" lon="13.56895">
<ele>47</ele>
<time>2011-05-03T09:21:22Z</time>
</trkpt>
<trkpt lat="45.18593" lon="13.56896">
<ele>47</ele>
<time>2011-05-03T09:21:24Z</time>
</trkpt>
<trkpt lat="45.18589" lon="13.56898">
<ele>47</ele>
<time>2011-05-03T09:21:26Z</time>
</trkpt>
<trkpt lat="45.18584" lon="13.569">
<ele>47</ele>
<time>2011-05-03T09:21:28Z</time>
</trkpt>
<trkpt lat="45.18579" lon="13.56902">
<ele>47</ele>
<time>2011-05-03T09:21:30Z</time>
</trkpt>
<trkpt lat="45.18575" lon="13.56905">
<ele>48</ele>
<time>2011-05-03T09:21:32Z</time>
</trkpt>
<trkpt lat="45.1857" lon="13.56907">
<ele>48</ele>
<time>2011-05-03T09:21:34Z</time>
</trkpt>
<trkpt lat="45.18565" lon="13.56909">
<ele>48</ele>
<time>2011-05-03T09:21:36Z</time>
</trkpt>
<trkpt lat="45.18561" lon="13.56911">
<ele>48</ele>
<time>2011-05-03T09:21:38Z</time>
</trkpt>
<trkpt lat="45.18556" lon="13.56914">
<ele>48</ele>
<time>2011-05-03T09:21:40Z</time>
</trkpt>
<trkpt lat="45.18551" lon="13.56916">
<ele>48</ele>
<time>2011-05-03T09:21:42Z</time>
</trkpt>
<trkpt lat="45.18546" lon="13.56918">
<ele>48</ele>
<time>2011-05-03T09:21:44Z</time>
</trkpt>
<trkpt lat="45.18541" lon="13.5692">
<ele>48</ele>
<time>2011-05-03T09:21:46Z</time>
</trkpt>
<trkpt lat="45.18537" lon="13.56922">
<ele>48</ele>
<time>2011-05-03T09:21:48Z</time>
</trkpt>
<trkpt lat="45.18532" lon="13.56924">
<ele>48</ele>
<time>2011-05-03T09:21:50Z</time>
</trkpt>
<trkpt lat="45.18527" lon="13.56926">
<ele>48</ele>
<time>2011-05-03T09:21:52Z</time>
</trkpt>
<trkpt lat="45.18523" lon="13.56929">
<ele>48</ele>
<time>2011-05-03T09:21:54Z</time>
</trkpt>
<trkpt lat="45.18518" lon="13.56932">
<ele>48</ele>
<time>2011-05-03T09:21:56Z</time>
</trkpt>
<trkpt lat="45.18513" lon="13.56935">
<ele>48</ele>
<time>2011-05-03T09:21:58Z</time>
</trkpt>
<trkpt lat="45.18509" lon="13.56937">
<ele>48</ele>
<time>2011-05-03T09:22:00Z</time>
</trkpt>
<trkpt lat="45.18504" lon="13.56939">
<ele>48</ele>
<time>2011-05-03T09:22:02Z</time>
</trkpt>
<trkpt lat="45.18499" lon="13.56941">
<ele>48</ele>
<time>2011-05-03T09:22:04Z</time>
</trkpt>
<trkpt lat="45.18495" lon="13.56944">
<ele>48</ele>
<time>2011-05-03T09:22:06Z</time>
</trkpt>
<trkpt lat="45.1849" lon="13.56946">
<ele>48</ele>
<time>2011-05-03T09:22:08Z</time>
</trkpt>
<trkpt lat="45.18485" lon="13.56949">
<ele>48</ele>
<time>2011-05-03T09:22:10Z</time>
</trkpt>
<trkpt lat="45.1848" lon="13.56951">
<ele>48</ele>
<time>2011-05-03T09:22:12Z</time>
</trkpt>
<trkpt lat="45.18476" lon="13.56954">
<ele>48</ele>
<time>2011-05-03T09:22:14Z</time>
</trkpt>
<trkpt lat="45.18471" lon="13.56956">
<ele>48</ele>
<time>2011-05-03T09:22:16Z</time>
</trkpt>
<trkpt lat="45.18466" lon="13.56958">
<ele>48</ele>
<time>2011-05-03T09:22:18Z</time>
</trkpt>
<trkpt lat="45.18461" lon="13.5696">
<ele>48</ele>
<time>2011-05-03T09:22:20Z</time>
</trkpt>
<trkpt lat="45.18456" lon="13.56962">
<ele>48</ele>
<time>2011-05-03T09:22:22Z</time>
</trkpt>
<trkpt lat="45.18452" lon="13.56964">
<ele>49</ele>
<time>2011-05-03T09:22:24Z</time>
</trkpt>
<trkpt lat="45.18447" lon="13.56966">
<ele>49</ele>
<time>2011-05-03T09:22:26Z</time>
</trkpt>
<trkpt lat="45.18442" lon="13.56968">
<ele>49</ele>
<time>2011-05-03T09:22:28Z</time>
</trkpt>
<trkpt lat="45.18438" lon="13.56971">
<ele>49</ele>
<time>2011-05-03T09:22:30Z</time>
</trkpt>
<trkpt lat="45.18433" lon="13.56974">
<ele>49</ele>
<time>2011-05-03T09:22:32Z</time>
</trkpt>
<trkpt lat="45.18429" lon="13.56976">
<ele>49</ele>
<time>2011-05-03T09:22:34Z</time>
</trkpt>
<trkpt lat="45.18425" lon="13.56979">
<ele>49</ele>
<time>2011-05-03T09:22:36Z</time>
</trkpt>
<trkpt lat="45.1842" lon="13.56982">
<ele>49</ele>
<time>2011-05-03T09:22:38Z</time>
</trkpt>
<trkpt lat="45.18416" lon="13.56984">
<ele>49</ele>
<time>2011-05-03T09:22:40Z</time>
</trkpt>
<trkpt lat="45.18411" lon="13.56987">
<ele>49</ele>
<time>2011-05-03T09:22:42Z</time>
</trkpt>
<trkpt lat="45.18406" lon="13.56989">
<ele>49</ele>
<time>2011-05-03T09:22:44Z</time>
</trkpt>
<trkpt lat="45.18402" lon="13.56991">
<ele>49</ele>
<time>2011-05-03T09:22:46Z</time>
</trkpt>
<trkpt lat="45.18397" lon="13.56993">
<ele>49</ele>
<time>2011-05-03T09:22:48Z</time>
</trkpt>
<trkpt lat="45.18393" lon="13.56995">
<ele>49</ele>
<time>2011-05-03T09:22:50Z</time>
</trkpt>
<trkpt lat="45.18388" lon="13.56998">
<ele>49</ele>
<time>2011-05-03T09:22:52Z</time>
</trkpt>
<trkpt lat="45.18383" lon="13.57">
<ele>49</ele>
<time>2011-05-03T09:22:54Z</time>
</trkpt>
<trkpt lat="45.18379" lon="13.57002">
<ele>49</ele>
<time>2011-05-03T09:22:56Z</time>
</trkpt>
<trkpt lat="45.18374" lon="13.57004">
<ele>49</ele>
<time>2011-05-03T09:22:58Z</time>
</trkpt>
<trkpt lat="45.18369" lon="13.57006">
<ele>49</ele>
<time>2011-05-03T09:23:00Z</time>
</trkpt>
<trkpt lat="45.18365" lon="13.57008">
<ele>49</ele>
<time>2011-05-03T09:23:02Z</time>
</trkpt>
<trkpt lat="45.1836" lon="13.5701">
<ele>49</ele>
<time>2011-05-03T09:23:04Z</time>
</trkpt>
<trkpt lat="45.18355" lon="13.57012">
<ele>49</ele>
<time>2011-05-03T09:23:06Z</time>
</trkpt>
<trkpt lat="45.1835" lon="13.57014">
<ele>49</ele>
<time>2011-05-03T09:23:08Z</time>
</trkpt>
<trkpt lat="45.18346" lon="13.57017">
<ele>49</ele>
<time>2011-05-03T09:23:10Z</time>
</trkpt>
<trkpt lat="45.18341" lon="13.57019">
<ele>49</ele>
<time>2011-05-03T09:23:12Z</time>
</trkpt>
<trkpt lat="45.18336" lon="13.57021">
<ele>49</ele>
<time>2011-05-03T09:23:14Z</time>
</trkpt>
<trkpt lat="45.18332" lon="13.57023">
<ele>49</ele>
<time>2011-05-03T09:23:16Z</time>
</trkpt>
<trkpt lat="45.18327" lon="13.57025">
<ele>50</ele>
<time>2011-05-03T09:23:18Z</time>
</trkpt>
<trkpt lat="45.18322" lon="13.57028">
<ele>50</ele>
<time>2011-05-03T09:23:20Z</time>
</trkpt>
<trkpt lat="45.18318" lon="13.57031">
<ele>50</ele>
<time>2011-05-03T09:23:22Z</time>
</trkpt>
<trkpt lat="45.18313" lon="13.57034">
<ele>50</ele>
<time>2011-05-03T09:23:24Z</time>
</trkpt>
<trkpt lat="45.18309" lon="13.57036">
<ele>50</ele>
<time>2011-05-03T09:23:26Z</time>
</trkpt>
<trkpt lat="45.18304" lon="13.57038">
<ele>50</ele>
<time>2011-05-03T09:23:28Z</time>
</trkpt>
<trkpt lat="45.18299" lon="13.5704">
<ele>50</ele>
<time>2011-05-03T09:23:30Z</time>
</trkpt>
<trkpt lat="45.18295" lon="13.57043">
<ele>50</ele>
<time>2011-05-03T09:23:32Z</time>
</trkpt>
<trkpt lat="45.1829" lon="13.57045">
<ele>50</ele>
<time>2011-05-03T09:23:34Z</time>
</trkpt>
<trkpt lat="45.18285" lon="13.57048">
<ele>50</ele>
<time>2011-05-03T09:23:36Z</time>
</trkpt>
<trkpt lat="45.1828" lon="13.5705">
<ele>50</ele>
<time>2011-05-03T09:23:38Z</time>
</trkpt>
<trkpt lat="45.18276" lon="13.57052">
<ele>50</ele>
<time>2011-05-03T09:23:40Z</time>
</trkpt>
<trkpt lat="45.18271" lon="13.57054">
<ele>50</ele>
<time>2011-05-03T09:23:42Z</time>
</trkpt>
<trkpt lat="45.18266" lon="13.57056">
<ele>50</ele>
<time>2011-05-03T09:23:44Z</time>
</trkpt>
<trkpt lat="45.18262" lon="13.57058">
<ele>50</ele>
<time>2011-05-03T09:23:46Z</time>
</trkpt>
<trkpt lat="45.18257" lon="13.57061">
<ele>50</ele>
<time>2011-05-03T09:23:48Z</time>
</trkpt>
<trkpt lat="45.18252" lon="13.57064">
<ele>50</ele>
<time>2011-05-03T09:23:50Z</time>
</trkpt>
<trkpt lat="45.18248" lon="13.57066">
<ele>50</ele>
<time>2011-05-03T09:23:52Z</time>
</trkpt>
<trkpt lat="45.18243" lon="13.57068">
<ele>50</ele>
<time>2011-05-03T09:23:54Z</time>
</trkpt>
<trkpt lat="45.18238" lon="13.5707">
<ele>50</ele>
<time>2011-05-03T09:23:56Z</time>
</trkpt>
<trkpt lat="45.18234" lon="13.57073">
<ele>50</ele>
<time>2011-05-03T09:23:58Z</time>
</trkpt>
<trkpt lat="45.18229" lon="13.57075">
<ele>50</ele>
<time>2011-05-03T09:24:00Z</time>
</trkpt>
<trkpt lat="45.18224" lon="13.57077">
<ele>50</ele>
<time>2011-05-03T09:24:02Z</time>
</trkpt>
<trkpt lat="45.1822" lon="13.57079">
<ele>50</ele>
<time>2011-05-03T09:24:04Z</time>
</trkpt>
<trkpt lat="45.18215" lon="13.57081">
<ele>50</ele>
<time>2011-05-03T09:24:06Z</time>
</trkpt>
<trkpt lat="45.1821" lon="13.57083">
<ele>50</ele>
<time>2011-05-03T09:24:08Z</time>
</trkpt>
<trkpt lat="45.18206" lon="13.57086">
<ele>50</ele>
<time>2011-05-03T09:24:10Z</time>
</trkpt>
<trkpt lat="45.18201" lon="13.57088">
<ele>50</ele>
<time>2011-05-03T09:24:12Z</time>
</trkpt>
<trkpt lat="45.18197" lon="13.5709">
<ele>50</ele>
<time>2011-05-03T09:24:14Z</time>
</trkpt>
<trkpt lat="45.18192" lon="13.57093">
<ele>50</ele>
<time>2011-05-03T09:24:16Z</time>
</trkpt>
<trkpt lat="45.18188" lon="13.57095">
<ele>50</ele>
<time>2011-05-03T09:24:18Z</time>
</trkpt>
<trkpt lat="45.18183" lon="13.57098">
<ele>50</ele>
<time>2011-05-03T09:24:20Z</time>
</trkpt>
<trkpt lat="45.18179" lon="13.571">
<ele>50</ele>
<time>2011-05-03T09:24:22Z</time>
</trkpt>
<trkpt lat="45.18174" lon="13.57102">
<ele>50</ele>
<time>2011-05-03T09:24:24Z</time>
</trkpt>
<trkpt lat="45.1817" lon="13.57105">
<ele>50</ele>
<time>2011-05-03T09:24:26Z</time>
</trkpt>
<trkpt lat="45.18165" lon="13.57107">
<ele>50</ele>
<time>2011-05-03T09:24:28Z</time>
</trkpt>
<trkpt lat="45.18161" lon="13.5711">
<ele>50</ele>
<time>2011-05-03T09:24:30Z</time>
</trkpt>
<trkpt lat="45.18156" lon="13.57112">
<ele>50</ele>
<time>2011-05-03T09:24:32Z</time>
</trkpt>
<trkpt lat="45.18151" lon="13.57114">
<ele>50</ele>
<time>2011-05-03T09:24:34Z</time>
</trkpt>
<trkpt lat="45.18147" lon="13.57116">
<ele>50</ele>
<time>2011-05-03T09:24:36Z</time>
</trkpt>
<trkpt lat="45.18142" lon="13.57119">
<ele>50</ele>
<time>2011-05-03T09:24:38Z</time>
</trkpt>
<trkpt lat="45.18138" lon="13.57121">
<ele>50</ele>
<time>2011-05-03T09:24:40Z</time>
</trkpt>
<trkpt lat="45.18133" lon="13.57124">
<ele>50</ele>
<time>2011-05-03T09:24:42Z</time>
</trkpt>
<trkpt lat="45.18129" lon="13.57126">
<ele>50</ele>
<time>2011-05-03T09:24:44Z</time>
</trkpt>
<trkpt lat="45.18124" lon="13.57128">
<ele>50</ele>
<time>2011-05-03T09:24:46Z</time>
</trkpt>
<trkpt lat="45.18119" lon="13.57131">
<ele>50</ele>
<time>2011-05-03T09:24:48Z</time>
</trkpt>
<trkpt lat="45.18114" lon="13.57134">
<ele>50</ele>
<time>2011-05-03T09:24:50Z</time>
</trkpt>
<trkpt lat="45.1811" lon="13.57136">
<ele>50</ele>
<time>2011-05-03T09:24:52Z</time>
</trkpt>
<trkpt lat="45.18105" lon="13.57139">
<ele>50</ele>
<time>2011-05-03T09:24:54Z</time>
</trkpt>
<trkpt lat="45.181" lon="13.57141">
<ele>50</ele>
<time>2011-05-03T09:24:56Z</time>
</trkpt>
<trkpt lat="45.18095" lon="13.57142">
<ele>50</ele>
<time>2011-05-03T09:24:58Z</time>
</trkpt>
<trkpt lat="45.1809" lon="13.57143">
<ele>50</ele>
<time>2011-05-03T09:25:00Z</time>
</trkpt>
<trkpt lat="45.18086" lon="13.57144">
<ele>50</ele>
<time>2011-05-03T09:25:02Z</time>
</trkpt>
<trkpt lat="45.18081" lon="13.57145">
<ele>50</ele>
<time>2011-05-03T09:25:04Z</time>
</trkpt>
<trkpt lat="45.18076" lon="13.57147">
<ele>50</ele>
<time>2011-05-03T09:25:06Z</time>
</trkpt>
<trkpt lat="45.18071" lon="13.57149">
<ele>50</ele>
<time>2011-05-03T09:25:08Z</time>
</trkpt>
<trkpt lat="45.18067" lon="13.57151">
<ele>50</ele>
<time>2011-05-03T09:25:10Z</time>
</trkpt>
<trkpt lat="45.18062" lon="13.57153">
<ele>50</ele>
<time>2011-05-03T09:25:12Z</time>
</trkpt>
<trkpt lat="45.18058" lon="13.57156">
<ele>50</ele>
<time>2011-05-03T09:25:14Z</time>
</trkpt>
<trkpt lat="45.18053" lon="13.57159">
<ele>50</ele>
<time>2011-05-03T09:25:16Z</time>
</trkpt>
<trkpt lat="45.18049" lon="13.57162">
<ele>50</ele>
<time>2011-05-03T09:25:18Z</time>
</trkpt>
<trkpt lat="45.18045" lon="13.57165">
<ele>50</ele>
<time>2011-05-03T09:25:20Z</time>
</trkpt>
<trkpt lat="45.1804" lon="13.57167">
<ele>50</ele>
<time>2011-05-03T09:25:22Z</time>
</trkpt>
<trkpt lat="45.18036" lon="13.57169">
<ele>50</ele>
<time>2011-05-03T09:25:24Z</time>
</trkpt>
<trkpt lat="45.18031" lon="13.57172">
<ele>50</ele>
<time>2011-05-03T09:25:26Z</time>
</trkpt>
<trkpt lat="45.18027" lon="13.57174">
<ele>50</ele>
<time>2011-05-03T09:25:28Z</time>
</trkpt>
<trkpt lat="45.18022" lon="13.57177">
<ele>50</ele>
<time>2011-05-03T09:25:30Z</time>
</trkpt>
<trkpt lat="45.18018" lon="13.5718">
<ele>50</ele>
<time>2011-05-03T09:25:32Z</time>
</trkpt>
<trkpt lat="45.18013" lon="13.57182">
<ele>50</ele>
<time>2011-05-03T09:25:34Z</time>
</trkpt>
<trkpt lat="45.18008" lon="13.57184">
<ele>50</ele>
<time>2011-05-03T09:25:36Z</time>
</trkpt>
<trkpt lat="45.18004" lon="13.57186">
<ele>50</ele>
<time>2011-05-03T09:25:38Z</time>
</trkpt>
<trkpt lat="45.17999" lon="13.57189">
<ele>50</ele>
<time>2011-05-03T09:25:40Z</time>
</trkpt>
<trkpt lat="45.17995" lon="13.57191">
<ele>50</ele>
<time>2011-05-03T09:25:42Z</time>
</trkpt>
<trkpt lat="45.1799" lon="13.57193">
<ele>50</ele>
<time>2011-05-03T09:25:44Z</time>
</trkpt>
<trkpt lat="45.17986" lon="13.57195">
<ele>50</ele>
<time>2011-05-03T09:25:46Z</time>
</trkpt>
<trkpt lat="45.17981" lon="13.57197">
<ele>50</ele>
<time>2011-05-03T09:25:48Z</time>
</trkpt>
<trkpt lat="45.17976" lon="13.57199">
<ele>50</ele>
<time>2011-05-03T09:25:50Z</time>
</trkpt>
<trkpt lat="45.17972" lon="13.57202">
<ele>50</ele>
<time>2011-05-03T09:25:52Z</time>
</trkpt>
<trkpt lat="45.17967" lon="13.57205">
<ele>50</ele>
<time>2011-05-03T09:25:54Z</time>
</trkpt>
<trkpt lat="45.17963" lon="13.57208">
<ele>50</ele>
<time>2011-05-03T09:25:56Z</time>
</trkpt>
<trkpt lat="45.17958" lon="13.5721">
<ele>50</ele>
<time>2011-05-03T09:25:58Z</time>
</trkpt>
<trkpt lat="45.17954" lon="13.57212">
<ele>50</ele>
<time>2011-05-03T09:26:00Z</time>
</trkpt>
<trkpt lat="45.1795" lon="13.57215">
<ele>50</ele>
<time>2011-05-03T09:26:02Z</time>
</trkpt>
<trkpt lat="45.17945" lon="13.57217">
<ele>50</ele>
<time>2011-05-03T09:26:04Z</time>
</trkpt>
<trkpt lat="45.17941" lon="13.5722">
<ele>50</ele>
<time>2011-05-03T09:26:06Z</time>
</trkpt>
<trkpt lat="45.17936" lon="13.57222">
<ele>50</ele>
<time>2011-05-03T09:26:08Z</time>
</trkpt>
<trkpt lat="45.17932" lon="13.57225">
<ele>50</ele>
<time>2011-05-03T09:26:10Z</time>
</trkpt>
<trkpt lat="45.17927" lon="13.57227">
<ele>50</ele>
<time>2011-05-03T09:26:12Z</time>
</trkpt>
<trkpt lat="45.17922" lon="13.57229">
<ele>50</ele>
<time>2011-05-03T09:26:14Z</time>
</trkpt>
<trkpt lat="45.17917" lon="13.57231">
<ele>50</ele>
<time>2011-05-03T09:26:16Z</time>
</trkpt>
<trkpt lat="45.17912" lon="13.57234">
<ele>50</ele>
<time>2011-05-03T09:26:18Z</time>
</trkpt>
<trkpt lat="45.17907" lon="13.57236">
<ele>50</ele>
<time>2011-05-03T09:26:20Z</time>
</trkpt>
<trkpt lat="45.17902" lon="13.57238">
<ele>50</ele>
<time>2011-05-03T09:26:22Z</time>
</trkpt>
<trkpt lat="45.17898" lon="13.57241">
<ele>50</ele>
<time>2011-05-03T09:26:24Z</time>
</trkpt>
<trkpt lat="45.17893" lon="13.57243">
<ele>50</ele>
<time>2011-05-03T09:26:26Z</time>
</trkpt>
<trkpt lat="45.17888" lon="13.57245">
<ele>50</ele>
<time>2011-05-03T09:26:28Z</time>
</trkpt>
<trkpt lat="45.17883" lon="13.57248">
<ele>50</ele>
<time>2011-05-03T09:26:30Z</time>
</trkpt>
<trkpt lat="45.17879" lon="13.5725">
<ele>50</ele>
<time>2011-05-03T09:26:32Z</time>
</trkpt>
<trkpt lat="45.17874" lon="13.57253">
<ele>50</ele>
<time>2011-05-03T09:26:34Z</time>
</trkpt>
<trkpt lat="45.17869" lon="13.57256">
<ele>50</ele>
<time>2011-05-03T09:26:36Z</time>
</trkpt>
<trkpt lat="45.17864" lon="13.57258">
<ele>50</ele>
<time>2011-05-03T09:26:38Z</time>
</trkpt>
<trkpt lat="45.17859" lon="13.5726">
<ele>50</ele>
<time>2011-05-03T09:26:40Z</time>
</trkpt>
<trkpt lat="45.17854" lon="13.57263">
<ele>50</ele>
<time>2011-05-03T09:26:42Z</time>
</trkpt>
<trkpt lat="45.17849" lon="13.57265">
<ele>50</ele>
<time>2011-05-03T09:26:44Z</time>
</trkpt>
<trkpt lat="45.17845" lon="13.57267">
<ele>50</ele>
<time>2011-05-03T09:26:46Z</time>
</trkpt>
<trkpt lat="45.1784" lon="13.57269">
<ele>50</ele>
<time>2011-05-03T09:26:48Z</time>
</trkpt>
<trkpt lat="45.17835" lon="13.57271">
<ele>50</ele>
<time>2011-05-03T09:26:50Z</time>
</trkpt>
<trkpt lat="45.1783" lon="13.57273">
<ele>50</ele>
<time>2011-05-03T09:26:52Z</time>
</trkpt>
<trkpt lat="45.17826" lon="13.57275">
<ele>50</ele>
<time>2011-05-03T09:26:54Z</time>
</trkpt>
<trkpt lat="45.17821" lon="13.57277">
<ele>50</ele>
<time>2011-05-03T09:26:56Z</time>
</trkpt>
<trkpt lat="45.17816" lon="13.5728">
<ele>50</ele>
<time>2011-05-03T09:26:58Z</time>
</trkpt>
<trkpt lat="45.17811" lon="13.57282">
<ele>50</ele>
<time>2011-05-03T09:27:00Z</time>
</trkpt>
<trkpt lat="45.17806" lon="13.57285">
<ele>50</ele>
<time>2011-05-03T09:27:02Z</time>
</trkpt>
<trkpt lat="45.17802" lon="13.57287">
<ele>50</ele>
<time>2011-05-03T09:27:04Z</time>
</trkpt>
<trkpt lat="45.17797" lon="13.5729">
<ele>50</ele>
<time>2011-05-03T09:27:06Z</time>
</trkpt>
<trkpt lat="45.17792" lon="13.57292">
<ele>50</ele>
<time>2011-05-03T09:27:08Z</time>
</trkpt>
<trkpt lat="45.17787" lon="13.57295">
<ele>50</ele>
<time>2011-05-03T09:27:10Z</time>
</trkpt>
<trkpt lat="45.17783" lon="13.57297">
<ele>50</ele>
<time>2011-05-03T09:27:12Z</time>
</trkpt>
<trkpt lat="45.17778" lon="13.573">
<ele>50</ele>
<time>2011-05-03T09:27:14Z</time>
</trkpt>
<trkpt lat="45.17774" lon="13.57302">
<ele>50</ele>
<time>2011-05-03T09:27:16Z</time>
</trkpt>
<trkpt lat="45.17769" lon="13.57304">
<ele>50</ele>
<time>2011-05-03T09:27:18Z</time>
</trkpt>
<trkpt lat="45.17764" lon="13.57306">
<ele>50</ele>
<time>2011-05-03T09:27:20Z</time>
</trkpt>
<trkpt lat="45.1776" lon="13.57309">
<ele>50</ele>
<time>2011-05-03T09:27:22Z</time>
</trkpt>
<trkpt lat="45.17755" lon="13.5731">
<ele>50</ele>
<time>2011-05-03T09:27:24Z</time>
</trkpt>
<trkpt lat="45.1775" lon="13.57312">
<ele>50</ele>
<time>2011-05-03T09:27:26Z</time>
</trkpt>
<trkpt lat="45.17746" lon="13.57314">
<ele>50</ele>
<time>2011-05-03T09:27:28Z</time>
</trkpt>
<trkpt lat="45.17741" lon="13.57316">
<ele>50</ele>
<time>2011-05-03T09:27:30Z</time>
</trkpt>
<trkpt lat="45.17736" lon="13.57318">
<ele>50</ele>
<time>2011-05-03T09:27:32Z</time>
</trkpt>
<trkpt lat="45.17732" lon="13.5732">
<ele>50</ele>
<time>2011-05-03T09:27:34Z</time>
</trkpt>
<trkpt lat="45.17727" lon="13.57322">
<ele>50</ele>
<time>2011-05-03T09:27:36Z</time>
</trkpt>
<trkpt lat="45.17722" lon="13.57324">
<ele>50</ele>
<time>2011-05-03T09:27:38Z</time>
</trkpt>
<trkpt lat="45.17717" lon="13.57326">
<ele>50</ele>
<time>2011-05-03T09:27:40Z</time>
</trkpt>
<trkpt lat="45.17713" lon="13.57328">
<ele>50</ele>
<time>2011-05-03T09:27:42Z</time>
</trkpt>
<trkpt lat="45.17708" lon="13.5733">
<ele>50</ele>
<time>2011-05-03T09:27:44Z</time>
</trkpt>
<trkpt lat="45.17703" lon="13.57331">
<ele>50</ele>
<time>2011-05-03T09:27:46Z</time>
</trkpt>
<trkpt lat="45.17699" lon="13.57333">
<ele>50</ele>
<time>2011-05-03T09:27:48Z</time>
</trkpt>
<trkpt lat="45.17694" lon="13.57335">
<ele>50</ele>
<time>2011-05-03T09:27:50Z</time>
</trkpt>
<trkpt lat="45.17689" lon="13.57338">
<ele>49</ele>
<time>2011-05-03T09:27:52Z</time>
</trkpt>
<trkpt lat="45.17685" lon="13.5734">
<ele>49</ele>
<time>2011-05-03T09:27:54Z</time>
</trkpt>
<trkpt lat="45.1768" lon="13.57342">
<ele>49</ele>
<time>2011-05-03T09:27:56Z</time>
</trkpt>
<trkpt lat="45.17676" lon="13.57344">
<ele>49</ele>
<time>2011-05-03T09:27:58Z</time>
</trkpt>
<trkpt lat="45.17671" lon="13.57346">
<ele>49</ele>
<time>2011-05-03T09:28:00Z</time>
</trkpt>
<trkpt lat="45.17666" lon="13.57348">
<ele>49</ele>
<time>2011-05-03T09:28:02Z</time>
</trkpt>
<trkpt lat="45.17661" lon="13.57349">
<ele>49</ele>
<time>2011-05-03T09:28:04Z</time>
</trkpt>
<trkpt lat="45.17656" lon="13.57352">
<ele>49</ele>
<time>2011-05-03T09:28:06Z</time>
</trkpt>
<trkpt lat="45.17652" lon="13.57354">
<ele>49</ele>
<time>2011-05-03T09:28:08Z</time>
</trkpt>
<trkpt lat="45.17647" lon="13.57356">
<ele>49</ele>
<time>2011-05-03T09:28:10Z</time>
</trkpt>
<trkpt lat="45.17642" lon="13.57358">
<ele>49</ele>
<time>2011-05-03T09:28:12Z</time>
</trkpt>
<trkpt lat="45.17637" lon="13.5736">
<ele>49</ele>
<time>2011-05-03T09:28:14Z</time>
</trkpt>
<trkpt lat="45.17633" lon="13.57362">
<ele>49</ele>
<time>2011-05-03T09:28:16Z</time>
</trkpt>
<trkpt lat="45.17628" lon="13.57365">
<ele>49</ele>
<time>2011-05-03T09:28:18Z</time>
</trkpt>
<trkpt lat="45.17623" lon="13.57367">
<ele>49</ele>
<time>2011-05-03T09:28:20Z</time>
</trkpt>
<trkpt lat="45.17618" lon="13.57369">
<ele>49</ele>
<time>2011-05-03T09:28:22Z</time>
</trkpt>
<trkpt lat="45.17614" lon="13.57371">
<ele>49</ele>
<time>2011-05-03T09:28:24Z</time>
</trkpt>
<trkpt lat="45.17609" lon="13.57373">
<ele>49</ele>
<time>2011-05-03T09:28:26Z</time>
</trkpt>
<trkpt lat="45.17605" lon="13.57375">
<ele>49</ele>
<time>2011-05-03T09:28:28Z</time>
</trkpt>
<trkpt lat="45.176" lon="13.57377">
<ele>49</ele>
<time>2011-05-03T09:28:30Z</time>
</trkpt>
<trkpt lat="45.17596" lon="13.5738">
<ele>49</ele>
<time>2011-05-03T09:28:32Z</time>
</trkpt>
<trkpt lat="45.17591" lon="13.57382">
<ele>49</ele>
<time>2011-05-03T09:28:34Z</time>
</trkpt>
<trkpt lat="45.17586" lon="13.57384">
<ele>49</ele>
<time>2011-05-03T09:28:36Z</time>
</trkpt>
<trkpt lat="45.17581" lon="13.57387">
<ele>49</ele>
<time>2011-05-03T09:28:38Z</time>
</trkpt>
<trkpt lat="45.17576" lon="13.57389">
<ele>49</ele>
<time>2011-05-03T09:28:40Z</time>
</trkpt>
<trkpt lat="45.17571" lon="13.57392">
<ele>49</ele>
<time>2011-05-03T09:28:42Z</time>
</trkpt>
<trkpt lat="45.17567" lon="13.57394">
<ele>49</ele>
<time>2011-05-03T09:28:44Z</time>
</trkpt>
<trkpt lat="45.17562" lon="13.57397">
<ele>48</ele>
<time>2011-05-03T09:28:46Z</time>
</trkpt>
<trkpt lat="45.17557" lon="13.57399">
<ele>48</ele>
<time>2011-05-03T09:28:48Z</time>
</trkpt>
<trkpt lat="45.17552" lon="13.57401">
<ele>48</ele>
<time>2011-05-03T09:28:50Z</time>
</trkpt>
<trkpt lat="45.17548" lon="13.57404">
<ele>48</ele>
<time>2011-05-03T09:28:52Z</time>
</trkpt>
<trkpt lat="45.17543" lon="13.57406">
<ele>48</ele>
<time>2011-05-03T09:28:54Z</time>
</trkpt>
<trkpt lat="45.17538" lon="13.57408">
<ele>48</ele>
<time>2011-05-03T09:28:56Z</time>
</trkpt>
<trkpt lat="45.17534" lon="13.57411">
<ele>48</ele>
<time>2011-05-03T09:28:58Z</time>
</trkpt>
<trkpt lat="45.17529" lon="13.57413">
<ele>48</ele>
<time>2011-05-03T09:29:00Z</time>
</trkpt>
<trkpt lat="45.17524" lon="13.57415">
<ele>48</ele>
<time>2011-05-03T09:29:02Z</time>
</trkpt>
<trkpt lat="45.17519" lon="13.57418">
<ele>48</ele>
<time>2011-05-03T09:29:04Z</time>
</trkpt>
<trkpt lat="45.17514" lon="13.5742">
<ele>48</ele>
<time>2011-05-03T09:29:06Z</time>
</trkpt>
<trkpt lat="45.1751" lon="13.57423">
<ele>48</ele>
<time>2011-05-03T09:29:08Z</time>
</trkpt>
<trkpt lat="45.17505" lon="13.57425">
<ele>48</ele>
<time>2011-05-03T09:29:10Z</time>
</trkpt>
<trkpt lat="45.175" lon="13.57427">
<ele>48</ele>
<time>2011-05-03T09:29:12Z</time>
</trkpt>
<trkpt lat="45.17495" lon="13.5743">
<ele>48</ele>
<time>2011-05-03T09:29:14Z</time>
</trkpt>
<trkpt lat="45.17491" lon="13.57432">
<ele>48</ele>
<time>2011-05-03T09:29:16Z</time>
</trkpt>
<trkpt lat="45.17486" lon="13.57434">
<ele>48</ele>
<time>2011-05-03T09:29:18Z</time>
</trkpt>
<trkpt lat="45.17481" lon="13.57436">
<ele>48</ele>
<time>2011-05-03T09:29:20Z</time>
</trkpt>
<trkpt lat="45.17476" lon="13.57438">
<ele>48</ele>
<time>2011-05-03T09:29:22Z</time>
</trkpt>
<trkpt lat="45.17471" lon="13.57441">
<ele>48</ele>
<time>2011-05-03T09:29:24Z</time>
</trkpt>
<trkpt lat="45.17466" lon="13.57443">
<ele>48</ele>
<time>2011-05-03T09:29:26Z</time>
</trkpt>
<trkpt lat="45.17461" lon="13.57445">
<ele>48</ele>
<time>2011-05-03T09:29:28Z</time>
</trkpt>
<trkpt lat="45.17456" lon="13.57448">
<ele>48</ele>
<time>2011-05-03T09:29:30Z</time>
</trkpt>
<trkpt lat="45.17451" lon="13.5745">
<ele>48</ele>
<time>2011-05-03T09:29:32Z</time>
</trkpt>
<trkpt lat="45.17447" lon="13.57452">
<ele>48</ele>
<time>2011-05-03T09:29:34Z</time>
</trkpt>
<trkpt lat="45.17442" lon="13.57454">
<ele>48</ele>
<time>2011-05-03T09:29:36Z</time>
</trkpt>
<trkpt lat="45.17438" lon="13.57456">
<ele>48</ele>
<time>2011-05-03T09:29:38Z</time>
</trkpt>
<trkpt lat="45.17433" lon="13.57458">
<ele>48</ele>
<time>2011-05-03T09:29:40Z</time>
</trkpt>
<trkpt lat="45.17428" lon="13.57459">
<ele>48</ele>
<time>2011-05-03T09:29:42Z</time>
</trkpt>
<trkpt lat="45.17424" lon="13.57461">
<ele>48</ele>
<time>2011-05-03T09:29:44Z</time>
</trkpt>
<trkpt lat="45.17419" lon="13.57464">
<ele>48</ele>
<time>2011-05-03T09:29:46Z</time>
</trkpt>
<trkpt lat="45.17415" lon="13.57466">
<ele>48</ele>
<time>2011-05-03T09:29:48Z</time>
</trkpt>
<trkpt lat="45.1741" lon="13.57468">
<ele>48</ele>
<time>2011-05-03T09:29:50Z</time>
</trkpt>
<trkpt lat="45.17406" lon="13.5747">
<ele>48</ele>
<time>2011-05-03T09:29:52Z</time>
</trkpt>
<trkpt lat="45.17401" lon="13.57473">
<ele>48</ele>
<time>2011-05-03T09:29:54Z</time>
</trkpt>
<trkpt lat="45.17396" lon="13.57475">
<ele>48</ele>
<time>2011-05-03T09:29:56Z</time>
</trkpt>
<trkpt lat="45.17391" lon="13.57477">
<ele>48</ele>
<time>2011-05-03T09:29:58Z</time>
</trkpt>
<trkpt lat="45.17386" lon="13.57479">
<ele>48</ele>
<time>2011-05-03T09:30:00Z</time>
</trkpt>
<trkpt lat="45.17382" lon="13.57481">
<ele>48</ele>
<time>2011-05-03T09:30:02Z</time>
</trkpt>
<trkpt lat="45.17377" lon="13.57483">
<ele>48</ele>
<time>2011-05-03T09:30:04Z</time>
</trkpt>
<trkpt lat="45.17372" lon="13.57485">
<ele>48</ele>
<time>2011-05-03T09:30:06Z</time>
</trkpt>
<trkpt lat="45.17368" lon="13.57487">
<ele>48</ele>
<time>2011-05-03T09:30:08Z</time>
</trkpt>
<trkpt lat="45.17363" lon="13.57489">
<ele>48</ele>
<time>2011-05-03T09:30:10Z</time>
</trkpt>
<trkpt lat="45.17358" lon="13.57491">
<ele>48</ele>
<time>2011-05-03T09:30:12Z</time>
</trkpt>
<trkpt lat="45.17354" lon="13.57493">
<ele>48</ele>
<time>2011-05-03T09:30:14Z</time>
</trkpt>
<trkpt lat="45.17349" lon="13.57495">
<ele>48</ele>
<time>2011-05-03T09:30:16Z</time>
</trkpt>
<trkpt lat="45.17344" lon="13.57496">
<ele>48</ele>
<time>2011-05-03T09:30:18Z</time>
</trkpt>
<trkpt lat="45.1734" lon="13.57498">
<ele>48</ele>
<time>2011-05-03T09:30:20Z</time>
</trkpt>
<trkpt lat="45.17335" lon="13.575">
<ele>48</ele>
<time>2011-05-03T09:30:22Z</time>
</trkpt>
<trkpt lat="45.1733" lon="13.57502">
<ele>48</ele>
<time>2011-05-03T09:30:24Z</time>
</trkpt>
<trkpt lat="45.17325" lon="13.57504">
<ele>48</ele>
<time>2011-05-03T09:30:26Z</time>
</trkpt>
<trkpt lat="45.17321" lon="13.57506">
<ele>48</ele>
<time>2011-05-03T09:30:28Z</time>
</trkpt>
<trkpt lat="45.17316" lon="13.57509">
<ele>48</ele>
<time>2011-05-03T09:30:30Z</time>
</trkpt>
<trkpt lat="45.17312" lon="13.57512">
<ele>48</ele>
<time>2011-05-03T09:30:32Z</time>
</trkpt>
<trkpt lat="45.17307" lon="13.57514">
<ele>48</ele>
<time>2011-05-03T09:30:34Z</time>
</trkpt>
<trkpt lat="45.17303" lon="13.57516">
<ele>48</ele>
<time>2011-05-03T09:30:36Z</time>
</trkpt>
<trkpt lat="45.17298" lon="13.57518">
<ele>48</ele>
<time>2011-05-03T09:30:38Z</time>
</trkpt>
<trkpt lat="45.17294" lon="13.5752">
<ele>48</ele>
<time>2011-05-03T09:30:40Z</time>
</trkpt>
<trkpt lat="45.17289" lon="13.57522">
<ele>48</ele>
<time>2011-05-03T09:30:42Z</time>
</trkpt>
<trkpt lat="45.17284" lon="13.57524">
<ele>48</ele>
<time>2011-05-03T09:30:44Z</time>
</trkpt>
<trkpt lat="45.1728" lon="13.57525">
<ele>48</ele>
<time>2011-05-03T09:30:46Z</time>
</trkpt>
<trkpt lat="45.17275" lon="13.57527">
<ele>48</ele>
<time>2011-05-03T09:30:48Z</time>
</trkpt>
<trkpt lat="45.1727" lon="13.5753">
<ele>48</ele>
<time>2011-05-03T09:30:50Z</time>
</trkpt>
<trkpt lat="45.17266" lon="13.57532">
<ele>49</ele>
<time>2011-05-03T09:30:52Z</time>
</trkpt>
<trkpt lat="45.17261" lon="13.57535">
<ele>49</ele>
<time>2011-05-03T09:30:54Z</time>
</trkpt>
<trkpt lat="45.17256" lon="13.57537">
<ele>49</ele>
<time>2011-05-03T09:30:56Z</time>
</trkpt>
<trkpt lat="45.17252" lon="13.5754">
<ele>49</ele>
<time>2011-05-03T09:30:58Z</time>
</trkpt>
<trkpt lat="45.17247" lon="13.57542">
<ele>49</ele>
<time>2011-05-03T09:31:00Z</time>
</trkpt>
<trkpt lat="45.17242" lon="13.57544">
<ele>49</ele>
<time>2011-05-03T09:31:02Z</time>
</trkpt>
<trkpt lat="45.17238" lon="13.57547">
<ele>49</ele>
<time>2011-05-03T09:31:04Z</time>
</trkpt>
<trkpt lat="45.17233" lon="13.57549">
<ele>49</ele>
<time>2011-05-03T09:31:06Z</time>
</trkpt>
<trkpt lat="45.17228" lon="13.57551">
<ele>49</ele>
<time>2011-05-03T09:31:08Z</time>
</trkpt>
<trkpt lat="45.17224" lon="13.57553">
<ele>49</ele>
<time>2011-05-03T09:31:10Z</time>
</trkpt>
<trkpt lat="45.17219" lon="13.57555">
<ele>49</ele>
<time>2011-05-03T09:31:12Z</time>
</trkpt>
<trkpt lat="45.17214" lon="13.57557">
<ele>49</ele>
<time>2011-05-03T09:31:14Z</time>
</trkpt>
<trkpt lat="45.17209" lon="13.5756">
<ele>49</ele>
<time>2011-05-03T09:31:16Z</time>
</trkpt>
<trkpt lat="45.17204" lon="13.57562">
<ele>49</ele>
<time>2011-05-03T09:31:18Z</time>
</trkpt>
<trkpt lat="45.172" lon="13.57563">
<ele>49</ele>
<time>2011-05-03T09:31:20Z</time>
</trkpt>
<trkpt lat="45.17195" lon="13.57565">
<ele>49</ele>
<time>2011-05-03T09:31:22Z</time>
</trkpt>
<trkpt lat="45.1719" lon="13.57566">
<ele>49</ele>
<time>2011-05-03T09:31:24Z</time>
</trkpt>
<trkpt lat="45.17186" lon="13.57568">
<ele>49</ele>
<time>2011-05-03T09:31:26Z</time>
</trkpt>
<trkpt lat="45.17181" lon="13.5757">
<ele>49</ele>
<time>2011-05-03T09:31:28Z</time>
</trkpt>
<trkpt lat="45.17176" lon="13.57573">
<ele>49</ele>
<time>2011-05-03T09:31:30Z</time>
</trkpt>
<trkpt lat="45.17172" lon="13.57575">
<ele>49</ele>
<time>2011-05-03T09:31:32Z</time>
</trkpt>
<trkpt lat="45.17167" lon="13.57577">
<ele>49</ele>
<time>2011-05-03T09:31:34Z</time>
</trkpt>
<trkpt lat="45.17162" lon="13.5758">
<ele>49</ele>
<time>2011-05-03T09:31:36Z</time>
</trkpt>
<trkpt lat="45.17158" lon="13.57582">
<ele>49</ele>
<time>2011-05-03T09:31:38Z</time>
</trkpt>
<trkpt lat="45.17153" lon="13.57584">
<ele>49</ele>
<time>2011-05-03T09:31:40Z</time>
</trkpt>
<trkpt lat="45.17148" lon="13.57587">
<ele>49</ele>
<time>2011-05-03T09:31:42Z</time>
</trkpt>
<trkpt lat="45.17144" lon="13.57589">
<ele>49</ele>
<time>2011-05-03T09:31:44Z</time>
</trkpt>
<trkpt lat="45.17139" lon="13.57592">
<ele>49</ele>
<time>2011-05-03T09:31:46Z</time>
</trkpt>
<trkpt lat="45.17134" lon="13.57594">
<ele>49</ele>
<time>2011-05-03T09:31:48Z</time>
</trkpt>
<trkpt lat="45.17129" lon="13.57596">
<ele>49</ele>
<time>2011-05-03T09:31:50Z</time>
</trkpt>
<trkpt lat="45.17124" lon="13.57599">
<ele>49</ele>
<time>2011-05-03T09:31:52Z</time>
</trkpt>
<trkpt lat="45.1712" lon="13.57601">
<ele>49</ele>
<time>2011-05-03T09:31:54Z</time>
</trkpt>
<trkpt lat="45.17115" lon="13.57604">
<ele>49</ele>
<time>2011-05-03T09:31:56Z</time>
</trkpt>
<trkpt lat="45.1711" lon="13.57605">
<ele>49</ele>
<time>2011-05-03T09:31:58Z</time>
</trkpt>
<trkpt lat="45.17105" lon="13.57608">
<ele>49</ele>
<time>2011-05-03T09:32:00Z</time>
</trkpt>
<trkpt lat="45.171" lon="13.5761">
<ele>49</ele>
<time>2011-05-03T09:32:02Z</time>
</trkpt>
<trkpt lat="45.17095" lon="13.57612">
<ele>49</ele>
<time>2011-05-03T09:32:04Z</time>
</trkpt>
<trkpt lat="45.1709" lon="13.57614">
<ele>49</ele>
<time>2011-05-03T09:32:06Z</time>
</trkpt>
<trkpt lat="45.17086" lon="13.57616">
<ele>49</ele>
<time>2011-05-03T09:32:08Z</time>
</trkpt>
<trkpt lat="45.17081" lon="13.57618">
<ele>49</ele>
<time>2011-05-03T09:32:10Z</time>
</trkpt>
<trkpt lat="45.17076" lon="13.57621">
<ele>49</ele>
<time>2011-05-03T09:32:12Z</time>
</trkpt>
<trkpt lat="45.17071" lon="13.57623">
<ele>49</ele>
<time>2011-05-03T09:32:14Z</time>
</trkpt>
<trkpt lat="45.17066" lon="13.57625">
<ele>49</ele>
<time>2011-05-03T09:32:16Z</time>
</trkpt>
<trkpt lat="45.17061" lon="13.57628">
<ele>49</ele>
<time>2011-05-03T09:32:18Z</time>
</trkpt>
<trkpt lat="45.17056" lon="13.57631">
<ele>49</ele>
<time>2011-05-03T09:32:20Z</time>
</trkpt>
<trkpt lat="45.17052" lon="13.57634">
<ele>49</ele>
<time>2011-05-03T09:32:22Z</time>
</trkpt>
<trkpt lat="45.17047" lon="13.57636">
<ele>49</ele>
<time>2011-05-03T09:32:24Z</time>
</trkpt>
<trkpt lat="45.17042" lon="13.57639">
<ele>49</ele>
<time>2011-05-03T09:32:26Z</time>
</trkpt>
<trkpt lat="45.17038" lon="13.57642">
<ele>49</ele>
<time>2011-05-03T09:32:28Z</time>
</trkpt>
<trkpt lat="45.17033" lon="13.57644">
<ele>49</ele>
<time>2011-05-03T09:32:30Z</time>
</trkpt>
<trkpt lat="45.17028" lon="13.57647">
<ele>49</ele>
<time>2011-05-03T09:32:32Z</time>
</trkpt>
<trkpt lat="45.17023" lon="13.57649">
<ele>49</ele>
<time>2011-05-03T09:32:34Z</time>
</trkpt>
<trkpt lat="45.17018" lon="13.57652">
<ele>49</ele>
<time>2011-05-03T09:32:36Z</time>
</trkpt>
<trkpt lat="45.17014" lon="13.57654">
<ele>49</ele>
<time>2011-05-03T09:32:38Z</time>
</trkpt>
<trkpt lat="45.17009" lon="13.57656">
<ele>49</ele>
<time>2011-05-03T09:32:40Z</time>
</trkpt>
<trkpt lat="45.17004" lon="13.57658">
<ele>49</ele>
<time>2011-05-03T09:32:42Z</time>
</trkpt>
<trkpt lat="45.16999" lon="13.57661">
<ele>49</ele>
<time>2011-05-03T09:32:44Z</time>
</trkpt>
<trkpt lat="45.16994" lon="13.57663">
<ele>49</ele>
<time>2011-05-03T09:32:46Z</time>
</trkpt>
<trkpt lat="45.1699" lon="13.57665">
<ele>49</ele>
<time>2011-05-03T09:32:48Z</time>
</trkpt>
<trkpt lat="45.16985" lon="13.57668">
<ele>49</ele>
<time>2011-05-03T09:32:50Z</time>
</trkpt>
<trkpt lat="45.1698" lon="13.5767">
<ele>49</ele>
<time>2011-05-03T09:32:52Z</time>
</trkpt>
<trkpt lat="45.16976" lon="13.57672">
<ele>49</ele>
<time>2011-05-03T09:32:54Z</time>
</trkpt>
<trkpt lat="45.16971" lon="13.57675">
<ele>49</ele>
<time>2011-05-03T09:32:56Z</time>
</trkpt>
<trkpt lat="45.16966" lon="13.57677">
<ele>49</ele>
<time>2011-05-03T09:32:58Z</time>
</trkpt>
<trkpt lat="45.16961" lon="13.57679">
<ele>49</ele>
<time>2011-05-03T09:33:00Z</time>
</trkpt>
<trkpt lat="45.16957" lon="13.57681">
<ele>49</ele>
<time>2011-05-03T09:33:02Z</time>
</trkpt>
<trkpt lat="45.16952" lon="13.57684">
<ele>49</ele>
<time>2011-05-03T09:33:04Z</time>
</trkpt>
<trkpt lat="45.16948" lon="13.57686">
<ele>49</ele>
<time>2011-05-03T09:33:06Z</time>
</trkpt>
<trkpt lat="45.16943" lon="13.57688">
<ele>49</ele>
<time>2011-05-03T09:33:08Z</time>
</trkpt>
<trkpt lat="45.16938" lon="13.5769">
<ele>49</ele>
<time>2011-05-03T09:33:10Z</time>
</trkpt>
<trkpt lat="45.16934" lon="13.57692">
<ele>49</ele>
<time>2011-05-03T09:33:12Z</time>
</trkpt>
<trkpt lat="45.16929" lon="13.57694">
<ele>49</ele>
<time>2011-05-03T09:33:14Z</time>
</trkpt>
<trkpt lat="45.16924" lon="13.57696">
<ele>49</ele>
<time>2011-05-03T09:33:16Z</time>
</trkpt>
<trkpt lat="45.1692" lon="13.57698">
<ele>49</ele>
<time>2011-05-03T09:33:18Z</time>
</trkpt>
<trkpt lat="45.16915" lon="13.577">
<ele>49</ele>
<time>2011-05-03T09:33:20Z</time>
</trkpt>
<trkpt lat="45.1691" lon="13.57702">
<ele>49</ele>
<time>2011-05-03T09:33:22Z</time>
</trkpt>
<trkpt lat="45.16905" lon="13.57705">
<ele>49</ele>
<time>2011-05-03T09:33:24Z</time>
</trkpt>
<trkpt lat="45.169" lon="13.57708">
<ele>49</ele>
<time>2011-05-03T09:33:26Z</time>
</trkpt>
<trkpt lat="45.16896" lon="13.57711">
<ele>49</ele>
<time>2011-05-03T09:33:28Z</time>
</trkpt>
<trkpt lat="45.16891" lon="13.57713">
<ele>49</ele>
<time>2011-05-03T09:33:30Z</time>
</trkpt>
<trkpt lat="45.16886" lon="13.57715">
<ele>49</ele>
<time>2011-05-03T09:33:32Z</time>
</trkpt>
<trkpt lat="45.16881" lon="13.57717">
<ele>49</ele>
<time>2011-05-03T09:33:34Z</time>
</trkpt>
<trkpt lat="45.16876" lon="13.57719">
<ele>49</ele>
<time>2011-05-03T09:33:36Z</time>
</trkpt>
<trkpt lat="45.16871" lon="13.57721">
<ele>49</ele>
<time>2011-05-03T09:33:38Z</time>
</trkpt>
<trkpt lat="45.16866" lon="13.57723">
<ele>49</ele>
<time>2011-05-03T09:33:40Z</time>
</trkpt>
<trkpt lat="45.16861" lon="13.57725">
<ele>49</ele>
<time>2011-05-03T09:33:42Z</time>
</trkpt>
<trkpt lat="45.16856" lon="13.57728">
<ele>49</ele>
<time>2011-05-03T09:33:44Z</time>
</trkpt>
<trkpt lat="45.16852" lon="13.5773">
<ele>49</ele>
<time>2011-05-03T09:33:46Z</time>
</trkpt>
<trkpt lat="45.16847" lon="13.57733">
<ele>49</ele>
<time>2011-05-03T09:33:48Z</time>
</trkpt>
<trkpt lat="45.16842" lon="13.57735">
<ele>49</ele>
<time>2011-05-03T09:33:50Z</time>
</trkpt>
<trkpt lat="45.16837" lon="13.57738">
<ele>49</ele>
<time>2011-05-03T09:33:52Z</time>
</trkpt>
<trkpt lat="45.16833" lon="13.5774">
<ele>49</ele>
<time>2011-05-03T09:33:54Z</time>
</trkpt>
<trkpt lat="45.16828" lon="13.57743">
<ele>49</ele>
<time>2011-05-03T09:33:56Z</time>
</trkpt>
<trkpt lat="45.16823" lon="13.57745">
<ele>49</ele>
<time>2011-05-03T09:33:58Z</time>
</trkpt>
<trkpt lat="45.16818" lon="13.57748">
<ele>49</ele>
<time>2011-05-03T09:34:00Z</time>
</trkpt>
<trkpt lat="45.16813" lon="13.5775">
<ele>49</ele>
<time>2011-05-03T09:34:02Z</time>
</trkpt>
<trkpt lat="45.16809" lon="13.57752">
<ele>49</ele>
<time>2011-05-03T09:34:04Z</time>
</trkpt>
<trkpt lat="45.16804" lon="13.57755">
<ele>49</ele>
<time>2011-05-03T09:34:06Z</time>
</trkpt>
<trkpt lat="45.16799" lon="13.57757">
<ele>49</ele>
<time>2011-05-03T09:34:08Z</time>
</trkpt>
<trkpt lat="45.16794" lon="13.57759">
<ele>49</ele>
<time>2011-05-03T09:34:10Z</time>
</trkpt>
<trkpt lat="45.1679" lon="13.57761">
<ele>49</ele>
<time>2011-05-03T09:34:12Z</time>
</trkpt>
<trkpt lat="45.16785" lon="13.57763">
<ele>49</ele>
<time>2011-05-03T09:34:14Z</time>
</trkpt>
<trkpt lat="45.1678" lon="13.57766">
<ele>49</ele>
<time>2011-05-03T09:34:16Z</time>
</trkpt>
<trkpt lat="45.16775" lon="13.57768">
<ele>49</ele>
<time>2011-05-03T09:34:18Z</time>
</trkpt>
<trkpt lat="45.1677" lon="13.5777">
<ele>49</ele>
<time>2011-05-03T09:34:20Z</time>
</trkpt>
<trkpt lat="45.16765" lon="13.57772">
<ele>49</ele>
<time>2011-05-03T09:34:22Z</time>
</trkpt>
<trkpt lat="45.1676" lon="13.57775">
<ele>49</ele>
<time>2011-05-03T09:34:24Z</time>
</trkpt>
<trkpt lat="45.16755" lon="13.57777">
<ele>49</ele>
<time>2011-05-03T09:34:26Z</time>
</trkpt>
<trkpt lat="45.1675" lon="13.5778">
<ele>49</ele>
<time>2011-05-03T09:34:28Z</time>
</trkpt>
<trkpt lat="45.16746" lon="13.57782">
<ele>49</ele>
<time>2011-05-03T09:34:30Z</time>
</trkpt>
<trkpt lat="45.1674" lon="13.57785">
<ele>49</ele>
<time>2011-05-03T09:34:32Z</time>
</trkpt>
<trkpt lat="45.16736" lon="13.57788">
<ele>49</ele>
<time>2011-05-03T09:34:34Z</time>
</trkpt>
<trkpt lat="45.16731" lon="13.5779">
<ele>49</ele>
<time>2011-05-03T09:34:36Z</time>
</trkpt>
<trkpt lat="45.16726" lon="13.57793">
<ele>49</ele>
<time>2011-05-03T09:34:38Z</time>
</trkpt>
<trkpt lat="45.16721" lon="13.57795">
<ele>49</ele>
<time>2011-05-03T09:34:40Z</time>
</trkpt>
<trkpt lat="45.16716" lon="13.57797">
<ele>49</ele>
<time>2011-05-03T09:34:42Z</time>
</trkpt>
<trkpt lat="45.16711" lon="13.57799">
<ele>49</ele>
<time>2011-05-03T09:34:44Z</time>
</trkpt>
<trkpt lat="45.16706" lon="13.57802">
<ele>49</ele>
<time>2011-05-03T09:34:46Z</time>
</trkpt>
<trkpt lat="45.16701" lon="13.57804">
<ele>49</ele>
<time>2011-05-03T09:34:48Z</time>
</trkpt>
<trkpt lat="45.16696" lon="13.57806">
<ele>49</ele>
<time>2011-05-03T09:34:50Z</time>
</trkpt>
<trkpt lat="45.16692" lon="13.57808">
<ele>49</ele>
<time>2011-05-03T09:34:52Z</time>
</trkpt>
<trkpt lat="45.16687" lon="13.57811">
<ele>49</ele>
<time>2011-05-03T09:34:54Z</time>
</trkpt>
<trkpt lat="45.16682" lon="13.57813">
<ele>49</ele>
<time>2011-05-03T09:34:56Z</time>
</trkpt>
<trkpt lat="45.16677" lon="13.57815">
<ele>49</ele>
<time>2011-05-03T09:34:58Z</time>
</trkpt>
<trkpt lat="45.16672" lon="13.57816">
<ele>49</ele>
<time>2011-05-03T09:35:00Z</time>
</trkpt>
<trkpt lat="45.16668" lon="13.57818">
<ele>50</ele>
<time>2011-05-03T09:35:02Z</time>
</trkpt>
<trkpt lat="45.16663" lon="13.57821">
<ele>50</ele>
<time>2011-05-03T09:35:04Z</time>
</trkpt>
<trkpt lat="45.16658" lon="13.57823">
<ele>50</ele>
<time>2011-05-03T09:35:06Z</time>
</trkpt>
<trkpt lat="45.16653" lon="13.57825">
<ele>50</ele>
<time>2011-05-03T09:35:08Z</time>
</trkpt>
<trkpt lat="45.16648" lon="13.57826">
<ele>50</ele>
<time>2011-05-03T09:35:10Z</time>
</trkpt>
<trkpt lat="45.16643" lon="13.57828">
<ele>50</ele>
<time>2011-05-03T09:35:12Z</time>
</trkpt>
<trkpt lat="45.16638" lon="13.5783">
<ele>50</ele>
<time>2011-05-03T09:35:14Z</time>
</trkpt>
<trkpt lat="45.16633" lon="13.57832">
<ele>50</ele>
<time>2011-05-03T09:35:16Z</time>
</trkpt>
<trkpt lat="45.16628" lon="13.57834">
<ele>50</ele>
<time>2011-05-03T09:35:18Z</time>
</trkpt>
<trkpt lat="45.16624" lon="13.57836">
<ele>50</ele>
<time>2011-05-03T09:35:20Z</time>
</trkpt>
<trkpt lat="45.16619" lon="13.57838">
<ele>50</ele>
<time>2011-05-03T09:35:22Z</time>
</trkpt>
<trkpt lat="45.16614" lon="13.5784">
<ele>50</ele>
<time>2011-05-03T09:35:24Z</time>
</trkpt>
<trkpt lat="45.16609" lon="13.57842">
<ele>50</ele>
<time>2011-05-03T09:35:26Z</time>
</trkpt>
<trkpt lat="45.16605" lon="13.57844">
<ele>50</ele>
<time>2011-05-03T09:35:28Z</time>
</trkpt>
<trkpt lat="45.166" lon="13.57846">
<ele>50</ele>
<time>2011-05-03T09:35:30Z</time>
</trkpt>
<trkpt lat="45.16595" lon="13.57849">
<ele>50</ele>
<time>2011-05-03T09:35:32Z</time>
</trkpt>
<trkpt lat="45.16591" lon="13.57851">
<ele>50</ele>
<time>2011-05-03T09:35:34Z</time>
</trkpt>
<trkpt lat="45.16586" lon="13.57854">
<ele>50</ele>
<time>2011-05-03T09:35:36Z</time>
</trkpt>
<trkpt lat="45.16581" lon="13.57856">
<ele>50</ele>
<time>2011-05-03T09:35:38Z</time>
</trkpt>
<trkpt lat="45.16576" lon="13.57858">
<ele>50</ele>
<time>2011-05-03T09:35:40Z</time>
</trkpt>
<trkpt lat="45.16572" lon="13.57861">
<ele>50</ele>
<time>2011-05-03T09:35:42Z</time>
</trkpt>
<trkpt lat="45.16567" lon="13.57863">
<ele>50</ele>
<time>2011-05-03T09:35:44Z</time>
</trkpt>
<trkpt lat="45.16562" lon="13.57865">
<ele>50</ele>
<time>2011-05-03T09:35:46Z</time>
</trkpt>
<trkpt lat="45.16557" lon="13.57867">
<ele>50</ele>
<time>2011-05-03T09:35:48Z</time>
</trkpt>
<trkpt lat="45.16552" lon="13.57869">
<ele>50</ele>
<time>2011-05-03T09:35:50Z</time>
</trkpt>
<trkpt lat="45.16548" lon="13.57872">
<ele>50</ele>
<time>2011-05-03T09:35:52Z</time>
</trkpt>
<trkpt lat="45.16543" lon="13.57874">
<ele>50</ele>
<time>2011-05-03T09:35:54Z</time>
</trkpt>
<trkpt lat="45.16538" lon="13.57876">
<ele>50</ele>
<time>2011-05-03T09:35:56Z</time>
</trkpt>
<trkpt lat="45.16533" lon="13.57878">
<ele>50</ele>
<time>2011-05-03T09:35:58Z</time>
</trkpt>
<trkpt lat="45.16528" lon="13.5788">
<ele>50</ele>
<time>2011-05-03T09:36:00Z</time>
</trkpt>
<trkpt lat="45.16523" lon="13.57882">
<ele>50</ele>
<time>2011-05-03T09:36:02Z</time>
</trkpt>
<trkpt lat="45.16518" lon="13.57884">
<ele>50</ele>
<time>2011-05-03T09:36:04Z</time>
</trkpt>
<trkpt lat="45.16514" lon="13.57886">
<ele>50</ele>
<time>2011-05-03T09:36:06Z</time>
</trkpt>
<trkpt lat="45.16509" lon="13.57889">
<ele>50</ele>
<time>2011-05-03T09:36:08Z</time>
</trkpt>
<trkpt lat="45.16504" lon="13.5789">
<ele>50</ele>
<time>2011-05-03T09:36:10Z</time>
</trkpt>
<trkpt lat="45.16499" lon="13.57892">
<ele>50</ele>
<time>2011-05-03T09:36:12Z</time>
</trkpt>
<trkpt lat="45.16494" lon="13.57894">
<ele>50</ele>
<time>2011-05-03T09:36:14Z</time>
</trkpt>
<trkpt lat="45.1649" lon="13.57897">
<ele>50</ele>
<time>2011-05-03T09:36:16Z</time>
</trkpt>
<trkpt lat="45.16485" lon="13.57899">
<ele>50</ele>
<time>2011-05-03T09:36:18Z</time>
</trkpt>
<trkpt lat="45.1648" lon="13.579">
<ele>50</ele>
<time>2011-05-03T09:36:20Z</time>
</trkpt>
<trkpt lat="45.16475" lon="13.57902">
<ele>50</ele>
<time>2011-05-03T09:36:22Z</time>
</trkpt>
<trkpt lat="45.16471" lon="13.57904">
<ele>50</ele>
<time>2011-05-03T09:36:24Z</time>
</trkpt>
<trkpt lat="45.16466" lon="13.57906">
<ele>50</ele>
<time>2011-05-03T09:36:26Z</time>
</trkpt>
<trkpt lat="45.16461" lon="13.57908">
<ele>50</ele>
<time>2011-05-03T09:36:28Z</time>
</trkpt>
<trkpt lat="45.16456" lon="13.57911">
<ele>50</ele>
<time>2011-05-03T09:36:30Z</time>
</trkpt>
<trkpt lat="45.16452" lon="13.57913">
<ele>50</ele>
<time>2011-05-03T09:36:32Z</time>
</trkpt>
<trkpt lat="45.16447" lon="13.57915">
<ele>50</ele>
<time>2011-05-03T09:36:34Z</time>
</trkpt>
<trkpt lat="45.16443" lon="13.57918">
<ele>50</ele>
<time>2011-05-03T09:36:36Z</time>
</trkpt>
<trkpt lat="45.16438" lon="13.5792">
<ele>50</ele>
<time>2011-05-03T09:36:38Z</time>
</trkpt>
<trkpt lat="45.16434" lon="13.57922">
<ele>50</ele>
<time>2011-05-03T09:36:40Z</time>
</trkpt>
<trkpt lat="45.16429" lon="13.57924">
<ele>50</ele>
<time>2011-05-03T09:36:42Z</time>
</trkpt>
<trkpt lat="45.16424" lon="13.57926">
<ele>50</ele>
<time>2011-05-03T09:36:44Z</time>
</trkpt>
<trkpt lat="45.16419" lon="13.57928">
<ele>50</ele>
<time>2011-05-03T09:36:46Z</time>
</trkpt>
<trkpt lat="45.16414" lon="13.5793">
<ele>50</ele>
<time>2011-05-03T09:36:48Z</time>
</trkpt>
<trkpt lat="45.1641" lon="13.57931">
<ele>50</ele>
<time>2011-05-03T09:36:50Z</time>
</trkpt>
<trkpt lat="45.16405" lon="13.57933">
<ele>50</ele>
<time>2011-05-03T09:36:52Z</time>
</trkpt>
<trkpt lat="45.164" lon="13.57935">
<ele>50</ele>
<time>2011-05-03T09:36:54Z</time>
</trkpt>
<trkpt lat="45.16395" lon="13.57937">
<ele>50</ele>
<time>2011-05-03T09:36:56Z</time>
</trkpt>
<trkpt lat="45.1639" lon="13.5794">
<ele>50</ele>
<time>2011-05-03T09:36:58Z</time>
</trkpt>
<trkpt lat="45.16385" lon="13.57942">
<ele>50</ele>
<time>2011-05-03T09:37:00Z</time>
</trkpt>
<trkpt lat="45.1638" lon="13.57944">
<ele>50</ele>
<time>2011-05-03T09:37:02Z</time>
</trkpt>
<trkpt lat="45.16375" lon="13.57946">
<ele>50</ele>
<time>2011-05-03T09:37:04Z</time>
</trkpt>
<trkpt lat="45.1637" lon="13.57948">
<ele>50</ele>
<time>2011-05-03T09:37:06Z</time>
</trkpt>
<trkpt lat="45.16365" lon="13.5795">
<ele>50</ele>
<time>2011-05-03T09:37:08Z</time>
</trkpt>
<trkpt lat="45.1636" lon="13.57952">
<ele>50</ele>
<time>2011-05-03T09:37:10Z</time>
</trkpt>
<trkpt lat="45.16355" lon="13.57954">
<ele>50</ele>
<time>2011-05-03T09:37:12Z</time>
</trkpt>
<trkpt lat="45.1635" lon="13.57956">
<ele>50</ele>
<time>2011-05-03T09:37:14Z</time>
</trkpt>
<trkpt lat="45.16346" lon="13.57958">
<ele>50</ele>
<time>2011-05-03T09:37:16Z</time>
</trkpt>
<trkpt lat="45.16341" lon="13.5796">
<ele>50</ele>
<time>2011-05-03T09:37:18Z</time>
</trkpt>
<trkpt lat="45.16336" lon="13.57962">
<ele>50</ele>
<time>2011-05-03T09:37:20Z</time>
</trkpt>
<trkpt lat="45.16331" lon="13.57964">
<ele>50</ele>
<time>2011-05-03T09:37:22Z</time>
</trkpt>
<trkpt lat="45.16326" lon="13.57966">
<ele>50</ele>
<time>2011-05-03T09:37:24Z</time>
</trkpt>
<trkpt lat="45.16321" lon="13.57968">
<ele>50</ele>
<time>2011-05-03T09:37:26Z</time>
</trkpt>
<trkpt lat="45.16316" lon="13.57971">
<ele>50</ele>
<time>2011-05-03T09:37:28Z</time>
</trkpt>
<trkpt lat="45.16311" lon="13.57973">
<ele>50</ele>
<time>2011-05-03T09:37:30Z</time>
</trkpt>
<trkpt lat="45.16306" lon="13.57975">
<ele>50</ele>
<time>2011-05-03T09:37:32Z</time>
</trkpt>
<trkpt lat="45.16302" lon="13.57977">
<ele>50</ele>
<time>2011-05-03T09:37:34Z</time>
</trkpt>
<trkpt lat="45.16297" lon="13.5798">
<ele>50</ele>
<time>2011-05-03T09:37:36Z</time>
</trkpt>
<trkpt lat="45.16292" lon="13.57982">
<ele>50</ele>
<time>2011-05-03T09:37:38Z</time>
</trkpt>
<trkpt lat="45.16287" lon="13.57984">
<ele>50</ele>
<time>2011-05-03T09:37:40Z</time>
</trkpt>
<trkpt lat="45.16282" lon="13.57986">
<ele>50</ele>
<time>2011-05-03T09:37:42Z</time>
</trkpt>
<trkpt lat="45.16278" lon="13.57988">
<ele>50</ele>
<time>2011-05-03T09:37:44Z</time>
</trkpt>
<trkpt lat="45.16273" lon="13.57989">
<ele>50</ele>
<time>2011-05-03T09:37:46Z</time>
</trkpt>
<trkpt lat="45.16268" lon="13.57992">
<ele>50</ele>
<time>2011-05-03T09:37:48Z</time>
</trkpt>
<trkpt lat="45.16264" lon="13.57994">
<ele>50</ele>
<time>2011-05-03T09:37:50Z</time>
</trkpt>
<trkpt lat="45.16259" lon="13.57996">
<ele>50</ele>
<time>2011-05-03T09:37:52Z</time>
</trkpt>
<trkpt lat="45.16254" lon="13.57998">
<ele>50</ele>
<time>2011-05-03T09:37:54Z</time>
</trkpt>
<trkpt lat="45.1625" lon="13.58">
<ele>49</ele>
<time>2011-05-03T09:37:56Z</time>
</trkpt>
<trkpt lat="45.16245" lon="13.58003">
<ele>49</ele>
<time>2011-05-03T09:37:58Z</time>
</trkpt>
<trkpt lat="45.1624" lon="13.58005">
<ele>49</ele>
<time>2011-05-03T09:38:00Z</time>
</trkpt>
<trkpt lat="45.16236" lon="13.58008">
<ele>49</ele>
<time>2011-05-03T09:38:02Z</time>
</trkpt>
<trkpt lat="45.16231" lon="13.5801">
<ele>49</ele>
<time>2011-05-03T09:38:04Z</time>
</trkpt>
<trkpt lat="45.16226" lon="13.58012">
<ele>49</ele>
<time>2011-05-03T09:38:06Z</time>
</trkpt>
<trkpt lat="45.16221" lon="13.58014">
<ele>49</ele>
<time>2011-05-03T09:38:08Z</time>
</trkpt>
<trkpt lat="45.16216" lon="13.58016">
<ele>49</ele>
<time>2011-05-03T09:38:10Z</time>
</trkpt>
<trkpt lat="45.16212" lon="13.58019">
<ele>49</ele>
<time>2011-05-03T09:38:12Z</time>
</trkpt>
<trkpt lat="45.16206" lon="13.58021">
<ele>49</ele>
<time>2011-05-03T09:38:14Z</time>
</trkpt>
<trkpt lat="45.16202" lon="13.58023">
<ele>49</ele>
<time>2011-05-03T09:38:16Z</time>
</trkpt>
<trkpt lat="45.16196" lon="13.58025">
<ele>49</ele>
<time>2011-05-03T09:38:18Z</time>
</trkpt>
<trkpt lat="45.16191" lon="13.58027">
<ele>49</ele>
<time>2011-05-03T09:38:20Z</time>
</trkpt>
<trkpt lat="45.16186" lon="13.58029">
<ele>49</ele>
<time>2011-05-03T09:38:22Z</time>
</trkpt>
<trkpt lat="45.16182" lon="13.58031">
<ele>49</ele>
<time>2011-05-03T09:38:24Z</time>
</trkpt>
<trkpt lat="45.16177" lon="13.58034">
<ele>49</ele>
<time>2011-05-03T09:38:26Z</time>
</trkpt>
<trkpt lat="45.16172" lon="13.58036">
<ele>49</ele>
<time>2011-05-03T09:38:28Z</time>
</trkpt>
<trkpt lat="45.16167" lon="13.58038">
<ele>49</ele>
<time>2011-05-03T09:38:30Z</time>
</trkpt>
<trkpt lat="45.16162" lon="13.58041">
<ele>49</ele>
<time>2011-05-03T09:38:32Z</time>
</trkpt>
<trkpt lat="45.16158" lon="13.58043">
<ele>49</ele>
<time>2011-05-03T09:38:34Z</time>
</trkpt>
<trkpt lat="45.16153" lon="13.58045">
<ele>49</ele>
<time>2011-05-03T09:38:36Z</time>
</trkpt>
<trkpt lat="45.16148" lon="13.58048">
<ele>49</ele>
<time>2011-05-03T09:38:38Z</time>
</trkpt>
<trkpt lat="45.16143" lon="13.5805">
<ele>49</ele>
<time>2011-05-03T09:38:40Z</time>
</trkpt>
<trkpt lat="45.16139" lon="13.58052">
<ele>49</ele>
<time>2011-05-03T09:38:42Z</time>
</trkpt>
<trkpt lat="45.16134" lon="13.58054">
<ele>49</ele>
<time>2011-05-03T09:38:44Z</time>
</trkpt>
<trkpt lat="45.16129" lon="13.58056">
<ele>49</ele>
<time>2011-05-03T09:38:46Z</time>
</trkpt>
<trkpt lat="45.16124" lon="13.58058">
<ele>49</ele>
<time>2011-05-03T09:38:48Z</time>
</trkpt>
<trkpt lat="45.16119" lon="13.5806">
<ele>49</ele>
<time>2011-05-03T09:38:50Z</time>
</trkpt>
<trkpt lat="45.16114" lon="13.58062">
<ele>49</ele>
<time>2011-05-03T09:38:52Z</time>
</trkpt>
<trkpt lat="45.16109" lon="13.58064">
<ele>49</ele>
<time>2011-05-03T09:38:54Z</time>
</trkpt>
<trkpt lat="45.16104" lon="13.58066">
<ele>49</ele>
<time>2011-05-03T09:38:56Z</time>
</trkpt>
<trkpt lat="45.16099" lon="13.58068">
<ele>49</ele>
<time>2011-05-03T09:38:58Z</time>
</trkpt>
<trkpt lat="45.16094" lon="13.5807">
<ele>49</ele>
<time>2011-05-03T09:39:00Z</time>
</trkpt>
<trkpt lat="45.1609" lon="13.58073">
<ele>49</ele>
<time>2011-05-03T09:39:02Z</time>
</trkpt>
<trkpt lat="45.16085" lon="13.58074">
<ele>49</ele>
<time>2011-05-03T09:39:04Z</time>
</trkpt>
<trkpt lat="45.1608" lon="13.58076">
<ele>49</ele>
<time>2011-05-03T09:39:06Z</time>
</trkpt>
<trkpt lat="45.16075" lon="13.58078">
<ele>49</ele>
<time>2011-05-03T09:39:08Z</time>
</trkpt>
<trkpt lat="45.1607" lon="13.5808">
<ele>49</ele>
<time>2011-05-03T09:39:10Z</time>
</trkpt>
<trkpt lat="45.16065" lon="13.58082">
<ele>49</ele>
<time>2011-05-03T09:39:12Z</time>
</trkpt>
<trkpt lat="45.1606" lon="13.58084">
<ele>49</ele>
<time>2011-05-03T09:39:14Z</time>
</trkpt>
<trkpt lat="45.16055" lon="13.58086">
<ele>49</ele>
<time>2011-05-03T09:39:16Z</time>
</trkpt>
<trkpt lat="45.1605" lon="13.58088">
<ele>49</ele>
<time>2011-05-03T09:39:18Z</time>
</trkpt>
<trkpt lat="45.16046" lon="13.58091">
<ele>48</ele>
<time>2011-05-03T09:39:20Z</time>
</trkpt>
<trkpt lat="45.16041" lon="13.58093">
<ele>48</ele>
<time>2011-05-03T09:39:22Z</time>
</trkpt>
<trkpt lat="45.16036" lon="13.58095">
<ele>48</ele>
<time>2011-05-03T09:39:24Z</time>
</trkpt>
<trkpt lat="45.16031" lon="13.58097">
<ele>48</ele>
<time>2011-05-03T09:39:26Z</time>
</trkpt>
<trkpt lat="45.16026" lon="13.58099">
<ele>48</ele>
<time>2011-05-03T09:39:28Z</time>
</trkpt>
<trkpt lat="45.16021" lon="13.58101">
<ele>48</ele>
<time>2011-05-03T09:39:30Z</time>
</trkpt>
<trkpt lat="45.16017" lon="13.58103">
<ele>48</ele>
<time>2011-05-03T09:39:32Z</time>
</trkpt>
<trkpt lat="45.16012" lon="13.58105">
<ele>48</ele>
<time>2011-05-03T09:39:34Z</time>
</trkpt>
<trkpt lat="45.16007" lon="13.58107">
<ele>48</ele>
<time>2011-05-03T09:39:36Z</time>
</trkpt>
<trkpt lat="45.16002" lon="13.5811">
<ele>48</ele>
<time>2011-05-03T09:39:38Z</time>
</trkpt>
<trkpt lat="45.15997" lon="13.58112">
<ele>48</ele>
<time>2011-05-03T09:39:40Z</time>
</trkpt>
<trkpt lat="45.15992" lon="13.58114">
<ele>48</ele>
<time>2011-05-03T09:39:42Z</time>
</trkpt>
<trkpt lat="45.15987" lon="13.58116">
<ele>48</ele>
<time>2011-05-03T09:39:44Z</time>
</trkpt>
<trkpt lat="45.15982" lon="13.58119">
<ele>48</ele>
<time>2011-05-03T09:39:46Z</time>
</trkpt>
<trkpt lat="45.15977" lon="13.58121">
<ele>48</ele>
<time>2011-05-03T09:39:48Z</time>
</trkpt>
<trkpt lat="45.15972" lon="13.58124">
<ele>48</ele>
<time>2011-05-03T09:39:50Z</time>
</trkpt>
<trkpt lat="45.15968" lon="13.58126">
<ele>48</ele>
<time>2011-05-03T09:39:52Z</time>
</trkpt>
<trkpt lat="45.15962" lon="13.58129">
<ele>48</ele>
<time>2011-05-03T09:39:54Z</time>
</trkpt>
<trkpt lat="45.15958" lon="13.58131">
<ele>48</ele>
<time>2011-05-03T09:39:56Z</time>
</trkpt>
<trkpt lat="45.15953" lon="13.58133">
<ele>48</ele>
<time>2011-05-03T09:39:58Z</time>
</trkpt>
<trkpt lat="45.15948" lon="13.58136">
<ele>48</ele>
<time>2011-05-03T09:40:00Z</time>
</trkpt>
<trkpt lat="45.15943" lon="13.58138">
<ele>48</ele>
<time>2011-05-03T09:40:02Z</time>
</trkpt>
<trkpt lat="45.15938" lon="13.5814">
<ele>48</ele>
<time>2011-05-03T09:40:04Z</time>
</trkpt>
<trkpt lat="45.15933" lon="13.58143">
<ele>48</ele>
<time>2011-05-03T09:40:06Z</time>
</trkpt>
<trkpt lat="45.15928" lon="13.58145">
<ele>48</ele>
<time>2011-05-03T09:40:08Z</time>
</trkpt>
<trkpt lat="45.15924" lon="13.58147">
<ele>48</ele>
<time>2011-05-03T09:40:10Z</time>
</trkpt>
<trkpt lat="45.15919" lon="13.58149">
<ele>48</ele>
<time>2011-05-03T09:40:12Z</time>
</trkpt>
<trkpt lat="45.15914" lon="13.58152">
<ele>48</ele>
<time>2011-05-03T09:40:14Z</time>
</trkpt>
<trkpt lat="45.15909" lon="13.58153">
<ele>48</ele>
<time>2011-05-03T09:40:16Z</time>
</trkpt>
<trkpt lat="45.15904" lon="13.58155">
<ele>48</ele>
<time>2011-05-03T09:40:18Z</time>
</trkpt>
<trkpt lat="45.15899" lon="13.58157">
<ele>48</ele>
<time>2011-05-03T09:40:20Z</time>
</trkpt>
<trkpt lat="45.15894" lon="13.58159">
<ele>48</ele>
<time>2011-05-03T09:40:22Z</time>
</trkpt>
<trkpt lat="45.15889" lon="13.58161">
<ele>48</ele>
<time>2011-05-03T09:40:24Z</time>
</trkpt>
<trkpt lat="45.15884" lon="13.58164">
<ele>48</ele>
<time>2011-05-03T09:40:26Z</time>
</trkpt>
<trkpt lat="45.1588" lon="13.58167">
<ele>48</ele>
<time>2011-05-03T09:40:28Z</time>
</trkpt>
<trkpt lat="45.15875" lon="13.58169">
<ele>48</ele>
<time>2011-05-03T09:40:30Z</time>
</trkpt>
<trkpt lat="45.1587" lon="13.58171">
<ele>48</ele>
<time>2011-05-03T09:40:32Z</time>
</trkpt>
<trkpt lat="45.15866" lon="13.58173">
<ele>48</ele>
<time>2011-05-03T09:40:34Z</time>
</trkpt>
<trkpt lat="45.15861" lon="13.58175">
<ele>48</ele>
<time>2011-05-03T09:40:36Z</time>
</trkpt>
<trkpt lat="45.15856" lon="13.58178">
<ele>48</ele>
<time>2011-05-03T09:40:38Z</time>
</trkpt>
<trkpt lat="45.15852" lon="13.58182">
<ele>48</ele>
<time>2011-05-03T09:40:40Z</time>
</trkpt>
<trkpt lat="45.15848" lon="13.58186">
<ele>48</ele>
<time>2011-05-03T09:40:42Z</time>
</trkpt>
<trkpt lat="45.15844" lon="13.58189">
<ele>48</ele>
<time>2011-05-03T09:40:44Z</time>
</trkpt>
<trkpt lat="45.15839" lon="13.58192">
<ele>48</ele>
<time>2011-05-03T09:40:46Z</time>
</trkpt>
<trkpt lat="45.15835" lon="13.58194">
<ele>48</ele>
<time>2011-05-03T09:40:48Z</time>
</trkpt>
<trkpt lat="45.1583" lon="13.58196">
<ele>48</ele>
<time>2011-05-03T09:40:50Z</time>
</trkpt>
<trkpt lat="45.15826" lon="13.58198">
<ele>48</ele>
<time>2011-05-03T09:40:52Z</time>
</trkpt>
<trkpt lat="45.15821" lon="13.582">
<ele>48</ele>
<time>2011-05-03T09:40:54Z</time>
</trkpt>
<trkpt lat="45.15816" lon="13.58203">
<ele>48</ele>
<time>2011-05-03T09:40:56Z</time>
</trkpt>
<trkpt lat="45.15811" lon="13.58205">
<ele>48</ele>
<time>2011-05-03T09:40:58Z</time>
</trkpt>
<trkpt lat="45.15807" lon="13.58206">
<ele>48</ele>
<time>2011-05-03T09:41:00Z</time>
</trkpt>
<trkpt lat="45.15802" lon="13.58208">
<ele>48</ele>
<time>2011-05-03T09:41:02Z</time>
</trkpt>
<trkpt lat="45.15797" lon="13.58209">
<ele>48</ele>
<time>2011-05-03T09:41:04Z</time>
</trkpt>
<trkpt lat="45.15792" lon="13.58211">
<ele>48</ele>
<time>2011-05-03T09:41:06Z</time>
</trkpt>
<trkpt lat="45.15787" lon="13.58213">
<ele>48</ele>
<time>2011-05-03T09:41:08Z</time>
</trkpt>
<trkpt lat="45.15782" lon="13.58216">
<ele>48</ele>
<time>2011-05-03T09:41:10Z</time>
</trkpt>
<trkpt lat="45.15778" lon="13.58218">
<ele>48</ele>
<time>2011-05-03T09:41:12Z</time>
</trkpt>
<trkpt lat="45.15773" lon="13.58221">
<ele>48</ele>
<time>2011-05-03T09:41:14Z</time>
</trkpt>
<trkpt lat="45.15768" lon="13.58223">
<ele>48</ele>
<time>2011-05-03T09:41:16Z</time>
</trkpt>
<trkpt lat="45.15763" lon="13.58225">
<ele>48</ele>
<time>2011-05-03T09:41:18Z</time>
</trkpt>
<trkpt lat="45.15758" lon="13.58227">
<ele>48</ele>
<time>2011-05-03T09:41:20Z</time>
</trkpt>
<trkpt lat="45.15753" lon="13.5823">
<ele>49</ele>
<time>2011-05-03T09:41:22Z</time>
</trkpt>
<trkpt lat="45.15748" lon="13.58232">
<ele>49</ele>
<time>2011-05-03T09:41:24Z</time>
</trkpt>
<trkpt lat="45.15744" lon="13.58234">
<ele>49</ele>
<time>2011-05-03T09:41:26Z</time>
</trkpt>
<trkpt lat="45.15739" lon="13.58236">
<ele>49</ele>
<time>2011-05-03T09:41:28Z</time>
</trkpt>
<trkpt lat="45.15734" lon="13.58238">
<ele>49</ele>
<time>2011-05-03T09:41:30Z</time>
</trkpt>
<trkpt lat="45.15729" lon="13.5824">
<ele>49</ele>
<time>2011-05-03T09:41:32Z</time>
</trkpt>
<trkpt lat="45.15724" lon="13.58242">
<ele>49</ele>
<time>2011-05-03T09:41:34Z</time>
</trkpt>
<trkpt lat="45.15719" lon="13.58244">
<ele>49</ele>
<time>2011-05-03T09:41:36Z</time>
</trkpt>
<trkpt lat="45.15714" lon="13.58247">
<ele>49</ele>
<time>2011-05-03T09:41:38Z</time>
</trkpt>
<trkpt lat="45.15709" lon="13.58249">
<ele>49</ele>
<time>2011-05-03T09:41:40Z</time>
</trkpt>
<trkpt lat="45.15704" lon="13.58252">
<ele>49</ele>
<time>2011-05-03T09:41:42Z</time>
</trkpt>
<trkpt lat="45.15699" lon="13.58254">
<ele>48</ele>
<time>2011-05-03T09:41:44Z</time>
</trkpt>
<trkpt lat="45.15694" lon="13.58256">
<ele>48</ele>
<time>2011-05-03T09:41:46Z</time>
</trkpt>
<trkpt lat="45.15689" lon="13.58258">
<ele>48</ele>
<time>2011-05-03T09:41:48Z</time>
</trkpt>
<trkpt lat="45.15684" lon="13.5826">
<ele>48</ele>
<time>2011-05-03T09:41:50Z</time>
</trkpt>
<trkpt lat="45.1568" lon="13.58262">
<ele>48</ele>
<time>2011-05-03T09:41:52Z</time>
</trkpt>
<trkpt lat="45.15675" lon="13.58264">
<ele>48</ele>
<time>2011-05-03T09:41:54Z</time>
</trkpt>
<trkpt lat="45.1567" lon="13.58266">
<ele>48</ele>
<time>2011-05-03T09:41:56Z</time>
</trkpt>
<trkpt lat="45.15665" lon="13.58268">
<ele>48</ele>
<time>2011-05-03T09:41:58Z</time>
</trkpt>
<trkpt lat="45.1566" lon="13.5827">
<ele>48</ele>
<time>2011-05-03T09:42:00Z</time>
</trkpt>
<trkpt lat="45.15655" lon="13.58272">
<ele>48</ele>
<time>2011-05-03T09:42:02Z</time>
</trkpt>
<trkpt lat="45.1565" lon="13.58273">
<ele>48</ele>
<time>2011-05-03T09:42:04Z</time>
</trkpt>
<trkpt lat="45.15645" lon="13.58275">
<ele>48</ele>
<time>2011-05-03T09:42:06Z</time>
</trkpt>
<trkpt lat="45.1564" lon="13.58276">
<ele>48</ele>
<time>2011-05-03T09:42:08Z</time>
</trkpt>
<trkpt lat="45.15635" lon="13.58278">
<ele>48</ele>
<time>2011-05-03T09:42:10Z</time>
</trkpt>
<trkpt lat="45.1563" lon="13.5828">
<ele>48</ele>
<time>2011-05-03T09:42:12Z</time>
</trkpt>
<trkpt lat="45.15625" lon="13.58281">
<ele>48</ele>
<time>2011-05-03T09:42:14Z</time>
</trkpt>
<trkpt lat="45.1562" lon="13.58283">
<ele>48</ele>
<time>2011-05-03T09:42:16Z</time>
</trkpt>
<trkpt lat="45.15615" lon="13.58285">
<ele>48</ele>
<time>2011-05-03T09:42:18Z</time>
</trkpt>
<trkpt lat="45.1561" lon="13.58286">
<ele>48</ele>
<time>2011-05-03T09:42:20Z</time>
</trkpt>
<trkpt lat="45.15606" lon="13.58288">
<ele>48</ele>
<time>2011-05-03T09:42:22Z</time>
</trkpt>
<trkpt lat="45.15601" lon="13.5829">
<ele>48</ele>
<time>2011-05-03T09:42:24Z</time>
</trkpt>
<trkpt lat="45.15596" lon="13.58291">
<ele>48</ele>
<time>2011-05-03T09:42:26Z</time>
</trkpt>
<trkpt lat="45.15591" lon="13.58293">
<ele>48</ele>
<time>2011-05-03T09:42:28Z</time>
</trkpt>
<trkpt lat="45.15586" lon="13.58295">
<ele>48</ele>
<time>2011-05-03T09:42:30Z</time>
</trkpt>
<trkpt lat="45.15581" lon="13.58297">
<ele>48</ele>
<time>2011-05-03T09:42:32Z</time>
</trkpt>
<trkpt lat="45.15576" lon="13.58299">
<ele>48</ele>
<time>2011-05-03T09:42:34Z</time>
</trkpt>
<trkpt lat="45.15571" lon="13.58301">
<ele>48</ele>
<time>2011-05-03T09:42:36Z</time>
</trkpt>
<trkpt lat="45.15566" lon="13.58303">
<ele>48</ele>
<time>2011-05-03T09:42:38Z</time>
</trkpt>
<trkpt lat="45.15561" lon="13.58304">
<ele>48</ele>
<time>2011-05-03T09:42:40Z</time>
</trkpt>
<trkpt lat="45.15556" lon="13.58306">
<ele>48</ele>
<time>2011-05-03T09:42:42Z</time>
</trkpt>
<trkpt lat="45.15551" lon="13.58308">
<ele>48</ele>
<time>2011-05-03T09:42:44Z</time>
</trkpt>
<trkpt lat="45.15546" lon="13.5831">
<ele>48</ele>
<time>2011-05-03T09:42:46Z</time>
</trkpt>
<trkpt lat="45.15541" lon="13.58312">
<ele>48</ele>
<time>2011-05-03T09:42:48Z</time>
</trkpt>
<trkpt lat="45.15536" lon="13.58314">
<ele>48</ele>
<time>2011-05-03T09:42:50Z</time>
</trkpt>
<trkpt lat="45.1553" lon="13.58315">
<ele>48</ele>
<time>2011-05-03T09:42:52Z</time>
</trkpt>
<trkpt lat="45.15526" lon="13.58317">
<ele>48</ele>
<time>2011-05-03T09:42:54Z</time>
</trkpt>
<trkpt lat="45.1552" lon="13.58318">
<ele>48</ele>
<time>2011-05-03T09:42:56Z</time>
</trkpt>
<trkpt lat="45.15516" lon="13.5832">
<ele>48</ele>
<time>2011-05-03T09:42:58Z</time>
</trkpt>
<trkpt lat="45.1551" lon="13.58322">
<ele>48</ele>
<time>2011-05-03T09:43:00Z</time>
</trkpt>
<trkpt lat="45.15506" lon="13.58324">
<ele>48</ele>
<time>2011-05-03T09:43:02Z</time>
</trkpt>
<trkpt lat="45.15501" lon="13.58325">
<ele>48</ele>
<time>2011-05-03T09:43:04Z</time>
</trkpt>
<trkpt lat="45.15496" lon="13.58327">
<ele>48</ele>
<time>2011-05-03T09:43:06Z</time>
</trkpt>
<trkpt lat="45.15491" lon="13.58328">
<ele>49</ele>
<time>2011-05-03T09:43:08Z</time>
</trkpt>
<trkpt lat="45.15486" lon="13.5833">
<ele>49</ele>
<time>2011-05-03T09:43:10Z</time>
</trkpt>
<trkpt lat="45.15481" lon="13.58332">
<ele>49</ele>
<time>2011-05-03T09:43:12Z</time>
</trkpt>
<trkpt lat="45.15476" lon="13.58334">
<ele>49</ele>
<time>2011-05-03T09:43:14Z</time>
</trkpt>
<trkpt lat="45.15471" lon="13.58335">
<ele>49</ele>
<time>2011-05-03T09:43:16Z</time>
</trkpt>
<trkpt lat="45.15466" lon="13.58337">
<ele>49</ele>
<time>2011-05-03T09:43:18Z</time>
</trkpt>
<trkpt lat="45.15461" lon="13.58339">
<ele>49</ele>
<time>2011-05-03T09:43:20Z</time>
</trkpt>
<trkpt lat="45.15456" lon="13.5834">
<ele>49</ele>
<time>2011-05-03T09:43:22Z</time>
</trkpt>
<trkpt lat="45.15451" lon="13.58342">
<ele>49</ele>
<time>2011-05-03T09:43:24Z</time>
</trkpt>
<trkpt lat="45.15446" lon="13.58344">
<ele>49</ele>
<time>2011-05-03T09:43:26Z</time>
</trkpt>
<trkpt lat="45.15441" lon="13.58345">
<ele>49</ele>
<time>2011-05-03T09:43:28Z</time>
</trkpt>
<trkpt lat="45.15436" lon="13.58347">
<ele>49</ele>
<time>2011-05-03T09:43:30Z</time>
</trkpt>
<trkpt lat="45.15431" lon="13.58348">
<ele>49</ele>
<time>2011-05-03T09:43:32Z</time>
</trkpt>
<trkpt lat="45.15426" lon="13.58349">
<ele>49</ele>
<time>2011-05-03T09:43:34Z</time>
</trkpt>
<trkpt lat="45.15421" lon="13.5835">
<ele>49</ele>
<time>2011-05-03T09:43:36Z</time>
</trkpt>
<trkpt lat="45.15416" lon="13.58351">
<ele>49</ele>
<time>2011-05-03T09:43:38Z</time>
</trkpt>
<trkpt lat="45.15411" lon="13.58352">
<ele>49</ele>
<time>2011-05-03T09:43:40Z</time>
</trkpt>
<trkpt lat="45.15406" lon="13.58353">
<ele>49</ele>
<time>2011-05-03T09:43:42Z</time>
</trkpt>
<trkpt lat="45.15401" lon="13.58355">
<ele>49</ele>
<time>2011-05-03T09:43:44Z</time>
</trkpt>
<trkpt lat="45.15396" lon="13.58356">
<ele>49</ele>
<time>2011-05-03T09:43:46Z</time>
</trkpt>
<trkpt lat="45.15391" lon="13.58357">
<ele>49</ele>
<time>2011-05-03T09:43:48Z</time>
</trkpt>
<trkpt lat="45.15386" lon="13.58358">
<ele>49</ele>
<time>2011-05-03T09:43:50Z</time>
</trkpt>
<trkpt lat="45.15381" lon="13.5836">
<ele>49</ele>
<time>2011-05-03T09:43:52Z</time>
</trkpt>
<trkpt lat="45.15376" lon="13.58361">
<ele>49</ele>
<time>2011-05-03T09:43:54Z</time>
</trkpt>
<trkpt lat="45.1537" lon="13.58363">
<ele>49</ele>
<time>2011-05-03T09:43:56Z</time>
</trkpt>
<trkpt lat="45.15366" lon="13.58364">
<ele>49</ele>
<time>2011-05-03T09:43:58Z</time>
</trkpt>
<trkpt lat="45.1536" lon="13.58366">
<ele>50</ele>
<time>2011-05-03T09:44:00Z</time>
</trkpt>
<trkpt lat="45.15356" lon="13.58368">
<ele>50</ele>
<time>2011-05-03T09:44:02Z</time>
</trkpt>
<trkpt lat="45.15351" lon="13.5837">
<ele>50</ele>
<time>2011-05-03T09:44:04Z</time>
</trkpt>
<trkpt lat="45.15346" lon="13.58372">
<ele>50</ele>
<time>2011-05-03T09:44:06Z</time>
</trkpt>
<trkpt lat="45.15342" lon="13.58374">
<ele>50</ele>
<time>2011-05-03T09:44:08Z</time>
</trkpt>
<trkpt lat="45.15337" lon="13.58375">
<ele>50</ele>
<time>2011-05-03T09:44:10Z</time>
</trkpt>
<trkpt lat="45.15332" lon="13.58376">
<ele>50</ele>
<time>2011-05-03T09:44:12Z</time>
</trkpt>
<trkpt lat="45.15328" lon="13.58378">
<ele>50</ele>
<time>2011-05-03T09:44:14Z</time>
</trkpt>
<trkpt lat="45.15323" lon="13.58379">
<ele>50</ele>
<time>2011-05-03T09:44:16Z</time>
</trkpt>
<trkpt lat="45.15319" lon="13.58381">
<ele>50</ele>
<time>2011-05-03T09:44:18Z</time>
</trkpt>
<trkpt lat="45.15314" lon="13.58382">
<ele>50</ele>
<time>2011-05-03T09:44:20Z</time>
</trkpt>
<trkpt lat="45.15309" lon="13.58384">
<ele>50</ele>
<time>2011-05-03T09:44:22Z</time>
</trkpt>
<trkpt lat="45.15304" lon="13.58385">
<ele>50</ele>
<time>2011-05-03T09:44:24Z</time>
</trkpt>
<trkpt lat="45.153" lon="13.58386">
<ele>50</ele>
<time>2011-05-03T09:44:26Z</time>
</trkpt>
<trkpt lat="45.15295" lon="13.58387">
<ele>51</ele>
<time>2011-05-03T09:44:28Z</time>
</trkpt>
<trkpt lat="45.1529" lon="13.58389">
<ele>51</ele>
<time>2011-05-03T09:44:30Z</time>
</trkpt>
<trkpt lat="45.15285" lon="13.5839">
<ele>51</ele>
<time>2011-05-03T09:44:32Z</time>
</trkpt>
<trkpt lat="45.1528" lon="13.58392">
<ele>51</ele>
<time>2011-05-03T09:44:34Z</time>
</trkpt>
<trkpt lat="45.15275" lon="13.58393">
<ele>51</ele>
<time>2011-05-03T09:44:36Z</time>
</trkpt>
<trkpt lat="45.1527" lon="13.58394">
<ele>51</ele>
<time>2011-05-03T09:44:38Z</time>
</trkpt>
<trkpt lat="45.15265" lon="13.58396">
<ele>51</ele>
<time>2011-05-03T09:44:40Z</time>
</trkpt>
<trkpt lat="45.15261" lon="13.58398">
<ele>51</ele>
<time>2011-05-03T09:44:42Z</time>
</trkpt>
<trkpt lat="45.15256" lon="13.58399">
<ele>51</ele>
<time>2011-05-03T09:44:44Z</time>
</trkpt>
<trkpt lat="45.15251" lon="13.584">
<ele>51</ele>
<time>2011-05-03T09:44:46Z</time>
</trkpt>
<trkpt lat="45.15246" lon="13.584">
<ele>51</ele>
<time>2011-05-03T09:44:48Z</time>
</trkpt>
<trkpt lat="45.15241" lon="13.58402">
<ele>51</ele>
<time>2011-05-03T09:44:50Z</time>
</trkpt>
<trkpt lat="45.15236" lon="13.58403">
<ele>51</ele>
<time>2011-05-03T09:44:52Z</time>
</trkpt>
<trkpt lat="45.15231" lon="13.58406">
<ele>51</ele>
<time>2011-05-03T09:44:54Z</time>
</trkpt>
<trkpt lat="45.15226" lon="13.58408">
<ele>51</ele>
<time>2011-05-03T09:44:56Z</time>
</trkpt>
<trkpt lat="45.15222" lon="13.5841">
<ele>51</ele>
<time>2011-05-03T09:44:58Z</time>
</trkpt>
<trkpt lat="45.15217" lon="13.58411">
<ele>51</ele>
<time>2011-05-03T09:45:00Z</time>
</trkpt>
<trkpt lat="45.15212" lon="13.58412">
<ele>51</ele>
<time>2011-05-03T09:45:02Z</time>
</trkpt>
<trkpt lat="45.15207" lon="13.58414">
<ele>51</ele>
<time>2011-05-03T09:45:04Z</time>
</trkpt>
<trkpt lat="45.15202" lon="13.58416">
<ele>51</ele>
<time>2011-05-03T09:45:06Z</time>
</trkpt>
<trkpt lat="45.15197" lon="13.58417">
<ele>51</ele>
<time>2011-05-03T09:45:08Z</time>
</trkpt>
<trkpt lat="45.15192" lon="13.58418">
<ele>51</ele>
<time>2011-05-03T09:45:10Z</time>
</trkpt>
<trkpt lat="45.15188" lon="13.5842">
<ele>51</ele>
<time>2011-05-03T09:45:12Z</time>
</trkpt>
<trkpt lat="45.15183" lon="13.58421">
<ele>51</ele>
<time>2011-05-03T09:45:14Z</time>
</trkpt>
<trkpt lat="45.15178" lon="13.58422">
<ele>51</ele>
<time>2011-05-03T09:45:16Z</time>
</trkpt>
<trkpt lat="45.15173" lon="13.58423">
<ele>51</ele>
<time>2011-05-03T09:45:18Z</time>
</trkpt>
<trkpt lat="45.15168" lon="13.58424">
<ele>51</ele>
<time>2011-05-03T09:45:20Z</time>
</trkpt>
<trkpt lat="45.15163" lon="13.58426">
<ele>51</ele>
<time>2011-05-03T09:45:22Z</time>
</trkpt>
<trkpt lat="45.15158" lon="13.58427">
<ele>51</ele>
<time>2011-05-03T09:45:24Z</time>
</trkpt>
<trkpt lat="45.15153" lon="13.58428">
<ele>51</ele>
<time>2011-05-03T09:45:26Z</time>
</trkpt>
<trkpt lat="45.15148" lon="13.58429">
<ele>51</ele>
<time>2011-05-03T09:45:28Z</time>
</trkpt>
<trkpt lat="45.15143" lon="13.5843">
<ele>51</ele>
<time>2011-05-03T09:45:30Z</time>
</trkpt>
<trkpt lat="45.15138" lon="13.58431">
<ele>51</ele>
<time>2011-05-03T09:45:32Z</time>
</trkpt>
<trkpt lat="45.15133" lon="13.58432">
<ele>51</ele>
<time>2011-05-03T09:45:34Z</time>
</trkpt>
<trkpt lat="45.15128" lon="13.58433">
<ele>51</ele>
<time>2011-05-03T09:45:36Z</time>
</trkpt>
<trkpt lat="45.15123" lon="13.58435">
<ele>51</ele>
<time>2011-05-03T09:45:38Z</time>
</trkpt>
<trkpt lat="45.15118" lon="13.58436">
<ele>51</ele>
<time>2011-05-03T09:45:40Z</time>
</trkpt>
<trkpt lat="45.15113" lon="13.58437">
<ele>51</ele>
<time>2011-05-03T09:45:42Z</time>
</trkpt>
<trkpt lat="45.15108" lon="13.58438">
<ele>51</ele>
<time>2011-05-03T09:45:44Z</time>
</trkpt>
<trkpt lat="45.15103" lon="13.5844">
<ele>51</ele>
<time>2011-05-03T09:45:46Z</time>
</trkpt>
<trkpt lat="45.15098" lon="13.58441">
<ele>51</ele>
<time>2011-05-03T09:45:48Z</time>
</trkpt>
<trkpt lat="45.15093" lon="13.58443">
<ele>51</ele>
<time>2011-05-03T09:45:50Z</time>
</trkpt>
<trkpt lat="45.15088" lon="13.58444">
<ele>51</ele>
<time>2011-05-03T09:45:52Z</time>
</trkpt>
<trkpt lat="45.15083" lon="13.58446">
<ele>51</ele>
<time>2011-05-03T09:45:54Z</time>
</trkpt>
<trkpt lat="45.15078" lon="13.58447">
<ele>51</ele>
<time>2011-05-03T09:45:56Z</time>
</trkpt>
<trkpt lat="45.15073" lon="13.58449">
<ele>51</ele>
<time>2011-05-03T09:45:58Z</time>
</trkpt>
<trkpt lat="45.15068" lon="13.5845">
<ele>51</ele>
<time>2011-05-03T09:46:00Z</time>
</trkpt>
<trkpt lat="45.15063" lon="13.58452">
<ele>51</ele>
<time>2011-05-03T09:46:02Z</time>
</trkpt>
<trkpt lat="45.15058" lon="13.58453">
<ele>51</ele>
<time>2011-05-03T09:46:04Z</time>
</trkpt>
<trkpt lat="45.15053" lon="13.58455">
<ele>51</ele>
<time>2011-05-03T09:46:06Z</time>
</trkpt>
<trkpt lat="45.15048" lon="13.58456">
<ele>51</ele>
<time>2011-05-03T09:46:08Z</time>
</trkpt>
<trkpt lat="45.15043" lon="13.58457">
<ele>51</ele>
<time>2011-05-03T09:46:10Z</time>
</trkpt>
<trkpt lat="45.15038" lon="13.58458">
<ele>51</ele>
<time>2011-05-03T09:46:12Z</time>
</trkpt>
<trkpt lat="45.15032" lon="13.5846">
<ele>51</ele>
<time>2011-05-03T09:46:14Z</time>
</trkpt>
<trkpt lat="45.15027" lon="13.58461">
<ele>51</ele>
<time>2011-05-03T09:46:16Z</time>
</trkpt>
<trkpt lat="45.15022" lon="13.58462">
<ele>51</ele>
<time>2011-05-03T09:46:18Z</time>
</trkpt>
<trkpt lat="45.15017" lon="13.58463">
<ele>51</ele>
<time>2011-05-03T09:46:20Z</time>
</trkpt>
<trkpt lat="45.15012" lon="13.58465">
<ele>51</ele>
<time>2011-05-03T09:46:22Z</time>
</trkpt>
<trkpt lat="45.15007" lon="13.58466">
<ele>51</ele>
<time>2011-05-03T09:46:24Z</time>
</trkpt>
<trkpt lat="45.15002" lon="13.58468">
<ele>51</ele>
<time>2011-05-03T09:46:26Z</time>
</trkpt>
<trkpt lat="45.14997" lon="13.5847">
<ele>51</ele>
<time>2011-05-03T09:46:28Z</time>
</trkpt>
<trkpt lat="45.14992" lon="13.58471">
<ele>51</ele>
<time>2011-05-03T09:46:30Z</time>
</trkpt>
<trkpt lat="45.14987" lon="13.58473">
<ele>51</ele>
<time>2011-05-03T09:46:32Z</time>
</trkpt>
<trkpt lat="45.14982" lon="13.58474">
<ele>51</ele>
<time>2011-05-03T09:46:34Z</time>
</trkpt>
<trkpt lat="45.14977" lon="13.58476">
<ele>50</ele>
<time>2011-05-03T09:46:36Z</time>
</trkpt>
<trkpt lat="45.14972" lon="13.58477">
<ele>50</ele>
<time>2011-05-03T09:46:38Z</time>
</trkpt>
<trkpt lat="45.14967" lon="13.58478">
<ele>50</ele>
<time>2011-05-03T09:46:40Z</time>
</trkpt>
<trkpt lat="45.14962" lon="13.58479">
<ele>50</ele>
<time>2011-05-03T09:46:42Z</time>
</trkpt>
<trkpt lat="45.14957" lon="13.58481">
<ele>50</ele>
<time>2011-05-03T09:46:44Z</time>
</trkpt>
<trkpt lat="45.14952" lon="13.58482">
<ele>50</ele>
<time>2011-05-03T09:46:46Z</time>
</trkpt>
<trkpt lat="45.14947" lon="13.58484">
<ele>50</ele>
<time>2011-05-03T09:46:48Z</time>
</trkpt>
<trkpt lat="45.14942" lon="13.58485">
<ele>50</ele>
<time>2011-05-03T09:46:50Z</time>
</trkpt>
<trkpt lat="45.14937" lon="13.58487">
<ele>50</ele>
<time>2011-05-03T09:46:52Z</time>
</trkpt>
<trkpt lat="45.14932" lon="13.58488">
<ele>50</ele>
<time>2011-05-03T09:46:54Z</time>
</trkpt>
<trkpt lat="45.14927" lon="13.5849">
<ele>50</ele>
<time>2011-05-03T09:46:56Z</time>
</trkpt>
<trkpt lat="45.14922" lon="13.58491">
<ele>50</ele>
<time>2011-05-03T09:46:58Z</time>
</trkpt>
<trkpt lat="45.14916" lon="13.58493">
<ele>50</ele>
<time>2011-05-03T09:47:00Z</time>
</trkpt>
<trkpt lat="45.14911" lon="13.58494">
<ele>50</ele>
<time>2011-05-03T09:47:02Z</time>
</trkpt>
<trkpt lat="45.14906" lon="13.58496">
<ele>50</ele>
<time>2011-05-03T09:47:04Z</time>
</trkpt>
<trkpt lat="45.14901" lon="13.58497">
<ele>50</ele>
<time>2011-05-03T09:47:06Z</time>
</trkpt>
<trkpt lat="45.14896" lon="13.58499">
<ele>50</ele>
<time>2011-05-03T09:47:08Z</time>
</trkpt>
<trkpt lat="45.14891" lon="13.585">
<ele>50</ele>
<time>2011-05-03T09:47:10Z</time>
</trkpt>
<trkpt lat="45.14885" lon="13.58502">
<ele>50</ele>
<time>2011-05-03T09:47:12Z</time>
</trkpt>
<trkpt lat="45.1488" lon="13.58503">
<ele>50</ele>
<time>2011-05-03T09:47:14Z</time>
</trkpt>
<trkpt lat="45.14875" lon="13.58505">
<ele>50</ele>
<time>2011-05-03T09:47:16Z</time>
</trkpt>
<trkpt lat="45.1487" lon="13.58506">
<ele>50</ele>
<time>2011-05-03T09:47:18Z</time>
</trkpt>
<trkpt lat="45.14865" lon="13.58508">
<ele>50</ele>
<time>2011-05-03T09:47:20Z</time>
</trkpt>
<trkpt lat="45.1486" lon="13.58509">
<ele>50</ele>
<time>2011-05-03T09:47:22Z</time>
</trkpt>
<trkpt lat="45.14855" lon="13.5851">
<ele>50</ele>
<time>2011-05-03T09:47:24Z</time>
</trkpt>
<trkpt lat="45.1485" lon="13.58512">
<ele>50</ele>
<time>2011-05-03T09:47:26Z</time>
</trkpt>
<trkpt lat="45.14844" lon="13.58513">
<ele>50</ele>
<time>2011-05-03T09:47:28Z</time>
</trkpt>
<trkpt lat="45.14839" lon="13.58514">
<ele>50</ele>
<time>2011-05-03T09:47:30Z</time>
</trkpt>
<trkpt lat="45.14834" lon="13.58516">
<ele>50</ele>
<time>2011-05-03T09:47:32Z</time>
</trkpt>
<trkpt lat="45.14829" lon="13.58517">
<ele>50</ele>
<time>2011-05-03T09:47:34Z</time>
</trkpt>
<trkpt lat="45.14824" lon="13.58518">
<ele>50</ele>
<time>2011-05-03T09:47:36Z</time>
</trkpt>
<trkpt lat="45.14819" lon="13.5852">
<ele>50</ele>
<time>2011-05-03T09:47:38Z</time>
</trkpt>
<trkpt lat="45.14814" lon="13.58521">
<ele>50</ele>
<time>2011-05-03T09:47:40Z</time>
</trkpt>
<trkpt lat="45.14808" lon="13.58523">
<ele>50</ele>
<time>2011-05-03T09:47:42Z</time>
</trkpt>
<trkpt lat="45.14803" lon="13.58524">
<ele>50</ele>
<time>2011-05-03T09:47:44Z</time>
</trkpt>
<trkpt lat="45.14798" lon="13.58526">
<ele>50</ele>
<time>2011-05-03T09:47:46Z</time>
</trkpt>
<trkpt lat="45.14792" lon="13.58527">
<ele>50</ele>
<time>2011-05-03T09:47:48Z</time>
</trkpt>
<trkpt lat="45.14787" lon="13.58529">
<ele>50</ele>
<time>2011-05-03T09:47:50Z</time>
</trkpt>
<trkpt lat="45.14782" lon="13.5853">
<ele>50</ele>
<time>2011-05-03T09:47:52Z</time>
</trkpt>
<trkpt lat="45.14776" lon="13.58531">
<ele>50</ele>
<time>2011-05-03T09:47:54Z</time>
</trkpt>
<trkpt lat="45.14771" lon="13.58532">
<ele>50</ele>
<time>2011-05-03T09:47:56Z</time>
</trkpt>
<trkpt lat="45.14766" lon="13.58534">
<ele>50</ele>
<time>2011-05-03T09:47:58Z</time>
</trkpt>
<trkpt lat="45.1476" lon="13.58536">
<ele>50</ele>
<time>2011-05-03T09:48:00Z</time>
</trkpt>
<trkpt lat="45.14755" lon="13.58538">
<ele>50</ele>
<time>2011-05-03T09:48:02Z</time>
</trkpt>
<trkpt lat="45.1475" lon="13.5854">
<ele>50</ele>
<time>2011-05-03T09:48:04Z</time>
</trkpt>
<trkpt lat="45.14745" lon="13.58541">
<ele>50</ele>
<time>2011-05-03T09:48:06Z</time>
</trkpt>
<trkpt lat="45.1474" lon="13.58543">
<ele>50</ele>
<time>2011-05-03T09:48:08Z</time>
</trkpt>
<trkpt lat="45.14734" lon="13.58545">
<ele>50</ele>
<time>2011-05-03T09:48:10Z</time>
</trkpt>
<trkpt lat="45.14729" lon="13.58547">
<ele>50</ele>
<time>2011-05-03T09:48:12Z</time>
</trkpt>
<trkpt lat="45.14724" lon="13.58549">
<ele>50</ele>
<time>2011-05-03T09:48:14Z</time>
</trkpt>
<trkpt lat="45.14719" lon="13.58551">
<ele>50</ele>
<time>2011-05-03T09:48:16Z</time>
</trkpt>
<trkpt lat="45.14714" lon="13.58552">
<ele>50</ele>
<time>2011-05-03T09:48:18Z</time>
</trkpt>
<trkpt lat="45.14708" lon="13.58553">
<ele>50</ele>
<time>2011-05-03T09:48:20Z</time>
</trkpt>
<trkpt lat="45.14703" lon="13.58555">
<ele>50</ele>
<time>2011-05-03T09:48:22Z</time>
</trkpt>
<trkpt lat="45.14698" lon="13.58556">
<ele>50</ele>
<time>2011-05-03T09:48:24Z</time>
</trkpt>
<trkpt lat="45.14693" lon="13.58558">
<ele>50</ele>
<time>2011-05-03T09:48:26Z</time>
</trkpt>
<trkpt lat="45.14688" lon="13.5856">
<ele>50</ele>
<time>2011-05-03T09:48:28Z</time>
</trkpt>
<trkpt lat="45.14682" lon="13.58562">
<ele>50</ele>
<time>2011-05-03T09:48:30Z</time>
</trkpt>
<trkpt lat="45.14677" lon="13.58563">
<ele>50</ele>
<time>2011-05-03T09:48:32Z</time>
</trkpt>
<trkpt lat="45.14672" lon="13.58564">
<ele>50</ele>
<time>2011-05-03T09:48:34Z</time>
</trkpt>
<trkpt lat="45.14667" lon="13.58566">
<ele>50</ele>
<time>2011-05-03T09:48:36Z</time>
</trkpt>
<trkpt lat="45.14661" lon="13.58567">
<ele>50</ele>
<time>2011-05-03T09:48:38Z</time>
</trkpt>
<trkpt lat="45.14656" lon="13.58569">
<ele>50</ele>
<time>2011-05-03T09:48:40Z</time>
</trkpt>
<trkpt lat="45.14651" lon="13.5857">
<ele>50</ele>
<time>2011-05-03T09:48:42Z</time>
</trkpt>
<trkpt lat="45.14646" lon="13.58572">
<ele>50</ele>
<time>2011-05-03T09:48:44Z</time>
</trkpt>
<trkpt lat="45.14641" lon="13.58573">
<ele>50</ele>
<time>2011-05-03T09:48:46Z</time>
</trkpt>
<trkpt lat="45.14636" lon="13.58575">
<ele>50</ele>
<time>2011-05-03T09:48:48Z</time>
</trkpt>
<trkpt lat="45.14631" lon="13.58576">
<ele>50</ele>
<time>2011-05-03T09:48:50Z</time>
</trkpt>
<trkpt lat="45.14626" lon="13.58577">
<ele>50</ele>
<time>2011-05-03T09:48:52Z</time>
</trkpt>
<trkpt lat="45.14621" lon="13.58578">
<ele>50</ele>
<time>2011-05-03T09:48:54Z</time>
</trkpt>
<trkpt lat="45.14616" lon="13.58578">
<ele>50</ele>
<time>2011-05-03T09:48:56Z</time>
</trkpt>
<trkpt lat="45.1461" lon="13.58579">
<ele>50</ele>
<time>2011-05-03T09:48:58Z</time>
</trkpt>
<trkpt lat="45.14605" lon="13.58579">
<ele>50</ele>
<time>2011-05-03T09:49:00Z</time>
</trkpt>
<trkpt lat="45.146" lon="13.58579">
<ele>50</ele>
<time>2011-05-03T09:49:02Z</time>
</trkpt>
<trkpt lat="45.14595" lon="13.58579">
<ele>50</ele>
<time>2011-05-03T09:49:04Z</time>
</trkpt>
<trkpt lat="45.1459" lon="13.58579">
<ele>50</ele>
<time>2011-05-03T09:49:06Z</time>
</trkpt>
<trkpt lat="45.14585" lon="13.5858">
<ele>50</ele>
<time>2011-05-03T09:49:08Z</time>
</trkpt>
<trkpt lat="45.14579" lon="13.5858">
<ele>50</ele>
<time>2011-05-03T09:49:10Z</time>
</trkpt>
<trkpt lat="45.14574" lon="13.5858">
<ele>50</ele>
<time>2011-05-03T09:49:12Z</time>
</trkpt>
<trkpt lat="45.14569" lon="13.58581">
<ele>50</ele>
<time>2011-05-03T09:49:14Z</time>
</trkpt>
<trkpt lat="45.14564" lon="13.58582">
<ele>50</ele>
<time>2011-05-03T09:49:16Z</time>
</trkpt>
<trkpt lat="45.14558" lon="13.58583">
<ele>50</ele>
<time>2011-05-03T09:49:18Z</time>
</trkpt>
<trkpt lat="45.14553" lon="13.58584">
<ele>50</ele>
<time>2011-05-03T09:49:20Z</time>
</trkpt>
<trkpt lat="45.14548" lon="13.58584">
<ele>50</ele>
<time>2011-05-03T09:49:22Z</time>
</trkpt>
<trkpt lat="45.14543" lon="13.58584">
<ele>50</ele>
<time>2011-05-03T09:49:24Z</time>
</trkpt>
<trkpt lat="45.14538" lon="13.58585">
<ele>50</ele>
<time>2011-05-03T09:49:26Z</time>
</trkpt>
<trkpt lat="45.14533" lon="13.58585">
<ele>50</ele>
<time>2011-05-03T09:49:28Z</time>
</trkpt>
<trkpt lat="45.14527" lon="13.58585">
<ele>50</ele>
<time>2011-05-03T09:49:30Z</time>
</trkpt>
<trkpt lat="45.14522" lon="13.58585">
<ele>50</ele>
<time>2011-05-03T09:49:32Z</time>
</trkpt>
<trkpt lat="45.14516" lon="13.58586">
<ele>50</ele>
<time>2011-05-03T09:49:34Z</time>
</trkpt>
<trkpt lat="45.14511" lon="13.58586">
<ele>50</ele>
<time>2011-05-03T09:49:36Z</time>
</trkpt>
<trkpt lat="45.14506" lon="13.58587">
<ele>50</ele>
<time>2011-05-03T09:49:38Z</time>
</trkpt>
<trkpt lat="45.145" lon="13.58587">
<ele>50</ele>
<time>2011-05-03T09:49:40Z</time>
</trkpt>
<trkpt lat="45.14495" lon="13.58588">
<ele>50</ele>
<time>2011-05-03T09:49:42Z</time>
</trkpt>
<trkpt lat="45.1449" lon="13.58588">
<ele>50</ele>
<time>2011-05-03T09:49:44Z</time>
</trkpt>
<trkpt lat="45.14484" lon="13.58589">
<ele>50</ele>
<time>2011-05-03T09:49:46Z</time>
</trkpt>
<trkpt lat="45.14479" lon="13.5859">
<ele>50</ele>
<time>2011-05-03T09:49:48Z</time>
</trkpt>
<trkpt lat="45.14474" lon="13.5859">
<ele>50</ele>
<time>2011-05-03T09:49:50Z</time>
</trkpt>
<trkpt lat="45.14468" lon="13.5859">
<ele>50</ele>
<time>2011-05-03T09:49:52Z</time>
</trkpt>
<trkpt lat="45.14463" lon="13.5859">
<ele>51</ele>
<time>2011-05-03T09:49:54Z</time>
</trkpt>
<trkpt lat="45.14458" lon="13.5859">
<ele>51</ele>
<time>2011-05-03T09:49:56Z</time>
</trkpt>
<trkpt lat="45.14453" lon="13.58591">
<ele>51</ele>
<time>2011-05-03T09:49:58Z</time>
</trkpt>
<trkpt lat="45.14448" lon="13.58591">
<ele>51</ele>
<time>2011-05-03T09:50:00Z</time>
</trkpt>
<trkpt lat="45.14442" lon="13.58592">
<ele>51</ele>
<time>2011-05-03T09:50:02Z</time>
</trkpt>
<trkpt lat="45.14437" lon="13.58592">
<ele>51</ele>
<time>2011-05-03T09:50:04Z</time>
</trkpt>
<trkpt lat="45.14432" lon="13.58593">
<ele>51</ele>
<time>2011-05-03T09:50:06Z</time>
</trkpt>
<trkpt lat="45.14427" lon="13.58593">
<ele>51</ele>
<time>2011-05-03T09:50:08Z</time>
</trkpt>
<trkpt lat="45.14422" lon="13.58594">
<ele>51</ele>
<time>2011-05-03T09:50:10Z</time>
</trkpt>
<trkpt lat="45.14417" lon="13.58594">
<ele>51</ele>
<time>2011-05-03T09:50:12Z</time>
</trkpt>
<trkpt lat="45.14412" lon="13.58595">
<ele>51</ele>
<time>2011-05-03T09:50:14Z</time>
</trkpt>
<trkpt lat="45.14407" lon="13.58596">
<ele>51</ele>
<time>2011-05-03T09:50:16Z</time>
</trkpt>
<trkpt lat="45.14402" lon="13.58596">
<ele>51</ele>
<time>2011-05-03T09:50:18Z</time>
</trkpt>
<trkpt lat="45.14397" lon="13.58597">
<ele>51</ele>
<time>2011-05-03T09:50:20Z</time>
</trkpt>
<trkpt lat="45.14392" lon="13.58597">
<ele>51</ele>
<time>2011-05-03T09:50:22Z</time>
</trkpt>
<trkpt lat="45.14387" lon="13.58598">
<ele>51</ele>
<time>2011-05-03T09:50:24Z</time>
</trkpt>
<trkpt lat="45.14382" lon="13.58598">
<ele>51</ele>
<time>2011-05-03T09:50:26Z</time>
</trkpt>
<trkpt lat="45.14376" lon="13.58598">
<ele>51</ele>
<time>2011-05-03T09:50:28Z</time>
</trkpt>
<trkpt lat="45.14371" lon="13.58599">
<ele>51</ele>
<time>2011-05-03T09:50:30Z</time>
</trkpt>
<trkpt lat="45.14366" lon="13.58599">
<ele>51</ele>
<time>2011-05-03T09:50:32Z</time>
</trkpt>
<trkpt lat="45.14361" lon="13.58599">
<ele>51</ele>
<time>2011-05-03T09:50:34Z</time>
</trkpt>
<trkpt lat="45.14355" lon="13.586">
<ele>51</ele>
<time>2011-05-03T09:50:36Z</time>
</trkpt>
<trkpt lat="45.1435" lon="13.586">
<ele>51</ele>
<time>2011-05-03T09:50:38Z</time>
</trkpt>
<trkpt lat="45.14345" lon="13.58601">
<ele>51</ele>
<time>2011-05-03T09:50:40Z</time>
</trkpt>
<trkpt lat="45.1434" lon="13.58602">
<ele>51</ele>
<time>2011-05-03T09:50:42Z</time>
</trkpt>
<trkpt lat="45.14334" lon="13.58602">
<ele>51</ele>
<time>2011-05-03T09:50:44Z</time>
</trkpt>
<trkpt lat="45.14329" lon="13.58603">
<ele>51</ele>
<time>2011-05-03T09:50:46Z</time>
</trkpt>
<trkpt lat="45.14324" lon="13.58604">
<ele>51</ele>
<time>2011-05-03T09:50:48Z</time>
</trkpt>
<trkpt lat="45.14319" lon="13.58604">
<ele>51</ele>
<time>2011-05-03T09:50:50Z</time>
</trkpt>
<trkpt lat="45.14314" lon="13.58605">
<ele>51</ele>
<time>2011-05-03T09:50:52Z</time>
</trkpt>
<trkpt lat="45.1431" lon="13.58606">
<ele>51</ele>
<time>2011-05-03T09:50:54Z</time>
</trkpt>
<trkpt lat="45.14305" lon="13.58607">
<ele>51</ele>
<time>2011-05-03T09:50:56Z</time>
</trkpt>
<trkpt lat="45.143" lon="13.58608">
<ele>51</ele>
<time>2011-05-03T09:50:58Z</time>
</trkpt>
<trkpt lat="45.14294" lon="13.5861">
<ele>51</ele>
<time>2011-05-03T09:51:00Z</time>
</trkpt>
<trkpt lat="45.14289" lon="13.58611">
<ele>51</ele>
<time>2011-05-03T09:51:02Z</time>
</trkpt>
<trkpt lat="45.14284" lon="13.58614">
<ele>51</ele>
<time>2011-05-03T09:51:04Z</time>
</trkpt>
<trkpt lat="45.1428" lon="13.58615">
<ele>51</ele>
<time>2011-05-03T09:51:06Z</time>
</trkpt>
<trkpt lat="45.14275" lon="13.58616">
<ele>52</ele>
<time>2011-05-03T09:51:08Z</time>
</trkpt>
<trkpt lat="45.1427" lon="13.58618">
<ele>52</ele>
<time>2011-05-03T09:51:10Z</time>
</trkpt>
<trkpt lat="45.14266" lon="13.58619">
<ele>52</ele>
<time>2011-05-03T09:51:12Z</time>
</trkpt>
<trkpt lat="45.14261" lon="13.5862">
<ele>52</ele>
<time>2011-05-03T09:51:14Z</time>
</trkpt>
<trkpt lat="45.14256" lon="13.58621">
<ele>52</ele>
<time>2011-05-03T09:51:16Z</time>
</trkpt>
<trkpt lat="45.14251" lon="13.58622">
<ele>52</ele>
<time>2011-05-03T09:51:18Z</time>
</trkpt>
<trkpt lat="45.14246" lon="13.58624">
<ele>52</ele>
<time>2011-05-03T09:51:20Z</time>
</trkpt>
<trkpt lat="45.14241" lon="13.58626">
<ele>52</ele>
<time>2011-05-03T09:51:22Z</time>
</trkpt>
<trkpt lat="45.14237" lon="13.58628">
<ele>52</ele>
<time>2011-05-03T09:51:24Z</time>
</trkpt>
<trkpt lat="45.14232" lon="13.5863">
<ele>52</ele>
<time>2011-05-03T09:51:26Z</time>
</trkpt>
<trkpt lat="45.14227" lon="13.58632">
<ele>52</ele>
<time>2011-05-03T09:51:28Z</time>
</trkpt>
<trkpt lat="45.14223" lon="13.58634">
<ele>52</ele>
<time>2011-05-03T09:51:30Z</time>
</trkpt>
<trkpt lat="45.14218" lon="13.58635">
<ele>52</ele>
<time>2011-05-03T09:51:32Z</time>
</trkpt>
<trkpt lat="45.14213" lon="13.58636">
<ele>52</ele>
<time>2011-05-03T09:51:34Z</time>
</trkpt>
<trkpt lat="45.14208" lon="13.58638">
<ele>52</ele>
<time>2011-05-03T09:51:36Z</time>
</trkpt>
<trkpt lat="45.14204" lon="13.58639">
<ele>52</ele>
<time>2011-05-03T09:51:38Z</time>
</trkpt>
<trkpt lat="45.14199" lon="13.5864">
<ele>52</ele>
<time>2011-05-03T09:51:40Z</time>
</trkpt>
<trkpt lat="45.14194" lon="13.5864">
<ele>52</ele>
<time>2011-05-03T09:51:42Z</time>
</trkpt>
<trkpt lat="45.14189" lon="13.58641">
<ele>52</ele>
<time>2011-05-03T09:51:44Z</time>
</trkpt>
<trkpt lat="45.14184" lon="13.58644">
<ele>52</ele>
<time>2011-05-03T09:51:46Z</time>
</trkpt>
<trkpt lat="45.14179" lon="13.58646">
<ele>52</ele>
<time>2011-05-03T09:51:48Z</time>
</trkpt>
<trkpt lat="45.14175" lon="13.5865">
<ele>52</ele>
<time>2011-05-03T09:51:50Z</time>
</trkpt>
<trkpt lat="45.14171" lon="13.58654">
<ele>52</ele>
<time>2011-05-03T09:51:52Z</time>
</trkpt>
<trkpt lat="45.14166" lon="13.58658">
<ele>52</ele>
<time>2011-05-03T09:51:54Z</time>
</trkpt>
<trkpt lat="45.14162" lon="13.58662">
<ele>52</ele>
<time>2011-05-03T09:51:56Z</time>
</trkpt>
<trkpt lat="45.14158" lon="13.58665">
<ele>52</ele>
<time>2011-05-03T09:51:58Z</time>
</trkpt>
<trkpt lat="45.14153" lon="13.58668">
<ele>52</ele>
<time>2011-05-03T09:52:00Z</time>
</trkpt>
<trkpt lat="45.14149" lon="13.58672">
<ele>52</ele>
<time>2011-05-03T09:52:02Z</time>
</trkpt>
<trkpt lat="45.14144" lon="13.58675">
<ele>52</ele>
<time>2011-05-03T09:52:04Z</time>
</trkpt>
<trkpt lat="45.1414" lon="13.58679">
<ele>52</ele>
<time>2011-05-03T09:52:06Z</time>
</trkpt>
<trkpt lat="45.14136" lon="13.58682">
<ele>52</ele>
<time>2011-05-03T09:52:08Z</time>
</trkpt>
<trkpt lat="45.14132" lon="13.58686">
<ele>52</ele>
<time>2011-05-03T09:52:10Z</time>
</trkpt>
<trkpt lat="45.14128" lon="13.5869">
<ele>52</ele>
<time>2011-05-03T09:52:12Z</time>
</trkpt>
<trkpt lat="45.14124" lon="13.58693">
<ele>52</ele>
<time>2011-05-03T09:52:14Z</time>
</trkpt>
<trkpt lat="45.14119" lon="13.58697">
<ele>52</ele>
<time>2011-05-03T09:52:16Z</time>
</trkpt>
<trkpt lat="45.14114" lon="13.587">
<ele>52</ele>
<time>2011-05-03T09:52:18Z</time>
</trkpt>
<trkpt lat="45.1411" lon="13.58704">
<ele>52</ele>
<time>2011-05-03T09:52:20Z</time>
</trkpt>
<trkpt lat="45.14106" lon="13.58707">
<ele>52</ele>
<time>2011-05-03T09:52:22Z</time>
</trkpt>
<trkpt lat="45.14101" lon="13.58711">
<ele>52</ele>
<time>2011-05-03T09:52:24Z</time>
</trkpt>
<trkpt lat="45.14097" lon="13.58714">
<ele>52</ele>
<time>2011-05-03T09:52:26Z</time>
</trkpt>
<trkpt lat="45.14092" lon="13.58718">
<ele>52</ele>
<time>2011-05-03T09:52:28Z</time>
</trkpt>
<trkpt lat="45.14088" lon="13.58721">
<ele>52</ele>
<time>2011-05-03T09:52:30Z</time>
</trkpt>
<trkpt lat="45.14083" lon="13.58724">
<ele>52</ele>
<time>2011-05-03T09:52:32Z</time>
</trkpt>
<trkpt lat="45.14078" lon="13.58727">
<ele>52</ele>
<time>2011-05-03T09:52:34Z</time>
</trkpt>
<trkpt lat="45.14074" lon="13.5873">
<ele>52</ele>
<time>2011-05-03T09:52:36Z</time>
</trkpt>
<trkpt lat="45.14069" lon="13.58734">
<ele>52</ele>
<time>2011-05-03T09:52:38Z</time>
</trkpt>
<trkpt lat="45.14064" lon="13.58737">
<ele>52</ele>
<time>2011-05-03T09:52:40Z</time>
</trkpt>
<trkpt lat="45.1406" lon="13.5874">
<ele>52</ele>
<time>2011-05-03T09:52:42Z</time>
</trkpt>
<trkpt lat="45.14055" lon="13.58743">
<ele>51</ele>
<time>2011-05-03T09:52:44Z</time>
</trkpt>
<trkpt lat="45.14051" lon="13.58747">
<ele>51</ele>
<time>2011-05-03T09:52:46Z</time>
</trkpt>
<trkpt lat="45.14046" lon="13.5875">
<ele>51</ele>
<time>2011-05-03T09:52:48Z</time>
</trkpt>
<trkpt lat="45.14042" lon="13.58753">
<ele>51</ele>
<time>2011-05-03T09:52:50Z</time>
</trkpt>
<trkpt lat="45.14037" lon="13.58756">
<ele>51</ele>
<time>2011-05-03T09:52:52Z</time>
</trkpt>
<trkpt lat="45.14032" lon="13.58759">
<ele>51</ele>
<time>2011-05-03T09:52:54Z</time>
</trkpt>
<trkpt lat="45.14028" lon="13.58763">
<ele>51</ele>
<time>2011-05-03T09:52:56Z</time>
</trkpt>
<trkpt lat="45.14023" lon="13.58766">
<ele>51</ele>
<time>2011-05-03T09:52:58Z</time>
</trkpt>
<trkpt lat="45.14018" lon="13.58769">
<ele>51</ele>
<time>2011-05-03T09:53:00Z</time>
</trkpt>
<trkpt lat="45.14014" lon="13.58772">
<ele>51</ele>
<time>2011-05-03T09:53:02Z</time>
</trkpt>
<trkpt lat="45.14009" lon="13.58775">
<ele>50</ele>
<time>2011-05-03T09:53:04Z</time>
</trkpt>
<trkpt lat="45.14004" lon="13.58778">
<ele>50</ele>
<time>2011-05-03T09:53:06Z</time>
</trkpt>
<trkpt lat="45.14" lon="13.58781">
<ele>50</ele>
<time>2011-05-03T09:53:08Z</time>
</trkpt>
<trkpt lat="45.13995" lon="13.58784">
<ele>50</ele>
<time>2011-05-03T09:53:10Z</time>
</trkpt>
<trkpt lat="45.1399" lon="13.58787">
<ele>50</ele>
<time>2011-05-03T09:53:12Z</time>
</trkpt>
<trkpt lat="45.13985" lon="13.5879">
<ele>50</ele>
<time>2011-05-03T09:53:14Z</time>
</trkpt>
<trkpt lat="45.1398" lon="13.58794">
<ele>50</ele>
<time>2011-05-03T09:53:16Z</time>
</trkpt>
<trkpt lat="45.13976" lon="13.58797">
<ele>50</ele>
<time>2011-05-03T09:53:18Z</time>
</trkpt>
<trkpt lat="45.13971" lon="13.588">
<ele>50</ele>
<time>2011-05-03T09:53:20Z</time>
</trkpt>
<trkpt lat="45.13966" lon="13.58804">
<ele>50</ele>
<time>2011-05-03T09:53:22Z</time>
</trkpt>
<trkpt lat="45.13961" lon="13.58807">
<ele>50</ele>
<time>2011-05-03T09:53:24Z</time>
</trkpt>
<trkpt lat="45.13957" lon="13.5881">
<ele>50</ele>
<time>2011-05-03T09:53:26Z</time>
</trkpt>
<trkpt lat="45.13952" lon="13.58813">
<ele>50</ele>
<time>2011-05-03T09:53:28Z</time>
</trkpt>
<trkpt lat="45.13947" lon="13.58816">
<ele>50</ele>
<time>2011-05-03T09:53:30Z</time>
</trkpt>
<trkpt lat="45.13942" lon="13.58819">
<ele>50</ele>
<time>2011-05-03T09:53:32Z</time>
</trkpt>
<trkpt lat="45.13938" lon="13.58822">
<ele>50</ele>
<time>2011-05-03T09:53:34Z</time>
</trkpt>
<trkpt lat="45.13933" lon="13.58825">
<ele>50</ele>
<time>2011-05-03T09:53:36Z</time>
</trkpt>
<trkpt lat="45.13928" lon="13.58828">
<ele>50</ele>
<time>2011-05-03T09:53:38Z</time>
</trkpt>
<trkpt lat="45.13924" lon="13.58831">
<ele>50</ele>
<time>2011-05-03T09:53:40Z</time>
</trkpt>
<trkpt lat="45.13919" lon="13.58834">
<ele>50</ele>
<time>2011-05-03T09:53:42Z</time>
</trkpt>
<trkpt lat="45.13915" lon="13.58837">
<ele>50</ele>
<time>2011-05-03T09:53:44Z</time>
</trkpt>
<trkpt lat="45.1391" lon="13.58839">
<ele>50</ele>
<time>2011-05-03T09:53:46Z</time>
</trkpt>
<trkpt lat="45.13905" lon="13.58842">
<ele>50</ele>
<time>2011-05-03T09:53:48Z</time>
</trkpt>
<trkpt lat="45.13901" lon="13.58845">
<ele>50</ele>
<time>2011-05-03T09:53:50Z</time>
</trkpt>
<trkpt lat="45.13896" lon="13.58848">
<ele>50</ele>
<time>2011-05-03T09:53:52Z</time>
</trkpt>
<trkpt lat="45.13891" lon="13.58851">
<ele>50</ele>
<time>2011-05-03T09:53:54Z</time>
</trkpt>
<trkpt lat="45.13887" lon="13.58854">
<ele>50</ele>
<time>2011-05-03T09:53:56Z</time>
</trkpt>
<trkpt lat="45.13882" lon="13.58857">
<ele>50</ele>
<time>2011-05-03T09:53:58Z</time>
</trkpt>
<trkpt lat="45.13878" lon="13.5886">
<ele>50</ele>
<time>2011-05-03T09:54:00Z</time>
</trkpt>
<trkpt lat="45.13873" lon="13.58863">
<ele>50</ele>
<time>2011-05-03T09:54:02Z</time>
</trkpt>
<trkpt lat="45.13868" lon="13.58865">
<ele>50</ele>
<time>2011-05-03T09:54:04Z</time>
</trkpt>
<trkpt lat="45.13863" lon="13.58868">
<ele>50</ele>
<time>2011-05-03T09:54:06Z</time>
</trkpt>
<trkpt lat="45.13858" lon="13.5887">
<ele>50</ele>
<time>2011-05-03T09:54:08Z</time>
</trkpt>
<trkpt lat="45.13854" lon="13.58873">
<ele>50</ele>
<time>2011-05-03T09:54:10Z</time>
</trkpt>
<trkpt lat="45.13849" lon="13.58876">
<ele>50</ele>
<time>2011-05-03T09:54:12Z</time>
</trkpt>
<trkpt lat="45.13844" lon="13.58878">
<ele>50</ele>
<time>2011-05-03T09:54:14Z</time>
</trkpt>
<trkpt lat="45.13839" lon="13.58881">
<ele>50</ele>
<time>2011-05-03T09:54:16Z</time>
</trkpt>
<trkpt lat="45.13834" lon="13.58883">
<ele>50</ele>
<time>2011-05-03T09:54:18Z</time>
</trkpt>
<trkpt lat="45.1383" lon="13.58886">
<ele>50</ele>
<time>2011-05-03T09:54:20Z</time>
</trkpt>
<trkpt lat="45.13825" lon="13.58888">
<ele>50</ele>
<time>2011-05-03T09:54:22Z</time>
</trkpt>
<trkpt lat="45.1382" lon="13.58891">
<ele>50</ele>
<time>2011-05-03T09:54:24Z</time>
</trkpt>
<trkpt lat="45.13816" lon="13.58894">
<ele>50</ele>
<time>2011-05-03T09:54:26Z</time>
</trkpt>
<trkpt lat="45.13811" lon="13.58898">
<ele>50</ele>
<time>2011-05-03T09:54:28Z</time>
</trkpt>
<trkpt lat="45.13807" lon="13.589">
<ele>50</ele>
<time>2011-05-03T09:54:30Z</time>
</trkpt>
<trkpt lat="45.13802" lon="13.58903">
<ele>50</ele>
<time>2011-05-03T09:54:32Z</time>
</trkpt>
<trkpt lat="45.13797" lon="13.58905">
<ele>50</ele>
<time>2011-05-03T09:54:34Z</time>
</trkpt>
<trkpt lat="45.13792" lon="13.58908">
<ele>50</ele>
<time>2011-05-03T09:54:36Z</time>
</trkpt>
<trkpt lat="45.13788" lon="13.5891">
<ele>50</ele>
<time>2011-05-03T09:54:38Z</time>
</trkpt>
<trkpt lat="45.13783" lon="13.58913">
<ele>50</ele>
<time>2011-05-03T09:54:40Z</time>
</trkpt>
<trkpt lat="45.13778" lon="13.58915">
<ele>50</ele>
<time>2011-05-03T09:54:42Z</time>
</trkpt>
<trkpt lat="45.13774" lon="13.58918">
<ele>50</ele>
<time>2011-05-03T09:54:44Z</time>
</trkpt>
<trkpt lat="45.13769" lon="13.5892">
<ele>50</ele>
<time>2011-05-03T09:54:46Z</time>
</trkpt>
<trkpt lat="45.13764" lon="13.58923">
<ele>50</ele>
<time>2011-05-03T09:54:48Z</time>
</trkpt>
<trkpt lat="45.13759" lon="13.58925">
<ele>50</ele>
<time>2011-05-03T09:54:50Z</time>
</trkpt>
<trkpt lat="45.13754" lon="13.58928">
<ele>50</ele>
<time>2011-05-03T09:54:52Z</time>
</trkpt>
<trkpt lat="45.1375" lon="13.5893">
<ele>50</ele>
<time>2011-05-03T09:54:54Z</time>
</trkpt>
<trkpt lat="45.13745" lon="13.58933">
<ele>50</ele>
<time>2011-05-03T09:54:56Z</time>
</trkpt>
<trkpt lat="45.1374" lon="13.58936">
<ele>50</ele>
<time>2011-05-03T09:54:58Z</time>
</trkpt>
<trkpt lat="45.13736" lon="13.58939">
<ele>50</ele>
<time>2011-05-03T09:55:00Z</time>
</trkpt>
<trkpt lat="45.13731" lon="13.58942">
<ele>50</ele>
<time>2011-05-03T09:55:02Z</time>
</trkpt>
<trkpt lat="45.13726" lon="13.58944">
<ele>50</ele>
<time>2011-05-03T09:55:04Z</time>
</trkpt>
<trkpt lat="45.13722" lon="13.58947">
<ele>50</ele>
<time>2011-05-03T09:55:06Z</time>
</trkpt>
<trkpt lat="45.13717" lon="13.5895">
<ele>50</ele>
<time>2011-05-03T09:55:08Z</time>
</trkpt>
<trkpt lat="45.13712" lon="13.58952">
<ele>50</ele>
<time>2011-05-03T09:55:10Z</time>
</trkpt>
<trkpt lat="45.13707" lon="13.58955">
<ele>50</ele>
<time>2011-05-03T09:55:12Z</time>
</trkpt>
<trkpt lat="45.13702" lon="13.58957">
<ele>50</ele>
<time>2011-05-03T09:55:14Z</time>
</trkpt>
<trkpt lat="45.13698" lon="13.5896">
<ele>50</ele>
<time>2011-05-03T09:55:16Z</time>
</trkpt>
<trkpt lat="45.13693" lon="13.58963">
<ele>50</ele>
<time>2011-05-03T09:55:18Z</time>
</trkpt>
<trkpt lat="45.13688" lon="13.58966">
<ele>50</ele>
<time>2011-05-03T09:55:20Z</time>
</trkpt>
<trkpt lat="45.13683" lon="13.58968">
<ele>50</ele>
<time>2011-05-03T09:55:22Z</time>
</trkpt>
<trkpt lat="45.13679" lon="13.5897">
<ele>50</ele>
<time>2011-05-03T09:55:24Z</time>
</trkpt>
<trkpt lat="45.13674" lon="13.58973">
<ele>50</ele>
<time>2011-05-03T09:55:26Z</time>
</trkpt>
<trkpt lat="45.13669" lon="13.58976">
<ele>50</ele>
<time>2011-05-03T09:55:28Z</time>
</trkpt>
<trkpt lat="45.13665" lon="13.58979">
<ele>50</ele>
<time>2011-05-03T09:55:30Z</time>
</trkpt>
<trkpt lat="45.1366" lon="13.58982">
<ele>50</ele>
<time>2011-05-03T09:55:32Z</time>
</trkpt>
<trkpt lat="45.13656" lon="13.58984">
<ele>50</ele>
<time>2011-05-03T09:55:34Z</time>
</trkpt>
<trkpt lat="45.13651" lon="13.58987">
<ele>50</ele>
<time>2011-05-03T09:55:36Z</time>
</trkpt>
<trkpt lat="45.13647" lon="13.58989">
<ele>50</ele>
<time>2011-05-03T09:55:38Z</time>
</trkpt>
<trkpt lat="45.13642" lon="13.58992">
<ele>50</ele>
<time>2011-05-03T09:55:40Z</time>
</trkpt>
<trkpt lat="45.13637" lon="13.58994">
<ele>50</ele>
<time>2011-05-03T09:55:42Z</time>
</trkpt>
<trkpt lat="45.13632" lon="13.58996">
<ele>50</ele>
<time>2011-05-03T09:55:44Z</time>
</trkpt>
<trkpt lat="45.13627" lon="13.58998">
<ele>50</ele>
<time>2011-05-03T09:55:46Z</time>
</trkpt>
<trkpt lat="45.13622" lon="13.59001">
<ele>50</ele>
<time>2011-05-03T09:55:48Z</time>
</trkpt>
<trkpt lat="45.13617" lon="13.59003">
<ele>50</ele>
<time>2011-05-03T09:55:50Z</time>
</trkpt>
<trkpt lat="45.13612" lon="13.59005">
<ele>50</ele>
<time>2011-05-03T09:55:52Z</time>
</trkpt>
<trkpt lat="45.13607" lon="13.59007">
<ele>50</ele>
<time>2011-05-03T09:55:54Z</time>
</trkpt>
<trkpt lat="45.13602" lon="13.5901">
<ele>50</ele>
<time>2011-05-03T09:55:56Z</time>
</trkpt>
<trkpt lat="45.13597" lon="13.59012">
<ele>50</ele>
<time>2011-05-03T09:55:58Z</time>
</trkpt>
<trkpt lat="45.13592" lon="13.59014">
<ele>50</ele>
<time>2011-05-03T09:56:00Z</time>
</trkpt>
<trkpt lat="45.13588" lon="13.59016">
<ele>50</ele>
<time>2011-05-03T09:56:02Z</time>
</trkpt>
<trkpt lat="45.13583" lon="13.59019">
<ele>50</ele>
<time>2011-05-03T09:56:04Z</time>
</trkpt>
<trkpt lat="45.13578" lon="13.59021">
<ele>50</ele>
<time>2011-05-03T09:56:06Z</time>
</trkpt>
<trkpt lat="45.13573" lon="13.59024">
<ele>50</ele>
<time>2011-05-03T09:56:08Z</time>
</trkpt>
<trkpt lat="45.13568" lon="13.59026">
<ele>50</ele>
<time>2011-05-03T09:56:10Z</time>
</trkpt>
<trkpt lat="45.13564" lon="13.5903">
<ele>50</ele>
<time>2011-05-03T09:56:12Z</time>
</trkpt>
<trkpt lat="45.13559" lon="13.59033">
<ele>50</ele>
<time>2011-05-03T09:56:14Z</time>
</trkpt>
<trkpt lat="45.13555" lon="13.59037">
<ele>50</ele>
<time>2011-05-03T09:56:16Z</time>
</trkpt>
<trkpt lat="45.1355" lon="13.5904">
<ele>50</ele>
<time>2011-05-03T09:56:18Z</time>
</trkpt>
<trkpt lat="45.13546" lon="13.59044">
<ele>50</ele>
<time>2011-05-03T09:56:20Z</time>
</trkpt>
<trkpt lat="45.13541" lon="13.59047">
<ele>50</ele>
<time>2011-05-03T09:56:22Z</time>
</trkpt>
<trkpt lat="45.13537" lon="13.5905">
<ele>50</ele>
<time>2011-05-03T09:56:24Z</time>
</trkpt>
<trkpt lat="45.13532" lon="13.59054">
<ele>50</ele>
<time>2011-05-03T09:56:26Z</time>
</trkpt>
<trkpt lat="45.13527" lon="13.59057">
<ele>50</ele>
<time>2011-05-03T09:56:28Z</time>
</trkpt>
<trkpt lat="45.13522" lon="13.5906">
<ele>50</ele>
<time>2011-05-03T09:56:30Z</time>
</trkpt>
<trkpt lat="45.13518" lon="13.59064">
<ele>50</ele>
<time>2011-05-03T09:56:32Z</time>
</trkpt>
<trkpt lat="45.13513" lon="13.59067">
<ele>50</ele>
<time>2011-05-03T09:56:34Z</time>
</trkpt>
<trkpt lat="45.13508" lon="13.59071">
<ele>50</ele>
<time>2011-05-03T09:56:36Z</time>
</trkpt>
<trkpt lat="45.13503" lon="13.59074">
<ele>50</ele>
<time>2011-05-03T09:56:38Z</time>
</trkpt>
<trkpt lat="45.13498" lon="13.59077">
<ele>50</ele>
<time>2011-05-03T09:56:40Z</time>
</trkpt>
<trkpt lat="45.13493" lon="13.5908">
<ele>50</ele>
<time>2011-05-03T09:56:42Z</time>
</trkpt>
<trkpt lat="45.13488" lon="13.59083">
<ele>50</ele>
<time>2011-05-03T09:56:44Z</time>
</trkpt>
<trkpt lat="45.13483" lon="13.59086">
<ele>50</ele>
<time>2011-05-03T09:56:46Z</time>
</trkpt>
<trkpt lat="45.13478" lon="13.59088">
<ele>50</ele>
<time>2011-05-03T09:56:48Z</time>
</trkpt>
<trkpt lat="45.13473" lon="13.59091">
<ele>50</ele>
<time>2011-05-03T09:56:50Z</time>
</trkpt>
<trkpt lat="45.13468" lon="13.59094">
<ele>50</ele>
<time>2011-05-03T09:56:52Z</time>
</trkpt>
<trkpt lat="45.13464" lon="13.59096">
<ele>50</ele>
<time>2011-05-03T09:56:54Z</time>
</trkpt>
<trkpt lat="45.13459" lon="13.59098">
<ele>50</ele>
<time>2011-05-03T09:56:56Z</time>
</trkpt>
<trkpt lat="45.13454" lon="13.59101">
<ele>50</ele>
<time>2011-05-03T09:56:58Z</time>
</trkpt>
<trkpt lat="45.13449" lon="13.59103">
<ele>50</ele>
<time>2011-05-03T09:57:00Z</time>
</trkpt>
<trkpt lat="45.13444" lon="13.59106">
<ele>50</ele>
<time>2011-05-03T09:57:02Z</time>
</trkpt>
<trkpt lat="45.13439" lon="13.59108">
<ele>50</ele>
<time>2011-05-03T09:57:04Z</time>
</trkpt>
<trkpt lat="45.13434" lon="13.5911">
<ele>50</ele>
<time>2011-05-03T09:57:06Z</time>
</trkpt>
<trkpt lat="45.13429" lon="13.59111">
<ele>50</ele>
<time>2011-05-03T09:57:08Z</time>
</trkpt>
<trkpt lat="45.13424" lon="13.59113">
<ele>50</ele>
<time>2011-05-03T09:57:10Z</time>
</trkpt>
<trkpt lat="45.13419" lon="13.59115">
<ele>50</ele>
<time>2011-05-03T09:57:12Z</time>
</trkpt>
<trkpt lat="45.13414" lon="13.59118">
<ele>50</ele>
<time>2011-05-03T09:57:14Z</time>
</trkpt>
<trkpt lat="45.13409" lon="13.5912">
<ele>50</ele>
<time>2011-05-03T09:57:16Z</time>
</trkpt>
<trkpt lat="45.13404" lon="13.59122">
<ele>50</ele>
<time>2011-05-03T09:57:18Z</time>
</trkpt>
<trkpt lat="45.134" lon="13.59124">
<ele>50</ele>
<time>2011-05-03T09:57:20Z</time>
</trkpt>
<trkpt lat="45.13395" lon="13.59127">
<ele>50</ele>
<time>2011-05-03T09:57:22Z</time>
</trkpt>
<trkpt lat="45.1339" lon="13.59129">
<ele>50</ele>
<time>2011-05-03T09:57:24Z</time>
</trkpt>
<trkpt lat="45.13385" lon="13.59131">
<ele>50</ele>
<time>2011-05-03T09:57:26Z</time>
</trkpt>
<trkpt lat="45.1338" lon="13.59134">
<ele>50</ele>
<time>2011-05-03T09:57:28Z</time>
</trkpt>
<trkpt lat="45.13375" lon="13.59136">
<ele>50</ele>
<time>2011-05-03T09:57:30Z</time>
</trkpt>
<trkpt lat="45.1337" lon="13.59138">
<ele>50</ele>
<time>2011-05-03T09:57:32Z</time>
</trkpt>
<trkpt lat="45.13365" lon="13.5914">
<ele>50</ele>
<time>2011-05-03T09:57:34Z</time>
</trkpt>
<trkpt lat="45.1336" lon="13.59142">
<ele>50</ele>
<time>2011-05-03T09:57:36Z</time>
</trkpt>
<trkpt lat="45.13355" lon="13.59144">
<ele>50</ele>
<time>2011-05-03T09:57:38Z</time>
</trkpt>
<trkpt lat="45.1335" lon="13.59146">
<ele>50</ele>
<time>2011-05-03T09:57:40Z</time>
</trkpt>
<trkpt lat="45.13345" lon="13.59147">
<ele>50</ele>
<time>2011-05-03T09:57:42Z</time>
</trkpt>
<trkpt lat="45.1334" lon="13.59149">
<ele>50</ele>
<time>2011-05-03T09:57:44Z</time>
</trkpt>
<trkpt lat="45.13335" lon="13.59151">
<ele>50</ele>
<time>2011-05-03T09:57:46Z</time>
</trkpt>
<trkpt lat="45.1333" lon="13.59153">
<ele>50</ele>
<time>2011-05-03T09:57:48Z</time>
</trkpt>
<trkpt lat="45.13325" lon="13.59155">
<ele>50</ele>
<time>2011-05-03T09:57:50Z</time>
</trkpt>
<trkpt lat="45.1332" lon="13.59157">
<ele>50</ele>
<time>2011-05-03T09:57:52Z</time>
</trkpt>
<trkpt lat="45.13315" lon="13.59159">
<ele>50</ele>
<time>2011-05-03T09:57:54Z</time>
</trkpt>
<trkpt lat="45.1331" lon="13.59161">
<ele>50</ele>
<time>2011-05-03T09:57:56Z</time>
</trkpt>
<trkpt lat="45.13305" lon="13.59164">
<ele>50</ele>
<time>2011-05-03T09:57:58Z</time>
</trkpt>
<trkpt lat="45.133" lon="13.59166">
<ele>50</ele>
<time>2011-05-03T09:58:00Z</time>
</trkpt>
<trkpt lat="45.13295" lon="13.59168">
<ele>50</ele>
<time>2011-05-03T09:58:02Z</time>
</trkpt>
<trkpt lat="45.1329" lon="13.5917">
<ele>50</ele>
<time>2011-05-03T09:58:04Z</time>
</trkpt>
<trkpt lat="45.13285" lon="13.59172">
<ele>50</ele>
<time>2011-05-03T09:58:06Z</time>
</trkpt>
<trkpt lat="45.1328" lon="13.59174">
<ele>50</ele>
<time>2011-05-03T09:58:08Z</time>
</trkpt>
<trkpt lat="45.13275" lon="13.59176">
<ele>50</ele>
<time>2011-05-03T09:58:10Z</time>
</trkpt>
<trkpt lat="45.1327" lon="13.59179">
<ele>51</ele>
<time>2011-05-03T09:58:12Z</time>
</trkpt>
<trkpt lat="45.13265" lon="13.59181">
<ele>51</ele>
<time>2011-05-03T09:58:14Z</time>
</trkpt>
<trkpt lat="45.1326" lon="13.59182">
<ele>51</ele>
<time>2011-05-03T09:58:16Z</time>
</trkpt>
<trkpt lat="45.13256" lon="13.59184">
<ele>51</ele>
<time>2011-05-03T09:58:18Z</time>
</trkpt>
<trkpt lat="45.13251" lon="13.59186">
<ele>51</ele>
<time>2011-05-03T09:58:20Z</time>
</trkpt>
<trkpt lat="45.13246" lon="13.59188">
<ele>51</ele>
<time>2011-05-03T09:58:22Z</time>
</trkpt>
<trkpt lat="45.13241" lon="13.5919">
<ele>51</ele>
<time>2011-05-03T09:58:24Z</time>
</trkpt>
<trkpt lat="45.13236" lon="13.59192">
<ele>51</ele>
<time>2011-05-03T09:58:26Z</time>
</trkpt>
<trkpt lat="45.13231" lon="13.59194">
<ele>51</ele>
<time>2011-05-03T09:58:28Z</time>
</trkpt>
<trkpt lat="45.13227" lon="13.59196">
<ele>51</ele>
<time>2011-05-03T09:58:30Z</time>
</trkpt>
<trkpt lat="45.13222" lon="13.59198">
<ele>51</ele>
<time>2011-05-03T09:58:32Z</time>
</trkpt>
<trkpt lat="45.13218" lon="13.59199">
<ele>51</ele>
<time>2011-05-03T09:58:34Z</time>
</trkpt>
<trkpt lat="45.13213" lon="13.59201">
<ele>51</ele>
<time>2011-05-03T09:58:36Z</time>
</trkpt>
<trkpt lat="45.13208" lon="13.59203">
<ele>51</ele>
<time>2011-05-03T09:58:38Z</time>
</trkpt>
<trkpt lat="45.13203" lon="13.59204">
<ele>51</ele>
<time>2011-05-03T09:58:40Z</time>
</trkpt>
<trkpt lat="45.13199" lon="13.59206">
<ele>51</ele>
<time>2011-05-03T09:58:42Z</time>
</trkpt>
<trkpt lat="45.13194" lon="13.59206">
<ele>51</ele>
<time>2011-05-03T09:58:44Z</time>
</trkpt>
<trkpt lat="45.13188" lon="13.59207">
<ele>51</ele>
<time>2011-05-03T09:58:47Z</time>
</trkpt>
<trkpt lat="45.13182" lon="13.59208">
<ele>51</ele>
<time>2011-05-03T09:58:50Z</time>
</trkpt>
<trkpt lat="45.13176" lon="13.59208">
<ele>51</ele>
<time>2011-05-03T09:58:53Z</time>
</trkpt>
<trkpt lat="45.1317" lon="13.59209">
<ele>52</ele>
<time>2011-05-03T09:58:56Z</time>
</trkpt>
<trkpt lat="45.13165" lon="13.59212">
<ele>52</ele>
<time>2011-05-03T09:58:59Z</time>
</trkpt>
<trkpt lat="45.1316" lon="13.59217">
<ele>52</ele>
<time>2011-05-03T09:59:02Z</time>
</trkpt>
<trkpt lat="45.13156" lon="13.5922">
<ele>52</ele>
<time>2011-05-03T09:59:04Z</time>
</trkpt>
<trkpt lat="45.13152" lon="13.59224">
<ele>52</ele>
<time>2011-05-03T09:59:06Z</time>
</trkpt>
<trkpt lat="45.13148" lon="13.59228">
<ele>51</ele>
<time>2011-05-03T09:59:08Z</time>
</trkpt>
<trkpt lat="45.13143" lon="13.59233">
<ele>51</ele>
<time>2011-05-03T09:59:11Z</time>
</trkpt>
<trkpt lat="45.13139" lon="13.59238">
<ele>51</ele>
<time>2011-05-03T09:59:14Z</time>
</trkpt>
<trkpt lat="45.13135" lon="13.59242">
<ele>51</ele>
<time>2011-05-03T09:59:17Z</time>
</trkpt>
<trkpt lat="45.1313" lon="13.59246">
<ele>51</ele>
<time>2011-05-03T09:59:21Z</time>
</trkpt>
<trkpt lat="45.13125" lon="13.5925">
<ele>51</ele>
<time>2011-05-03T09:59:25Z</time>
</trkpt>
<trkpt lat="45.13121" lon="13.59253">
<ele>51</ele>
<time>2011-05-03T09:59:29Z</time>
</trkpt>
<trkpt lat="45.13117" lon="13.59258">
<ele>51</ele>
<time>2011-05-03T09:59:34Z</time>
</trkpt>
<trkpt lat="45.13113" lon="13.59262">
<ele>51</ele>
<time>2011-05-03T09:59:39Z</time>
</trkpt>
<trkpt lat="45.13109" lon="13.59266">
<ele>50</ele>
<time>2011-05-03T09:59:46Z</time>
</trkpt>
<trkpt lat="45.13105" lon="13.5927">
<ele>50</ele>
<time>2011-05-03T09:59:54Z</time>
</trkpt>
<trkpt lat="45.13101" lon="13.59274">
<ele>50</ele>
<time>2011-05-03T10:00:03Z</time>
</trkpt>
<trkpt lat="45.13096" lon="13.5928">
<ele>49</ele>
<time>2011-05-03T10:00:08Z</time>
</trkpt>
<trkpt lat="45.13091" lon="13.59284">
<ele>49</ele>
<time>2011-05-03T10:00:12Z</time>
</trkpt>
<trkpt lat="45.13086" lon="13.59287">
<ele>49</ele>
<time>2011-05-03T10:00:15Z</time>
</trkpt>
<trkpt lat="45.13081" lon="13.59291">
<ele>49</ele>
<time>2011-05-03T10:00:18Z</time>
</trkpt>
<trkpt lat="45.13076" lon="13.59294">
<ele>49</ele>
<time>2011-05-03T10:00:21Z</time>
</trkpt>
<trkpt lat="45.1307" lon="13.59298">
<ele>49</ele>
<time>2011-05-03T10:00:24Z</time>
</trkpt>
<trkpt lat="45.13064" lon="13.59301">
<ele>48</ele>
<time>2011-05-03T10:00:27Z</time>
</trkpt>
<trkpt lat="45.13058" lon="13.59304">
<ele>48</ele>
<time>2011-05-03T10:00:30Z</time>
</trkpt>
<trkpt lat="45.13052" lon="13.59307">
<ele>48</ele>
<time>2011-05-03T10:00:33Z</time>
</trkpt>
<trkpt lat="45.13047" lon="13.59309">
<ele>48</ele>
<time>2011-05-03T10:00:35Z</time>
</trkpt>
<trkpt lat="45.13042" lon="13.59311">
<ele>48</ele>
<time>2011-05-03T10:00:37Z</time>
</trkpt>
<trkpt lat="45.13038" lon="13.59313">
<ele>48</ele>
<time>2011-05-03T10:00:39Z</time>
</trkpt>
<trkpt lat="45.13033" lon="13.59316">
<ele>48</ele>
<time>2011-05-03T10:00:41Z</time>
</trkpt>
<trkpt lat="45.13029" lon="13.59318">
<ele>48</ele>
<time>2011-05-03T10:00:43Z</time>
</trkpt>
<trkpt lat="45.13024" lon="13.5932">
<ele>48</ele>
<time>2011-05-03T10:00:45Z</time>
</trkpt>
<trkpt lat="45.1302" lon="13.59322">
<ele>48</ele>
<time>2011-05-03T10:00:47Z</time>
</trkpt>
<trkpt lat="45.13015" lon="13.59324">
<ele>48</ele>
<time>2011-05-03T10:00:49Z</time>
</trkpt>
<trkpt lat="45.13011" lon="13.59326">
<ele>48</ele>
<time>2011-05-03T10:00:51Z</time>
</trkpt>
<trkpt lat="45.13006" lon="13.59329">
<ele>48</ele>
<time>2011-05-03T10:00:53Z</time>
</trkpt>
<trkpt lat="45.13001" lon="13.59331">
<ele>48</ele>
<time>2011-05-03T10:00:55Z</time>
</trkpt>
<trkpt lat="45.12997" lon="13.59333">
<ele>48</ele>
<time>2011-05-03T10:00:57Z</time>
</trkpt>
<trkpt lat="45.12992" lon="13.59335">
<ele>48</ele>
<time>2011-05-03T10:00:59Z</time>
</trkpt>
<trkpt lat="45.12987" lon="13.59337">
<ele>48</ele>
<time>2011-05-03T10:01:01Z</time>
</trkpt>
<trkpt lat="45.12982" lon="13.59339">
<ele>48</ele>
<time>2011-05-03T10:01:03Z</time>
</trkpt>
<trkpt lat="45.12978" lon="13.59341">
<ele>48</ele>
<time>2011-05-03T10:01:05Z</time>
</trkpt>
<trkpt lat="45.12973" lon="13.59343">
<ele>48</ele>
<time>2011-05-03T10:01:07Z</time>
</trkpt>
<trkpt lat="45.12968" lon="13.59345">
<ele>48</ele>
<time>2011-05-03T10:01:09Z</time>
</trkpt>
<trkpt lat="45.12964" lon="13.59347">
<ele>48</ele>
<time>2011-05-03T10:01:11Z</time>
</trkpt>
<trkpt lat="45.12959" lon="13.5935">
<ele>48</ele>
<time>2011-05-03T10:01:13Z</time>
</trkpt>
<trkpt lat="45.12954" lon="13.59352">
<ele>48</ele>
<time>2011-05-03T10:01:15Z</time>
</trkpt>
<trkpt lat="45.12949" lon="13.59355">
<ele>48</ele>
<time>2011-05-03T10:01:17Z</time>
</trkpt>
<trkpt lat="45.12944" lon="13.59357">
<ele>48</ele>
<time>2011-05-03T10:01:19Z</time>
</trkpt>
<trkpt lat="45.1294" lon="13.5936">
<ele>48</ele>
<time>2011-05-03T10:01:21Z</time>
</trkpt>
<trkpt lat="45.12935" lon="13.59362">
<ele>48</ele>
<time>2011-05-03T10:01:23Z</time>
</trkpt>
<trkpt lat="45.1293" lon="13.59364">
<ele>48</ele>
<time>2011-05-03T10:01:25Z</time>
</trkpt>
<trkpt lat="45.12926" lon="13.59367">
<ele>48</ele>
<time>2011-05-03T10:01:27Z</time>
</trkpt>
<trkpt lat="45.12921" lon="13.5937">
<ele>48</ele>
<time>2011-05-03T10:01:29Z</time>
</trkpt>
<trkpt lat="45.12916" lon="13.59373">
<ele>48</ele>
<time>2011-05-03T10:01:31Z</time>
</trkpt>
<trkpt lat="45.12911" lon="13.59375">
<ele>48</ele>
<time>2011-05-03T10:01:33Z</time>
</trkpt>
<trkpt lat="45.12907" lon="13.59377">
<ele>48</ele>
<time>2011-05-03T10:01:35Z</time>
</trkpt>
<trkpt lat="45.12902" lon="13.5938">
<ele>48</ele>
<time>2011-05-03T10:01:37Z</time>
</trkpt>
<trkpt lat="45.12898" lon="13.59383">
<ele>48</ele>
<time>2011-05-03T10:01:39Z</time>
</trkpt>
<trkpt lat="45.12893" lon="13.59385">
<ele>48</ele>
<time>2011-05-03T10:01:41Z</time>
</trkpt>
<trkpt lat="45.12889" lon="13.59388">
<ele>48</ele>
<time>2011-05-03T10:01:43Z</time>
</trkpt>
<trkpt lat="45.12884" lon="13.59391">
<ele>48</ele>
<time>2011-05-03T10:01:45Z</time>
</trkpt>
<trkpt lat="45.12879" lon="13.59394">
<ele>48</ele>
<time>2011-05-03T10:01:47Z</time>
</trkpt>
<trkpt lat="45.12875" lon="13.59396">
<ele>48</ele>
<time>2011-05-03T10:01:49Z</time>
</trkpt>
<trkpt lat="45.1287" lon="13.59399">
<ele>48</ele>
<time>2011-05-03T10:01:51Z</time>
</trkpt>
<trkpt lat="45.12866" lon="13.59402">
<ele>48</ele>
<time>2011-05-03T10:01:53Z</time>
</trkpt>
<trkpt lat="45.12861" lon="13.59405">
<ele>48</ele>
<time>2011-05-03T10:01:55Z</time>
</trkpt>
<trkpt lat="45.12857" lon="13.59407">
<ele>48</ele>
<time>2011-05-03T10:01:57Z</time>
</trkpt>
<trkpt lat="45.12852" lon="13.59409">
<ele>49</ele>
<time>2011-05-03T10:01:59Z</time>
</trkpt>
<trkpt lat="45.12848" lon="13.59411">
<ele>49</ele>
<time>2011-05-03T10:02:01Z</time>
</trkpt>
<trkpt lat="45.12843" lon="13.59413">
<ele>49</ele>
<time>2011-05-03T10:02:03Z</time>
</trkpt>
<trkpt lat="45.12838" lon="13.59415">
<ele>49</ele>
<time>2011-05-03T10:02:05Z</time>
</trkpt>
<trkpt lat="45.12834" lon="13.59417">
<ele>49</ele>
<time>2011-05-03T10:02:07Z</time>
</trkpt>
<trkpt lat="45.12829" lon="13.59419">
<ele>49</ele>
<time>2011-05-03T10:02:09Z</time>
</trkpt>
<trkpt lat="45.12824" lon="13.59421">
<ele>49</ele>
<time>2011-05-03T10:02:11Z</time>
</trkpt>
<trkpt lat="45.12819" lon="13.59423">
<ele>49</ele>
<time>2011-05-03T10:02:13Z</time>
</trkpt>
<trkpt lat="45.12814" lon="13.59424">
<ele>49</ele>
<time>2011-05-03T10:02:15Z</time>
</trkpt>
<trkpt lat="45.12809" lon="13.59426">
<ele>49</ele>
<time>2011-05-03T10:02:17Z</time>
</trkpt>
<trkpt lat="45.12805" lon="13.59428">
<ele>49</ele>
<time>2011-05-03T10:02:19Z</time>
</trkpt>
<trkpt lat="45.128" lon="13.5943">
<ele>49</ele>
<time>2011-05-03T10:02:21Z</time>
</trkpt>
<trkpt lat="45.12795" lon="13.59432">
<ele>49</ele>
<time>2011-05-03T10:02:23Z</time>
</trkpt>
<trkpt lat="45.12791" lon="13.59435">
<ele>49</ele>
<time>2011-05-03T10:02:25Z</time>
</trkpt>
<trkpt lat="45.12786" lon="13.59437">
<ele>49</ele>
<time>2011-05-03T10:02:27Z</time>
</trkpt>
<trkpt lat="45.12781" lon="13.59439">
<ele>49</ele>
<time>2011-05-03T10:02:29Z</time>
</trkpt>
<trkpt lat="45.12776" lon="13.59442">
<ele>49</ele>
<time>2011-05-03T10:02:31Z</time>
</trkpt>
<trkpt lat="45.12772" lon="13.59443">
<ele>49</ele>
<time>2011-05-03T10:02:33Z</time>
</trkpt>
<trkpt lat="45.12767" lon="13.59445">
<ele>49</ele>
<time>2011-05-03T10:02:35Z</time>
</trkpt>
<trkpt lat="45.12762" lon="13.59447">
<ele>49</ele>
<time>2011-05-03T10:02:37Z</time>
</trkpt>
<trkpt lat="45.12757" lon="13.59449">
<ele>49</ele>
<time>2011-05-03T10:02:39Z</time>
</trkpt>
<trkpt lat="45.12752" lon="13.59451">
<ele>49</ele>
<time>2011-05-03T10:02:41Z</time>
</trkpt>
<trkpt lat="45.12747" lon="13.59453">
<ele>49</ele>
<time>2011-05-03T10:02:43Z</time>
</trkpt>
<trkpt lat="45.12742" lon="13.59455">
<ele>49</ele>
<time>2011-05-03T10:02:45Z</time>
</trkpt>
<trkpt lat="45.12738" lon="13.59457">
<ele>49</ele>
<time>2011-05-03T10:02:47Z</time>
</trkpt>
<trkpt lat="45.12733" lon="13.59459">
<ele>49</ele>
<time>2011-05-03T10:02:49Z</time>
</trkpt>
<trkpt lat="45.12728" lon="13.59461">
<ele>49</ele>
<time>2011-05-03T10:02:51Z</time>
</trkpt>
<trkpt lat="45.12723" lon="13.59463">
<ele>49</ele>
<time>2011-05-03T10:02:53Z</time>
</trkpt>
<trkpt lat="45.12718" lon="13.59464">
<ele>49</ele>
<time>2011-05-03T10:02:55Z</time>
</trkpt>
<trkpt lat="45.12714" lon="13.59466">
<ele>49</ele>
<time>2011-05-03T10:02:57Z</time>
</trkpt>
<trkpt lat="45.12709" lon="13.59468">
<ele>49</ele>
<time>2011-05-03T10:02:59Z</time>
</trkpt>
<trkpt lat="45.12704" lon="13.5947">
<ele>49</ele>
<time>2011-05-03T10:03:01Z</time>
</trkpt>
<trkpt lat="45.127" lon="13.59472">
<ele>49</ele>
<time>2011-05-03T10:03:03Z</time>
</trkpt>
<trkpt lat="45.12695" lon="13.59475">
<ele>49</ele>
<time>2011-05-03T10:03:05Z</time>
</trkpt>
<trkpt lat="45.12691" lon="13.59476">
<ele>49</ele>
<time>2011-05-03T10:03:07Z</time>
</trkpt>
<trkpt lat="45.12686" lon="13.59478">
<ele>49</ele>
<time>2011-05-03T10:03:09Z</time>
</trkpt>
<trkpt lat="45.12681" lon="13.5948">
<ele>49</ele>
<time>2011-05-03T10:03:11Z</time>
</trkpt>
<trkpt lat="45.12676" lon="13.59481">
<ele>49</ele>
<time>2011-05-03T10:03:13Z</time>
</trkpt>
<trkpt lat="45.12671" lon="13.59483">
<ele>49</ele>
<time>2011-05-03T10:03:15Z</time>
</trkpt>
<trkpt lat="45.12666" lon="13.59485">
<ele>49</ele>
<time>2011-05-03T10:03:17Z</time>
</trkpt>
<trkpt lat="45.12662" lon="13.59487">
<ele>49</ele>
<time>2011-05-03T10:03:19Z</time>
</trkpt>
<trkpt lat="45.12657" lon="13.59489">
<ele>49</ele>
<time>2011-05-03T10:03:21Z</time>
</trkpt>
<trkpt lat="45.12652" lon="13.5949">
<ele>49</ele>
<time>2011-05-03T10:03:23Z</time>
</trkpt>
<trkpt lat="45.12647" lon="13.59492">
<ele>49</ele>
<time>2011-05-03T10:03:25Z</time>
</trkpt>
<trkpt lat="45.12643" lon="13.59494">
<ele>49</ele>
<time>2011-05-03T10:03:27Z</time>
</trkpt>
<trkpt lat="45.12638" lon="13.59496">
<ele>50</ele>
<time>2011-05-03T10:03:29Z</time>
</trkpt>
<trkpt lat="45.12633" lon="13.59498">
<ele>50</ele>
<time>2011-05-03T10:03:31Z</time>
</trkpt>
<trkpt lat="45.12628" lon="13.595">
<ele>50</ele>
<time>2011-05-03T10:03:33Z</time>
</trkpt>
<trkpt lat="45.12623" lon="13.59502">
<ele>50</ele>
<time>2011-05-03T10:03:35Z</time>
</trkpt>
<trkpt lat="45.12618" lon="13.59504">
<ele>50</ele>
<time>2011-05-03T10:03:37Z</time>
</trkpt>
<trkpt lat="45.12613" lon="13.59505">
<ele>50</ele>
<time>2011-05-03T10:03:39Z</time>
</trkpt>
<trkpt lat="45.12609" lon="13.59507">
<ele>50</ele>
<time>2011-05-03T10:03:41Z</time>
</trkpt>
<trkpt lat="45.12604" lon="13.59509">
<ele>50</ele>
<time>2011-05-03T10:03:43Z</time>
</trkpt>
<trkpt lat="45.126" lon="13.59511">
<ele>50</ele>
<time>2011-05-03T10:03:45Z</time>
</trkpt>
<trkpt lat="45.12595" lon="13.59512">
<ele>50</ele>
<time>2011-05-03T10:03:47Z</time>
</trkpt>
<trkpt lat="45.1259" lon="13.59514">
<ele>50</ele>
<time>2011-05-03T10:03:49Z</time>
</trkpt>
<trkpt lat="45.12586" lon="13.59516">
<ele>50</ele>
<time>2011-05-03T10:03:51Z</time>
</trkpt>
<trkpt lat="45.12581" lon="13.59517">
<ele>50</ele>
<time>2011-05-03T10:03:53Z</time>
</trkpt>
<trkpt lat="45.12577" lon="13.59519">
<ele>50</ele>
<time>2011-05-03T10:03:55Z</time>
</trkpt>
<trkpt lat="45.12572" lon="13.5952">
<ele>50</ele>
<time>2011-05-03T10:03:57Z</time>
</trkpt>
<trkpt lat="45.12567" lon="13.59522">
<ele>50</ele>
<time>2011-05-03T10:03:59Z</time>
</trkpt>
<trkpt lat="45.12563" lon="13.59523">
<ele>50</ele>
<time>2011-05-03T10:04:01Z</time>
</trkpt>
<trkpt lat="45.12558" lon="13.59525">
<ele>50</ele>
<time>2011-05-03T10:04:03Z</time>
</trkpt>
<trkpt lat="45.12553" lon="13.59526">
<ele>50</ele>
<time>2011-05-03T10:04:05Z</time>
</trkpt>
<trkpt lat="45.12549" lon="13.59528">
<ele>50</ele>
<time>2011-05-03T10:04:07Z</time>
</trkpt>
<trkpt lat="45.12544" lon="13.59529">
<ele>50</ele>
<time>2011-05-03T10:04:09Z</time>
</trkpt>
<trkpt lat="45.12539" lon="13.59531">
<ele>50</ele>
<time>2011-05-03T10:04:11Z</time>
</trkpt>
<trkpt lat="45.12534" lon="13.59532">
<ele>50</ele>
<time>2011-05-03T10:04:13Z</time>
</trkpt>
<trkpt lat="45.1253" lon="13.59534">
<ele>50</ele>
<time>2011-05-03T10:04:15Z</time>
</trkpt>
<trkpt lat="45.12525" lon="13.59535">
<ele>50</ele>
<time>2011-05-03T10:04:17Z</time>
</trkpt>
<trkpt lat="45.1252" lon="13.59537">
<ele>50</ele>
<time>2011-05-03T10:04:19Z</time>
</trkpt>
<trkpt lat="45.12515" lon="13.59539">
<ele>50</ele>
<time>2011-05-03T10:04:21Z</time>
</trkpt>
<trkpt lat="45.1251" lon="13.5954">
<ele>50</ele>
<time>2011-05-03T10:04:23Z</time>
</trkpt>
<trkpt lat="45.12506" lon="13.59542">
<ele>50</ele>
<time>2011-05-03T10:04:25Z</time>
</trkpt>
<trkpt lat="45.12501" lon="13.59544">
<ele>50</ele>
<time>2011-05-03T10:04:27Z</time>
</trkpt>
<trkpt lat="45.12496" lon="13.59545">
<ele>50</ele>
<time>2011-05-03T10:04:29Z</time>
</trkpt>
<trkpt lat="45.12491" lon="13.59547">
<ele>50</ele>
<time>2011-05-03T10:04:31Z</time>
</trkpt>
<trkpt lat="45.12486" lon="13.59548">
<ele>50</ele>
<time>2011-05-03T10:04:33Z</time>
</trkpt>
<trkpt lat="45.12481" lon="13.5955">
<ele>50</ele>
<time>2011-05-03T10:04:35Z</time>
</trkpt>
<trkpt lat="45.12476" lon="13.59552">
<ele>50</ele>
<time>2011-05-03T10:04:37Z</time>
</trkpt>
<trkpt lat="45.12472" lon="13.59554">
<ele>50</ele>
<time>2011-05-03T10:04:39Z</time>
</trkpt>
<trkpt lat="45.12467" lon="13.59556">
<ele>50</ele>
<time>2011-05-03T10:04:41Z</time>
</trkpt>
<trkpt lat="45.12462" lon="13.59557">
<ele>50</ele>
<time>2011-05-03T10:04:43Z</time>
</trkpt>
<trkpt lat="45.12457" lon="13.59559">
<ele>50</ele>
<time>2011-05-03T10:04:45Z</time>
</trkpt>
<trkpt lat="45.12452" lon="13.5956">
<ele>50</ele>
<time>2011-05-03T10:04:47Z</time>
</trkpt>
<trkpt lat="45.12447" lon="13.59562">
<ele>50</ele>
<time>2011-05-03T10:04:49Z</time>
</trkpt>
<trkpt lat="45.12442" lon="13.59564">
<ele>50</ele>
<time>2011-05-03T10:04:51Z</time>
</trkpt>
<trkpt lat="45.12438" lon="13.59566">
<ele>50</ele>
<time>2011-05-03T10:04:53Z</time>
</trkpt>
<trkpt lat="45.12433" lon="13.59568">
<ele>50</ele>
<time>2011-05-03T10:04:55Z</time>
</trkpt>
<trkpt lat="45.12428" lon="13.5957">
<ele>50</ele>
<time>2011-05-03T10:04:57Z</time>
</trkpt>
<trkpt lat="45.12423" lon="13.59572">
<ele>50</ele>
<time>2011-05-03T10:04:59Z</time>
</trkpt>
<trkpt lat="45.12419" lon="13.59573">
<ele>50</ele>
<time>2011-05-03T10:05:01Z</time>
</trkpt>
<trkpt lat="45.12414" lon="13.59575">
<ele>50</ele>
<time>2011-05-03T10:05:03Z</time>
</trkpt>
<trkpt lat="45.12409" lon="13.59576">
<ele>50</ele>
<time>2011-05-03T10:05:05Z</time>
</trkpt>
<trkpt lat="45.12404" lon="13.59578">
<ele>50</ele>
<time>2011-05-03T10:05:07Z</time>
</trkpt>
<trkpt lat="45.124" lon="13.5958">
<ele>50</ele>
<time>2011-05-03T10:05:09Z</time>
</trkpt>
<trkpt lat="45.12395" lon="13.59582">
<ele>50</ele>
<time>2011-05-03T10:05:11Z</time>
</trkpt>
<trkpt lat="45.1239" lon="13.59584">
<ele>50</ele>
<time>2011-05-03T10:05:13Z</time>
</trkpt>
<trkpt lat="45.12385" lon="13.59586">
<ele>50</ele>
<time>2011-05-03T10:05:15Z</time>
</trkpt>
<trkpt lat="45.12381" lon="13.59588">
<ele>50</ele>
<time>2011-05-03T10:05:17Z</time>
</trkpt>
<trkpt lat="45.12376" lon="13.5959">
<ele>50</ele>
<time>2011-05-03T10:05:19Z</time>
</trkpt>
<trkpt lat="45.12371" lon="13.59592">
<ele>50</ele>
<time>2011-05-03T10:05:21Z</time>
</trkpt>
<trkpt lat="45.12366" lon="13.59594">
<ele>50</ele>
<time>2011-05-03T10:05:23Z</time>
</trkpt>
<trkpt lat="45.12362" lon="13.59595">
<ele>50</ele>
<time>2011-05-03T10:05:25Z</time>
</trkpt>
<trkpt lat="45.12357" lon="13.59597">
<ele>50</ele>
<time>2011-05-03T10:05:27Z</time>
</trkpt>
<trkpt lat="45.12352" lon="13.59599">
<ele>50</ele>
<time>2011-05-03T10:05:29Z</time>
</trkpt>
<trkpt lat="45.12348" lon="13.59602">
<ele>50</ele>
<time>2011-05-03T10:05:31Z</time>
</trkpt>
<trkpt lat="45.12343" lon="13.59603">
<ele>50</ele>
<time>2011-05-03T10:05:33Z</time>
</trkpt>
<trkpt lat="45.12338" lon="13.59605">
<ele>50</ele>
<time>2011-05-03T10:05:35Z</time>
</trkpt>
<trkpt lat="45.12334" lon="13.59607">
<ele>51</ele>
<time>2011-05-03T10:05:37Z</time>
</trkpt>
<trkpt lat="45.12329" lon="13.59609">
<ele>51</ele>
<time>2011-05-03T10:05:39Z</time>
</trkpt>
<trkpt lat="45.12325" lon="13.59611">
<ele>51</ele>
<time>2011-05-03T10:05:41Z</time>
</trkpt>
<trkpt lat="45.1232" lon="13.59613">
<ele>51</ele>
<time>2011-05-03T10:05:43Z</time>
</trkpt>
<trkpt lat="45.12315" lon="13.59615">
<ele>51</ele>
<time>2011-05-03T10:05:45Z</time>
</trkpt>
<trkpt lat="45.1231" lon="13.59617">
<ele>51</ele>
<time>2011-05-03T10:05:47Z</time>
</trkpt>
<trkpt lat="45.12306" lon="13.59619">
<ele>51</ele>
<time>2011-05-03T10:05:49Z</time>
</trkpt>
<trkpt lat="45.12301" lon="13.59621">
<ele>51</ele>
<time>2011-05-03T10:05:51Z</time>
</trkpt>
<trkpt lat="45.12296" lon="13.59622">
<ele>51</ele>
<time>2011-05-03T10:05:53Z</time>
</trkpt>
<trkpt lat="45.12291" lon="13.59624">
<ele>51</ele>
<time>2011-05-03T10:05:55Z</time>
</trkpt>
<trkpt lat="45.12287" lon="13.59627">
<ele>51</ele>
<time>2011-05-03T10:05:57Z</time>
</trkpt>
<trkpt lat="45.12282" lon="13.59629">
<ele>51</ele>
<time>2011-05-03T10:05:59Z</time>
</trkpt>
<trkpt lat="45.12277" lon="13.5963">
<ele>51</ele>
<time>2011-05-03T10:06:01Z</time>
</trkpt>
<trkpt lat="45.12272" lon="13.59632">
<ele>51</ele>
<time>2011-05-03T10:06:03Z</time>
</trkpt>
<trkpt lat="45.12268" lon="13.59635">
<ele>51</ele>
<time>2011-05-03T10:06:05Z</time>
</trkpt>
<trkpt lat="45.12263" lon="13.59637">
<ele>51</ele>
<time>2011-05-03T10:06:07Z</time>
</trkpt>
<trkpt lat="45.12258" lon="13.5964">
<ele>51</ele>
<time>2011-05-03T10:06:09Z</time>
</trkpt>
<trkpt lat="45.12253" lon="13.59641">
<ele>51</ele>
<time>2011-05-03T10:06:11Z</time>
</trkpt>
<trkpt lat="45.12248" lon="13.59643">
<ele>50</ele>
<time>2011-05-03T10:06:13Z</time>
</trkpt>
<trkpt lat="45.12243" lon="13.59644">
<ele>50</ele>
<time>2011-05-03T10:06:15Z</time>
</trkpt>
<trkpt lat="45.12238" lon="13.59646">
<ele>50</ele>
<time>2011-05-03T10:06:17Z</time>
</trkpt>
<trkpt lat="45.12233" lon="13.59648">
<ele>50</ele>
<time>2011-05-03T10:06:19Z</time>
</trkpt>
<trkpt lat="45.12228" lon="13.5965">
<ele>50</ele>
<time>2011-05-03T10:06:21Z</time>
</trkpt>
<trkpt lat="45.12224" lon="13.59651">
<ele>50</ele>
<time>2011-05-03T10:06:23Z</time>
</trkpt>
<trkpt lat="45.12219" lon="13.59653">
<ele>50</ele>
<time>2011-05-03T10:06:25Z</time>
</trkpt>
<trkpt lat="45.12214" lon="13.59655">
<ele>50</ele>
<time>2011-05-03T10:06:27Z</time>
</trkpt>
<trkpt lat="45.12209" lon="13.59656">
<ele>50</ele>
<time>2011-05-03T10:06:29Z</time>
</trkpt>
<trkpt lat="45.12204" lon="13.59658">
<ele>50</ele>
<time>2011-05-03T10:06:31Z</time>
</trkpt>
<trkpt lat="45.12199" lon="13.5966">
<ele>50</ele>
<time>2011-05-03T10:06:33Z</time>
</trkpt>
<trkpt lat="45.12194" lon="13.59662">
<ele>50</ele>
<time>2011-05-03T10:06:35Z</time>
</trkpt>
<trkpt lat="45.12189" lon="13.59664">
<ele>50</ele>
<time>2011-05-03T10:06:37Z</time>
</trkpt>
<trkpt lat="45.12185" lon="13.59665">
<ele>50</ele>
<time>2011-05-03T10:06:39Z</time>
</trkpt>
<trkpt lat="45.1218" lon="13.59667">
<ele>50</ele>
<time>2011-05-03T10:06:41Z</time>
</trkpt>
<trkpt lat="45.12175" lon="13.59668">
<ele>50</ele>
<time>2011-05-03T10:06:43Z</time>
</trkpt>
<trkpt lat="45.1217" lon="13.5967">
<ele>50</ele>
<time>2011-05-03T10:06:45Z</time>
</trkpt>
<trkpt lat="45.12165" lon="13.59672">
<ele>50</ele>
<time>2011-05-03T10:06:47Z</time>
</trkpt>
<trkpt lat="45.1216" lon="13.59674">
<ele>50</ele>
<time>2011-05-03T10:06:49Z</time>
</trkpt>
<trkpt lat="45.12155" lon="13.59676">
<ele>50</ele>
<time>2011-05-03T10:06:51Z</time>
</trkpt>
<trkpt lat="45.1215" lon="13.59678">
<ele>50</ele>
<time>2011-05-03T10:06:53Z</time>
</trkpt>
<trkpt lat="45.12145" lon="13.59679">
<ele>50</ele>
<time>2011-05-03T10:06:55Z</time>
</trkpt>
<trkpt lat="45.1214" lon="13.59681">
<ele>50</ele>
<time>2011-05-03T10:06:57Z</time>
</trkpt>
<trkpt lat="45.12136" lon="13.59683">
<ele>50</ele>
<time>2011-05-03T10:06:59Z</time>
</trkpt>
<trkpt lat="45.12131" lon="13.59685">
<ele>50</ele>
<time>2011-05-03T10:07:01Z</time>
</trkpt>
<trkpt lat="45.12126" lon="13.59687">
<ele>50</ele>
<time>2011-05-03T10:07:03Z</time>
</trkpt>
<trkpt lat="45.12121" lon="13.59689">
<ele>50</ele>
<time>2011-05-03T10:07:05Z</time>
</trkpt>
<trkpt lat="45.12117" lon="13.5969">
<ele>50</ele>
<time>2011-05-03T10:07:07Z</time>
</trkpt>
<trkpt lat="45.12112" lon="13.59692">
<ele>50</ele>
<time>2011-05-03T10:07:09Z</time>
</trkpt>
<trkpt lat="45.12106" lon="13.59694">
<ele>50</ele>
<time>2011-05-03T10:07:11Z</time>
</trkpt>
<trkpt lat="45.12102" lon="13.59696">
<ele>50</ele>
<time>2011-05-03T10:07:13Z</time>
</trkpt>
<trkpt lat="45.12097" lon="13.59698">
<ele>50</ele>
<time>2011-05-03T10:07:15Z</time>
</trkpt>
<trkpt lat="45.12092" lon="13.59699">
<ele>49</ele>
<time>2011-05-03T10:07:17Z</time>
</trkpt>
<trkpt lat="45.12087" lon="13.59702">
<ele>49</ele>
<time>2011-05-03T10:07:19Z</time>
</trkpt>
<trkpt lat="45.12082" lon="13.59703">
<ele>49</ele>
<time>2011-05-03T10:07:21Z</time>
</trkpt>
<trkpt lat="45.12076" lon="13.59705">
<ele>49</ele>
<time>2011-05-03T10:07:23Z</time>
</trkpt>
<trkpt lat="45.12071" lon="13.59707">
<ele>49</ele>
<time>2011-05-03T10:07:25Z</time>
</trkpt>
<trkpt lat="45.12066" lon="13.59708">
<ele>49</ele>
<time>2011-05-03T10:07:27Z</time>
</trkpt>
<trkpt lat="45.12061" lon="13.5971">
<ele>49</ele>
<time>2011-05-03T10:07:29Z</time>
</trkpt>
<trkpt lat="45.12056" lon="13.59712">
<ele>49</ele>
<time>2011-05-03T10:07:31Z</time>
</trkpt>
<trkpt lat="45.12051" lon="13.59714">
<ele>49</ele>
<time>2011-05-03T10:07:33Z</time>
</trkpt>
<trkpt lat="45.12046" lon="13.59716">
<ele>49</ele>
<time>2011-05-03T10:07:35Z</time>
</trkpt>
<trkpt lat="45.12041" lon="13.59718">
<ele>49</ele>
<time>2011-05-03T10:07:37Z</time>
</trkpt>
<trkpt lat="45.12036" lon="13.5972">
<ele>49</ele>
<time>2011-05-03T10:07:39Z</time>
</trkpt>
<trkpt lat="45.12031" lon="13.59722">
<ele>49</ele>
<time>2011-05-03T10:07:41Z</time>
</trkpt>
<trkpt lat="45.12026" lon="13.59724">
<ele>49</ele>
<time>2011-05-03T10:07:43Z</time>
</trkpt>
<trkpt lat="45.12021" lon="13.59726">
<ele>49</ele>
<time>2011-05-03T10:07:45Z</time>
</trkpt>
<trkpt lat="45.12016" lon="13.59728">
<ele>49</ele>
<time>2011-05-03T10:07:47Z</time>
</trkpt>
<trkpt lat="45.1201" lon="13.59729">
<ele>49</ele>
<time>2011-05-03T10:07:49Z</time>
</trkpt>
<trkpt lat="45.12005" lon="13.59731">
<ele>49</ele>
<time>2011-05-03T10:07:51Z</time>
</trkpt>
<trkpt lat="45.12" lon="13.59733">
<ele>49</ele>
<time>2011-05-03T10:07:53Z</time>
</trkpt>
<trkpt lat="45.11995" lon="13.59735">
<ele>49</ele>
<time>2011-05-03T10:07:55Z</time>
</trkpt>
<trkpt lat="45.1199" lon="13.59737">
<ele>49</ele>
<time>2011-05-03T10:07:57Z</time>
</trkpt>
<trkpt lat="45.11985" lon="13.59739">
<ele>49</ele>
<time>2011-05-03T10:07:59Z</time>
</trkpt>
<trkpt lat="45.1198" lon="13.59741">
<ele>49</ele>
<time>2011-05-03T10:08:01Z</time>
</trkpt>
<trkpt lat="45.11975" lon="13.59743">
<ele>49</ele>
<time>2011-05-03T10:08:03Z</time>
</trkpt>
<trkpt lat="45.1197" lon="13.59745">
<ele>49</ele>
<time>2011-05-03T10:08:05Z</time>
</trkpt>
<trkpt lat="45.11965" lon="13.59747">
<ele>49</ele>
<time>2011-05-03T10:08:07Z</time>
</trkpt>
<trkpt lat="45.1196" lon="13.59749">
<ele>49</ele>
<time>2011-05-03T10:08:09Z</time>
</trkpt>
<trkpt lat="45.11955" lon="13.59751">
<ele>49</ele>
<time>2011-05-03T10:08:11Z</time>
</trkpt>
<trkpt lat="45.1195" lon="13.59754">
<ele>49</ele>
<time>2011-05-03T10:08:13Z</time>
</trkpt>
<trkpt lat="45.11945" lon="13.59756">
<ele>49</ele>
<time>2011-05-03T10:08:15Z</time>
</trkpt>
<trkpt lat="45.1194" lon="13.59758">
<ele>49</ele>
<time>2011-05-03T10:08:17Z</time>
</trkpt>
<trkpt lat="45.11935" lon="13.5976">
<ele>49</ele>
<time>2011-05-03T10:08:19Z</time>
</trkpt>
<trkpt lat="45.1193" lon="13.59762">
<ele>49</ele>
<time>2011-05-03T10:08:21Z</time>
</trkpt>
<trkpt lat="45.11925" lon="13.59765">
<ele>49</ele>
<time>2011-05-03T10:08:23Z</time>
</trkpt>
<trkpt lat="45.1192" lon="13.59767">
<ele>49</ele>
<time>2011-05-03T10:08:25Z</time>
</trkpt>
<trkpt lat="45.11915" lon="13.59769">
<ele>49</ele>
<time>2011-05-03T10:08:27Z</time>
</trkpt>
<trkpt lat="45.1191" lon="13.59772">
<ele>49</ele>
<time>2011-05-03T10:08:29Z</time>
</trkpt>
<trkpt lat="45.11905" lon="13.59774">
<ele>49</ele>
<time>2011-05-03T10:08:31Z</time>
</trkpt>
<trkpt lat="45.119" lon="13.59776">
<ele>49</ele>
<time>2011-05-03T10:08:33Z</time>
</trkpt>
<trkpt lat="45.11895" lon="13.59778">
<ele>49</ele>
<time>2011-05-03T10:08:35Z</time>
</trkpt>
<trkpt lat="45.1189" lon="13.5978">
<ele>49</ele>
<time>2011-05-03T10:08:37Z</time>
</trkpt>
<trkpt lat="45.11886" lon="13.59783">
<ele>49</ele>
<time>2011-05-03T10:08:39Z</time>
</trkpt>
<trkpt lat="45.11881" lon="13.59786">
<ele>49</ele>
<time>2011-05-03T10:08:41Z</time>
</trkpt>
<trkpt lat="45.11876" lon="13.59788">
<ele>49</ele>
<time>2011-05-03T10:08:43Z</time>
</trkpt>
<trkpt lat="45.11871" lon="13.59791">
<ele>49</ele>
<time>2011-05-03T10:08:45Z</time>
</trkpt>
<trkpt lat="45.11866" lon="13.59793">
<ele>49</ele>
<time>2011-05-03T10:08:47Z</time>
</trkpt>
<trkpt lat="45.11861" lon="13.59796">
<ele>49</ele>
<time>2011-05-03T10:08:49Z</time>
</trkpt>
<trkpt lat="45.11856" lon="13.59798">
<ele>49</ele>
<time>2011-05-03T10:08:51Z</time>
</trkpt>
<trkpt lat="45.11851" lon="13.598">
<ele>49</ele>
<time>2011-05-03T10:08:53Z</time>
</trkpt>
<trkpt lat="45.11846" lon="13.59803">
<ele>49</ele>
<time>2011-05-03T10:08:55Z</time>
</trkpt>
<trkpt lat="45.11841" lon="13.59805">
<ele>49</ele>
<time>2011-05-03T10:08:57Z</time>
</trkpt>
<trkpt lat="45.11836" lon="13.59808">
<ele>49</ele>
<time>2011-05-03T10:08:59Z</time>
</trkpt>
<trkpt lat="45.11831" lon="13.5981">
<ele>49</ele>
<time>2011-05-03T10:09:01Z</time>
</trkpt>
<trkpt lat="45.11826" lon="13.59812">
<ele>49</ele>
<time>2011-05-03T10:09:03Z</time>
</trkpt>
<trkpt lat="45.11821" lon="13.59814">
<ele>49</ele>
<time>2011-05-03T10:09:05Z</time>
</trkpt>
<trkpt lat="45.11816" lon="13.59817">
<ele>49</ele>
<time>2011-05-03T10:09:07Z</time>
</trkpt>
<trkpt lat="45.11811" lon="13.59819">
<ele>49</ele>
<time>2011-05-03T10:09:09Z</time>
</trkpt>
<trkpt lat="45.11806" lon="13.59822">
<ele>49</ele>
<time>2011-05-03T10:09:11Z</time>
</trkpt>
<trkpt lat="45.11801" lon="13.59824">
<ele>49</ele>
<time>2011-05-03T10:09:13Z</time>
</trkpt>
<trkpt lat="45.11796" lon="13.59826">
<ele>49</ele>
<time>2011-05-03T10:09:15Z</time>
</trkpt>
<trkpt lat="45.11791" lon="13.59828">
<ele>49</ele>
<time>2011-05-03T10:09:17Z</time>
</trkpt>
<trkpt lat="45.11786" lon="13.59831">
<ele>49</ele>
<time>2011-05-03T10:09:19Z</time>
</trkpt>
<trkpt lat="45.11781" lon="13.59833">
<ele>49</ele>
<time>2011-05-03T10:09:21Z</time>
</trkpt>
<trkpt lat="45.11776" lon="13.59836">
<ele>49</ele>
<time>2011-05-03T10:09:23Z</time>
</trkpt>
<trkpt lat="45.11772" lon="13.59838">
<ele>49</ele>
<time>2011-05-03T10:09:25Z</time>
</trkpt>
<trkpt lat="45.11767" lon="13.5984">
<ele>49</ele>
<time>2011-05-03T10:09:27Z</time>
</trkpt>
<trkpt lat="45.11762" lon="13.59842">
<ele>49</ele>
<time>2011-05-03T10:09:29Z</time>
</trkpt>
<trkpt lat="45.11757" lon="13.59845">
<ele>49</ele>
<time>2011-05-03T10:09:31Z</time>
</trkpt>
<trkpt lat="45.11752" lon="13.59847">
<ele>49</ele>
<time>2011-05-03T10:09:33Z</time>
</trkpt>
<trkpt lat="45.11748" lon="13.5985">
<ele>49</ele>
<time>2011-05-03T10:09:35Z</time>
</trkpt>
<trkpt lat="45.11743" lon="13.59852">
<ele>49</ele>
<time>2011-05-03T10:09:37Z</time>
</trkpt>
<trkpt lat="45.11738" lon="13.59855">
<ele>49</ele>
<time>2011-05-03T10:09:39Z</time>
</trkpt>
<trkpt lat="45.11734" lon="13.59858">
<ele>49</ele>
<time>2011-05-03T10:09:41Z</time>
</trkpt>
<trkpt lat="45.11729" lon="13.5986">
<ele>49</ele>
<time>2011-05-03T10:09:43Z</time>
</trkpt>
<trkpt lat="45.11724" lon="13.59863">
<ele>49</ele>
<time>2011-05-03T10:09:45Z</time>
</trkpt>
<trkpt lat="45.1172" lon="13.59866">
<ele>49</ele>
<time>2011-05-03T10:09:47Z</time>
</trkpt>
<trkpt lat="45.11715" lon="13.59869">
<ele>49</ele>
<time>2011-05-03T10:09:49Z</time>
</trkpt>
<trkpt lat="45.11711" lon="13.59873">
<ele>49</ele>
<time>2011-05-03T10:09:51Z</time>
</trkpt>
<trkpt lat="45.11706" lon="13.59876">
<ele>49</ele>
<time>2011-05-03T10:09:53Z</time>
</trkpt>
<trkpt lat="45.11702" lon="13.59879">
<ele>49</ele>
<time>2011-05-03T10:09:55Z</time>
</trkpt>
<trkpt lat="45.11697" lon="13.59883">
<ele>49</ele>
<time>2011-05-03T10:09:57Z</time>
</trkpt>
<trkpt lat="45.11692" lon="13.59886">
<ele>49</ele>
<time>2011-05-03T10:09:59Z</time>
</trkpt>
<trkpt lat="45.11688" lon="13.59889">
<ele>49</ele>
<time>2011-05-03T10:10:01Z</time>
</trkpt>
<trkpt lat="45.11683" lon="13.59893">
<ele>49</ele>
<time>2011-05-03T10:10:03Z</time>
</trkpt>
<trkpt lat="45.11678" lon="13.59896">
<ele>49</ele>
<time>2011-05-03T10:10:05Z</time>
</trkpt>
<trkpt lat="45.11673" lon="13.59899">
<ele>49</ele>
<time>2011-05-03T10:10:07Z</time>
</trkpt>
<trkpt lat="45.11669" lon="13.59903">
<ele>49</ele>
<time>2011-05-03T10:10:09Z</time>
</trkpt>
<trkpt lat="45.11664" lon="13.59906">
<ele>49</ele>
<time>2011-05-03T10:10:11Z</time>
</trkpt>
<trkpt lat="45.11659" lon="13.59909">
<ele>49</ele>
<time>2011-05-03T10:10:13Z</time>
</trkpt>
<trkpt lat="45.11654" lon="13.59912">
<ele>49</ele>
<time>2011-05-03T10:10:15Z</time>
</trkpt>
<trkpt lat="45.11649" lon="13.59916">
<ele>49</ele>
<time>2011-05-03T10:10:17Z</time>
</trkpt>
<trkpt lat="45.11645" lon="13.5992">
<ele>49</ele>
<time>2011-05-03T10:10:19Z</time>
</trkpt>
<trkpt lat="45.1164" lon="13.59923">
<ele>49</ele>
<time>2011-05-03T10:10:21Z</time>
</trkpt>
<trkpt lat="45.11636" lon="13.59926">
<ele>49</ele>
<time>2011-05-03T10:10:23Z</time>
</trkpt>
<trkpt lat="45.11631" lon="13.5993">
<ele>49</ele>
<time>2011-05-03T10:10:25Z</time>
</trkpt>
<trkpt lat="45.11626" lon="13.59933">
<ele>49</ele>
<time>2011-05-03T10:10:27Z</time>
</trkpt>
<trkpt lat="45.11621" lon="13.59936">
<ele>49</ele>
<time>2011-05-03T10:10:29Z</time>
</trkpt>
<trkpt lat="45.11616" lon="13.5994">
<ele>49</ele>
<time>2011-05-03T10:10:31Z</time>
</trkpt>
<trkpt lat="45.11612" lon="13.59943">
<ele>49</ele>
<time>2011-05-03T10:10:33Z</time>
</trkpt>
<trkpt lat="45.11607" lon="13.59946">
<ele>49</ele>
<time>2011-05-03T10:10:35Z</time>
</trkpt>
<trkpt lat="45.11602" lon="13.59949">
<ele>49</ele>
<time>2011-05-03T10:10:37Z</time>
</trkpt>
<trkpt lat="45.11598" lon="13.59953">
<ele>49</ele>
<time>2011-05-03T10:10:39Z</time>
</trkpt>
<trkpt lat="45.11593" lon="13.59956">
<ele>49</ele>
<time>2011-05-03T10:10:41Z</time>
</trkpt>
<trkpt lat="45.11588" lon="13.59959">
<ele>49</ele>
<time>2011-05-03T10:10:43Z</time>
</trkpt>
<trkpt lat="45.11583" lon="13.59962">
<ele>49</ele>
<time>2011-05-03T10:10:45Z</time>
</trkpt>
<trkpt lat="45.11578" lon="13.59966">
<ele>49</ele>
<time>2011-05-03T10:10:47Z</time>
</trkpt>
<trkpt lat="45.11574" lon="13.59969">
<ele>49</ele>
<time>2011-05-03T10:10:49Z</time>
</trkpt>
<trkpt lat="45.11569" lon="13.59972">
<ele>49</ele>
<time>2011-05-03T10:10:51Z</time>
</trkpt>
<trkpt lat="45.11564" lon="13.59976">
<ele>49</ele>
<time>2011-05-03T10:10:53Z</time>
</trkpt>
<trkpt lat="45.1156" lon="13.59979">
<ele>49</ele>
<time>2011-05-03T10:10:55Z</time>
</trkpt>
<trkpt lat="45.11555" lon="13.59982">
<ele>49</ele>
<time>2011-05-03T10:10:57Z</time>
</trkpt>
<trkpt lat="45.1155" lon="13.59984">
<ele>49</ele>
<time>2011-05-03T10:10:59Z</time>
</trkpt>
<trkpt lat="45.11545" lon="13.59988">
<ele>49</ele>
<time>2011-05-03T10:11:01Z</time>
</trkpt>
<trkpt lat="45.11541" lon="13.59991">
<ele>49</ele>
<time>2011-05-03T10:11:03Z</time>
</trkpt>
<trkpt lat="45.11536" lon="13.59995">
<ele>49</ele>
<time>2011-05-03T10:11:05Z</time>
</trkpt>
<trkpt lat="45.11531" lon="13.59998">
<ele>49</ele>
<time>2011-05-03T10:11:07Z</time>
</trkpt>
<trkpt lat="45.11527" lon="13.60001">
<ele>49</ele>
<time>2011-05-03T10:11:09Z</time>
</trkpt>
<trkpt lat="45.11522" lon="13.60004">
<ele>49</ele>
<time>2011-05-03T10:11:11Z</time>
</trkpt>
<trkpt lat="45.11517" lon="13.60008">
<ele>49</ele>
<time>2011-05-03T10:11:13Z</time>
</trkpt>
<trkpt lat="45.11512" lon="13.60011">
<ele>49</ele>
<time>2011-05-03T10:11:15Z</time>
</trkpt>
<trkpt lat="45.11508" lon="13.60014">
<ele>49</ele>
<time>2011-05-03T10:11:17Z</time>
</trkpt>
<trkpt lat="45.11503" lon="13.60017">
<ele>49</ele>
<time>2011-05-03T10:11:19Z</time>
</trkpt>
<trkpt lat="45.11498" lon="13.6002">
<ele>49</ele>
<time>2011-05-03T10:11:21Z</time>
</trkpt>
<trkpt lat="45.11494" lon="13.60024">
<ele>49</ele>
<time>2011-05-03T10:11:23Z</time>
</trkpt>
<trkpt lat="45.11489" lon="13.60027">
<ele>49</ele>
<time>2011-05-03T10:11:25Z</time>
</trkpt>
<trkpt lat="45.11484" lon="13.6003">
<ele>49</ele>
<time>2011-05-03T10:11:27Z</time>
</trkpt>
<trkpt lat="45.1148" lon="13.60034">
<ele>49</ele>
<time>2011-05-03T10:11:29Z</time>
</trkpt>
<trkpt lat="45.11475" lon="13.60037">
<ele>49</ele>
<time>2011-05-03T10:11:31Z</time>
</trkpt>
<trkpt lat="45.1147" lon="13.6004">
<ele>49</ele>
<time>2011-05-03T10:11:33Z</time>
</trkpt>
<trkpt lat="45.11466" lon="13.60043">
<ele>49</ele>
<time>2011-05-03T10:11:35Z</time>
</trkpt>
<trkpt lat="45.11461" lon="13.60046">
<ele>49</ele>
<time>2011-05-03T10:11:37Z</time>
</trkpt>
<trkpt lat="45.11457" lon="13.60049">
<ele>49</ele>
<time>2011-05-03T10:11:39Z</time>
</trkpt>
<trkpt lat="45.11452" lon="13.60053">
<ele>49</ele>
<time>2011-05-03T10:11:41Z</time>
</trkpt>
<trkpt lat="45.11447" lon="13.60056">
<ele>49</ele>
<time>2011-05-03T10:11:43Z</time>
</trkpt>
<trkpt lat="45.11442" lon="13.60059">
<ele>49</ele>
<time>2011-05-03T10:11:45Z</time>
</trkpt>
<trkpt lat="45.11438" lon="13.60062">
<ele>49</ele>
<time>2011-05-03T10:11:47Z</time>
</trkpt>
<trkpt lat="45.11433" lon="13.60066">
<ele>49</ele>
<time>2011-05-03T10:11:49Z</time>
</trkpt>
<trkpt lat="45.11428" lon="13.60069">
<ele>49</ele>
<time>2011-05-03T10:11:51Z</time>
</trkpt>
<trkpt lat="45.11423" lon="13.60072">
<ele>49</ele>
<time>2011-05-03T10:11:53Z</time>
</trkpt>
<trkpt lat="45.11418" lon="13.60076">
<ele>49</ele>
<time>2011-05-03T10:11:55Z</time>
</trkpt>
<trkpt lat="45.11414" lon="13.60079">
<ele>49</ele>
<time>2011-05-03T10:11:57Z</time>
</trkpt>
<trkpt lat="45.11409" lon="13.60083">
<ele>49</ele>
<time>2011-05-03T10:11:59Z</time>
</trkpt>
<trkpt lat="45.11404" lon="13.60087">
<ele>49</ele>
<time>2011-05-03T10:12:01Z</time>
</trkpt>
<trkpt lat="45.114" lon="13.60091">
<ele>49</ele>
<time>2011-05-03T10:12:03Z</time>
</trkpt>
<trkpt lat="45.11395" lon="13.60095">
<ele>49</ele>
<time>2011-05-03T10:12:05Z</time>
</trkpt>
<trkpt lat="45.11391" lon="13.601">
<ele>49</ele>
<time>2011-05-03T10:12:07Z</time>
</trkpt>
<trkpt lat="45.11387" lon="13.60104">
<ele>49</ele>
<time>2011-05-03T10:12:09Z</time>
</trkpt>
<trkpt lat="45.11383" lon="13.6011">
<ele>49</ele>
<time>2011-05-03T10:12:11Z</time>
</trkpt>
<trkpt lat="45.11379" lon="13.60114">
<ele>49</ele>
<time>2011-05-03T10:12:13Z</time>
</trkpt>
<trkpt lat="45.11375" lon="13.60119">
<ele>49</ele>
<time>2011-05-03T10:12:15Z</time>
</trkpt>
<trkpt lat="45.11371" lon="13.60124">
<ele>49</ele>
<time>2011-05-03T10:12:17Z</time>
</trkpt>
<trkpt lat="45.11366" lon="13.60129">
<ele>49</ele>
<time>2011-05-03T10:12:19Z</time>
</trkpt>
<trkpt lat="45.11362" lon="13.60134">
<ele>49</ele>
<time>2011-05-03T10:12:21Z</time>
</trkpt>
<trkpt lat="45.11358" lon="13.60138">
<ele>49</ele>
<time>2011-05-03T10:12:23Z</time>
</trkpt>
<trkpt lat="45.11354" lon="13.60143">
<ele>49</ele>
<time>2011-05-03T10:12:25Z</time>
</trkpt>
<trkpt lat="45.1135" lon="13.60148">
<ele>49</ele>
<time>2011-05-03T10:12:27Z</time>
</trkpt>
<trkpt lat="45.11346" lon="13.60153">
<ele>49</ele>
<time>2011-05-03T10:12:29Z</time>
</trkpt>
<trkpt lat="45.11341" lon="13.60157">
<ele>49</ele>
<time>2011-05-03T10:12:31Z</time>
</trkpt>
<trkpt lat="45.11337" lon="13.60162">
<ele>49</ele>
<time>2011-05-03T10:12:33Z</time>
</trkpt>
<trkpt lat="45.11333" lon="13.60167">
<ele>49</ele>
<time>2011-05-03T10:12:35Z</time>
</trkpt>
<trkpt lat="45.11329" lon="13.60172">
<ele>49</ele>
<time>2011-05-03T10:12:37Z</time>
</trkpt>
<trkpt lat="45.11325" lon="13.60176">
<ele>49</ele>
<time>2011-05-03T10:12:39Z</time>
</trkpt>
<trkpt lat="45.11321" lon="13.60181">
<ele>49</ele>
<time>2011-05-03T10:12:41Z</time>
</trkpt>
<trkpt lat="45.11316" lon="13.60186">
<ele>49</ele>
<time>2011-05-03T10:12:43Z</time>
</trkpt>
<trkpt lat="45.11312" lon="13.6019">
<ele>49</ele>
<time>2011-05-03T10:12:45Z</time>
</trkpt>
<trkpt lat="45.11308" lon="13.60195">
<ele>49</ele>
<time>2011-05-03T10:12:47Z</time>
</trkpt>
<trkpt lat="45.11304" lon="13.602">
<ele>49</ele>
<time>2011-05-03T10:12:49Z</time>
</trkpt>
<trkpt lat="45.11299" lon="13.60204">
<ele>48</ele>
<time>2011-05-03T10:12:51Z</time>
</trkpt>
<trkpt lat="45.11295" lon="13.60207">
<ele>48</ele>
<time>2011-05-03T10:12:53Z</time>
</trkpt>
<trkpt lat="45.1129" lon="13.6021">
<ele>48</ele>
<time>2011-05-03T10:12:55Z</time>
</trkpt>
<trkpt lat="45.11285" lon="13.60214">
<ele>48</ele>
<time>2011-05-03T10:12:57Z</time>
</trkpt>
<trkpt lat="45.1128" lon="13.60217">
<ele>48</ele>
<time>2011-05-03T10:12:59Z</time>
</trkpt>
<trkpt lat="45.11275" lon="13.6022">
<ele>48</ele>
<time>2011-05-03T10:13:01Z</time>
</trkpt>
<trkpt lat="45.1127" lon="13.60223">
<ele>48</ele>
<time>2011-05-03T10:13:03Z</time>
</trkpt>
<trkpt lat="45.11265" lon="13.60225">
<ele>48</ele>
<time>2011-05-03T10:13:05Z</time>
</trkpt>
<trkpt lat="45.1126" lon="13.60227">
<ele>48</ele>
<time>2011-05-03T10:13:07Z</time>
</trkpt>
<trkpt lat="45.11255" lon="13.6023">
<ele>48</ele>
<time>2011-05-03T10:13:09Z</time>
</trkpt>
<trkpt lat="45.1125" lon="13.60232">
<ele>48</ele>
<time>2011-05-03T10:13:11Z</time>
</trkpt>
<trkpt lat="45.11245" lon="13.60234">
<ele>48</ele>
<time>2011-05-03T10:13:13Z</time>
</trkpt>
<trkpt lat="45.1124" lon="13.60237">
<ele>48</ele>
<time>2011-05-03T10:13:15Z</time>
</trkpt>
<trkpt lat="45.11235" lon="13.6024">
<ele>48</ele>
<time>2011-05-03T10:13:17Z</time>
</trkpt>
<trkpt lat="45.1123" lon="13.60242">
<ele>48</ele>
<time>2011-05-03T10:13:19Z</time>
</trkpt>
<trkpt lat="45.11224" lon="13.60245">
<ele>48</ele>
<time>2011-05-03T10:13:21Z</time>
</trkpt>
<trkpt lat="45.1122" lon="13.60248">
<ele>48</ele>
<time>2011-05-03T10:13:23Z</time>
</trkpt>
<trkpt lat="45.11215" lon="13.60252">
<ele>48</ele>
<time>2011-05-03T10:13:25Z</time>
</trkpt>
<trkpt lat="45.1121" lon="13.60256">
<ele>48</ele>
<time>2011-05-03T10:13:27Z</time>
</trkpt>
<trkpt lat="45.11206" lon="13.6026">
<ele>48</ele>
<time>2011-05-03T10:13:29Z</time>
</trkpt>
<trkpt lat="45.11201" lon="13.60263">
<ele>48</ele>
<time>2011-05-03T10:13:31Z</time>
</trkpt>
<trkpt lat="45.11196" lon="13.60266">
<ele>48</ele>
<time>2011-05-03T10:13:33Z</time>
</trkpt>
<trkpt lat="45.11191" lon="13.6027">
<ele>48</ele>
<time>2011-05-03T10:13:35Z</time>
</trkpt>
<trkpt lat="45.11186" lon="13.60274">
<ele>48</ele>
<time>2011-05-03T10:13:37Z</time>
</trkpt>
<trkpt lat="45.11182" lon="13.60277">
<ele>48</ele>
<time>2011-05-03T10:13:39Z</time>
</trkpt>
<trkpt lat="45.11177" lon="13.60281">
<ele>48</ele>
<time>2011-05-03T10:13:41Z</time>
</trkpt>
<trkpt lat="45.11172" lon="13.60285">
<ele>48</ele>
<time>2011-05-03T10:13:43Z</time>
</trkpt>
<trkpt lat="45.11168" lon="13.60289">
<ele>48</ele>
<time>2011-05-03T10:13:45Z</time>
</trkpt>
<trkpt lat="45.11163" lon="13.60293">
<ele>48</ele>
<time>2011-05-03T10:13:47Z</time>
</trkpt>
<trkpt lat="45.11158" lon="13.60297">
<ele>48</ele>
<time>2011-05-03T10:13:49Z</time>
</trkpt>
<trkpt lat="45.11154" lon="13.60301">
<ele>48</ele>
<time>2011-05-03T10:13:51Z</time>
</trkpt>
<trkpt lat="45.1115" lon="13.60305">
<ele>48</ele>
<time>2011-05-03T10:13:53Z</time>
</trkpt>
<trkpt lat="45.11146" lon="13.6031">
<ele>48</ele>
<time>2011-05-03T10:13:55Z</time>
</trkpt>
<trkpt lat="45.11142" lon="13.60315">
<ele>48</ele>
<time>2011-05-03T10:13:57Z</time>
</trkpt>
<trkpt lat="45.11138" lon="13.6032">
<ele>48</ele>
<time>2011-05-03T10:13:59Z</time>
</trkpt>
<trkpt lat="45.11135" lon="13.60326">
<ele>48</ele>
<time>2011-05-03T10:14:01Z</time>
</trkpt>
<trkpt lat="45.11131" lon="13.60331">
<ele>48</ele>
<time>2011-05-03T10:14:03Z</time>
</trkpt>
<trkpt lat="45.11127" lon="13.60337">
<ele>48</ele>
<time>2011-05-03T10:14:05Z</time>
</trkpt>
<trkpt lat="45.11123" lon="13.60343">
<ele>48</ele>
<time>2011-05-03T10:14:07Z</time>
</trkpt>
<trkpt lat="45.1112" lon="13.60349">
<ele>48</ele>
<time>2011-05-03T10:14:09Z</time>
</trkpt>
<trkpt lat="45.11116" lon="13.60354">
<ele>48</ele>
<time>2011-05-03T10:14:11Z</time>
</trkpt>
<trkpt lat="45.11112" lon="13.6036">
<ele>48</ele>
<time>2011-05-03T10:14:13Z</time>
</trkpt>
<trkpt lat="45.11108" lon="13.60365">
<ele>48</ele>
<time>2011-05-03T10:14:15Z</time>
</trkpt>
<trkpt lat="45.11105" lon="13.60371">
<ele>48</ele>
<time>2011-05-03T10:14:17Z</time>
</trkpt>
<trkpt lat="45.11101" lon="13.60377">
<ele>48</ele>
<time>2011-05-03T10:14:19Z</time>
</trkpt>
<trkpt lat="45.11097" lon="13.60382">
<ele>48</ele>
<time>2011-05-03T10:14:21Z</time>
</trkpt>
<trkpt lat="45.11093" lon="13.60388">
<ele>48</ele>
<time>2011-05-03T10:14:23Z</time>
</trkpt>
<trkpt lat="45.1109" lon="13.60394">
<ele>48</ele>
<time>2011-05-03T10:14:25Z</time>
</trkpt>
<trkpt lat="45.11086" lon="13.60399">
<ele>48</ele>
<time>2011-05-03T10:14:27Z</time>
</trkpt>
<trkpt lat="45.11082" lon="13.60405">
<ele>48</ele>
<time>2011-05-03T10:14:29Z</time>
</trkpt>
<trkpt lat="45.11078" lon="13.6041">
<ele>48</ele>
<time>2011-05-03T10:14:31Z</time>
</trkpt>
<trkpt lat="45.11075" lon="13.60416">
<ele>48</ele>
<time>2011-05-03T10:14:33Z</time>
</trkpt>
<trkpt lat="45.11071" lon="13.60422">
<ele>48</ele>
<time>2011-05-03T10:14:35Z</time>
</trkpt>
<trkpt lat="45.11067" lon="13.60428">
<ele>48</ele>
<time>2011-05-03T10:14:37Z</time>
</trkpt>
<trkpt lat="45.11063" lon="13.60434">
<ele>48</ele>
<time>2011-05-03T10:14:39Z</time>
</trkpt>
<trkpt lat="45.1106" lon="13.6044">
<ele>47</ele>
<time>2011-05-03T10:14:41Z</time>
</trkpt>
<trkpt lat="45.11056" lon="13.60446">
<ele>47</ele>
<time>2011-05-03T10:14:43Z</time>
</trkpt>
<trkpt lat="45.11052" lon="13.60452">
<ele>47</ele>
<time>2011-05-03T10:14:45Z</time>
</trkpt>
<trkpt lat="45.11048" lon="13.60458">
<ele>47</ele>
<time>2011-05-03T10:14:47Z</time>
</trkpt>
<trkpt lat="45.11045" lon="13.60464">
<ele>47</ele>
<time>2011-05-03T10:14:49Z</time>
</trkpt>
<trkpt lat="45.11041" lon="13.6047">
<ele>47</ele>
<time>2011-05-03T10:14:51Z</time>
</trkpt>
<trkpt lat="45.11037" lon="13.60476">
<ele>47</ele>
<time>2011-05-03T10:14:53Z</time>
</trkpt>
<trkpt lat="45.11033" lon="13.60482">
<ele>47</ele>
<time>2011-05-03T10:14:55Z</time>
</trkpt>
<trkpt lat="45.11029" lon="13.60488">
<ele>47</ele>
<time>2011-05-03T10:14:57Z</time>
</trkpt>
<trkpt lat="45.11026" lon="13.60494">
<ele>47</ele>
<time>2011-05-03T10:14:59Z</time>
</trkpt>
<trkpt lat="45.11022" lon="13.605">
<ele>47</ele>
<time>2011-05-03T10:15:01Z</time>
</trkpt>
<trkpt lat="45.11018" lon="13.60506">
<ele>47</ele>
<time>2011-05-03T10:15:03Z</time>
</trkpt>
<trkpt lat="45.11014" lon="13.60512">
<ele>47</ele>
<time>2011-05-03T10:15:05Z</time>
</trkpt>
<trkpt lat="45.1101" lon="13.60518">
<ele>47</ele>
<time>2011-05-03T10:15:07Z</time>
</trkpt>
<trkpt lat="45.11007" lon="13.60524">
<ele>47</ele>
<time>2011-05-03T10:15:09Z</time>
</trkpt>
<trkpt lat="45.11003" lon="13.6053">
<ele>47</ele>
<time>2011-05-03T10:15:11Z</time>
</trkpt>
<trkpt lat="45.10999" lon="13.60536">
<ele>47</ele>
<time>2011-05-03T10:15:13Z</time>
</trkpt>
<trkpt lat="45.10995" lon="13.60541">
<ele>47</ele>
<time>2011-05-03T10:15:15Z</time>
</trkpt>
<trkpt lat="45.10992" lon="13.60547">
<ele>47</ele>
<time>2011-05-03T10:15:17Z</time>
</trkpt>
<trkpt lat="45.10988" lon="13.60553">
<ele>47</ele>
<time>2011-05-03T10:15:19Z</time>
</trkpt>
<trkpt lat="45.10984" lon="13.60559">
<ele>47</ele>
<time>2011-05-03T10:15:21Z</time>
</trkpt>
<trkpt lat="45.1098" lon="13.60565">
<ele>47</ele>
<time>2011-05-03T10:15:23Z</time>
</trkpt>
<trkpt lat="45.10976" lon="13.6057">
<ele>47</ele>
<time>2011-05-03T10:15:25Z</time>
</trkpt>
<trkpt lat="45.10972" lon="13.60576">
<ele>47</ele>
<time>2011-05-03T10:15:27Z</time>
</trkpt>
<trkpt lat="45.10968" lon="13.60581">
<ele>47</ele>
<time>2011-05-03T10:15:29Z</time>
</trkpt>
<trkpt lat="45.10964" lon="13.60587">
<ele>47</ele>
<time>2011-05-03T10:15:31Z</time>
</trkpt>
<trkpt lat="45.1096" lon="13.60593">
<ele>47</ele>
<time>2011-05-03T10:15:33Z</time>
</trkpt>
<trkpt lat="45.10956" lon="13.60598">
<ele>47</ele>
<time>2011-05-03T10:15:35Z</time>
</trkpt>
<trkpt lat="45.10953" lon="13.60603">
<ele>47</ele>
<time>2011-05-03T10:15:37Z</time>
</trkpt>
<trkpt lat="45.10949" lon="13.60609">
<ele>47</ele>
<time>2011-05-03T10:15:39Z</time>
</trkpt>
<trkpt lat="45.10945" lon="13.60615">
<ele>47</ele>
<time>2011-05-03T10:15:41Z</time>
</trkpt>
<trkpt lat="45.10941" lon="13.6062">
<ele>47</ele>
<time>2011-05-03T10:15:43Z</time>
</trkpt>
<trkpt lat="45.10937" lon="13.60626">
<ele>47</ele>
<time>2011-05-03T10:15:45Z</time>
</trkpt>
<trkpt lat="45.10933" lon="13.60631">
<ele>47</ele>
<time>2011-05-03T10:15:47Z</time>
</trkpt>
<trkpt lat="45.10929" lon="13.60637">
<ele>47</ele>
<time>2011-05-03T10:15:49Z</time>
</trkpt>
<trkpt lat="45.10925" lon="13.60642">
<ele>47</ele>
<time>2011-05-03T10:15:51Z</time>
</trkpt>
<trkpt lat="45.10921" lon="13.60648">
<ele>47</ele>
<time>2011-05-03T10:15:53Z</time>
</trkpt>
<trkpt lat="45.10918" lon="13.60653">
<ele>47</ele>
<time>2011-05-03T10:15:55Z</time>
</trkpt>
<trkpt lat="45.10914" lon="13.60659">
<ele>47</ele>
<time>2011-05-03T10:15:57Z</time>
</trkpt>
<trkpt lat="45.1091" lon="13.60665">
<ele>47</ele>
<time>2011-05-03T10:15:59Z</time>
</trkpt>
<trkpt lat="45.10906" lon="13.60671">
<ele>47</ele>
<time>2011-05-03T10:16:01Z</time>
</trkpt>
<trkpt lat="45.10902" lon="13.60677">
<ele>47</ele>
<time>2011-05-03T10:16:03Z</time>
</trkpt>
<trkpt lat="45.10898" lon="13.60682">
<ele>47</ele>
<time>2011-05-03T10:16:05Z</time>
</trkpt>
<trkpt lat="45.10895" lon="13.60688">
<ele>47</ele>
<time>2011-05-03T10:16:07Z</time>
</trkpt>
<trkpt lat="45.10891" lon="13.60694">
<ele>47</ele>
<time>2011-05-03T10:16:09Z</time>
</trkpt>
<trkpt lat="45.10887" lon="13.607">
<ele>47</ele>
<time>2011-05-03T10:16:11Z</time>
</trkpt>
<trkpt lat="45.10883" lon="13.60706">
<ele>47</ele>
<time>2011-05-03T10:16:13Z</time>
</trkpt>
<trkpt lat="45.10879" lon="13.60712">
<ele>47</ele>
<time>2011-05-03T10:16:15Z</time>
</trkpt>
<trkpt lat="45.10875" lon="13.60717">
<ele>47</ele>
<time>2011-05-03T10:16:17Z</time>
</trkpt>
<trkpt lat="45.10872" lon="13.60723">
<ele>47</ele>
<time>2011-05-03T10:16:19Z</time>
</trkpt>
<trkpt lat="45.10868" lon="13.6073">
<ele>47</ele>
<time>2011-05-03T10:16:21Z</time>
</trkpt>
<trkpt lat="45.10864" lon="13.60736">
<ele>47</ele>
<time>2011-05-03T10:16:23Z</time>
</trkpt>
<trkpt lat="45.1086" lon="13.60741">
<ele>47</ele>
<time>2011-05-03T10:16:25Z</time>
</trkpt>
<trkpt lat="45.10856" lon="13.60747">
<ele>47</ele>
<time>2011-05-03T10:16:27Z</time>
</trkpt>
<trkpt lat="45.10853" lon="13.60753">
<ele>47</ele>
<time>2011-05-03T10:16:29Z</time>
</trkpt>
<trkpt lat="45.10849" lon="13.60758">
<ele>47</ele>
<time>2011-05-03T10:16:31Z</time>
</trkpt>
<trkpt lat="45.10845" lon="13.60764">
<ele>47</ele>
<time>2011-05-03T10:16:33Z</time>
</trkpt>
<trkpt lat="45.10842" lon="13.6077">
<ele>47</ele>
<time>2011-05-03T10:16:35Z</time>
</trkpt>
<trkpt lat="45.10838" lon="13.60776">
<ele>46</ele>
<time>2011-05-03T10:16:37Z</time>
</trkpt>
<trkpt lat="45.10835" lon="13.60783">
<ele>46</ele>
<time>2011-05-03T10:16:39Z</time>
</trkpt>
<trkpt lat="45.10831" lon="13.60789">
<ele>46</ele>
<time>2011-05-03T10:16:41Z</time>
</trkpt>
<trkpt lat="45.10828" lon="13.60796">
<ele>46</ele>
<time>2011-05-03T10:16:43Z</time>
</trkpt>
<trkpt lat="45.10824" lon="13.60802">
<ele>46</ele>
<time>2011-05-03T10:16:45Z</time>
</trkpt>
<trkpt lat="45.10821" lon="13.60807">
<ele>46</ele>
<time>2011-05-03T10:16:47Z</time>
</trkpt>
<trkpt lat="45.10817" lon="13.60813">
<ele>46</ele>
<time>2011-05-03T10:16:49Z</time>
</trkpt>
<trkpt lat="45.10814" lon="13.60819">
<ele>46</ele>
<time>2011-05-03T10:16:51Z</time>
</trkpt>
<trkpt lat="45.1081" lon="13.60824">
<ele>46</ele>
<time>2011-05-03T10:16:53Z</time>
</trkpt>
<trkpt lat="45.10806" lon="13.6083">
<ele>46</ele>
<time>2011-05-03T10:16:55Z</time>
</trkpt>
<trkpt lat="45.10802" lon="13.60836">
<ele>46</ele>
<time>2011-05-03T10:16:57Z</time>
</trkpt>
<trkpt lat="45.10799" lon="13.60842">
<ele>46</ele>
<time>2011-05-03T10:16:59Z</time>
</trkpt>
<trkpt lat="45.10795" lon="13.60848">
<ele>46</ele>
<time>2011-05-03T10:17:01Z</time>
</trkpt>
<trkpt lat="45.10791" lon="13.60854">
<ele>46</ele>
<time>2011-05-03T10:17:03Z</time>
</trkpt>
<trkpt lat="45.10787" lon="13.6086">
<ele>46</ele>
<time>2011-05-03T10:17:05Z</time>
</trkpt>
<trkpt lat="45.10783" lon="13.60866">
<ele>46</ele>
<time>2011-05-03T10:17:07Z</time>
</trkpt>
<trkpt lat="45.10779" lon="13.60872">
<ele>46</ele>
<time>2011-05-03T10:17:09Z</time>
</trkpt>
<trkpt lat="45.10776" lon="13.60877">
<ele>46</ele>
<time>2011-05-03T10:17:11Z</time>
</trkpt>
<trkpt lat="45.10772" lon="13.60883">
<ele>46</ele>
<time>2011-05-03T10:17:13Z</time>
</trkpt>
<trkpt lat="45.10768" lon="13.60889">
<ele>46</ele>
<time>2011-05-03T10:17:15Z</time>
</trkpt>
<trkpt lat="45.10764" lon="13.60895">
<ele>46</ele>
<time>2011-05-03T10:17:17Z</time>
</trkpt>
<trkpt lat="45.1076" lon="13.609">
<ele>46</ele>
<time>2011-05-03T10:17:19Z</time>
</trkpt>
<trkpt lat="45.10756" lon="13.60906">
<ele>46</ele>
<time>2011-05-03T10:17:21Z</time>
</trkpt>
<trkpt lat="45.10752" lon="13.60912">
<ele>46</ele>
<time>2011-05-03T10:17:23Z</time>
</trkpt>
<trkpt lat="45.10748" lon="13.60917">
<ele>46</ele>
<time>2011-05-03T10:17:25Z</time>
</trkpt>
<trkpt lat="45.10744" lon="13.60923">
<ele>46</ele>
<time>2011-05-03T10:17:27Z</time>
</trkpt>
<trkpt lat="45.1074" lon="13.60928">
<ele>46</ele>
<time>2011-05-03T10:17:29Z</time>
</trkpt>
<trkpt lat="45.10736" lon="13.60934">
<ele>46</ele>
<time>2011-05-03T10:17:31Z</time>
</trkpt>
<trkpt lat="45.10731" lon="13.60939">
<ele>46</ele>
<time>2011-05-03T10:17:33Z</time>
</trkpt>
<trkpt lat="45.10727" lon="13.60944">
<ele>46</ele>
<time>2011-05-03T10:17:35Z</time>
</trkpt>
<trkpt lat="45.10723" lon="13.6095">
<ele>46</ele>
<time>2011-05-03T10:17:37Z</time>
</trkpt>
<trkpt lat="45.10719" lon="13.60956">
<ele>46</ele>
<time>2011-05-03T10:17:39Z</time>
</trkpt>
<trkpt lat="45.10714" lon="13.60962">
<ele>46</ele>
<time>2011-05-03T10:17:41Z</time>
</trkpt>
<trkpt lat="45.1071" lon="13.60967">
<ele>46</ele>
<time>2011-05-03T10:17:43Z</time>
</trkpt>
<trkpt lat="45.10706" lon="13.60973">
<ele>46</ele>
<time>2011-05-03T10:17:45Z</time>
</trkpt>
<trkpt lat="45.10702" lon="13.60979">
<ele>46</ele>
<time>2011-05-03T10:17:47Z</time>
</trkpt>
<trkpt lat="45.10698" lon="13.60984">
<ele>46</ele>
<time>2011-05-03T10:17:49Z</time>
</trkpt>
<trkpt lat="45.10694" lon="13.6099">
<ele>46</ele>
<time>2011-05-03T10:17:51Z</time>
</trkpt>
<trkpt lat="45.1069" lon="13.60996">
<ele>46</ele>
<time>2011-05-03T10:17:53Z</time>
</trkpt>
<trkpt lat="45.10686" lon="13.61001">
<ele>46</ele>
<time>2011-05-03T10:17:55Z</time>
</trkpt>
<trkpt lat="45.10682" lon="13.61007">
<ele>46</ele>
<time>2011-05-03T10:17:57Z</time>
</trkpt>
<trkpt lat="45.10678" lon="13.61012">
<ele>46</ele>
<time>2011-05-03T10:17:59Z</time>
</trkpt>
<trkpt lat="45.10674" lon="13.61017">
<ele>46</ele>
<time>2011-05-03T10:18:01Z</time>
</trkpt>
<trkpt lat="45.10669" lon="13.61022">
<ele>46</ele>
<time>2011-05-03T10:18:03Z</time>
</trkpt>
<trkpt lat="45.10665" lon="13.61028">
<ele>46</ele>
<time>2011-05-03T10:18:05Z</time>
</trkpt>
<trkpt lat="45.10661" lon="13.61033">
<ele>46</ele>
<time>2011-05-03T10:18:07Z</time>
</trkpt>
<trkpt lat="45.10657" lon="13.61039">
<ele>46</ele>
<time>2011-05-03T10:18:09Z</time>
</trkpt>
<trkpt lat="45.10653" lon="13.61044">
<ele>46</ele>
<time>2011-05-03T10:18:11Z</time>
</trkpt>
<trkpt lat="45.10648" lon="13.6105">
<ele>46</ele>
<time>2011-05-03T10:18:13Z</time>
</trkpt>
<trkpt lat="45.10644" lon="13.61055">
<ele>46</ele>
<time>2011-05-03T10:18:15Z</time>
</trkpt>
<trkpt lat="45.10641" lon="13.61061">
<ele>46</ele>
<time>2011-05-03T10:18:17Z</time>
</trkpt>
<trkpt lat="45.10637" lon="13.61067">
<ele>46</ele>
<time>2011-05-03T10:18:19Z</time>
</trkpt>
<trkpt lat="45.10633" lon="13.61072">
<ele>46</ele>
<time>2011-05-03T10:18:21Z</time>
</trkpt>
<trkpt lat="45.10629" lon="13.61078">
<ele>46</ele>
<time>2011-05-03T10:18:23Z</time>
</trkpt>
<trkpt lat="45.10625" lon="13.61084">
<ele>46</ele>
<time>2011-05-03T10:18:25Z</time>
</trkpt>
<trkpt lat="45.10621" lon="13.61089">
<ele>46</ele>
<time>2011-05-03T10:18:27Z</time>
</trkpt>
<trkpt lat="45.10617" lon="13.61095">
<ele>46</ele>
<time>2011-05-03T10:18:29Z</time>
</trkpt>
<trkpt lat="45.10613" lon="13.611">
<ele>46</ele>
<time>2011-05-03T10:18:31Z</time>
</trkpt>
<trkpt lat="45.1061" lon="13.61106">
<ele>46</ele>
<time>2011-05-03T10:18:33Z</time>
</trkpt>
<trkpt lat="45.10606" lon="13.61111">
<ele>46</ele>
<time>2011-05-03T10:18:35Z</time>
</trkpt>
<trkpt lat="45.10602" lon="13.61117">
<ele>46</ele>
<time>2011-05-03T10:18:37Z</time>
</trkpt>
<trkpt lat="45.10598" lon="13.61122">
<ele>46</ele>
<time>2011-05-03T10:18:39Z</time>
</trkpt>
<trkpt lat="45.10594" lon="13.61128">
<ele>46</ele>
<time>2011-05-03T10:18:41Z</time>
</trkpt>
<trkpt lat="45.1059" lon="13.61133">
<ele>46</ele>
<time>2011-05-03T10:18:43Z</time>
</trkpt>
<trkpt lat="45.10586" lon="13.61139">
<ele>46</ele>
<time>2011-05-03T10:18:45Z</time>
</trkpt>
<trkpt lat="45.10582" lon="13.61145">
<ele>46</ele>
<time>2011-05-03T10:18:47Z</time>
</trkpt>
<trkpt lat="45.10578" lon="13.6115">
<ele>46</ele>
<time>2011-05-03T10:18:49Z</time>
</trkpt>
<trkpt lat="45.10573" lon="13.61156">
<ele>46</ele>
<time>2011-05-03T10:18:51Z</time>
</trkpt>
<trkpt lat="45.10569" lon="13.61161">
<ele>46</ele>
<time>2011-05-03T10:18:53Z</time>
</trkpt>
<trkpt lat="45.10565" lon="13.61166">
<ele>46</ele>
<time>2011-05-03T10:18:55Z</time>
</trkpt>
<trkpt lat="45.10561" lon="13.61172">
<ele>46</ele>
<time>2011-05-03T10:18:57Z</time>
</trkpt>
<trkpt lat="45.10557" lon="13.61178">
<ele>46</ele>
<time>2011-05-03T10:18:59Z</time>
</trkpt>
<trkpt lat="45.10553" lon="13.61183">
<ele>46</ele>
<time>2011-05-03T10:19:01Z</time>
</trkpt>
<trkpt lat="45.10549" lon="13.61188">
<ele>46</ele>
<time>2011-05-03T10:19:03Z</time>
</trkpt>
<trkpt lat="45.10545" lon="13.61194">
<ele>46</ele>
<time>2011-05-03T10:19:05Z</time>
</trkpt>
<trkpt lat="45.10542" lon="13.612">
<ele>46</ele>
<time>2011-05-03T10:19:07Z</time>
</trkpt>
<trkpt lat="45.10538" lon="13.61205">
<ele>46</ele>
<time>2011-05-03T10:19:09Z</time>
</trkpt>
<trkpt lat="45.10534" lon="13.61211">
<ele>46</ele>
<time>2011-05-03T10:19:11Z</time>
</trkpt>
<trkpt lat="45.1053" lon="13.61217">
<ele>46</ele>
<time>2011-05-03T10:19:13Z</time>
</trkpt>
<trkpt lat="45.10526" lon="13.61222">
<ele>46</ele>
<time>2011-05-03T10:19:15Z</time>
</trkpt>
<trkpt lat="45.10522" lon="13.61228">
<ele>46</ele>
<time>2011-05-03T10:19:17Z</time>
</trkpt>
<trkpt lat="45.10518" lon="13.61233">
<ele>46</ele>
<time>2011-05-03T10:19:19Z</time>
</trkpt>
<trkpt lat="45.10514" lon="13.61238">
<ele>46</ele>
<time>2011-05-03T10:19:21Z</time>
</trkpt>
<trkpt lat="45.1051" lon="13.61244">
<ele>46</ele>
<time>2011-05-03T10:19:23Z</time>
</trkpt>
<trkpt lat="45.10506" lon="13.61249">
<ele>46</ele>
<time>2011-05-03T10:19:25Z</time>
</trkpt>
<trkpt lat="45.10501" lon="13.61254">
<ele>46</ele>
<time>2011-05-03T10:19:27Z</time>
</trkpt>
<trkpt lat="45.10497" lon="13.61259">
<ele>46</ele>
<time>2011-05-03T10:19:29Z</time>
</trkpt>
<trkpt lat="45.10492" lon="13.61264">
<ele>46</ele>
<time>2011-05-03T10:19:31Z</time>
</trkpt>
<trkpt lat="45.10487" lon="13.61269">
<ele>46</ele>
<time>2011-05-03T10:19:33Z</time>
</trkpt>
<trkpt lat="45.10483" lon="13.61274">
<ele>46</ele>
<time>2011-05-03T10:19:35Z</time>
</trkpt>
<trkpt lat="45.10478" lon="13.61278">
<ele>46</ele>
<time>2011-05-03T10:19:37Z</time>
</trkpt>
<trkpt lat="45.10473" lon="13.61283">
<ele>46</ele>
<time>2011-05-03T10:19:39Z</time>
</trkpt>
<trkpt lat="45.10469" lon="13.61288">
<ele>46</ele>
<time>2011-05-03T10:19:41Z</time>
</trkpt>
<trkpt lat="45.10464" lon="13.61293">
<ele>46</ele>
<time>2011-05-03T10:19:43Z</time>
</trkpt>
<trkpt lat="45.1046" lon="13.61298">
<ele>46</ele>
<time>2011-05-03T10:19:45Z</time>
</trkpt>
<trkpt lat="45.10456" lon="13.61303">
<ele>46</ele>
<time>2011-05-03T10:19:47Z</time>
</trkpt>
<trkpt lat="45.10451" lon="13.61308">
<ele>46</ele>
<time>2011-05-03T10:19:49Z</time>
</trkpt>
<trkpt lat="45.10447" lon="13.61313">
<ele>46</ele>
<time>2011-05-03T10:19:51Z</time>
</trkpt>
<trkpt lat="45.10442" lon="13.61318">
<ele>46</ele>
<time>2011-05-03T10:19:53Z</time>
</trkpt>
<trkpt lat="45.10438" lon="13.61322">
<ele>46</ele>
<time>2011-05-03T10:19:55Z</time>
</trkpt>
<trkpt lat="45.10433" lon="13.61327">
<ele>46</ele>
<time>2011-05-03T10:19:57Z</time>
</trkpt>
<trkpt lat="45.10429" lon="13.61331">
<ele>46</ele>
<time>2011-05-03T10:19:59Z</time>
</trkpt>
<trkpt lat="45.10425" lon="13.61336">
<ele>46</ele>
<time>2011-05-03T10:20:01Z</time>
</trkpt>
<trkpt lat="45.10421" lon="13.6134">
<ele>46</ele>
<time>2011-05-03T10:20:03Z</time>
</trkpt>
<trkpt lat="45.10417" lon="13.61344">
<ele>46</ele>
<time>2011-05-03T10:20:05Z</time>
</trkpt>
<trkpt lat="45.10413" lon="13.61351">
<ele>46</ele>
<time>2011-05-03T10:20:08Z</time>
</trkpt>
<trkpt lat="45.10409" lon="13.61357">
<ele>46</ele>
<time>2011-05-03T10:20:11Z</time>
</trkpt>
<trkpt lat="45.10405" lon="13.61363">
<ele>46</ele>
<time>2011-05-03T10:20:14Z</time>
</trkpt>
<trkpt lat="45.10401" lon="13.61369">
<ele>46</ele>
<time>2011-05-03T10:20:17Z</time>
</trkpt>
<trkpt lat="45.10397" lon="13.61375">
<ele>46</ele>
<time>2011-05-03T10:20:20Z</time>
</trkpt>
<trkpt lat="45.10393" lon="13.61381">
<ele>46</ele>
<time>2011-05-03T10:20:23Z</time>
</trkpt>
<trkpt lat="45.10388" lon="13.61387">
<ele>46</ele>
<time>2011-05-03T10:20:26Z</time>
</trkpt>
<trkpt lat="45.10384" lon="13.61393">
<ele>46</ele>
<time>2011-05-03T10:20:29Z</time>
</trkpt>
<trkpt lat="45.1038" lon="13.61399">
<ele>46</ele>
<time>2011-05-03T10:20:32Z</time>
</trkpt>
<trkpt lat="45.10376" lon="13.61406">
<ele>46</ele>
<time>2011-05-03T10:20:35Z</time>
</trkpt>
<trkpt lat="45.10373" lon="13.61412">
<ele>46</ele>
<time>2011-05-03T10:20:38Z</time>
</trkpt>
<trkpt lat="45.1037" lon="13.61419">
<ele>46</ele>
<time>2011-05-03T10:20:41Z</time>
</trkpt>
<trkpt lat="45.10367" lon="13.61425">
<ele>46</ele>
<time>2011-05-03T10:20:44Z</time>
</trkpt>
<trkpt lat="45.10364" lon="13.61432">
<ele>46</ele>
<time>2011-05-03T10:20:47Z</time>
</trkpt>
<trkpt lat="45.10362" lon="13.61438">
<ele>46</ele>
<time>2011-05-03T10:20:50Z</time>
</trkpt>
<trkpt lat="45.10359" lon="13.61445">
<ele>46</ele>
<time>2011-05-03T10:20:53Z</time>
</trkpt>
<trkpt lat="45.10357" lon="13.61452">
<ele>46</ele>
<time>2011-05-03T10:20:56Z</time>
</trkpt>
<trkpt lat="45.10354" lon="13.61459">
<ele>46</ele>
<time>2011-05-03T10:20:59Z</time>
</trkpt>
<trkpt lat="45.1035" lon="13.61467">
<ele>46</ele>
<time>2011-05-03T10:21:02Z</time>
</trkpt>
<trkpt lat="45.10348" lon="13.61473">
<ele>46</ele>
<time>2011-05-03T10:21:04Z</time>
</trkpt>
<trkpt lat="45.10345" lon="13.61478">
<ele>46</ele>
<time>2011-05-03T10:21:06Z</time>
</trkpt>
<trkpt lat="45.10342" lon="13.61484">
<ele>46</ele>
<time>2011-05-03T10:21:08Z</time>
</trkpt>
<trkpt lat="45.10339" lon="13.6149">
<ele>46</ele>
<time>2011-05-03T10:21:10Z</time>
</trkpt>
<trkpt lat="45.10337" lon="13.61495">
<ele>46</ele>
<time>2011-05-03T10:21:12Z</time>
</trkpt>
<trkpt lat="45.10334" lon="13.61501">
<ele>46</ele>
<time>2011-05-03T10:21:14Z</time>
</trkpt>
<trkpt lat="45.1033" lon="13.61506">
<ele>46</ele>
<time>2011-05-03T10:21:16Z</time>
</trkpt>
<trkpt lat="45.10327" lon="13.61512">
<ele>46</ele>
<time>2011-05-03T10:21:18Z</time>
</trkpt>
<trkpt lat="45.10324" lon="13.61517">
<ele>46</ele>
<time>2011-05-03T10:21:20Z</time>
</trkpt>
<trkpt lat="45.1032" lon="13.61522">
<ele>47</ele>
<time>2011-05-03T10:21:22Z</time>
</trkpt>
<trkpt lat="45.10316" lon="13.61527">
<ele>47</ele>
<time>2011-05-03T10:21:24Z</time>
</trkpt>
<trkpt lat="45.10312" lon="13.61532">
<ele>47</ele>
<time>2011-05-03T10:21:26Z</time>
</trkpt>
<trkpt lat="45.10308" lon="13.61537">
<ele>47</ele>
<time>2011-05-03T10:21:28Z</time>
</trkpt>
<trkpt lat="45.10304" lon="13.61542">
<ele>47</ele>
<time>2011-05-03T10:21:30Z</time>
</trkpt>
<trkpt lat="45.10299" lon="13.61547">
<ele>47</ele>
<time>2011-05-03T10:21:32Z</time>
</trkpt>
<trkpt lat="45.10295" lon="13.61553">
<ele>47</ele>
<time>2011-05-03T10:21:34Z</time>
</trkpt>
<trkpt lat="45.10291" lon="13.61558">
<ele>47</ele>
<time>2011-05-03T10:21:36Z</time>
</trkpt>
<trkpt lat="45.10286" lon="13.61563">
<ele>47</ele>
<time>2011-05-03T10:21:38Z</time>
</trkpt>
<trkpt lat="45.10282" lon="13.61568">
<ele>47</ele>
<time>2011-05-03T10:21:40Z</time>
</trkpt>
<trkpt lat="45.10277" lon="13.61573">
<ele>47</ele>
<time>2011-05-03T10:21:42Z</time>
</trkpt>
<trkpt lat="45.10273" lon="13.61578">
<ele>47</ele>
<time>2011-05-03T10:21:44Z</time>
</trkpt>
<trkpt lat="45.10269" lon="13.61584">
<ele>47</ele>
<time>2011-05-03T10:21:46Z</time>
</trkpt>
<trkpt lat="45.10264" lon="13.61589">
<ele>47</ele>
<time>2011-05-03T10:21:48Z</time>
</trkpt>
<trkpt lat="45.1026" lon="13.61594">
<ele>47</ele>
<time>2011-05-03T10:21:50Z</time>
</trkpt>
<trkpt lat="45.10255" lon="13.61599">
<ele>47</ele>
<time>2011-05-03T10:21:52Z</time>
</trkpt>
<trkpt lat="45.10251" lon="13.61604">
<ele>47</ele>
<time>2011-05-03T10:21:54Z</time>
</trkpt>
<trkpt lat="45.10246" lon="13.61609">
<ele>47</ele>
<time>2011-05-03T10:21:56Z</time>
</trkpt>
<trkpt lat="45.10242" lon="13.61614">
<ele>47</ele>
<time>2011-05-03T10:21:58Z</time>
</trkpt>
<trkpt lat="45.10238" lon="13.6162">
<ele>47</ele>
<time>2011-05-03T10:22:00Z</time>
</trkpt>
<trkpt lat="45.10234" lon="13.61625">
<ele>47</ele>
<time>2011-05-03T10:22:02Z</time>
</trkpt>
<trkpt lat="45.1023" lon="13.61629">
<ele>47</ele>
<time>2011-05-03T10:22:04Z</time>
</trkpt>
<trkpt lat="45.10225" lon="13.61634">
<ele>47</ele>
<time>2011-05-03T10:22:06Z</time>
</trkpt>
<trkpt lat="45.10221" lon="13.61639">
<ele>47</ele>
<time>2011-05-03T10:22:08Z</time>
</trkpt>
<trkpt lat="45.10217" lon="13.61644">
<ele>47</ele>
<time>2011-05-03T10:22:10Z</time>
</trkpt>
<trkpt lat="45.10212" lon="13.6165">
<ele>47</ele>
<time>2011-05-03T10:22:12Z</time>
</trkpt>
<trkpt lat="45.10208" lon="13.61655">
<ele>47</ele>
<time>2011-05-03T10:22:14Z</time>
</trkpt>
<trkpt lat="45.10204" lon="13.6166">
<ele>47</ele>
<time>2011-05-03T10:22:16Z</time>
</trkpt>
<trkpt lat="45.102" lon="13.61665">
<ele>47</ele>
<time>2011-05-03T10:22:18Z</time>
</trkpt>
<trkpt lat="45.10195" lon="13.6167">
<ele>47</ele>
<time>2011-05-03T10:22:20Z</time>
</trkpt>
<trkpt lat="45.10191" lon="13.61676">
<ele>47</ele>
<time>2011-05-03T10:22:22Z</time>
</trkpt>
<trkpt lat="45.10187" lon="13.61681">
<ele>47</ele>
<time>2011-05-03T10:22:24Z</time>
</trkpt>
<trkpt lat="45.10182" lon="13.61686">
<ele>47</ele>
<time>2011-05-03T10:22:26Z</time>
</trkpt>
<trkpt lat="45.10178" lon="13.61691">
<ele>47</ele>
<time>2011-05-03T10:22:28Z</time>
</trkpt>
<trkpt lat="45.10174" lon="13.61696">
<ele>47</ele>
<time>2011-05-03T10:22:30Z</time>
</trkpt>
<trkpt lat="45.1017" lon="13.61701">
<ele>47</ele>
<time>2011-05-03T10:22:32Z</time>
</trkpt>
<trkpt lat="45.10165" lon="13.61706">
<ele>47</ele>
<time>2011-05-03T10:22:34Z</time>
</trkpt>
<trkpt lat="45.10161" lon="13.61711">
<ele>47</ele>
<time>2011-05-03T10:22:36Z</time>
</trkpt>
<trkpt lat="45.10157" lon="13.61717">
<ele>46</ele>
<time>2011-05-03T10:22:38Z</time>
</trkpt>
<trkpt lat="45.10153" lon="13.61722">
<ele>46</ele>
<time>2011-05-03T10:22:40Z</time>
</trkpt>
<trkpt lat="45.10148" lon="13.61728">
<ele>46</ele>
<time>2011-05-03T10:22:42Z</time>
</trkpt>
<trkpt lat="45.10144" lon="13.61733">
<ele>46</ele>
<time>2011-05-03T10:22:44Z</time>
</trkpt>
<trkpt lat="45.1014" lon="13.61738">
<ele>46</ele>
<time>2011-05-03T10:22:46Z</time>
</trkpt>
<trkpt lat="45.10135" lon="13.61744">
<ele>46</ele>
<time>2011-05-03T10:22:48Z</time>
</trkpt>
<trkpt lat="45.10131" lon="13.61749">
<ele>46</ele>
<time>2011-05-03T10:22:50Z</time>
</trkpt>
<trkpt lat="45.10127" lon="13.61754">
<ele>46</ele>
<time>2011-05-03T10:22:52Z</time>
</trkpt>
<trkpt lat="45.10122" lon="13.6176">
<ele>46</ele>
<time>2011-05-03T10:22:54Z</time>
</trkpt>
<trkpt lat="45.10118" lon="13.61765">
<ele>46</ele>
<time>2011-05-03T10:22:56Z</time>
</trkpt>
<trkpt lat="45.10114" lon="13.6177">
<ele>46</ele>
<time>2011-05-03T10:22:58Z</time>
</trkpt>
<trkpt lat="45.10109" lon="13.61775">
<ele>46</ele>
<time>2011-05-03T10:23:00Z</time>
</trkpt>
<trkpt lat="45.10105" lon="13.6178">
<ele>46</ele>
<time>2011-05-03T10:23:02Z</time>
</trkpt>
<trkpt lat="45.101" lon="13.61785">
<ele>46</ele>
<time>2011-05-03T10:23:04Z</time>
</trkpt>
<trkpt lat="45.10096" lon="13.6179">
<ele>46</ele>
<time>2011-05-03T10:23:06Z</time>
</trkpt>
<trkpt lat="45.10092" lon="13.61795">
<ele>46</ele>
<time>2011-05-03T10:23:08Z</time>
</trkpt>
<trkpt lat="45.10087" lon="13.618">
<ele>46</ele>
<time>2011-05-03T10:23:10Z</time>
</trkpt>
<trkpt lat="45.10083" lon="13.61806">
<ele>46</ele>
<time>2011-05-03T10:23:12Z</time>
</trkpt>
<trkpt lat="45.10078" lon="13.61811">
<ele>46</ele>
<time>2011-05-03T10:23:14Z</time>
</trkpt>
<trkpt lat="45.10074" lon="13.61816">
<ele>46</ele>
<time>2011-05-03T10:23:16Z</time>
</trkpt>
<trkpt lat="45.1007" lon="13.61821">
<ele>46</ele>
<time>2011-05-03T10:23:18Z</time>
</trkpt>
<trkpt lat="45.10065" lon="13.61827">
<ele>46</ele>
<time>2011-05-03T10:23:20Z</time>
</trkpt>
<trkpt lat="45.10061" lon="13.61832">
<ele>46</ele>
<time>2011-05-03T10:23:22Z</time>
</trkpt>
<trkpt lat="45.10057" lon="13.61837">
<ele>46</ele>
<time>2011-05-03T10:23:24Z</time>
</trkpt>
<trkpt lat="45.10052" lon="13.61843">
<ele>46</ele>
<time>2011-05-03T10:23:26Z</time>
</trkpt>
<trkpt lat="45.10048" lon="13.61848">
<ele>46</ele>
<time>2011-05-03T10:23:28Z</time>
</trkpt>
<trkpt lat="45.10044" lon="13.61853">
<ele>46</ele>
<time>2011-05-03T10:23:30Z</time>
</trkpt>
<trkpt lat="45.10039" lon="13.61859">
<ele>46</ele>
<time>2011-05-03T10:23:32Z</time>
</trkpt>
<trkpt lat="45.10035" lon="13.61864">
<ele>45</ele>
<time>2011-05-03T10:23:34Z</time>
</trkpt>
<trkpt lat="45.1003" lon="13.61869">
<ele>45</ele>
<time>2011-05-03T10:23:36Z</time>
</trkpt>
<trkpt lat="45.10026" lon="13.61874">
<ele>45</ele>
<time>2011-05-03T10:23:38Z</time>
</trkpt>
<trkpt lat="45.10022" lon="13.6188">
<ele>45</ele>
<time>2011-05-03T10:23:40Z</time>
</trkpt>
<trkpt lat="45.10017" lon="13.61885">
<ele>45</ele>
<time>2011-05-03T10:23:42Z</time>
</trkpt>
<trkpt lat="45.10013" lon="13.61891">
<ele>45</ele>
<time>2011-05-03T10:23:44Z</time>
</trkpt>
<trkpt lat="45.10009" lon="13.61896">
<ele>45</ele>
<time>2011-05-03T10:23:46Z</time>
</trkpt>
<trkpt lat="45.10005" lon="13.61902">
<ele>45</ele>
<time>2011-05-03T10:23:48Z</time>
</trkpt>
<trkpt lat="45.10001" lon="13.61907">
<ele>45</ele>
<time>2011-05-03T10:23:50Z</time>
</trkpt>
<trkpt lat="45.09996" lon="13.61912">
<ele>45</ele>
<time>2011-05-03T10:23:52Z</time>
</trkpt>
<trkpt lat="45.09992" lon="13.61917">
<ele>45</ele>
<time>2011-05-03T10:23:54Z</time>
</trkpt>
<trkpt lat="45.09988" lon="13.61923">
<ele>45</ele>
<time>2011-05-03T10:23:56Z</time>
</trkpt>
<trkpt lat="45.09984" lon="13.61929">
<ele>45</ele>
<time>2011-05-03T10:23:58Z</time>
</trkpt>
<trkpt lat="45.0998" lon="13.61934">
<ele>45</ele>
<time>2011-05-03T10:24:00Z</time>
</trkpt>
<trkpt lat="45.09975" lon="13.6194">
<ele>45</ele>
<time>2011-05-03T10:24:02Z</time>
</trkpt>
<trkpt lat="45.09971" lon="13.61945">
<ele>45</ele>
<time>2011-05-03T10:24:04Z</time>
</trkpt>
<trkpt lat="45.09966" lon="13.6195">
<ele>45</ele>
<time>2011-05-03T10:24:06Z</time>
</trkpt>
<trkpt lat="45.09962" lon="13.61955">
<ele>45</ele>
<time>2011-05-03T10:24:08Z</time>
</trkpt>
<trkpt lat="45.09957" lon="13.6196">
<ele>45</ele>
<time>2011-05-03T10:24:10Z</time>
</trkpt>
<trkpt lat="45.09953" lon="13.61965">
<ele>45</ele>
<time>2011-05-03T10:24:12Z</time>
</trkpt>
<trkpt lat="45.09948" lon="13.6197">
<ele>45</ele>
<time>2011-05-03T10:24:14Z</time>
</trkpt>
<trkpt lat="45.09944" lon="13.61974">
<ele>45</ele>
<time>2011-05-03T10:24:16Z</time>
</trkpt>
<trkpt lat="45.09939" lon="13.6198">
<ele>45</ele>
<time>2011-05-03T10:24:18Z</time>
</trkpt>
<trkpt lat="45.09935" lon="13.61985">
<ele>45</ele>
<time>2011-05-03T10:24:20Z</time>
</trkpt>
<trkpt lat="45.09931" lon="13.6199">
<ele>45</ele>
<time>2011-05-03T10:24:22Z</time>
</trkpt>
<trkpt lat="45.09927" lon="13.61995">
<ele>45</ele>
<time>2011-05-03T10:24:24Z</time>
</trkpt>
<trkpt lat="45.09922" lon="13.62">
<ele>45</ele>
<time>2011-05-03T10:24:26Z</time>
</trkpt>
<trkpt lat="45.09918" lon="13.62005">
<ele>45</ele>
<time>2011-05-03T10:24:28Z</time>
</trkpt>
<trkpt lat="45.09914" lon="13.6201">
<ele>45</ele>
<time>2011-05-03T10:24:30Z</time>
</trkpt>
<trkpt lat="45.09909" lon="13.62016">
<ele>45</ele>
<time>2011-05-03T10:24:32Z</time>
</trkpt>
<trkpt lat="45.09905" lon="13.62021">
<ele>45</ele>
<time>2011-05-03T10:24:34Z</time>
</trkpt>
<trkpt lat="45.099" lon="13.62026">
<ele>45</ele>
<time>2011-05-03T10:24:36Z</time>
</trkpt>
<trkpt lat="45.09896" lon="13.62031">
<ele>45</ele>
<time>2011-05-03T10:24:38Z</time>
</trkpt>
<trkpt lat="45.09892" lon="13.62036">
<ele>45</ele>
<time>2011-05-03T10:24:40Z</time>
</trkpt>
<trkpt lat="45.09887" lon="13.62042">
<ele>45</ele>
<time>2011-05-03T10:24:42Z</time>
</trkpt>
<trkpt lat="45.09883" lon="13.62047">
<ele>45</ele>
<time>2011-05-03T10:24:44Z</time>
</trkpt>
<trkpt lat="45.09878" lon="13.62052">
<ele>45</ele>
<time>2011-05-03T10:24:46Z</time>
</trkpt>
<trkpt lat="45.09874" lon="13.62058">
<ele>45</ele>
<time>2011-05-03T10:24:48Z</time>
</trkpt>
<trkpt lat="45.0987" lon="13.62063">
<ele>45</ele>
<time>2011-05-03T10:24:50Z</time>
</trkpt>
<trkpt lat="45.09865" lon="13.62069">
<ele>45</ele>
<time>2011-05-03T10:24:52Z</time>
</trkpt>
<trkpt lat="45.09861" lon="13.62074">
<ele>45</ele>
<time>2011-05-03T10:24:54Z</time>
</trkpt>
<trkpt lat="45.09856" lon="13.6208">
<ele>45</ele>
<time>2011-05-03T10:24:56Z</time>
</trkpt>
<trkpt lat="45.09852" lon="13.62085">
<ele>45</ele>
<time>2011-05-03T10:24:58Z</time>
</trkpt>
<trkpt lat="45.09848" lon="13.62091">
<ele>45</ele>
<time>2011-05-03T10:25:00Z</time>
</trkpt>
<trkpt lat="45.09844" lon="13.62096">
<ele>45</ele>
<time>2011-05-03T10:25:02Z</time>
</trkpt>
<trkpt lat="45.0984" lon="13.62102">
<ele>45</ele>
<time>2011-05-03T10:25:04Z</time>
</trkpt>
<trkpt lat="45.09835" lon="13.62108">
<ele>45</ele>
<time>2011-05-03T10:25:06Z</time>
</trkpt>
<trkpt lat="45.09831" lon="13.62113">
<ele>45</ele>
<time>2011-05-03T10:25:08Z</time>
</trkpt>
<trkpt lat="45.09827" lon="13.62119">
<ele>45</ele>
<time>2011-05-03T10:25:10Z</time>
</trkpt>
<trkpt lat="45.09823" lon="13.62125">
<ele>45</ele>
<time>2011-05-03T10:25:12Z</time>
</trkpt>
<trkpt lat="45.09819" lon="13.6213">
<ele>45</ele>
<time>2011-05-03T10:25:14Z</time>
</trkpt>
<trkpt lat="45.09815" lon="13.62136">
<ele>45</ele>
<time>2011-05-03T10:25:16Z</time>
</trkpt>
<trkpt lat="45.0981" lon="13.62142">
<ele>45</ele>
<time>2011-05-03T10:25:18Z</time>
</trkpt>
<trkpt lat="45.09806" lon="13.62148">
<ele>45</ele>
<time>2011-05-03T10:25:20Z</time>
</trkpt>
<trkpt lat="45.09802" lon="13.62153">
<ele>45</ele>
<time>2011-05-03T10:25:22Z</time>
</trkpt>
<trkpt lat="45.09798" lon="13.62159">
<ele>45</ele>
<time>2011-05-03T10:25:24Z</time>
</trkpt>
<trkpt lat="45.09794" lon="13.62164">
<ele>45</ele>
<time>2011-05-03T10:25:26Z</time>
</trkpt>
<trkpt lat="45.09789" lon="13.62169">
<ele>45</ele>
<time>2011-05-03T10:25:28Z</time>
</trkpt>
<trkpt lat="45.09784" lon="13.62174">
<ele>45</ele>
<time>2011-05-03T10:25:30Z</time>
</trkpt>
<trkpt lat="45.0978" lon="13.6218">
<ele>45</ele>
<time>2011-05-03T10:25:32Z</time>
</trkpt>
<trkpt lat="45.09776" lon="13.62185">
<ele>45</ele>
<time>2011-05-03T10:25:34Z</time>
</trkpt>
<trkpt lat="45.09772" lon="13.62191">
<ele>45</ele>
<time>2011-05-03T10:25:36Z</time>
</trkpt>
<trkpt lat="45.09767" lon="13.62197">
<ele>45</ele>
<time>2011-05-03T10:25:38Z</time>
</trkpt>
<trkpt lat="45.09763" lon="13.62202">
<ele>45</ele>
<time>2011-05-03T10:25:40Z</time>
</trkpt>
<trkpt lat="45.09759" lon="13.62208">
<ele>45</ele>
<time>2011-05-03T10:25:42Z</time>
</trkpt>
<trkpt lat="45.09755" lon="13.62214">
<ele>45</ele>
<time>2011-05-03T10:25:44Z</time>
</trkpt>
<trkpt lat="45.09751" lon="13.6222">
<ele>45</ele>
<time>2011-05-03T10:25:46Z</time>
</trkpt>
<trkpt lat="45.09746" lon="13.62226">
<ele>45</ele>
<time>2011-05-03T10:25:48Z</time>
</trkpt>
<trkpt lat="45.09742" lon="13.62232">
<ele>45</ele>
<time>2011-05-03T10:25:50Z</time>
</trkpt>
<trkpt lat="45.09738" lon="13.62238">
<ele>45</ele>
<time>2011-05-03T10:25:52Z</time>
</trkpt>
<trkpt lat="45.09733" lon="13.62243">
<ele>45</ele>
<time>2011-05-03T10:25:54Z</time>
</trkpt>
<trkpt lat="45.09729" lon="13.62249">
<ele>45</ele>
<time>2011-05-03T10:25:56Z</time>
</trkpt>
<trkpt lat="45.09724" lon="13.62254">
<ele>45</ele>
<time>2011-05-03T10:25:58Z</time>
</trkpt>
<trkpt lat="45.0972" lon="13.6226">
<ele>45</ele>
<time>2011-05-03T10:26:00Z</time>
</trkpt>
<trkpt lat="45.09716" lon="13.62265">
<ele>45</ele>
<time>2011-05-03T10:26:02Z</time>
</trkpt>
<trkpt lat="45.09712" lon="13.62272">
<ele>45</ele>
<time>2011-05-03T10:26:04Z</time>
</trkpt>
<trkpt lat="45.09708" lon="13.62278">
<ele>45</ele>
<time>2011-05-03T10:26:06Z</time>
</trkpt>
<trkpt lat="45.09705" lon="13.62284">
<ele>45</ele>
<time>2011-05-03T10:26:08Z</time>
</trkpt>
<trkpt lat="45.09701" lon="13.6229">
<ele>45</ele>
<time>2011-05-03T10:26:10Z</time>
</trkpt>
<trkpt lat="45.09697" lon="13.62296">
<ele>45</ele>
<time>2011-05-03T10:26:12Z</time>
</trkpt>
<trkpt lat="45.09692" lon="13.62302">
<ele>45</ele>
<time>2011-05-03T10:26:14Z</time>
</trkpt>
<trkpt lat="45.09688" lon="13.62308">
<ele>45</ele>
<time>2011-05-03T10:26:16Z</time>
</trkpt>
<trkpt lat="45.09684" lon="13.62314">
<ele>45</ele>
<time>2011-05-03T10:26:18Z</time>
</trkpt>
<trkpt lat="45.0968" lon="13.6232">
<ele>45</ele>
<time>2011-05-03T10:26:20Z</time>
</trkpt>
<trkpt lat="45.09676" lon="13.62326">
<ele>45</ele>
<time>2011-05-03T10:26:22Z</time>
</trkpt>
<trkpt lat="45.09672" lon="13.62331">
<ele>45</ele>
<time>2011-05-03T10:26:24Z</time>
</trkpt>
<trkpt lat="45.09668" lon="13.62336">
<ele>45</ele>
<time>2011-05-03T10:26:26Z</time>
</trkpt>
<trkpt lat="45.09664" lon="13.62341">
<ele>45</ele>
<time>2011-05-03T10:26:28Z</time>
</trkpt>
<trkpt lat="45.0966" lon="13.62346">
<ele>45</ele>
<time>2011-05-03T10:26:30Z</time>
</trkpt>
<trkpt lat="45.09655" lon="13.6235">
<ele>45</ele>
<time>2011-05-03T10:26:32Z</time>
</trkpt>
<trkpt lat="45.09651" lon="13.62355">
<ele>45</ele>
<time>2011-05-03T10:26:34Z</time>
</trkpt>
<trkpt lat="45.09646" lon="13.6236">
<ele>45</ele>
<time>2011-05-03T10:26:36Z</time>
</trkpt>
<trkpt lat="45.09642" lon="13.62364">
<ele>45</ele>
<time>2011-05-03T10:26:38Z</time>
</trkpt>
<trkpt lat="45.09637" lon="13.62369">
<ele>45</ele>
<time>2011-05-03T10:26:40Z</time>
</trkpt>
<trkpt lat="45.09632" lon="13.62374">
<ele>45</ele>
<time>2011-05-03T10:26:42Z</time>
</trkpt>
<trkpt lat="45.09628" lon="13.62379">
<ele>45</ele>
<time>2011-05-03T10:26:44Z</time>
</trkpt>
<trkpt lat="45.09624" lon="13.62384">
<ele>45</ele>
<time>2011-05-03T10:26:46Z</time>
</trkpt>
<trkpt lat="45.09619" lon="13.62388">
<ele>45</ele>
<time>2011-05-03T10:26:48Z</time>
</trkpt>
<trkpt lat="45.09614" lon="13.62393">
<ele>45</ele>
<time>2011-05-03T10:26:50Z</time>
</trkpt>
<trkpt lat="45.0961" lon="13.62398">
<ele>45</ele>
<time>2011-05-03T10:26:52Z</time>
</trkpt>
<trkpt lat="45.09605" lon="13.62403">
<ele>45</ele>
<time>2011-05-03T10:26:54Z</time>
</trkpt>
<trkpt lat="45.096" lon="13.62407">
<ele>45</ele>
<time>2011-05-03T10:26:56Z</time>
</trkpt>
<trkpt lat="45.09596" lon="13.62412">
<ele>45</ele>
<time>2011-05-03T10:26:58Z</time>
</trkpt>
<trkpt lat="45.09591" lon="13.62417">
<ele>45</ele>
<time>2011-05-03T10:27:00Z</time>
</trkpt>
<trkpt lat="45.09586" lon="13.62421">
<ele>45</ele>
<time>2011-05-03T10:27:02Z</time>
</trkpt>
<trkpt lat="45.09582" lon="13.62426">
<ele>45</ele>
<time>2011-05-03T10:27:04Z</time>
</trkpt>
<trkpt lat="45.09577" lon="13.62431">
<ele>45</ele>
<time>2011-05-03T10:27:06Z</time>
</trkpt>
<trkpt lat="45.09572" lon="13.62436">
<ele>45</ele>
<time>2011-05-03T10:27:08Z</time>
</trkpt>
<trkpt lat="45.09568" lon="13.6244">
<ele>45</ele>
<time>2011-05-03T10:27:10Z</time>
</trkpt>
<trkpt lat="45.09563" lon="13.62445">
<ele>45</ele>
<time>2011-05-03T10:27:12Z</time>
</trkpt>
<trkpt lat="45.09558" lon="13.6245">
<ele>45</ele>
<time>2011-05-03T10:27:14Z</time>
</trkpt>
<trkpt lat="45.09554" lon="13.62455">
<ele>45</ele>
<time>2011-05-03T10:27:16Z</time>
</trkpt>
<trkpt lat="45.09549" lon="13.6246">
<ele>45</ele>
<time>2011-05-03T10:27:18Z</time>
</trkpt>
<trkpt lat="45.09544" lon="13.62465">
<ele>45</ele>
<time>2011-05-03T10:27:20Z</time>
</trkpt>
<trkpt lat="45.0954" lon="13.62469">
<ele>45</ele>
<time>2011-05-03T10:27:22Z</time>
</trkpt>
<trkpt lat="45.09535" lon="13.62474">
<ele>45</ele>
<time>2011-05-03T10:27:24Z</time>
</trkpt>
<trkpt lat="45.09531" lon="13.62479">
<ele>45</ele>
<time>2011-05-03T10:27:26Z</time>
</trkpt>
<trkpt lat="45.09526" lon="13.62484">
<ele>45</ele>
<time>2011-05-03T10:27:28Z</time>
</trkpt>
<trkpt lat="45.09521" lon="13.62488">
<ele>45</ele>
<time>2011-05-03T10:27:30Z</time>
</trkpt>
<trkpt lat="45.09517" lon="13.62493">
<ele>45</ele>
<time>2011-05-03T10:27:32Z</time>
</trkpt>
<trkpt lat="45.09512" lon="13.62498">
<ele>45</ele>
<time>2011-05-03T10:27:34Z</time>
</trkpt>
<trkpt lat="45.09508" lon="13.62502">
<ele>45</ele>
<time>2011-05-03T10:27:36Z</time>
</trkpt>
<trkpt lat="45.09503" lon="13.62507">
<ele>45</ele>
<time>2011-05-03T10:27:38Z</time>
</trkpt>
<trkpt lat="45.09499" lon="13.62512">
<ele>45</ele>
<time>2011-05-03T10:27:40Z</time>
</trkpt>
<trkpt lat="45.09494" lon="13.62517">
<ele>44</ele>
<time>2011-05-03T10:27:42Z</time>
</trkpt>
<trkpt lat="45.0949" lon="13.62522">
<ele>44</ele>
<time>2011-05-03T10:27:44Z</time>
</trkpt>
<trkpt lat="45.09485" lon="13.62527">
<ele>44</ele>
<time>2011-05-03T10:27:46Z</time>
</trkpt>
<trkpt lat="45.09481" lon="13.62531">
<ele>44</ele>
<time>2011-05-03T10:27:48Z</time>
</trkpt>
<trkpt lat="45.09476" lon="13.62536">
<ele>44</ele>
<time>2011-05-03T10:27:50Z</time>
</trkpt>
<trkpt lat="45.09472" lon="13.62541">
<ele>44</ele>
<time>2011-05-03T10:27:52Z</time>
</trkpt>
<trkpt lat="45.09467" lon="13.62545">
<ele>44</ele>
<time>2011-05-03T10:27:54Z</time>
</trkpt>
<trkpt lat="45.09462" lon="13.6255">
<ele>44</ele>
<time>2011-05-03T10:27:56Z</time>
</trkpt>
<trkpt lat="45.09458" lon="13.62555">
<ele>44</ele>
<time>2011-05-03T10:27:58Z</time>
</trkpt>
<trkpt lat="45.09453" lon="13.6256">
<ele>44</ele>
<time>2011-05-03T10:28:00Z</time>
</trkpt>
<trkpt lat="45.09449" lon="13.62564">
<ele>44</ele>
<time>2011-05-03T10:28:02Z</time>
</trkpt>
<trkpt lat="45.09444" lon="13.62569">
<ele>44</ele>
<time>2011-05-03T10:28:04Z</time>
</trkpt>
<trkpt lat="45.0944" lon="13.62574">
<ele>44</ele>
<time>2011-05-03T10:28:06Z</time>
</trkpt>
<trkpt lat="45.09436" lon="13.62579">
<ele>44</ele>
<time>2011-05-03T10:28:08Z</time>
</trkpt>
<trkpt lat="45.09431" lon="13.62584">
<ele>44</ele>
<time>2011-05-03T10:28:10Z</time>
</trkpt>
<trkpt lat="45.09427" lon="13.62589">
<ele>44</ele>
<time>2011-05-03T10:28:12Z</time>
</trkpt>
<trkpt lat="45.09422" lon="13.62594">
<ele>44</ele>
<time>2011-05-03T10:28:14Z</time>
</trkpt>
<trkpt lat="45.09418" lon="13.626">
<ele>44</ele>
<time>2011-05-03T10:28:16Z</time>
</trkpt>
<trkpt lat="45.09413" lon="13.62604">
<ele>44</ele>
<time>2011-05-03T10:28:18Z</time>
</trkpt>
<trkpt lat="45.09409" lon="13.6261">
<ele>44</ele>
<time>2011-05-03T10:28:20Z</time>
</trkpt>
<trkpt lat="45.09404" lon="13.62615">
<ele>44</ele>
<time>2011-05-03T10:28:22Z</time>
</trkpt>
<trkpt lat="45.094" lon="13.6262">
<ele>44</ele>
<time>2011-05-03T10:28:24Z</time>
</trkpt>
<trkpt lat="45.09396" lon="13.62625">
<ele>44</ele>
<time>2011-05-03T10:28:26Z</time>
</trkpt>
<trkpt lat="45.09391" lon="13.6263">
<ele>44</ele>
<time>2011-05-03T10:28:28Z</time>
</trkpt>
<trkpt lat="45.09387" lon="13.62635">
<ele>44</ele>
<time>2011-05-03T10:28:30Z</time>
</trkpt>
<trkpt lat="45.09382" lon="13.6264">
<ele>44</ele>
<time>2011-05-03T10:28:32Z</time>
</trkpt>
<trkpt lat="45.09378" lon="13.62645">
<ele>44</ele>
<time>2011-05-03T10:28:34Z</time>
</trkpt>
<trkpt lat="45.09373" lon="13.6265">
<ele>44</ele>
<time>2011-05-03T10:28:36Z</time>
</trkpt>
<trkpt lat="45.09369" lon="13.62656">
<ele>44</ele>
<time>2011-05-03T10:28:38Z</time>
</trkpt>
<trkpt lat="45.09365" lon="13.62661">
<ele>44</ele>
<time>2011-05-03T10:28:40Z</time>
</trkpt>
<trkpt lat="45.0936" lon="13.62666">
<ele>44</ele>
<time>2011-05-03T10:28:42Z</time>
</trkpt>
<trkpt lat="45.09356" lon="13.62671">
<ele>44</ele>
<time>2011-05-03T10:28:44Z</time>
</trkpt>
<trkpt lat="45.09352" lon="13.62677">
<ele>44</ele>
<time>2011-05-03T10:28:46Z</time>
</trkpt>
<trkpt lat="45.09348" lon="13.62682">
<ele>44</ele>
<time>2011-05-03T10:28:48Z</time>
</trkpt>
<trkpt lat="45.09344" lon="13.62688">
<ele>44</ele>
<time>2011-05-03T10:28:50Z</time>
</trkpt>
<trkpt lat="45.09339" lon="13.62693">
<ele>44</ele>
<time>2011-05-03T10:28:52Z</time>
</trkpt>
<trkpt lat="45.09335" lon="13.62698">
<ele>44</ele>
<time>2011-05-03T10:28:54Z</time>
</trkpt>
<trkpt lat="45.0933" lon="13.62704">
<ele>44</ele>
<time>2011-05-03T10:28:56Z</time>
</trkpt>
<trkpt lat="45.09326" lon="13.62709">
<ele>44</ele>
<time>2011-05-03T10:28:58Z</time>
</trkpt>
<trkpt lat="45.09322" lon="13.62714">
<ele>44</ele>
<time>2011-05-03T10:29:00Z</time>
</trkpt>
<trkpt lat="45.09317" lon="13.62719">
<ele>44</ele>
<time>2011-05-03T10:29:02Z</time>
</trkpt>
<trkpt lat="45.09313" lon="13.62724">
<ele>44</ele>
<time>2011-05-03T10:29:04Z</time>
</trkpt>
<trkpt lat="45.09308" lon="13.6273">
<ele>44</ele>
<time>2011-05-03T10:29:06Z</time>
</trkpt>
<trkpt lat="45.09304" lon="13.62735">
<ele>44</ele>
<time>2011-05-03T10:29:08Z</time>
</trkpt>
<trkpt lat="45.093" lon="13.6274">
<ele>44</ele>
<time>2011-05-03T10:29:10Z</time>
</trkpt>
<trkpt lat="45.09296" lon="13.62745">
<ele>44</ele>
<time>2011-05-03T10:29:12Z</time>
</trkpt>
<trkpt lat="45.09291" lon="13.6275">
<ele>44</ele>
<time>2011-05-03T10:29:14Z</time>
</trkpt>
<trkpt lat="45.09287" lon="13.62756">
<ele>44</ele>
<time>2011-05-03T10:29:16Z</time>
</trkpt>
<trkpt lat="45.09282" lon="13.62761">
<ele>44</ele>
<time>2011-05-03T10:29:18Z</time>
</trkpt>
<trkpt lat="45.09278" lon="13.62766">
<ele>44</ele>
<time>2011-05-03T10:29:20Z</time>
</trkpt>
<trkpt lat="45.09274" lon="13.62771">
<ele>44</ele>
<time>2011-05-03T10:29:22Z</time>
</trkpt>
<trkpt lat="45.09269" lon="13.62775">
<ele>44</ele>
<time>2011-05-03T10:29:24Z</time>
</trkpt>
<trkpt lat="45.09264" lon="13.6278">
<ele>44</ele>
<time>2011-05-03T10:29:26Z</time>
</trkpt>
<trkpt lat="45.0926" lon="13.62785">
<ele>44</ele>
<time>2011-05-03T10:29:28Z</time>
</trkpt>
<trkpt lat="45.09255" lon="13.6279">
<ele>44</ele>
<time>2011-05-03T10:29:30Z</time>
</trkpt>
<trkpt lat="45.09251" lon="13.62795">
<ele>44</ele>
<time>2011-05-03T10:29:32Z</time>
</trkpt>
<trkpt lat="45.09246" lon="13.628">
<ele>44</ele>
<time>2011-05-03T10:29:34Z</time>
</trkpt>
<trkpt lat="45.09242" lon="13.62805">
<ele>44</ele>
<time>2011-05-03T10:29:36Z</time>
</trkpt>
<trkpt lat="45.09237" lon="13.6281">
<ele>44</ele>
<time>2011-05-03T10:29:38Z</time>
</trkpt>
<trkpt lat="45.09233" lon="13.62815">
<ele>44</ele>
<time>2011-05-03T10:29:40Z</time>
</trkpt>
<trkpt lat="45.09228" lon="13.6282">
<ele>44</ele>
<time>2011-05-03T10:29:42Z</time>
</trkpt>
<trkpt lat="45.09224" lon="13.62824">
<ele>44</ele>
<time>2011-05-03T10:29:44Z</time>
</trkpt>
<trkpt lat="45.09219" lon="13.62829">
<ele>44</ele>
<time>2011-05-03T10:29:46Z</time>
</trkpt>
<trkpt lat="45.09214" lon="13.62834">
<ele>44</ele>
<time>2011-05-03T10:29:48Z</time>
</trkpt>
<trkpt lat="45.0921" lon="13.62839">
<ele>44</ele>
<time>2011-05-03T10:29:50Z</time>
</trkpt>
<trkpt lat="45.09206" lon="13.62844">
<ele>44</ele>
<time>2011-05-03T10:29:52Z</time>
</trkpt>
<trkpt lat="45.09201" lon="13.62849">
<ele>44</ele>
<time>2011-05-03T10:29:54Z</time>
</trkpt>
<trkpt lat="45.09196" lon="13.62854">
<ele>44</ele>
<time>2011-05-03T10:29:56Z</time>
</trkpt>
<trkpt lat="45.09192" lon="13.62858">
<ele>44</ele>
<time>2011-05-03T10:29:58Z</time>
</trkpt>
<trkpt lat="45.09187" lon="13.62863">
<ele>44</ele>
<time>2011-05-03T10:30:00Z</time>
</trkpt>
<trkpt lat="45.09182" lon="13.62867">
<ele>44</ele>
<time>2011-05-03T10:30:02Z</time>
</trkpt>
<trkpt lat="45.09177" lon="13.62872">
<ele>44</ele>
<time>2011-05-03T10:30:04Z</time>
</trkpt>
<trkpt lat="45.09173" lon="13.62876">
<ele>44</ele>
<time>2011-05-03T10:30:06Z</time>
</trkpt>
<trkpt lat="45.09168" lon="13.62881">
<ele>44</ele>
<time>2011-05-03T10:30:08Z</time>
</trkpt>
<trkpt lat="45.09164" lon="13.62886">
<ele>44</ele>
<time>2011-05-03T10:30:10Z</time>
</trkpt>
<trkpt lat="45.09159" lon="13.62891">
<ele>44</ele>
<time>2011-05-03T10:30:12Z</time>
</trkpt>
<trkpt lat="45.09155" lon="13.62896">
<ele>44</ele>
<time>2011-05-03T10:30:14Z</time>
</trkpt>
<trkpt lat="45.0915" lon="13.62901">
<ele>44</ele>
<time>2011-05-03T10:30:16Z</time>
</trkpt>
<trkpt lat="45.09146" lon="13.62906">
<ele>44</ele>
<time>2011-05-03T10:30:18Z</time>
</trkpt>
<trkpt lat="45.09142" lon="13.62911">
<ele>44</ele>
<time>2011-05-03T10:30:20Z</time>
</trkpt>
<trkpt lat="45.09137" lon="13.62916">
<ele>44</ele>
<time>2011-05-03T10:30:22Z</time>
</trkpt>
<trkpt lat="45.09133" lon="13.62921">
<ele>44</ele>
<time>2011-05-03T10:30:24Z</time>
</trkpt>
<trkpt lat="45.09128" lon="13.62926">
<ele>44</ele>
<time>2011-05-03T10:30:26Z</time>
</trkpt>
<trkpt lat="45.09124" lon="13.62932">
<ele>44</ele>
<time>2011-05-03T10:30:28Z</time>
</trkpt>
<trkpt lat="45.09119" lon="13.62937">
<ele>44</ele>
<time>2011-05-03T10:30:30Z</time>
</trkpt>
<trkpt lat="45.09115" lon="13.62942">
<ele>44</ele>
<time>2011-05-03T10:30:32Z</time>
</trkpt>
<trkpt lat="45.0911" lon="13.62947">
<ele>44</ele>
<time>2011-05-03T10:30:34Z</time>
</trkpt>
<trkpt lat="45.09106" lon="13.62952">
<ele>44</ele>
<time>2011-05-03T10:30:36Z</time>
</trkpt>
<trkpt lat="45.09102" lon="13.62957">
<ele>44</ele>
<time>2011-05-03T10:30:38Z</time>
</trkpt>
<trkpt lat="45.09097" lon="13.62962">
<ele>44</ele>
<time>2011-05-03T10:30:40Z</time>
</trkpt>
<trkpt lat="45.09093" lon="13.62967">
<ele>44</ele>
<time>2011-05-03T10:30:42Z</time>
</trkpt>
<trkpt lat="45.09088" lon="13.62972">
<ele>44</ele>
<time>2011-05-03T10:30:44Z</time>
</trkpt>
<trkpt lat="45.09084" lon="13.62976">
<ele>44</ele>
<time>2011-05-03T10:30:46Z</time>
</trkpt>
<trkpt lat="45.0908" lon="13.62982">
<ele>44</ele>
<time>2011-05-03T10:30:48Z</time>
</trkpt>
<trkpt lat="45.09075" lon="13.62986">
<ele>44</ele>
<time>2011-05-03T10:30:50Z</time>
</trkpt>
<trkpt lat="45.09071" lon="13.62991">
<ele>44</ele>
<time>2011-05-03T10:30:52Z</time>
</trkpt>
<trkpt lat="45.09066" lon="13.62996">
<ele>44</ele>
<time>2011-05-03T10:30:54Z</time>
</trkpt>
<trkpt lat="45.09062" lon="13.63">
<ele>44</ele>
<time>2011-05-03T10:30:56Z</time>
</trkpt>
<trkpt lat="45.09057" lon="13.63005">
<ele>44</ele>
<time>2011-05-03T10:30:58Z</time>
</trkpt>
<trkpt lat="45.09053" lon="13.6301">
<ele>44</ele>
<time>2011-05-03T10:31:00Z</time>
</trkpt>
<trkpt lat="45.09048" lon="13.63014">
<ele>44</ele>
<time>2011-05-03T10:31:02Z</time>
</trkpt>
<trkpt lat="45.09044" lon="13.63019">
<ele>44</ele>
<time>2011-05-03T10:31:04Z</time>
</trkpt>
<trkpt lat="45.0904" lon="13.63024">
<ele>44</ele>
<time>2011-05-03T10:31:06Z</time>
</trkpt>
<trkpt lat="45.09035" lon="13.63028">
<ele>44</ele>
<time>2011-05-03T10:31:08Z</time>
</trkpt>
<trkpt lat="45.09031" lon="13.63033">
<ele>44</ele>
<time>2011-05-03T10:31:10Z</time>
</trkpt>
<trkpt lat="45.09026" lon="13.63038">
<ele>44</ele>
<time>2011-05-03T10:31:12Z</time>
</trkpt>
<trkpt lat="45.09022" lon="13.63043">
<ele>44</ele>
<time>2011-05-03T10:31:14Z</time>
</trkpt>
<trkpt lat="45.09017" lon="13.63047">
<ele>44</ele>
<time>2011-05-03T10:31:16Z</time>
</trkpt>
<trkpt lat="45.09012" lon="13.63052">
<ele>44</ele>
<time>2011-05-03T10:31:18Z</time>
</trkpt>
<trkpt lat="45.09008" lon="13.63057">
<ele>44</ele>
<time>2011-05-03T10:31:20Z</time>
</trkpt>
<trkpt lat="45.09003" lon="13.63062">
<ele>44</ele>
<time>2011-05-03T10:31:22Z</time>
</trkpt>
<trkpt lat="45.08999" lon="13.63067">
<ele>44</ele>
<time>2011-05-03T10:31:24Z</time>
</trkpt>
<trkpt lat="45.08994" lon="13.63071">
<ele>44</ele>
<time>2011-05-03T10:31:26Z</time>
</trkpt>
<trkpt lat="45.0899" lon="13.63076">
<ele>44</ele>
<time>2011-05-03T10:31:28Z</time>
</trkpt>
<trkpt lat="45.08985" lon="13.63081">
<ele>44</ele>
<time>2011-05-03T10:31:30Z</time>
</trkpt>
<trkpt lat="45.08981" lon="13.63085">
<ele>44</ele>
<time>2011-05-03T10:31:32Z</time>
</trkpt>
<trkpt lat="45.08976" lon="13.6309">
<ele>44</ele>
<time>2011-05-03T10:31:34Z</time>
</trkpt>
<trkpt lat="45.08972" lon="13.63095">
<ele>44</ele>
<time>2011-05-03T10:31:36Z</time>
</trkpt>
<trkpt lat="45.08967" lon="13.631">
<ele>44</ele>
<time>2011-05-03T10:31:38Z</time>
</trkpt>
<trkpt lat="45.08963" lon="13.63104">
<ele>44</ele>
<time>2011-05-03T10:31:40Z</time>
</trkpt>
<trkpt lat="45.08958" lon="13.63109">
<ele>44</ele>
<time>2011-05-03T10:31:42Z</time>
</trkpt>
<trkpt lat="45.08953" lon="13.63113">
<ele>44</ele>
<time>2011-05-03T10:31:44Z</time>
</trkpt>
<trkpt lat="45.08948" lon="13.63118">
<ele>44</ele>
<time>2011-05-03T10:31:46Z</time>
</trkpt>
<trkpt lat="45.08944" lon="13.63122">
<ele>44</ele>
<time>2011-05-03T10:31:48Z</time>
</trkpt>
<trkpt lat="45.08939" lon="13.63126">
<ele>44</ele>
<time>2011-05-03T10:31:50Z</time>
</trkpt>
<trkpt lat="45.08934" lon="13.6313">
<ele>44</ele>
<time>2011-05-03T10:31:52Z</time>
</trkpt>
<trkpt lat="45.08929" lon="13.63134">
<ele>44</ele>
<time>2011-05-03T10:31:54Z</time>
</trkpt>
<trkpt lat="45.08924" lon="13.63137">
<ele>44</ele>
<time>2011-05-03T10:31:56Z</time>
</trkpt>
<trkpt lat="45.08919" lon="13.63141">
<ele>44</ele>
<time>2011-05-03T10:31:58Z</time>
</trkpt>
<trkpt lat="45.08914" lon="13.63145">
<ele>44</ele>
<time>2011-05-03T10:32:00Z</time>
</trkpt>
<trkpt lat="45.08909" lon="13.63149">
<ele>44</ele>
<time>2011-05-03T10:32:02Z</time>
</trkpt>
<trkpt lat="45.08904" lon="13.63152">
<ele>44</ele>
<time>2011-05-03T10:32:04Z</time>
</trkpt>
<trkpt lat="45.089" lon="13.63156">
<ele>44</ele>
<time>2011-05-03T10:32:06Z</time>
</trkpt>
<trkpt lat="45.08895" lon="13.6316">
<ele>44</ele>
<time>2011-05-03T10:32:08Z</time>
</trkpt>
<trkpt lat="45.0889" lon="13.63164">
<ele>44</ele>
<time>2011-05-03T10:32:10Z</time>
</trkpt>
<trkpt lat="45.08885" lon="13.63167">
<ele>45</ele>
<time>2011-05-03T10:32:12Z</time>
</trkpt>
<trkpt lat="45.0888" lon="13.63171">
<ele>45</ele>
<time>2011-05-03T10:32:14Z</time>
</trkpt>
<trkpt lat="45.08875" lon="13.63174">
<ele>45</ele>
<time>2011-05-03T10:32:16Z</time>
</trkpt>
<trkpt lat="45.0887" lon="13.63178">
<ele>45</ele>
<time>2011-05-03T10:32:18Z</time>
</trkpt>
<trkpt lat="45.08866" lon="13.63181">
<ele>45</ele>
<time>2011-05-03T10:32:20Z</time>
</trkpt>
<trkpt lat="45.08861" lon="13.63185">
<ele>45</ele>
<time>2011-05-03T10:32:22Z</time>
</trkpt>
<trkpt lat="45.08856" lon="13.63188">
<ele>45</ele>
<time>2011-05-03T10:32:24Z</time>
</trkpt>
<trkpt lat="45.08851" lon="13.63192">
<ele>45</ele>
<time>2011-05-03T10:32:26Z</time>
</trkpt>
<trkpt lat="45.08846" lon="13.63195">
<ele>45</ele>
<time>2011-05-03T10:32:28Z</time>
</trkpt>
<trkpt lat="45.08841" lon="13.63199">
<ele>45</ele>
<time>2011-05-03T10:32:30Z</time>
</trkpt>
<trkpt lat="45.08836" lon="13.63203">
<ele>45</ele>
<time>2011-05-03T10:32:32Z</time>
</trkpt>
<trkpt lat="45.08831" lon="13.63207">
<ele>45</ele>
<time>2011-05-03T10:32:34Z</time>
</trkpt>
<trkpt lat="45.08826" lon="13.6321">
<ele>45</ele>
<time>2011-05-03T10:32:36Z</time>
</trkpt>
<trkpt lat="45.08821" lon="13.63212">
<ele>45</ele>
<time>2011-05-03T10:32:38Z</time>
</trkpt>
<trkpt lat="45.08816" lon="13.63214">
<ele>45</ele>
<time>2011-05-03T10:32:40Z</time>
</trkpt>
<trkpt lat="45.08811" lon="13.63216">
<ele>45</ele>
<time>2011-05-03T10:32:42Z</time>
</trkpt>
<trkpt lat="45.08806" lon="13.63218">
<ele>45</ele>
<time>2011-05-03T10:32:44Z</time>
</trkpt>
<trkpt lat="45.08801" lon="13.6322">
<ele>45</ele>
<time>2011-05-03T10:32:46Z</time>
</trkpt>
<trkpt lat="45.08796" lon="13.63221">
<ele>45</ele>
<time>2011-05-03T10:32:48Z</time>
</trkpt>
<trkpt lat="45.0879" lon="13.63222">
<ele>46</ele>
<time>2011-05-03T10:32:50Z</time>
</trkpt>
<trkpt lat="45.08785" lon="13.63223">
<ele>46</ele>
<time>2011-05-03T10:32:52Z</time>
</trkpt>
<trkpt lat="45.0878" lon="13.63224">
<ele>46</ele>
<time>2011-05-03T10:32:54Z</time>
</trkpt>
<trkpt lat="45.08774" lon="13.63225">
<ele>46</ele>
<time>2011-05-03T10:32:56Z</time>
</trkpt>
<trkpt lat="45.08769" lon="13.63226">
<ele>46</ele>
<time>2011-05-03T10:32:58Z</time>
</trkpt>
<trkpt lat="45.08764" lon="13.63226">
<ele>46</ele>
<time>2011-05-03T10:33:00Z</time>
</trkpt>
<trkpt lat="45.08759" lon="13.63227">
<ele>46</ele>
<time>2011-05-03T10:33:02Z</time>
</trkpt>
<trkpt lat="45.08753" lon="13.63228">
<ele>46</ele>
<time>2011-05-03T10:33:05Z</time>
</trkpt>
<trkpt lat="45.08748" lon="13.63229">
<ele>46</ele>
<time>2011-05-03T10:33:08Z</time>
</trkpt>
<trkpt lat="45.08742" lon="13.6323">
<ele>46</ele>
<time>2011-05-03T10:33:11Z</time>
</trkpt>
<trkpt lat="45.08737" lon="13.6323">
<ele>46</ele>
<time>2011-05-03T10:33:14Z</time>
</trkpt>
<trkpt lat="45.08732" lon="13.63231">
<ele>46</ele>
<time>2011-05-03T10:33:17Z</time>
</trkpt>
<trkpt lat="45.08727" lon="13.63231">
<ele>47</ele>
<time>2011-05-03T10:33:20Z</time>
</trkpt>
<trkpt lat="45.08722" lon="13.63232">
<ele>47</ele>
<time>2011-05-03T10:33:24Z</time>
</trkpt>
<trkpt lat="45.08717" lon="13.63233">
<ele>47</ele>
<time>2011-05-03T10:33:29Z</time>
</trkpt>
<trkpt lat="45.08712" lon="13.63233">
<ele>47</ele>
<time>2011-05-03T10:33:33Z</time>
</trkpt>
<trkpt lat="45.08707" lon="13.63234">
<ele>47</ele>
<time>2011-05-03T10:33:38Z</time>
</trkpt>
<trkpt lat="45.08702" lon="13.63235">
<ele>47</ele>
<time>2011-05-03T10:33:43Z</time>
</trkpt>
<trkpt lat="45.08697" lon="13.63235">
<ele>47</ele>
<time>2011-05-03T10:33:49Z</time>
</trkpt>
<trkpt lat="45.08692" lon="13.63236">
<ele>47</ele>
<time>2011-05-03T10:33:56Z</time>
</trkpt>
<trkpt lat="45.08688" lon="13.63238">
<ele>48</ele>
<time>2011-05-03T10:34:04Z</time>
</trkpt>
<trkpt lat="45.08684" lon="13.6324">
<ele>48</ele>
<time>2011-05-03T10:34:13Z</time>
</trkpt>
<trkpt lat="45.0868" lon="13.63244">
<ele>48</ele>
<time>2011-05-03T10:34:26Z</time>
</trkpt>
<trkpt lat="45.08676" lon="13.63248">
<ele>48</ele>
<time>2011-05-03T10:34:40Z</time>
</trkpt>
<trkpt lat="45.08675" lon="13.63254">
<ele>48</ele>
<time>2011-05-03T10:35:01Z</time>
</trkpt>
<trkpt lat="45.08675" lon="13.63261">
<ele>48</ele>
<time>2011-05-03T10:35:16Z</time>
</trkpt>
<trkpt lat="45.08675" lon="13.63267">
<ele>47</ele>
<time>2011-05-03T10:35:32Z</time>
</trkpt>
<trkpt lat="45.08677" lon="13.63273">
<ele>46</ele>
<time>2011-05-03T10:35:48Z</time>
</trkpt>
<trkpt lat="45.08678" lon="13.63279">
<ele>46</ele>
<time>2011-05-03T10:36:02Z</time>
</trkpt>
<trkpt lat="45.08675" lon="13.63286">
<ele>46</ele>
<time>2011-05-03T10:36:07Z</time>
</trkpt>
<trkpt lat="45.0867" lon="13.63287">
<ele>46</ele>
<time>2011-05-03T10:36:11Z</time>
</trkpt>
<trkpt lat="45.08665" lon="13.63284">
<ele>46</ele>
<time>2011-05-03T10:36:14Z</time>
</trkpt>
<trkpt lat="45.08662" lon="13.63278">
<ele>46</ele>
<time>2011-05-03T10:36:17Z</time>
</trkpt>
<trkpt lat="45.0866" lon="13.63272">
<ele>46</ele>
<time>2011-05-03T10:36:19Z</time>
</trkpt>
<trkpt lat="45.08659" lon="13.63265">
<ele>46</ele>
<time>2011-05-03T10:36:21Z</time>
</trkpt>
<trkpt lat="45.08658" lon="13.63258">
<ele>46</ele>
<time>2011-05-03T10:36:23Z</time>
</trkpt>
<trkpt lat="45.08658" lon="13.63251">
<ele>46</ele>
<time>2011-05-03T10:36:25Z</time>
</trkpt>
<trkpt lat="45.08657" lon="13.63244">
<ele>46</ele>
<time>2011-05-03T10:36:27Z</time>
</trkpt>
<trkpt lat="45.08656" lon="13.63238">
<ele>46</ele>
<time>2011-05-03T10:36:29Z</time>
</trkpt>
<trkpt lat="45.08654" lon="13.63231">
<ele>46</ele>
<time>2011-05-03T10:36:31Z</time>
</trkpt>
<trkpt lat="45.08653" lon="13.63224">
<ele>46</ele>
<time>2011-05-03T10:36:33Z</time>
</trkpt>
<trkpt lat="45.08651" lon="13.63217">
<ele>46</ele>
<time>2011-05-03T10:36:35Z</time>
</trkpt>
<trkpt lat="45.08649" lon="13.6321">
<ele>46</ele>
<time>2011-05-03T10:36:37Z</time>
</trkpt>
<trkpt lat="45.08646" lon="13.63203">
<ele>46</ele>
<time>2011-05-03T10:36:39Z</time>
</trkpt>
<trkpt lat="45.08644" lon="13.63196">
<ele>46</ele>
<time>2011-05-03T10:36:41Z</time>
</trkpt>
<trkpt lat="45.08642" lon="13.63188">
<ele>46</ele>
<time>2011-05-03T10:36:43Z</time>
</trkpt>
<trkpt lat="45.08639" lon="13.63181">
<ele>46</ele>
<time>2011-05-03T10:36:45Z</time>
</trkpt>
<trkpt lat="45.08636" lon="13.63174">
<ele>46</ele>
<time>2011-05-03T10:36:47Z</time>
</trkpt>
<trkpt lat="45.08633" lon="13.63167">
<ele>46</ele>
<time>2011-05-03T10:36:49Z</time>
</trkpt>
<trkpt lat="45.08631" lon="13.6316">
<ele>46</ele>
<time>2011-05-03T10:36:51Z</time>
</trkpt>
<trkpt lat="45.08628" lon="13.63152">
<ele>46</ele>
<time>2011-05-03T10:36:53Z</time>
</trkpt>
<trkpt lat="45.08626" lon="13.63145">
<ele>46</ele>
<time>2011-05-03T10:36:55Z</time>
</trkpt>
<trkpt lat="45.08623" lon="13.63137">
<ele>46</ele>
<time>2011-05-03T10:36:57Z</time>
</trkpt>
<trkpt lat="45.0862" lon="13.6313">
<ele>46</ele>
<time>2011-05-03T10:36:59Z</time>
</trkpt>
<trkpt lat="45.08618" lon="13.63122">
<ele>46</ele>
<time>2011-05-03T10:37:01Z</time>
</trkpt>
<trkpt lat="45.08616" lon="13.63114">
<ele>46</ele>
<time>2011-05-03T10:37:03Z</time>
</trkpt>
<trkpt lat="45.08613" lon="13.63107">
<ele>46</ele>
<time>2011-05-03T10:37:05Z</time>
</trkpt>
<trkpt lat="45.08611" lon="13.63099">
<ele>46</ele>
<time>2011-05-03T10:37:07Z</time>
</trkpt>
<trkpt lat="45.08609" lon="13.63092">
<ele>46</ele>
<time>2011-05-03T10:37:09Z</time>
</trkpt>
<trkpt lat="45.08607" lon="13.63084">
<ele>46</ele>
<time>2011-05-03T10:37:11Z</time>
</trkpt>
<trkpt lat="45.08604" lon="13.63077">
<ele>46</ele>
<time>2011-05-03T10:37:13Z</time>
</trkpt>
<trkpt lat="45.08602" lon="13.63069">
<ele>46</ele>
<time>2011-05-03T10:37:15Z</time>
</trkpt>
<trkpt lat="45.086" lon="13.63062">
<ele>46</ele>
<time>2011-05-03T10:37:17Z</time>
</trkpt>
<trkpt lat="45.08597" lon="13.63054">
<ele>46</ele>
<time>2011-05-03T10:37:19Z</time>
</trkpt>
<trkpt lat="45.08595" lon="13.63047">
<ele>46</ele>
<time>2011-05-03T10:37:21Z</time>
</trkpt>
<trkpt lat="45.08592" lon="13.6304">
<ele>46</ele>
<time>2011-05-03T10:37:23Z</time>
</trkpt>
<trkpt lat="45.08589" lon="13.63032">
<ele>46</ele>
<time>2011-05-03T10:37:25Z</time>
</trkpt>
<trkpt lat="45.08586" lon="13.63025">
<ele>46</ele>
<time>2011-05-03T10:37:27Z</time>
</trkpt>
<trkpt lat="45.08584" lon="13.63018">
<ele>46</ele>
<time>2011-05-03T10:37:29Z</time>
</trkpt>
<trkpt lat="45.08581" lon="13.63011">
<ele>46</ele>
<time>2011-05-03T10:37:31Z</time>
</trkpt>
<trkpt lat="45.08578" lon="13.63004">
<ele>46</ele>
<time>2011-05-03T10:37:33Z</time>
</trkpt>
<trkpt lat="45.08575" lon="13.62997">
<ele>46</ele>
<time>2011-05-03T10:37:35Z</time>
</trkpt>
<trkpt lat="45.08572" lon="13.6299">
<ele>46</ele>
<time>2011-05-03T10:37:37Z</time>
</trkpt>
<trkpt lat="45.08569" lon="13.62982">
<ele>46</ele>
<time>2011-05-03T10:37:39Z</time>
</trkpt>
<trkpt lat="45.08566" lon="13.62975">
<ele>46</ele>
<time>2011-05-03T10:37:41Z</time>
</trkpt>
<trkpt lat="45.08563" lon="13.62968">
<ele>46</ele>
<time>2011-05-03T10:37:43Z</time>
</trkpt>
<trkpt lat="45.0856" lon="13.62961">
<ele>46</ele>
<time>2011-05-03T10:37:45Z</time>
</trkpt>
<trkpt lat="45.08557" lon="13.62954">
<ele>46</ele>
<time>2011-05-03T10:37:47Z</time>
</trkpt>
<trkpt lat="45.08553" lon="13.62948">
<ele>46</ele>
<time>2011-05-03T10:37:49Z</time>
</trkpt>
<trkpt lat="45.0855" lon="13.62941">
<ele>46</ele>
<time>2011-05-03T10:37:51Z</time>
</trkpt>
<trkpt lat="45.08546" lon="13.62935">
<ele>46</ele>
<time>2011-05-03T10:37:53Z</time>
</trkpt>
<trkpt lat="45.08542" lon="13.62928">
<ele>46</ele>
<time>2011-05-03T10:37:55Z</time>
</trkpt>
<trkpt lat="45.08538" lon="13.62922">
<ele>46</ele>
<time>2011-05-03T10:37:57Z</time>
</trkpt>
<trkpt lat="45.08534" lon="13.62916">
<ele>46</ele>
<time>2011-05-03T10:37:59Z</time>
</trkpt>
<trkpt lat="45.0853" lon="13.6291">
<ele>46</ele>
<time>2011-05-03T10:38:01Z</time>
</trkpt>
<trkpt lat="45.08526" lon="13.62904">
<ele>46</ele>
<time>2011-05-03T10:38:03Z</time>
</trkpt>
<trkpt lat="45.08522" lon="13.62898">
<ele>46</ele>
<time>2011-05-03T10:38:05Z</time>
</trkpt>
<trkpt lat="45.08517" lon="13.62893">
<ele>46</ele>
<time>2011-05-03T10:38:07Z</time>
</trkpt>
<trkpt lat="45.08513" lon="13.62887">
<ele>46</ele>
<time>2011-05-03T10:38:09Z</time>
</trkpt>
<trkpt lat="45.08509" lon="13.62882">
<ele>46</ele>
<time>2011-05-03T10:38:11Z</time>
</trkpt>
<trkpt lat="45.08504" lon="13.62876">
<ele>46</ele>
<time>2011-05-03T10:38:13Z</time>
</trkpt>
<trkpt lat="45.08499" lon="13.62871">
<ele>46</ele>
<time>2011-05-03T10:38:15Z</time>
</trkpt>
<trkpt lat="45.08494" lon="13.62866">
<ele>46</ele>
<time>2011-05-03T10:38:17Z</time>
</trkpt>
<trkpt lat="45.0849" lon="13.62861">
<ele>46</ele>
<time>2011-05-03T10:38:19Z</time>
</trkpt>
<trkpt lat="45.08484" lon="13.62856">
<ele>46</ele>
<time>2011-05-03T10:38:21Z</time>
</trkpt>
<trkpt lat="45.08479" lon="13.62852">
<ele>46</ele>
<time>2011-05-03T10:38:23Z</time>
</trkpt>
<trkpt lat="45.08474" lon="13.62849">
<ele>46</ele>
<time>2011-05-03T10:38:25Z</time>
</trkpt>
<trkpt lat="45.08468" lon="13.62846">
<ele>46</ele>
<time>2011-05-03T10:38:27Z</time>
</trkpt>
<trkpt lat="45.08463" lon="13.62842">
<ele>46</ele>
<time>2011-05-03T10:38:29Z</time>
</trkpt>
<trkpt lat="45.08457" lon="13.62839">
<ele>46</ele>
<time>2011-05-03T10:38:31Z</time>
</trkpt>
<trkpt lat="45.08452" lon="13.62836">
<ele>46</ele>
<time>2011-05-03T10:38:33Z</time>
</trkpt>
<trkpt lat="45.08446" lon="13.62833">
<ele>46</ele>
<time>2011-05-03T10:38:35Z</time>
</trkpt>
<trkpt lat="45.0844" lon="13.6283">
<ele>46</ele>
<time>2011-05-03T10:38:37Z</time>
</trkpt>
<trkpt lat="45.08434" lon="13.62828">
<ele>46</ele>
<time>2011-05-03T10:38:39Z</time>
</trkpt>
<trkpt lat="45.08428" lon="13.62826">
<ele>46</ele>
<time>2011-05-03T10:38:41Z</time>
</trkpt>
<trkpt lat="45.08423" lon="13.62823">
<ele>46</ele>
<time>2011-05-03T10:38:43Z</time>
</trkpt>
<trkpt lat="45.08417" lon="13.62821">
<ele>46</ele>
<time>2011-05-03T10:38:45Z</time>
</trkpt>
<trkpt lat="45.08411" lon="13.6282">
<ele>46</ele>
<time>2011-05-03T10:38:47Z</time>
</trkpt>
<trkpt lat="45.08405" lon="13.62818">
<ele>46</ele>
<time>2011-05-03T10:38:49Z</time>
</trkpt>
<trkpt lat="45.08399" lon="13.62816">
<ele>46</ele>
<time>2011-05-03T10:38:51Z</time>
</trkpt>
<trkpt lat="45.08394" lon="13.62814">
<ele>47</ele>
<time>2011-05-03T10:38:53Z</time>
</trkpt>
<trkpt lat="45.08388" lon="13.62812">
<ele>47</ele>
<time>2011-05-03T10:38:55Z</time>
</trkpt>
<trkpt lat="45.08382" lon="13.6281">
<ele>47</ele>
<time>2011-05-03T10:38:57Z</time>
</trkpt>
<trkpt lat="45.08377" lon="13.62809">
<ele>47</ele>
<time>2011-05-03T10:38:59Z</time>
</trkpt>
<trkpt lat="45.08371" lon="13.62808">
<ele>47</ele>
<time>2011-05-03T10:39:01Z</time>
</trkpt>
<trkpt lat="45.08365" lon="13.62806">
<ele>47</ele>
<time>2011-05-03T10:39:03Z</time>
</trkpt>
<trkpt lat="45.0836" lon="13.62804">
<ele>47</ele>
<time>2011-05-03T10:39:05Z</time>
</trkpt>
<trkpt lat="45.08354" lon="13.62803">
<ele>47</ele>
<time>2011-05-03T10:39:07Z</time>
</trkpt>
<trkpt lat="45.08348" lon="13.62801">
<ele>47</ele>
<time>2011-05-03T10:39:09Z</time>
</trkpt>
<trkpt lat="45.08342" lon="13.62799">
<ele>47</ele>
<time>2011-05-03T10:39:11Z</time>
</trkpt>
<trkpt lat="45.08337" lon="13.62797">
<ele>47</ele>
<time>2011-05-03T10:39:13Z</time>
</trkpt>
<trkpt lat="45.08331" lon="13.62796">
<ele>47</ele>
<time>2011-05-03T10:39:15Z</time>
</trkpt>
<trkpt lat="45.08325" lon="13.62794">
<ele>47</ele>
<time>2011-05-03T10:39:17Z</time>
</trkpt>
<trkpt lat="45.08319" lon="13.62792">
<ele>47</ele>
<time>2011-05-03T10:39:19Z</time>
</trkpt>
<trkpt lat="45.08314" lon="13.6279">
<ele>47</ele>
<time>2011-05-03T10:39:21Z</time>
</trkpt>
<trkpt lat="45.08308" lon="13.62788">
<ele>47</ele>
<time>2011-05-03T10:39:23Z</time>
</trkpt>
<trkpt lat="45.08302" lon="13.62786">
<ele>47</ele>
<time>2011-05-03T10:39:25Z</time>
</trkpt>
<trkpt lat="45.08296" lon="13.62785">
<ele>47</ele>
<time>2011-05-03T10:39:27Z</time>
</trkpt>
<trkpt lat="45.08291" lon="13.62786">
<ele>47</ele>
<time>2011-05-03T10:39:29Z</time>
</trkpt>
<trkpt lat="45.08286" lon="13.6279">
<ele>47</ele>
<time>2011-05-03T10:39:31Z</time>
</trkpt>
<trkpt lat="45.08281" lon="13.62795">
<ele>47</ele>
<time>2011-05-03T10:39:33Z</time>
</trkpt>
<trkpt lat="45.08277" lon="13.62801">
<ele>47</ele>
<time>2011-05-03T10:39:35Z</time>
</trkpt>
<trkpt lat="45.08273" lon="13.62807">
<ele>47</ele>
<time>2011-05-03T10:39:37Z</time>
</trkpt>
<trkpt lat="45.08269" lon="13.62814">
<ele>47</ele>
<time>2011-05-03T10:39:39Z</time>
</trkpt>
<trkpt lat="45.08265" lon="13.6282">
<ele>47</ele>
<time>2011-05-03T10:39:41Z</time>
</trkpt>
<trkpt lat="45.08262" lon="13.62826">
<ele>47</ele>
<time>2011-05-03T10:39:43Z</time>
</trkpt>
<trkpt lat="45.08258" lon="13.62833">
<ele>47</ele>
<time>2011-05-03T10:39:45Z</time>
</trkpt>
<trkpt lat="45.08254" lon="13.62839">
<ele>47</ele>
<time>2011-05-03T10:39:47Z</time>
</trkpt>
<trkpt lat="45.0825" lon="13.62846">
<ele>47</ele>
<time>2011-05-03T10:39:49Z</time>
</trkpt>
<trkpt lat="45.08246" lon="13.62853">
<ele>47</ele>
<time>2011-05-03T10:39:51Z</time>
</trkpt>
<trkpt lat="45.08242" lon="13.62859">
<ele>47</ele>
<time>2011-05-03T10:39:53Z</time>
</trkpt>
<trkpt lat="45.08238" lon="13.62866">
<ele>47</ele>
<time>2011-05-03T10:39:55Z</time>
</trkpt>
<trkpt lat="45.08234" lon="13.62873">
<ele>47</ele>
<time>2011-05-03T10:39:57Z</time>
</trkpt>
<trkpt lat="45.0823" lon="13.6288">
<ele>47</ele>
<time>2011-05-03T10:39:59Z</time>
</trkpt>
<trkpt lat="45.08227" lon="13.62887">
<ele>47</ele>
<time>2011-05-03T10:40:01Z</time>
</trkpt>
<trkpt lat="45.08223" lon="13.62894">
<ele>47</ele>
<time>2011-05-03T10:40:03Z</time>
</trkpt>
<trkpt lat="45.08219" lon="13.62902">
<ele>47</ele>
<time>2011-05-03T10:40:05Z</time>
</trkpt>
<trkpt lat="45.08215" lon="13.62908">
<ele>47</ele>
<time>2011-05-03T10:40:07Z</time>
</trkpt>
<trkpt lat="45.08212" lon="13.62916">
<ele>47</ele>
<time>2011-05-03T10:40:09Z</time>
</trkpt>
<trkpt lat="45.08208" lon="13.62923">
<ele>46</ele>
<time>2011-05-03T10:40:11Z</time>
</trkpt>
<trkpt lat="45.08204" lon="13.6293">
<ele>46</ele>
<time>2011-05-03T10:40:13Z</time>
</trkpt>
<trkpt lat="45.082" lon="13.62937">
<ele>46</ele>
<time>2011-05-03T10:40:15Z</time>
</trkpt>
<trkpt lat="45.08196" lon="13.62943">
<ele>46</ele>
<time>2011-05-03T10:40:17Z</time>
</trkpt>
<trkpt lat="45.08191" lon="13.6295">
<ele>46</ele>
<time>2011-05-03T10:40:19Z</time>
</trkpt>
<trkpt lat="45.08187" lon="13.62957">
<ele>46</ele>
<time>2011-05-03T10:40:21Z</time>
</trkpt>
<trkpt lat="45.08183" lon="13.62964">
<ele>46</ele>
<time>2011-05-03T10:40:23Z</time>
</trkpt>
<trkpt lat="45.08179" lon="13.62971">
<ele>46</ele>
<time>2011-05-03T10:40:25Z</time>
</trkpt>
<trkpt lat="45.08176" lon="13.62978">
<ele>46</ele>
<time>2011-05-03T10:40:27Z</time>
</trkpt>
<trkpt lat="45.08172" lon="13.62985">
<ele>46</ele>
<time>2011-05-03T10:40:29Z</time>
</trkpt>
<trkpt lat="45.08168" lon="13.62991">
<ele>46</ele>
<time>2011-05-03T10:40:31Z</time>
</trkpt>
<trkpt lat="45.08164" lon="13.62998">
<ele>46</ele>
<time>2011-05-03T10:40:33Z</time>
</trkpt>
<trkpt lat="45.0816" lon="13.63006">
<ele>46</ele>
<time>2011-05-03T10:40:35Z</time>
</trkpt>
<trkpt lat="45.08156" lon="13.63013">
<ele>45</ele>
<time>2011-05-03T10:40:37Z</time>
</trkpt>
<trkpt lat="45.08152" lon="13.6302">
<ele>45</ele>
<time>2011-05-03T10:40:39Z</time>
</trkpt>
<trkpt lat="45.08148" lon="13.63027">
<ele>45</ele>
<time>2011-05-03T10:40:41Z</time>
</trkpt>
<trkpt lat="45.08144" lon="13.63034">
<ele>45</ele>
<time>2011-05-03T10:40:43Z</time>
</trkpt>
<trkpt lat="45.08141" lon="13.6304">
<ele>45</ele>
<time>2011-05-03T10:40:45Z</time>
</trkpt>
<trkpt lat="45.08137" lon="13.63047">
<ele>45</ele>
<time>2011-05-03T10:40:47Z</time>
</trkpt>
<trkpt lat="45.08133" lon="13.63054">
<ele>45</ele>
<time>2011-05-03T10:40:49Z</time>
</trkpt>
<trkpt lat="45.0813" lon="13.63059">
<ele>45</ele>
<time>2011-05-03T10:40:51Z</time>
</trkpt>
<trkpt lat="45.08126" lon="13.63065">
<ele>45</ele>
<time>2011-05-03T10:40:53Z</time>
</trkpt>
<trkpt lat="45.08122" lon="13.63071">
<ele>45</ele>
<time>2011-05-03T10:40:55Z</time>
</trkpt>
<trkpt lat="45.08119" lon="13.63076">
<ele>45</ele>
<time>2011-05-03T10:40:57Z</time>
</trkpt>
<trkpt lat="45.08116" lon="13.63082">
<ele>45</ele>
<time>2011-05-03T10:40:59Z</time>
</trkpt>
<trkpt lat="45.08113" lon="13.63088">
<ele>45</ele>
<time>2011-05-03T10:41:01Z</time>
</trkpt>
<trkpt lat="45.0811" lon="13.63093">
<ele>45</ele>
<time>2011-05-03T10:41:03Z</time>
</trkpt>
<trkpt lat="45.08107" lon="13.63099">
<ele>45</ele>
<time>2011-05-03T10:41:05Z</time>
</trkpt>
<trkpt lat="45.08104" lon="13.63105">
<ele>45</ele>
<time>2011-05-03T10:41:07Z</time>
</trkpt>
<trkpt lat="45.08101" lon="13.63111">
<ele>45</ele>
<time>2011-05-03T10:41:09Z</time>
</trkpt>
<trkpt lat="45.08098" lon="13.63116">
<ele>45</ele>
<time>2011-05-03T10:41:11Z</time>
</trkpt>
<trkpt lat="45.08095" lon="13.63122">
<ele>45</ele>
<time>2011-05-03T10:41:13Z</time>
</trkpt>
<trkpt lat="45.08092" lon="13.63128">
<ele>45</ele>
<time>2011-05-03T10:41:15Z</time>
</trkpt>
<trkpt lat="45.08089" lon="13.63133">
<ele>45</ele>
<time>2011-05-03T10:41:17Z</time>
</trkpt>
<trkpt lat="45.08086" lon="13.63139">
<ele>45</ele>
<time>2011-05-03T10:41:19Z</time>
</trkpt>
<trkpt lat="45.08083" lon="13.63144">
<ele>45</ele>
<time>2011-05-03T10:41:21Z</time>
</trkpt>
<trkpt lat="45.0808" lon="13.6315">
<ele>45</ele>
<time>2011-05-03T10:41:23Z</time>
</trkpt>
<trkpt lat="45.08077" lon="13.63155">
<ele>45</ele>
<time>2011-05-03T10:41:25Z</time>
</trkpt>
<trkpt lat="45.08074" lon="13.6316">
<ele>45</ele>
<time>2011-05-03T10:41:27Z</time>
</trkpt>
<trkpt lat="45.0807" lon="13.63166">
<ele>45</ele>
<time>2011-05-03T10:41:29Z</time>
</trkpt>
<trkpt lat="45.08068" lon="13.63171">
<ele>45</ele>
<time>2011-05-03T10:41:31Z</time>
</trkpt>
<trkpt lat="45.08064" lon="13.63176">
<ele>45</ele>
<time>2011-05-03T10:41:33Z</time>
</trkpt>
<trkpt lat="45.08062" lon="13.63182">
<ele>45</ele>
<time>2011-05-03T10:41:35Z</time>
</trkpt>
<trkpt lat="45.08059" lon="13.63188">
<ele>45</ele>
<time>2011-05-03T10:41:37Z</time>
</trkpt>
<trkpt lat="45.08056" lon="13.63193">
<ele>45</ele>
<time>2011-05-03T10:41:39Z</time>
</trkpt>
<trkpt lat="45.08053" lon="13.63198">
<ele>45</ele>
<time>2011-05-03T10:41:41Z</time>
</trkpt>
<trkpt lat="45.0805" lon="13.63203">
<ele>45</ele>
<time>2011-05-03T10:41:43Z</time>
</trkpt>
<trkpt lat="45.08047" lon="13.63208">
<ele>45</ele>
<time>2011-05-03T10:41:45Z</time>
</trkpt>
<trkpt lat="45.08044" lon="13.63214">
<ele>45</ele>
<time>2011-05-03T10:41:47Z</time>
</trkpt>
<trkpt lat="45.08041" lon="13.63219">
<ele>45</ele>
<time>2011-05-03T10:41:49Z</time>
</trkpt>
<trkpt lat="45.08038" lon="13.63224">
<ele>45</ele>
<time>2011-05-03T10:41:51Z</time>
</trkpt>
<trkpt lat="45.08035" lon="13.63228">
<ele>45</ele>
<time>2011-05-03T10:41:53Z</time>
</trkpt>
<trkpt lat="45.08032" lon="13.63233">
<ele>45</ele>
<time>2011-05-03T10:41:55Z</time>
</trkpt>
<trkpt lat="45.08028" lon="13.6324">
<ele>45</ele>
<time>2011-05-03T10:41:58Z</time>
</trkpt>
<trkpt lat="45.08023" lon="13.63247">
<ele>45</ele>
<time>2011-05-03T10:42:01Z</time>
</trkpt>
<trkpt lat="45.0802" lon="13.63254">
<ele>45</ele>
<time>2011-05-03T10:42:04Z</time>
</trkpt>
<trkpt lat="45.08016" lon="13.63261">
<ele>45</ele>
<time>2011-05-03T10:42:07Z</time>
</trkpt>
<trkpt lat="45.08012" lon="13.63268">
<ele>44</ele>
<time>2011-05-03T10:42:10Z</time>
</trkpt>
<trkpt lat="45.08009" lon="13.63275">
<ele>44</ele>
<time>2011-05-03T10:42:13Z</time>
</trkpt>
<trkpt lat="45.08005" lon="13.63281">
<ele>44</ele>
<time>2011-05-03T10:42:16Z</time>
</trkpt>
<trkpt lat="45.08001" lon="13.63287">
<ele>44</ele>
<time>2011-05-03T10:42:19Z</time>
</trkpt>
<trkpt lat="45.07998" lon="13.63294">
<ele>44</ele>
<time>2011-05-03T10:42:22Z</time>
</trkpt>
<trkpt lat="45.07994" lon="13.633">
<ele>44</ele>
<time>2011-05-03T10:42:25Z</time>
</trkpt>
<trkpt lat="45.0799" lon="13.63307">
<ele>44</ele>
<time>2011-05-03T10:42:28Z</time>
</trkpt>
<trkpt lat="45.07986" lon="13.63313">
<ele>44</ele>
<time>2011-05-03T10:42:31Z</time>
</trkpt>
<trkpt lat="45.07981" lon="13.6332">
<ele>44</ele>
<time>2011-05-03T10:42:34Z</time>
</trkpt>
<trkpt lat="45.07977" lon="13.63328">
<ele>43</ele>
<time>2011-05-03T10:42:37Z</time>
</trkpt>
<trkpt lat="45.07974" lon="13.63333">
<ele>43</ele>
<time>2011-05-03T10:42:39Z</time>
</trkpt>
<trkpt lat="45.07972" lon="13.63338">
<ele>43</ele>
<time>2011-05-03T10:42:41Z</time>
</trkpt>
<trkpt lat="45.07969" lon="13.63344">
<ele>43</ele>
<time>2011-05-03T10:42:43Z</time>
</trkpt>
<trkpt lat="45.07967" lon="13.6335">
<ele>43</ele>
<time>2011-05-03T10:42:45Z</time>
</trkpt>
<trkpt lat="45.07964" lon="13.63356">
<ele>43</ele>
<time>2011-05-03T10:42:47Z</time>
</trkpt>
<trkpt lat="45.07961" lon="13.63362">
<ele>43</ele>
<time>2011-05-03T10:42:49Z</time>
</trkpt>
<trkpt lat="45.07958" lon="13.63368">
<ele>43</ele>
<time>2011-05-03T10:42:51Z</time>
</trkpt>
<trkpt lat="45.07955" lon="13.63374">
<ele>43</ele>
<time>2011-05-03T10:42:53Z</time>
</trkpt>
<trkpt lat="45.07952" lon="13.63381">
<ele>43</ele>
<time>2011-05-03T10:42:55Z</time>
</trkpt>
<trkpt lat="45.07949" lon="13.63387">
<ele>43</ele>
<time>2011-05-03T10:42:57Z</time>
</trkpt>
<trkpt lat="45.07946" lon="13.63393">
<ele>43</ele>
<time>2011-05-03T10:42:59Z</time>
</trkpt>
<trkpt lat="45.07943" lon="13.63399">
<ele>43</ele>
<time>2011-05-03T10:43:01Z</time>
</trkpt>
<trkpt lat="45.0794" lon="13.63405">
<ele>43</ele>
<time>2011-05-03T10:43:03Z</time>
</trkpt>
<trkpt lat="45.07937" lon="13.63411">
<ele>43</ele>
<time>2011-05-03T10:43:05Z</time>
</trkpt>
<trkpt lat="45.07934" lon="13.63418">
<ele>43</ele>
<time>2011-05-03T10:43:07Z</time>
</trkpt>
<trkpt lat="45.07931" lon="13.63423">
<ele>43</ele>
<time>2011-05-03T10:43:09Z</time>
</trkpt>
<trkpt lat="45.07928" lon="13.63429">
<ele>43</ele>
<time>2011-05-03T10:43:11Z</time>
</trkpt>
<trkpt lat="45.07925" lon="13.63435">
<ele>43</ele>
<time>2011-05-03T10:43:13Z</time>
</trkpt>
<trkpt lat="45.07922" lon="13.63441">
<ele>43</ele>
<time>2011-05-03T10:43:15Z</time>
</trkpt>
<trkpt lat="45.07918" lon="13.63447">
<ele>43</ele>
<time>2011-05-03T10:43:17Z</time>
</trkpt>
<trkpt lat="45.07915" lon="13.63452">
<ele>43</ele>
<time>2011-05-03T10:43:19Z</time>
</trkpt>
<trkpt lat="45.07911" lon="13.63458">
<ele>43</ele>
<time>2011-05-03T10:43:21Z</time>
</trkpt>
<trkpt lat="45.07908" lon="13.63463">
<ele>43</ele>
<time>2011-05-03T10:43:23Z</time>
</trkpt>
<trkpt lat="45.07905" lon="13.63468">
<ele>43</ele>
<time>2011-05-03T10:43:25Z</time>
</trkpt>
<trkpt lat="45.07902" lon="13.63474">
<ele>43</ele>
<time>2011-05-03T10:43:27Z</time>
</trkpt>
<trkpt lat="45.07899" lon="13.63479">
<ele>43</ele>
<time>2011-05-03T10:43:29Z</time>
</trkpt>
<trkpt lat="45.07896" lon="13.63484">
<ele>43</ele>
<time>2011-05-03T10:43:31Z</time>
</trkpt>
<trkpt lat="45.07891" lon="13.63489">
<ele>43</ele>
<time>2011-05-03T10:43:34Z</time>
</trkpt>
<trkpt lat="45.07886" lon="13.63491">
<ele>43</ele>
<time>2011-05-03T10:43:37Z</time>
</trkpt>
<trkpt lat="45.0788" lon="13.6349">
<ele>43</ele>
<time>2011-05-03T10:43:40Z</time>
</trkpt>
<trkpt lat="45.07875" lon="13.63487">
<ele>43</ele>
<time>2011-05-03T10:43:43Z</time>
</trkpt>
<trkpt lat="45.07869" lon="13.63482">
<ele>43</ele>
<time>2011-05-03T10:43:46Z</time>
</trkpt>
<trkpt lat="45.07864" lon="13.63478">
<ele>44</ele>
<time>2011-05-03T10:43:48Z</time>
</trkpt>
<trkpt lat="45.0786" lon="13.63474">
<ele>44</ele>
<time>2011-05-03T10:43:50Z</time>
</trkpt>
<trkpt lat="45.07856" lon="13.6347">
<ele>44</ele>
<time>2011-05-03T10:43:52Z</time>
</trkpt>
<trkpt lat="45.07851" lon="13.63466">
<ele>44</ele>
<time>2011-05-03T10:43:54Z</time>
</trkpt>
<trkpt lat="45.07847" lon="13.63462">
<ele>44</ele>
<time>2011-05-03T10:43:56Z</time>
</trkpt>
<trkpt lat="45.07842" lon="13.63458">
<ele>44</ele>
<time>2011-05-03T10:43:58Z</time>
</trkpt>
<trkpt lat="45.07838" lon="13.63453">
<ele>44</ele>
<time>2011-05-03T10:44:00Z</time>
</trkpt>
<trkpt lat="45.07833" lon="13.63449">
<ele>44</ele>
<time>2011-05-03T10:44:02Z</time>
</trkpt>
<trkpt lat="45.07829" lon="13.63445">
<ele>44</ele>
<time>2011-05-03T10:44:04Z</time>
</trkpt>
<trkpt lat="45.07824" lon="13.6344">
<ele>44</ele>
<time>2011-05-03T10:44:06Z</time>
</trkpt>
<trkpt lat="45.07819" lon="13.63436">
<ele>44</ele>
<time>2011-05-03T10:44:08Z</time>
</trkpt>
<trkpt lat="45.07814" lon="13.63432">
<ele>44</ele>
<time>2011-05-03T10:44:10Z</time>
</trkpt>
<trkpt lat="45.0781" lon="13.63427">
<ele>44</ele>
<time>2011-05-03T10:44:12Z</time>
</trkpt>
<trkpt lat="45.07805" lon="13.63423">
<ele>44</ele>
<time>2011-05-03T10:44:14Z</time>
</trkpt>
<trkpt lat="45.078" lon="13.63418">
<ele>44</ele>
<time>2011-05-03T10:44:16Z</time>
</trkpt>
<trkpt lat="45.07796" lon="13.63414">
<ele>44</ele>
<time>2011-05-03T10:44:18Z</time>
</trkpt>
<trkpt lat="45.07791" lon="13.63409">
<ele>44</ele>
<time>2011-05-03T10:44:20Z</time>
</trkpt>
<trkpt lat="45.07787" lon="13.63404">
<ele>45</ele>
<time>2011-05-03T10:44:22Z</time>
</trkpt>
<trkpt lat="45.07782" lon="13.63399">
<ele>45</ele>
<time>2011-05-03T10:44:24Z</time>
</trkpt>
<trkpt lat="45.07778" lon="13.63394">
<ele>45</ele>
<time>2011-05-03T10:44:26Z</time>
</trkpt>
<trkpt lat="45.07774" lon="13.63389">
<ele>45</ele>
<time>2011-05-03T10:44:28Z</time>
</trkpt>
<trkpt lat="45.07769" lon="13.63384">
<ele>45</ele>
<time>2011-05-03T10:44:30Z</time>
</trkpt>
<trkpt lat="45.07765" lon="13.6338">
<ele>45</ele>
<time>2011-05-03T10:44:32Z</time>
</trkpt>
<trkpt lat="45.07761" lon="13.63375">
<ele>45</ele>
<time>2011-05-03T10:44:34Z</time>
</trkpt>
<trkpt lat="45.07756" lon="13.6337">
<ele>45</ele>
<time>2011-05-03T10:44:36Z</time>
</trkpt>
<trkpt lat="45.07752" lon="13.63365">
<ele>45</ele>
<time>2011-05-03T10:44:38Z</time>
</trkpt>
<trkpt lat="45.07747" lon="13.6336">
<ele>45</ele>
<time>2011-05-03T10:44:40Z</time>
</trkpt>
<trkpt lat="45.07743" lon="13.63355">
<ele>45</ele>
<time>2011-05-03T10:44:42Z</time>
</trkpt>
<trkpt lat="45.07738" lon="13.6335">
<ele>45</ele>
<time>2011-05-03T10:44:44Z</time>
</trkpt>
<trkpt lat="45.07734" lon="13.63345">
<ele>45</ele>
<time>2011-05-03T10:44:46Z</time>
</trkpt>
<trkpt lat="45.07729" lon="13.6334">
<ele>45</ele>
<time>2011-05-03T10:44:48Z</time>
</trkpt>
<trkpt lat="45.07725" lon="13.63334">
<ele>45</ele>
<time>2011-05-03T10:44:50Z</time>
</trkpt>
<trkpt lat="45.0772" lon="13.63329">
<ele>45</ele>
<time>2011-05-03T10:44:52Z</time>
</trkpt>
<trkpt lat="45.07716" lon="13.63324">
<ele>46</ele>
<time>2011-05-03T10:44:54Z</time>
</trkpt>
<trkpt lat="45.07711" lon="13.63319">
<ele>46</ele>
<time>2011-05-03T10:44:56Z</time>
</trkpt>
<trkpt lat="45.07706" lon="13.63314">
<ele>46</ele>
<time>2011-05-03T10:44:58Z</time>
</trkpt>
<trkpt lat="45.07702" lon="13.63309">
<ele>46</ele>
<time>2011-05-03T10:45:00Z</time>
</trkpt>
<trkpt lat="45.07697" lon="13.63304">
<ele>46</ele>
<time>2011-05-03T10:45:02Z</time>
</trkpt>
<trkpt lat="45.07692" lon="13.63299">
<ele>46</ele>
<time>2011-05-03T10:45:04Z</time>
</trkpt>
<trkpt lat="45.07688" lon="13.63294">
<ele>46</ele>
<time>2011-05-03T10:45:06Z</time>
</trkpt>
<trkpt lat="45.07683" lon="13.63289">
<ele>46</ele>
<time>2011-05-03T10:45:08Z</time>
</trkpt>
<trkpt lat="45.07679" lon="13.63284">
<ele>46</ele>
<time>2011-05-03T10:45:10Z</time>
</trkpt>
<trkpt lat="45.07674" lon="13.63278">
<ele>46</ele>
<time>2011-05-03T10:45:12Z</time>
</trkpt>
<trkpt lat="45.0767" lon="13.63273">
<ele>46</ele>
<time>2011-05-03T10:45:14Z</time>
</trkpt>
<trkpt lat="45.07665" lon="13.63268">
<ele>46</ele>
<time>2011-05-03T10:45:16Z</time>
</trkpt>
<trkpt lat="45.0766" lon="13.63263">
<ele>46</ele>
<time>2011-05-03T10:45:18Z</time>
</trkpt>
<trkpt lat="45.07656" lon="13.63258">
<ele>46</ele>
<time>2011-05-03T10:45:20Z</time>
</trkpt>
<trkpt lat="45.07652" lon="13.63252">
<ele>46</ele>
<time>2011-05-03T10:45:22Z</time>
</trkpt>
<trkpt lat="45.07647" lon="13.63247">
<ele>46</ele>
<time>2011-05-03T10:45:24Z</time>
</trkpt>
<trkpt lat="45.07643" lon="13.63242">
<ele>46</ele>
<time>2011-05-03T10:45:26Z</time>
</trkpt>
<trkpt lat="45.07639" lon="13.63236">
<ele>46</ele>
<time>2011-05-03T10:45:28Z</time>
</trkpt>
<trkpt lat="45.07634" lon="13.63231">
<ele>46</ele>
<time>2011-05-03T10:45:30Z</time>
</trkpt>
<trkpt lat="45.0763" lon="13.63225">
<ele>46</ele>
<time>2011-05-03T10:45:32Z</time>
</trkpt>
<trkpt lat="45.07625" lon="13.6322">
<ele>46</ele>
<time>2011-05-03T10:45:34Z</time>
</trkpt>
<trkpt lat="45.0762" lon="13.63215">
<ele>46</ele>
<time>2011-05-03T10:45:36Z</time>
</trkpt>
<trkpt lat="45.07615" lon="13.63211">
<ele>46</ele>
<time>2011-05-03T10:45:38Z</time>
</trkpt>
<trkpt lat="45.0761" lon="13.63207">
<ele>46</ele>
<time>2011-05-03T10:45:40Z</time>
</trkpt>
<trkpt lat="45.07605" lon="13.63204">
<ele>46</ele>
<time>2011-05-03T10:45:42Z</time>
</trkpt>
<trkpt lat="45.07599" lon="13.63201">
<ele>46</ele>
<time>2011-05-03T10:45:44Z</time>
</trkpt>
<trkpt lat="45.07594" lon="13.63198">
<ele>46</ele>
<time>2011-05-03T10:45:46Z</time>
</trkpt>
<trkpt lat="45.07589" lon="13.63194">
<ele>46</ele>
<time>2011-05-03T10:45:48Z</time>
</trkpt>
<trkpt lat="45.07584" lon="13.63189">
<ele>46</ele>
<time>2011-05-03T10:45:50Z</time>
</trkpt>
<trkpt lat="45.07579" lon="13.63185">
<ele>46</ele>
<time>2011-05-03T10:45:52Z</time>
</trkpt>
<trkpt lat="45.07575" lon="13.6318">
<ele>46</ele>
<time>2011-05-03T10:45:54Z</time>
</trkpt>
<trkpt lat="45.0757" lon="13.63175">
<ele>46</ele>
<time>2011-05-03T10:45:56Z</time>
</trkpt>
<trkpt lat="45.07565" lon="13.63171">
<ele>46</ele>
<time>2011-05-03T10:45:58Z</time>
</trkpt>
<trkpt lat="45.0756" lon="13.63166">
<ele>46</ele>
<time>2011-05-03T10:46:00Z</time>
</trkpt>
<trkpt lat="45.07556" lon="13.63161">
<ele>46</ele>
<time>2011-05-03T10:46:02Z</time>
</trkpt>
<trkpt lat="45.07551" lon="13.63157">
<ele>46</ele>
<time>2011-05-03T10:46:04Z</time>
</trkpt>
<trkpt lat="45.07546" lon="13.63152">
<ele>46</ele>
<time>2011-05-03T10:46:06Z</time>
</trkpt>
<trkpt lat="45.07541" lon="13.63147">
<ele>46</ele>
<time>2011-05-03T10:46:08Z</time>
</trkpt>
<trkpt lat="45.07537" lon="13.63142">
<ele>46</ele>
<time>2011-05-03T10:46:10Z</time>
</trkpt>
<trkpt lat="45.07532" lon="13.63137">
<ele>46</ele>
<time>2011-05-03T10:46:12Z</time>
</trkpt>
<trkpt lat="45.07528" lon="13.63131">
<ele>46</ele>
<time>2011-05-03T10:46:14Z</time>
</trkpt>
<trkpt lat="45.07523" lon="13.63126">
<ele>46</ele>
<time>2011-05-03T10:46:16Z</time>
</trkpt>
<trkpt lat="45.07519" lon="13.63121">
<ele>46</ele>
<time>2011-05-03T10:46:18Z</time>
</trkpt>
<trkpt lat="45.07514" lon="13.63116">
<ele>46</ele>
<time>2011-05-03T10:46:20Z</time>
</trkpt>
<trkpt lat="45.0751" lon="13.63111">
<ele>46</ele>
<time>2011-05-03T10:46:22Z</time>
</trkpt>
<trkpt lat="45.07506" lon="13.63105">
<ele>46</ele>
<time>2011-05-03T10:46:24Z</time>
</trkpt>
<trkpt lat="45.07501" lon="13.631">
<ele>46</ele>
<time>2011-05-03T10:46:26Z</time>
</trkpt>
<trkpt lat="45.07497" lon="13.63094">
<ele>46</ele>
<time>2011-05-03T10:46:28Z</time>
</trkpt>
<trkpt lat="45.07493" lon="13.63089">
<ele>46</ele>
<time>2011-05-03T10:46:30Z</time>
</trkpt>
<trkpt lat="45.07489" lon="13.63083">
<ele>46</ele>
<time>2011-05-03T10:46:32Z</time>
</trkpt>
<trkpt lat="45.07485" lon="13.63077">
<ele>46</ele>
<time>2011-05-03T10:46:34Z</time>
</trkpt>
<trkpt lat="45.0748" lon="13.63071">
<ele>46</ele>
<time>2011-05-03T10:46:36Z</time>
</trkpt>
<trkpt lat="45.07476" lon="13.63066">
<ele>46</ele>
<time>2011-05-03T10:46:38Z</time>
</trkpt>
<trkpt lat="45.07472" lon="13.6306">
<ele>46</ele>
<time>2011-05-03T10:46:40Z</time>
</trkpt>
<trkpt lat="45.07468" lon="13.63054">
<ele>46</ele>
<time>2011-05-03T10:46:42Z</time>
</trkpt>
<trkpt lat="45.07464" lon="13.63048">
<ele>46</ele>
<time>2011-05-03T10:46:44Z</time>
</trkpt>
<trkpt lat="45.07459" lon="13.63043">
<ele>46</ele>
<time>2011-05-03T10:46:46Z</time>
</trkpt>
<trkpt lat="45.07454" lon="13.63038">
<ele>46</ele>
<time>2011-05-03T10:46:48Z</time>
</trkpt>
<trkpt lat="45.0745" lon="13.63034">
<ele>46</ele>
<time>2011-05-03T10:46:50Z</time>
</trkpt>
<trkpt lat="45.07445" lon="13.6303">
<ele>46</ele>
<time>2011-05-03T10:46:52Z</time>
</trkpt>
<trkpt lat="45.07439" lon="13.63026">
<ele>46</ele>
<time>2011-05-03T10:46:54Z</time>
</trkpt>
<trkpt lat="45.07434" lon="13.63021">
<ele>46</ele>
<time>2011-05-03T10:46:56Z</time>
</trkpt>
<trkpt lat="45.07428" lon="13.63018">
<ele>47</ele>
<time>2011-05-03T10:46:58Z</time>
</trkpt>
<trkpt lat="45.07422" lon="13.63016">
<ele>47</ele>
<time>2011-05-03T10:47:00Z</time>
</trkpt>
<trkpt lat="45.07416" lon="13.63014">
<ele>47</ele>
<time>2011-05-03T10:47:02Z</time>
</trkpt>
<trkpt lat="45.0741" lon="13.63012">
<ele>47</ele>
<time>2011-05-03T10:47:04Z</time>
</trkpt>
<trkpt lat="45.07404" lon="13.63012">
<ele>47</ele>
<time>2011-05-03T10:47:06Z</time>
</trkpt>
<trkpt lat="45.07398" lon="13.63013">
<ele>47</ele>
<time>2011-05-03T10:47:08Z</time>
</trkpt>
<trkpt lat="45.07393" lon="13.63016">
<ele>47</ele>
<time>2011-05-03T10:47:10Z</time>
</trkpt>
<trkpt lat="45.07388" lon="13.63021">
<ele>47</ele>
<time>2011-05-03T10:47:12Z</time>
</trkpt>
<trkpt lat="45.07384" lon="13.63025">
<ele>47</ele>
<time>2011-05-03T10:47:14Z</time>
</trkpt>
<trkpt lat="45.07379" lon="13.6303">
<ele>47</ele>
<time>2011-05-03T10:47:16Z</time>
</trkpt>
<trkpt lat="45.07374" lon="13.63034">
<ele>47</ele>
<time>2011-05-03T10:47:18Z</time>
</trkpt>
<trkpt lat="45.07369" lon="13.63037">
<ele>47</ele>
<time>2011-05-03T10:47:20Z</time>
</trkpt>
<trkpt lat="45.07364" lon="13.63041">
<ele>47</ele>
<time>2011-05-03T10:47:22Z</time>
</trkpt>
<trkpt lat="45.07358" lon="13.63045">
<ele>47</ele>
<time>2011-05-03T10:47:24Z</time>
</trkpt>
<trkpt lat="45.07353" lon="13.63048">
<ele>47</ele>
<time>2011-05-03T10:47:26Z</time>
</trkpt>
<trkpt lat="45.07348" lon="13.63052">
<ele>47</ele>
<time>2011-05-03T10:47:28Z</time>
</trkpt>
<trkpt lat="45.07342" lon="13.63055">
<ele>47</ele>
<time>2011-05-03T10:47:30Z</time>
</trkpt>
<trkpt lat="45.07337" lon="13.63059">
<ele>47</ele>
<time>2011-05-03T10:47:32Z</time>
</trkpt>
<trkpt lat="45.07331" lon="13.63062">
<ele>47</ele>
<time>2011-05-03T10:47:34Z</time>
</trkpt>
<trkpt lat="45.07326" lon="13.63065">
<ele>47</ele>
<time>2011-05-03T10:47:36Z</time>
</trkpt>
<trkpt lat="45.0732" lon="13.63069">
<ele>47</ele>
<time>2011-05-03T10:47:38Z</time>
</trkpt>
<trkpt lat="45.07314" lon="13.63072">
<ele>47</ele>
<time>2011-05-03T10:47:40Z</time>
</trkpt>
<trkpt lat="45.07308" lon="13.63074">
<ele>47</ele>
<time>2011-05-03T10:47:42Z</time>
</trkpt>
<trkpt lat="45.07302" lon="13.63077">
<ele>47</ele>
<time>2011-05-03T10:47:44Z</time>
</trkpt>
<trkpt lat="45.07297" lon="13.6308">
<ele>47</ele>
<time>2011-05-03T10:47:46Z</time>
</trkpt>
<trkpt lat="45.07291" lon="13.63083">
<ele>47</ele>
<time>2011-05-03T10:47:48Z</time>
</trkpt>
<trkpt lat="45.07285" lon="13.63086">
<ele>47</ele>
<time>2011-05-03T10:47:50Z</time>
</trkpt>
<trkpt lat="45.0728" lon="13.6309">
<ele>47</ele>
<time>2011-05-03T10:47:52Z</time>
</trkpt>
<trkpt lat="45.07274" lon="13.63093">
<ele>47</ele>
<time>2011-05-03T10:47:54Z</time>
</trkpt>
<trkpt lat="45.07269" lon="13.63097">
<ele>47</ele>
<time>2011-05-03T10:47:56Z</time>
</trkpt>
<trkpt lat="45.07263" lon="13.63101">
<ele>47</ele>
<time>2011-05-03T10:47:58Z</time>
</trkpt>
<trkpt lat="45.07258" lon="13.63106">
<ele>47</ele>
<time>2011-05-03T10:48:00Z</time>
</trkpt>
<trkpt lat="45.07253" lon="13.6311">
<ele>47</ele>
<time>2011-05-03T10:48:02Z</time>
</trkpt>
<trkpt lat="45.07248" lon="13.63115">
<ele>47</ele>
<time>2011-05-03T10:48:04Z</time>
</trkpt>
<trkpt lat="45.07243" lon="13.6312">
<ele>47</ele>
<time>2011-05-03T10:48:06Z</time>
</trkpt>
<trkpt lat="45.07238" lon="13.63124">
<ele>47</ele>
<time>2011-05-03T10:48:08Z</time>
</trkpt>
<trkpt lat="45.07233" lon="13.63129">
<ele>47</ele>
<time>2011-05-03T10:48:10Z</time>
</trkpt>
<trkpt lat="45.07228" lon="13.63134">
<ele>47</ele>
<time>2011-05-03T10:48:12Z</time>
</trkpt>
<trkpt lat="45.07224" lon="13.63139">
<ele>47</ele>
<time>2011-05-03T10:48:14Z</time>
</trkpt>
<trkpt lat="45.07219" lon="13.63144">
<ele>47</ele>
<time>2011-05-03T10:48:16Z</time>
</trkpt>
<trkpt lat="45.07214" lon="13.6315">
<ele>47</ele>
<time>2011-05-03T10:48:18Z</time>
</trkpt>
<trkpt lat="45.0721" lon="13.63155">
<ele>47</ele>
<time>2011-05-03T10:48:20Z</time>
</trkpt>
<trkpt lat="45.07205" lon="13.63161">
<ele>47</ele>
<time>2011-05-03T10:48:22Z</time>
</trkpt>
<trkpt lat="45.072" lon="13.63166">
<ele>47</ele>
<time>2011-05-03T10:48:24Z</time>
</trkpt>
<trkpt lat="45.07196" lon="13.63171">
<ele>47</ele>
<time>2011-05-03T10:48:26Z</time>
</trkpt>
<trkpt lat="45.07191" lon="13.63176">
<ele>47</ele>
<time>2011-05-03T10:48:28Z</time>
</trkpt>
<trkpt lat="45.07186" lon="13.63182">
<ele>47</ele>
<time>2011-05-03T10:48:30Z</time>
</trkpt>
<trkpt lat="45.07181" lon="13.63187">
<ele>47</ele>
<time>2011-05-03T10:48:32Z</time>
</trkpt>
<trkpt lat="45.07176" lon="13.63192">
<ele>47</ele>
<time>2011-05-03T10:48:34Z</time>
</trkpt>
<trkpt lat="45.07172" lon="13.63198">
<ele>47</ele>
<time>2011-05-03T10:48:36Z</time>
</trkpt>
<trkpt lat="45.07166" lon="13.63203">
<ele>47</ele>
<time>2011-05-03T10:48:38Z</time>
</trkpt>
<trkpt lat="45.07162" lon="13.63208">
<ele>47</ele>
<time>2011-05-03T10:48:40Z</time>
</trkpt>
<trkpt lat="45.07157" lon="13.63213">
<ele>47</ele>
<time>2011-05-03T10:48:42Z</time>
</trkpt>
<trkpt lat="45.07152" lon="13.63218">
<ele>47</ele>
<time>2011-05-03T10:48:44Z</time>
</trkpt>
<trkpt lat="45.07147" lon="13.63223">
<ele>47</ele>
<time>2011-05-03T10:48:46Z</time>
</trkpt>
<trkpt lat="45.07142" lon="13.63229">
<ele>47</ele>
<time>2011-05-03T10:48:48Z</time>
</trkpt>
<trkpt lat="45.07137" lon="13.63234">
<ele>47</ele>
<time>2011-05-03T10:48:50Z</time>
</trkpt>
<trkpt lat="45.07132" lon="13.6324">
<ele>47</ele>
<time>2011-05-03T10:48:52Z</time>
</trkpt>
<trkpt lat="45.07128" lon="13.63245">
<ele>47</ele>
<time>2011-05-03T10:48:54Z</time>
</trkpt>
<trkpt lat="45.07123" lon="13.6325">
<ele>47</ele>
<time>2011-05-03T10:48:56Z</time>
</trkpt>
<trkpt lat="45.07118" lon="13.63256">
<ele>47</ele>
<time>2011-05-03T10:48:58Z</time>
</trkpt>
<trkpt lat="45.07113" lon="13.63261">
<ele>47</ele>
<time>2011-05-03T10:49:00Z</time>
</trkpt>
<trkpt lat="45.07108" lon="13.63266">
<ele>47</ele>
<time>2011-05-03T10:49:02Z</time>
</trkpt>
<trkpt lat="45.07104" lon="13.63271">
<ele>47</ele>
<time>2011-05-03T10:49:04Z</time>
</trkpt>
<trkpt lat="45.07098" lon="13.63276">
<ele>47</ele>
<time>2011-05-03T10:49:06Z</time>
</trkpt>
<trkpt lat="45.07094" lon="13.63281">
<ele>47</ele>
<time>2011-05-03T10:49:08Z</time>
</trkpt>
<trkpt lat="45.07089" lon="13.63286">
<ele>47</ele>
<time>2011-05-03T10:49:10Z</time>
</trkpt>
<trkpt lat="45.07084" lon="13.6329">
<ele>47</ele>
<time>2011-05-03T10:49:12Z</time>
</trkpt>
<trkpt lat="45.07079" lon="13.63295">
<ele>47</ele>
<time>2011-05-03T10:49:14Z</time>
</trkpt>
<trkpt lat="45.07075" lon="13.63299">
<ele>47</ele>
<time>2011-05-03T10:49:16Z</time>
</trkpt>
<trkpt lat="45.07071" lon="13.63302">
<ele>47</ele>
<time>2011-05-03T10:49:18Z</time>
</trkpt>
<trkpt lat="45.07065" lon="13.63307">
<ele>47</ele>
<time>2011-05-03T10:49:21Z</time>
</trkpt>
<trkpt lat="45.07061" lon="13.6331">
<ele>47</ele>
<time>2011-05-03T10:49:23Z</time>
</trkpt>
<trkpt lat="45.07055" lon="13.63315">
<ele>47</ele>
<time>2011-05-03T10:49:26Z</time>
</trkpt>
<trkpt lat="45.07049" lon="13.63318">
<ele>47</ele>
<time>2011-05-03T10:49:29Z</time>
</trkpt>
<trkpt lat="45.07043" lon="13.63321">
<ele>47</ele>
<time>2011-05-03T10:49:32Z</time>
</trkpt>
<trkpt lat="45.07038" lon="13.63323">
<ele>47</ele>
<time>2011-05-03T10:49:35Z</time>
</trkpt>
<trkpt lat="45.07032" lon="13.63326">
<ele>47</ele>
<time>2011-05-03T10:49:38Z</time>
</trkpt>
<trkpt lat="45.07027" lon="13.6333">
<ele>47</ele>
<time>2011-05-03T10:49:41Z</time>
</trkpt>
<trkpt lat="45.07022" lon="13.63335">
<ele>47</ele>
<time>2011-05-03T10:49:44Z</time>
</trkpt>
<trkpt lat="45.07018" lon="13.6334">
<ele>47</ele>
<time>2011-05-03T10:49:47Z</time>
</trkpt>
<trkpt lat="45.07014" lon="13.63345">
<ele>47</ele>
<time>2011-05-03T10:49:50Z</time>
</trkpt>
<trkpt lat="45.07011" lon="13.6335">
<ele>47</ele>
<time>2011-05-03T10:49:53Z</time>
</trkpt>
<trkpt lat="45.07007" lon="13.63357">
<ele>47</ele>
<time>2011-05-03T10:49:57Z</time>
</trkpt>
<trkpt lat="45.07004" lon="13.63363">
<ele>47</ele>
<time>2011-05-03T10:50:01Z</time>
</trkpt>
<trkpt lat="45.07001" lon="13.63368">
<ele>47</ele>
<time>2011-05-03T10:50:05Z</time>
</trkpt>
<trkpt lat="45.06998" lon="13.63373">
<ele>47</ele>
<time>2011-05-03T10:50:10Z</time>
</trkpt>
<trkpt lat="45.06993" lon="13.63373">
<ele>48</ele>
<time>2011-05-03T10:50:17Z</time>
</trkpt>
<trkpt lat="45.06989" lon="13.63368">
<ele>48</ele>
<time>2011-05-03T10:50:25Z</time>
</trkpt>
<trkpt lat="45.06989" lon="13.63362">
<ele>47</ele>
<time>2011-05-03T10:50:31Z</time>
</trkpt>
<trkpt lat="45.0699" lon="13.63368">
<ele>47</ele>
<time>2011-05-03T10:51:09Z</time>
</trkpt>
<trkpt lat="45.06989" lon="13.63375">
<ele>46</ele>
<time>2011-05-03T10:51:19Z</time>
</trkpt>
<trkpt lat="45.06988" lon="13.63382">
<ele>46</ele>
<time>2011-05-03T10:51:28Z</time>
</trkpt>
<trkpt lat="45.06987" lon="13.63388">
<ele>46</ele>
<time>2011-05-03T10:51:36Z</time>
</trkpt>
<trkpt lat="45.06988" lon="13.63395">
<ele>46</ele>
<time>2011-05-03T10:51:43Z</time>
</trkpt>
<trkpt lat="45.06989" lon="13.63401">
<ele>46</ele>
<time>2011-05-03T10:51:50Z</time>
</trkpt>
<trkpt lat="45.0699" lon="13.63407">
<ele>46</ele>
<time>2011-05-03T10:51:57Z</time>
</trkpt>
<trkpt lat="45.06992" lon="13.63413">
<ele>46</ele>
<time>2011-05-03T10:52:04Z</time>
</trkpt>
<trkpt lat="45.06994" lon="13.63419">
<ele>46</ele>
<time>2011-05-03T10:52:13Z</time>
</trkpt>
<trkpt lat="45.06996" lon="13.63425">
<ele>46</ele>
<time>2011-05-03T10:52:21Z</time>
</trkpt>
<trkpt lat="45.06997" lon="13.63431">
<ele>46</ele>
<time>2011-05-03T10:52:29Z</time>
</trkpt>
<trkpt lat="45.06998" lon="13.63425">
<ele>46</ele>
<time>2011-05-03T10:53:13Z</time>
</trkpt>
<trkpt lat="45.06999" lon="13.63431">
<ele>45</ele>
<time>2011-05-03T10:53:38Z</time>
</trkpt>
<trkpt lat="45.07003" lon="13.63428">
<ele>45</ele>
<time>2011-05-03T10:54:15Z</time>
</trkpt>
<trkpt lat="45.07003" lon="13.63421">
<ele>46</ele>
<time>2011-05-03T10:54:46Z</time>
</trkpt>
<trkpt lat="45.07006" lon="13.63416">
<ele>46</ele>
<time>2011-05-03T10:55:10Z</time>
</trkpt>
<trkpt lat="45.0701" lon="13.63414">
<ele>46</ele>
<time>2011-05-03T10:56:05Z</time>
</trkpt>
<trkpt lat="45.07006" lon="13.63416">
<ele>46</ele>
<time>2011-05-03T10:59:03Z</time>
</trkpt>
<trkpt lat="45.07004" lon="13.63421">
<ele>46</ele>
<time>2011-05-03T11:00:16Z</time>
</trkpt>
<trkpt lat="45.07007" lon="13.63426">
<ele>46</ele>
<time>2011-05-03T11:01:00Z</time>
</trkpt>
<trkpt lat="45.07006" lon="13.63419">
<ele>46</ele>
<time>2011-05-03T11:02:18Z</time>
</trkpt>
<trkpt lat="45.07003" lon="13.63424">
<ele>47</ele>
<time>2011-05-03T11:12:31Z</time>
</trkpt>
<trkpt lat="45.06999" lon="13.63426">
<ele>46</ele>
<time>2011-05-03T11:17:05Z</time>
</trkpt>
<trkpt lat="45.07002" lon="13.63431">
<ele>46</ele>
<time>2011-05-03T11:18:02Z</time>
</trkpt>
<trkpt lat="45.07004" lon="13.63426">
<ele>46</ele>
<time>2011-05-03T11:21:50Z</time>
</trkpt>
<trkpt lat="45.07003" lon="13.6342">
<ele>46</ele>
<time>2011-05-03T11:23:59Z</time>
</trkpt>
<trkpt lat="45.07001" lon="13.63426">
<ele>47</ele>
<time>2011-05-03T11:25:38Z</time>
</trkpt>
<trkpt lat="45.06999" lon="13.63432">
<ele>46</ele>
<time>2011-05-03T11:30:35Z</time>
</trkpt>
<trkpt lat="45.07001" lon="13.63426">
<ele>46</ele>
<time>2011-05-03T11:43:53Z</time>
</trkpt>
<trkpt lat="45.06997" lon="13.63429">
<ele>46</ele>
<time>2011-05-03T11:51:23Z</time>
</trkpt>
<trkpt lat="45.07002" lon="13.63427">
<ele>46</ele>
<time>2011-05-03T11:57:28Z</time>
</trkpt>
<trkpt lat="45.06997" lon="13.63429">
<ele>46</ele>
<time>2011-05-03T12:13:39Z</time>
</trkpt>
<trkpt lat="45.07002" lon="13.63428">
<ele>46</ele>
<time>2011-05-03T12:17:02Z</time>
</trkpt>
<trkpt lat="45.07" lon="13.63422">
<ele>46</ele>
<time>2011-05-03T12:20:06Z</time>
</trkpt>
<trkpt lat="45.06999" lon="13.63415">
<ele>46</ele>
<time>2011-05-03T12:20:20Z</time>
</trkpt>
<trkpt lat="45.06997" lon="13.63409">
<ele>46</ele>
<time>2011-05-03T12:20:31Z</time>
</trkpt>
<trkpt lat="45.06994" lon="13.63404">
<ele>46</ele>
<time>2011-05-03T12:20:41Z</time>
</trkpt>
<trkpt lat="45.0699" lon="13.63401">
<ele>46</ele>
<time>2011-05-03T12:20:52Z</time>
</trkpt>
<trkpt lat="45.06988" lon="13.63395">
<ele>46</ele>
<time>2011-05-03T12:21:09Z</time>
</trkpt>
<trkpt lat="45.06987" lon="13.63389">
<ele>46</ele>
<time>2011-05-03T12:22:16Z</time>
</trkpt>
<trkpt lat="45.06989" lon="13.63383">
<ele>46</ele>
<time>2011-05-03T12:22:47Z</time>
</trkpt>
<trkpt lat="45.06991" lon="13.63377">
<ele>46</ele>
<time>2011-05-03T12:22:56Z</time>
</trkpt>
<trkpt lat="45.06994" lon="13.63371">
<ele>46</ele>
<time>2011-05-03T12:23:12Z</time>
</trkpt>
<trkpt lat="45.06996" lon="13.63365">
<ele>46</ele>
<time>2011-05-03T12:23:35Z</time>
</trkpt>
<trkpt lat="45.06996" lon="13.63359">
<ele>46</ele>
<time>2011-05-03T12:23:57Z</time>
</trkpt>
<trkpt lat="45.06995" lon="13.63352">
<ele>46</ele>
<time>2011-05-03T12:24:19Z</time>
</trkpt>
<trkpt lat="45.06997" lon="13.63346">
<ele>46</ele>
<time>2011-05-03T12:25:21Z</time>
</trkpt>
<trkpt lat="45.07" lon="13.63342">
<ele>46</ele>
<time>2011-05-03T12:26:01Z</time>
</trkpt>
<trkpt lat="45.07004" lon="13.63338">
<ele>46</ele>
<time>2011-05-03T12:26:27Z</time>
</trkpt>
<trkpt lat="45.07008" lon="13.63336">
<ele>46</ele>
<time>2011-05-03T12:26:48Z</time>
</trkpt>
<trkpt lat="45.07011" lon="13.63331">
<ele>46</ele>
<time>2011-05-03T12:27:11Z</time>
</trkpt>
<trkpt lat="45.07015" lon="13.63327">
<ele>46</ele>
<time>2011-05-03T12:27:45Z</time>
</trkpt>
<trkpt lat="45.07018" lon="13.63322">
<ele>46</ele>
<time>2011-05-03T12:28:12Z</time>
</trkpt>
<trkpt lat="45.07022" lon="13.63319">
<ele>46</ele>
<time>2011-05-03T12:28:31Z</time>
</trkpt>
<trkpt lat="45.07026" lon="13.63317">
<ele>46</ele>
<time>2011-05-03T12:28:49Z</time>
</trkpt>
<trkpt lat="45.0703" lon="13.63314">
<ele>46</ele>
<time>2011-05-03T12:29:06Z</time>
</trkpt>
<trkpt lat="45.07035" lon="13.63312">
<ele>46</ele>
<time>2011-05-03T12:29:18Z</time>
</trkpt>
<trkpt lat="45.07039" lon="13.63309">
<ele>46</ele>
<time>2011-05-03T12:29:29Z</time>
</trkpt>
<trkpt lat="45.07044" lon="13.63306">
<ele>46</ele>
<time>2011-05-03T12:29:39Z</time>
</trkpt>
<trkpt lat="45.07048" lon="13.63303">
<ele>46</ele>
<time>2011-05-03T12:29:48Z</time>
</trkpt>
<trkpt lat="45.07052" lon="13.63298">
<ele>46</ele>
<time>2011-05-03T12:29:57Z</time>
</trkpt>
<trkpt lat="45.07055" lon="13.63295">
<ele>47</ele>
<time>2011-05-03T12:30:04Z</time>
</trkpt>
<trkpt lat="45.07059" lon="13.63292">
<ele>47</ele>
<time>2011-05-03T12:30:10Z</time>
</trkpt>
<trkpt lat="45.07064" lon="13.63289">
<ele>47</ele>
<time>2011-05-03T12:30:15Z</time>
</trkpt>
<trkpt lat="45.07069" lon="13.63286">
<ele>47</ele>
<time>2011-05-03T12:30:20Z</time>
</trkpt>
<trkpt lat="45.07073" lon="13.63282">
<ele>47</ele>
<time>2011-05-03T12:30:25Z</time>
</trkpt>
<trkpt lat="45.07078" lon="13.63278">
<ele>47</ele>
<time>2011-05-03T12:30:30Z</time>
</trkpt>
<trkpt lat="45.07082" lon="13.63275">
<ele>47</ele>
<time>2011-05-03T12:30:35Z</time>
</trkpt>
<trkpt lat="45.07086" lon="13.6327">
<ele>47</ele>
<time>2011-05-03T12:30:40Z</time>
</trkpt>
<trkpt lat="45.0709" lon="13.63267">
<ele>47</ele>
<time>2011-05-03T12:30:46Z</time>
</trkpt>
<trkpt lat="45.07094" lon="13.63264">
<ele>47</ele>
<time>2011-05-03T12:30:51Z</time>
</trkpt>
<trkpt lat="45.07098" lon="13.6326">
<ele>48</ele>
<time>2011-05-03T12:30:56Z</time>
</trkpt>
<trkpt lat="45.07103" lon="13.63256">
<ele>48</ele>
<time>2011-05-03T12:31:01Z</time>
</trkpt>
<trkpt lat="45.07107" lon="13.63252">
<ele>48</ele>
<time>2011-05-03T12:31:06Z</time>
</trkpt>
<trkpt lat="45.07111" lon="13.63249">
<ele>48</ele>
<time>2011-05-03T12:31:11Z</time>
</trkpt>
<trkpt lat="45.07115" lon="13.63246">
<ele>48</ele>
<time>2011-05-03T12:31:16Z</time>
</trkpt>
<trkpt lat="45.07119" lon="13.63243">
<ele>48</ele>
<time>2011-05-03T12:31:21Z</time>
</trkpt>
<trkpt lat="45.07124" lon="13.6324">
<ele>48</ele>
<time>2011-05-03T12:31:26Z</time>
</trkpt>
<trkpt lat="45.07129" lon="13.63237">
<ele>48</ele>
<time>2011-05-03T12:31:30Z</time>
</trkpt>
<trkpt lat="45.07133" lon="13.63234">
<ele>48</ele>
<time>2011-05-03T12:31:34Z</time>
</trkpt>
<trkpt lat="45.07138" lon="13.63229">
<ele>48</ele>
<time>2011-05-03T12:31:38Z</time>
</trkpt>
<trkpt lat="45.07143" lon="13.63224">
<ele>48</ele>
<time>2011-05-03T12:31:42Z</time>
</trkpt>
<trkpt lat="45.07147" lon="13.6322">
<ele>49</ele>
<time>2011-05-03T12:31:46Z</time>
</trkpt>
<trkpt lat="45.07152" lon="13.63215">
<ele>49</ele>
<time>2011-05-03T12:31:50Z</time>
</trkpt>
<trkpt lat="45.07156" lon="13.63211">
<ele>49</ele>
<time>2011-05-03T12:31:54Z</time>
</trkpt>
<trkpt lat="45.0716" lon="13.63206">
<ele>49</ele>
<time>2011-05-03T12:31:58Z</time>
</trkpt>
<trkpt lat="45.07164" lon="13.63202">
<ele>49</ele>
<time>2011-05-03T12:32:02Z</time>
</trkpt>
<trkpt lat="45.07168" lon="13.63198">
<ele>49</ele>
<time>2011-05-03T12:32:06Z</time>
</trkpt>
<trkpt lat="45.07173" lon="13.63194">
<ele>49</ele>
<time>2011-05-03T12:32:10Z</time>
</trkpt>
<trkpt lat="45.07177" lon="13.63189">
<ele>49</ele>
<time>2011-05-03T12:32:14Z</time>
</trkpt>
<trkpt lat="45.07181" lon="13.63185">
<ele>49</ele>
<time>2011-05-03T12:32:18Z</time>
</trkpt>
<trkpt lat="45.07186" lon="13.6318">
<ele>49</ele>
<time>2011-05-03T12:32:22Z</time>
</trkpt>
<trkpt lat="45.0719" lon="13.63175">
<ele>49</ele>
<time>2011-05-03T12:32:26Z</time>
</trkpt>
<trkpt lat="45.07195" lon="13.6317">
<ele>49</ele>
<time>2011-05-03T12:32:30Z</time>
</trkpt>
<trkpt lat="45.07199" lon="13.63166">
<ele>49</ele>
<time>2011-05-03T12:32:34Z</time>
</trkpt>
<trkpt lat="45.07204" lon="13.63161">
<ele>49</ele>
<time>2011-05-03T12:32:38Z</time>
</trkpt>
<trkpt lat="45.07208" lon="13.63156">
<ele>49</ele>
<time>2011-05-03T12:32:42Z</time>
</trkpt>
<trkpt lat="45.07212" lon="13.63151">
<ele>49</ele>
<time>2011-05-03T12:32:46Z</time>
</trkpt>
<trkpt lat="45.07216" lon="13.63146">
<ele>49</ele>
<time>2011-05-03T12:32:50Z</time>
</trkpt>
<trkpt lat="45.0722" lon="13.6314">
<ele>49</ele>
<time>2011-05-03T12:32:54Z</time>
</trkpt>
<trkpt lat="45.07224" lon="13.63135">
<ele>49</ele>
<time>2011-05-03T12:32:58Z</time>
</trkpt>
<trkpt lat="45.07227" lon="13.6313">
<ele>49</ele>
<time>2011-05-03T12:33:02Z</time>
</trkpt>
<trkpt lat="45.07231" lon="13.63124">
<ele>49</ele>
<time>2011-05-03T12:33:06Z</time>
</trkpt>
<trkpt lat="45.07235" lon="13.6312">
<ele>49</ele>
<time>2011-05-03T12:33:09Z</time>
</trkpt>
<trkpt lat="45.07238" lon="13.63114">
<ele>49</ele>
<time>2011-05-03T12:33:13Z</time>
</trkpt>
<trkpt lat="45.07242" lon="13.63108">
<ele>49</ele>
<time>2011-05-03T12:33:17Z</time>
</trkpt>
<trkpt lat="45.07246" lon="13.63103">
<ele>49</ele>
<time>2011-05-03T12:33:20Z</time>
</trkpt>
<trkpt lat="45.07249" lon="13.63097">
<ele>49</ele>
<time>2011-05-03T12:33:24Z</time>
</trkpt>
<trkpt lat="45.07253" lon="13.6309">
<ele>49</ele>
<time>2011-05-03T12:33:28Z</time>
</trkpt>
<trkpt lat="45.07257" lon="13.63085">
<ele>49</ele>
<time>2011-05-03T12:33:32Z</time>
</trkpt>
<trkpt lat="45.07261" lon="13.63079">
<ele>49</ele>
<time>2011-05-03T12:33:36Z</time>
</trkpt>
<trkpt lat="45.07265" lon="13.63074">
<ele>49</ele>
<time>2011-05-03T12:33:40Z</time>
</trkpt>
<trkpt lat="45.07268" lon="13.63069">
<ele>49</ele>
<time>2011-05-03T12:33:44Z</time>
</trkpt>
<trkpt lat="45.07273" lon="13.63064">
<ele>49</ele>
<time>2011-05-03T12:33:48Z</time>
</trkpt>
<trkpt lat="45.07276" lon="13.63058">
<ele>49</ele>
<time>2011-05-03T12:33:52Z</time>
</trkpt>
<trkpt lat="45.0728" lon="13.63053">
<ele>49</ele>
<time>2011-05-03T12:33:56Z</time>
</trkpt>
<trkpt lat="45.07283" lon="13.63048">
<ele>49</ele>
<time>2011-05-03T12:34:00Z</time>
</trkpt>
<trkpt lat="45.07287" lon="13.63042">
<ele>49</ele>
<time>2011-05-03T12:34:04Z</time>
</trkpt>
<trkpt lat="45.0729" lon="13.63036">
<ele>49</ele>
<time>2011-05-03T12:34:08Z</time>
</trkpt>
<trkpt lat="45.07293" lon="13.63031">
<ele>49</ele>
<time>2011-05-03T12:34:12Z</time>
</trkpt>
<trkpt lat="45.07296" lon="13.63025">
<ele>49</ele>
<time>2011-05-03T12:34:16Z</time>
</trkpt>
<trkpt lat="45.07299" lon="13.6302">
<ele>50</ele>
<time>2011-05-03T12:34:20Z</time>
</trkpt>
<trkpt lat="45.07302" lon="13.63014">
<ele>50</ele>
<time>2011-05-03T12:34:24Z</time>
</trkpt>
<trkpt lat="45.07305" lon="13.63009">
<ele>50</ele>
<time>2011-05-03T12:34:28Z</time>
</trkpt>
<trkpt lat="45.07308" lon="13.63004">
<ele>50</ele>
<time>2011-05-03T12:34:32Z</time>
</trkpt>
<trkpt lat="45.07311" lon="13.62999">
<ele>50</ele>
<time>2011-05-03T12:34:36Z</time>
</trkpt>
<trkpt lat="45.07314" lon="13.62994">
<ele>50</ele>
<time>2011-05-03T12:34:40Z</time>
</trkpt>
<trkpt lat="45.07317" lon="13.62989">
<ele>50</ele>
<time>2011-05-03T12:34:44Z</time>
</trkpt>
<trkpt lat="45.07321" lon="13.62984">
<ele>50</ele>
<time>2011-05-03T12:34:49Z</time>
</trkpt>
<trkpt lat="45.07325" lon="13.62979">
<ele>50</ele>
<time>2011-05-03T12:34:54Z</time>
</trkpt>
<trkpt lat="45.07329" lon="13.62974">
<ele>51</ele>
<time>2011-05-03T12:34:59Z</time>
</trkpt>
<trkpt lat="45.07334" lon="13.6297">
<ele>51</ele>
<time>2011-05-03T12:35:04Z</time>
</trkpt>
<trkpt lat="45.07338" lon="13.62965">
<ele>51</ele>
<time>2011-05-03T12:35:09Z</time>
</trkpt>
<trkpt lat="45.07342" lon="13.6296">
<ele>51</ele>
<time>2011-05-03T12:35:14Z</time>
</trkpt>
<trkpt lat="45.07347" lon="13.62956">
<ele>51</ele>
<time>2011-05-03T12:35:19Z</time>
</trkpt>
<trkpt lat="45.07351" lon="13.62952">
<ele>51</ele>
<time>2011-05-03T12:35:24Z</time>
</trkpt>
<trkpt lat="45.07355" lon="13.62947">
<ele>51</ele>
<time>2011-05-03T12:35:29Z</time>
</trkpt>
<trkpt lat="45.07359" lon="13.62942">
<ele>51</ele>
<time>2011-05-03T12:35:33Z</time>
</trkpt>
<trkpt lat="45.07363" lon="13.62938">
<ele>52</ele>
<time>2011-05-03T12:35:37Z</time>
</trkpt>
<trkpt lat="45.07366" lon="13.62932">
<ele>52</ele>
<time>2011-05-03T12:35:41Z</time>
</trkpt>
<trkpt lat="45.07369" lon="13.62927">
<ele>52</ele>
<time>2011-05-03T12:35:45Z</time>
</trkpt>
<trkpt lat="45.07372" lon="13.62921">
<ele>52</ele>
<time>2011-05-03T12:35:49Z</time>
</trkpt>
<trkpt lat="45.07375" lon="13.62916">
<ele>52</ele>
<time>2011-05-03T12:35:53Z</time>
</trkpt>
<trkpt lat="45.07377" lon="13.6291">
<ele>52</ele>
<time>2011-05-03T12:35:57Z</time>
</trkpt>
<trkpt lat="45.07379" lon="13.62904">
<ele>52</ele>
<time>2011-05-03T12:36:01Z</time>
</trkpt>
<trkpt lat="45.07382" lon="13.62899">
<ele>52</ele>
<time>2011-05-03T12:36:05Z</time>
</trkpt>
<trkpt lat="45.07384" lon="13.62894">
<ele>53</ele>
<time>2011-05-03T12:36:09Z</time>
</trkpt>
<trkpt lat="45.07388" lon="13.62889">
<ele>53</ele>
<time>2011-05-03T12:36:13Z</time>
</trkpt>
<trkpt lat="45.0739" lon="13.62883">
<ele>53</ele>
<time>2011-05-03T12:36:17Z</time>
</trkpt>
<trkpt lat="45.07394" lon="13.62878">
<ele>53</ele>
<time>2011-05-03T12:36:21Z</time>
</trkpt>
<trkpt lat="45.07397" lon="13.62872">
<ele>53</ele>
<time>2011-05-03T12:36:25Z</time>
</trkpt>
<trkpt lat="45.074" lon="13.62867">
<ele>53</ele>
<time>2011-05-03T12:36:29Z</time>
</trkpt>
<trkpt lat="45.07402" lon="13.62862">
<ele>53</ele>
<time>2011-05-03T12:36:33Z</time>
</trkpt>
<trkpt lat="45.07405" lon="13.62855">
<ele>54</ele>
<time>2011-05-03T12:36:38Z</time>
</trkpt>
<trkpt lat="45.07408" lon="13.6285">
<ele>54</ele>
<time>2011-05-03T12:36:42Z</time>
</trkpt>
<trkpt lat="45.0741" lon="13.62844">
<ele>54</ele>
<time>2011-05-03T12:36:46Z</time>
</trkpt>
<trkpt lat="45.07413" lon="13.62838">
<ele>54</ele>
<time>2011-05-03T12:36:50Z</time>
</trkpt>
<trkpt lat="45.07416" lon="13.62833">
<ele>54</ele>
<time>2011-05-03T12:36:54Z</time>
</trkpt>
<trkpt lat="45.07418" lon="13.62828">
<ele>54</ele>
<time>2011-05-03T12:36:58Z</time>
</trkpt>
<trkpt lat="45.07421" lon="13.62821">
<ele>54</ele>
<time>2011-05-03T12:37:03Z</time>
</trkpt>
<trkpt lat="45.07424" lon="13.62815">
<ele>54</ele>
<time>2011-05-03T12:37:08Z</time>
</trkpt>
<trkpt lat="45.07426" lon="13.62808">
<ele>55</ele>
<time>2011-05-03T12:37:13Z</time>
</trkpt>
<trkpt lat="45.0743" lon="13.62802">
<ele>55</ele>
<time>2011-05-03T12:37:18Z</time>
</trkpt>
<trkpt lat="45.07432" lon="13.62797">
<ele>55</ele>
<time>2011-05-03T12:37:23Z</time>
</trkpt>
<trkpt lat="45.07436" lon="13.62792">
<ele>55</ele>
<time>2011-05-03T12:37:29Z</time>
</trkpt>
<trkpt lat="45.07439" lon="13.62787">
<ele>55</ele>
<time>2011-05-03T12:37:36Z</time>
</trkpt>
<trkpt lat="45.07442" lon="13.62782">
<ele>55</ele>
<time>2011-05-03T12:37:43Z</time>
</trkpt>
<trkpt lat="45.07446" lon="13.62777">
<ele>56</ele>
<time>2011-05-03T12:37:50Z</time>
</trkpt>
<trkpt lat="45.07449" lon="13.62772">
<ele>56</ele>
<time>2011-05-03T12:37:56Z</time>
</trkpt>
<trkpt lat="45.07453" lon="13.62767">
<ele>56</ele>
<time>2011-05-03T12:38:02Z</time>
</trkpt>
<trkpt lat="45.07456" lon="13.62762">
<ele>56</ele>
<time>2011-05-03T12:38:08Z</time>
</trkpt>
<trkpt lat="45.0746" lon="13.62757">
<ele>56</ele>
<time>2011-05-03T12:38:14Z</time>
</trkpt>
<trkpt lat="45.07463" lon="13.62752">
<ele>56</ele>
<time>2011-05-03T12:38:19Z</time>
</trkpt>
<trkpt lat="45.07467" lon="13.62748">
<ele>56</ele>
<time>2011-05-03T12:38:24Z</time>
</trkpt>
<trkpt lat="45.0747" lon="13.62742">
<ele>56</ele>
<time>2011-05-03T12:38:30Z</time>
</trkpt>
<trkpt lat="45.07473" lon="13.62737">
<ele>56</ele>
<time>2011-05-03T12:38:35Z</time>
</trkpt>
<trkpt lat="45.07477" lon="13.62732">
<ele>56</ele>
<time>2011-05-03T12:38:41Z</time>
</trkpt>
<trkpt lat="45.0748" lon="13.62726">
<ele>56</ele>
<time>2011-05-03T12:38:47Z</time>
</trkpt>
<trkpt lat="45.07483" lon="13.62721">
<ele>56</ele>
<time>2011-05-03T12:38:53Z</time>
</trkpt>
<trkpt lat="45.07486" lon="13.62715">
<ele>56</ele>
<time>2011-05-03T12:38:59Z</time>
</trkpt>
<trkpt lat="45.07489" lon="13.6271">
<ele>56</ele>
<time>2011-05-03T12:39:04Z</time>
</trkpt>
<trkpt lat="45.07492" lon="13.62704">
<ele>56</ele>
<time>2011-05-03T12:39:10Z</time>
</trkpt>
<trkpt lat="45.07495" lon="13.62699">
<ele>56</ele>
<time>2011-05-03T12:39:16Z</time>
</trkpt>
<trkpt lat="45.07499" lon="13.62693">
<ele>56</ele>
<time>2011-05-03T12:39:22Z</time>
</trkpt>
<trkpt lat="45.07501" lon="13.62687">
<ele>55</ele>
<time>2011-05-03T12:39:28Z</time>
</trkpt>
<trkpt lat="45.07504" lon="13.6268">
<ele>55</ele>
<time>2011-05-03T12:39:34Z</time>
</trkpt>
<trkpt lat="45.07506" lon="13.62675">
<ele>55</ele>
<time>2011-05-03T12:39:40Z</time>
</trkpt>
<trkpt lat="45.0751" lon="13.62669">
<ele>55</ele>
<time>2011-05-03T12:39:46Z</time>
</trkpt>
<trkpt lat="45.07512" lon="13.62663">
<ele>55</ele>
<time>2011-05-03T12:39:52Z</time>
</trkpt>
<trkpt lat="45.07515" lon="13.62658">
<ele>55</ele>
<time>2011-05-03T12:39:58Z</time>
</trkpt>
<trkpt lat="45.07518" lon="13.62652">
<ele>54</ele>
<time>2011-05-03T12:40:04Z</time>
</trkpt>
<trkpt lat="45.07521" lon="13.62647">
<ele>54</ele>
<time>2011-05-03T12:40:09Z</time>
</trkpt>
<trkpt lat="45.07524" lon="13.62642">
<ele>54</ele>
<time>2011-05-03T12:40:14Z</time>
</trkpt>
<trkpt lat="45.07527" lon="13.62636">
<ele>54</ele>
<time>2011-05-03T12:40:19Z</time>
</trkpt>
<trkpt lat="45.0753" lon="13.62631">
<ele>54</ele>
<time>2011-05-03T12:40:24Z</time>
</trkpt>
<trkpt lat="45.07532" lon="13.62625">
<ele>54</ele>
<time>2011-05-03T12:40:29Z</time>
</trkpt>
<trkpt lat="45.07535" lon="13.62619">
<ele>54</ele>
<time>2011-05-03T12:40:34Z</time>
</trkpt>
<trkpt lat="45.07538" lon="13.62613">
<ele>54</ele>
<time>2011-05-03T12:40:39Z</time>
</trkpt>
<trkpt lat="45.0754" lon="13.62607">
<ele>54</ele>
<time>2011-05-03T12:40:44Z</time>
</trkpt>
<trkpt lat="45.07543" lon="13.62601">
<ele>54</ele>
<time>2011-05-03T12:40:49Z</time>
</trkpt>
<trkpt lat="45.07546" lon="13.62596">
<ele>54</ele>
<time>2011-05-03T12:40:55Z</time>
</trkpt>
<trkpt lat="45.07549" lon="13.6259">
<ele>53</ele>
<time>2011-05-03T12:41:01Z</time>
</trkpt>
<trkpt lat="45.07552" lon="13.62584">
<ele>54</ele>
<time>2011-05-03T12:41:06Z</time>
</trkpt>
<trkpt lat="45.07555" lon="13.6258">
<ele>54</ele>
<time>2011-05-03T12:41:11Z</time>
</trkpt>
<trkpt lat="45.07559" lon="13.62574">
<ele>54</ele>
<time>2011-05-03T12:41:16Z</time>
</trkpt>
<trkpt lat="45.07562" lon="13.62569">
<ele>54</ele>
<time>2011-05-03T12:41:21Z</time>
</trkpt>
<trkpt lat="45.07566" lon="13.62564">
<ele>54</ele>
<time>2011-05-03T12:41:26Z</time>
</trkpt>
<trkpt lat="45.07568" lon="13.62558">
<ele>54</ele>
<time>2011-05-03T12:41:31Z</time>
</trkpt>
<trkpt lat="45.07572" lon="13.62552">
<ele>55</ele>
<time>2011-05-03T12:41:36Z</time>
</trkpt>
<trkpt lat="45.07575" lon="13.62546">
<ele>55</ele>
<time>2011-05-03T12:41:41Z</time>
</trkpt>
<trkpt lat="45.07578" lon="13.6254">
<ele>55</ele>
<time>2011-05-03T12:41:46Z</time>
</trkpt>
<trkpt lat="45.07581" lon="13.62534">
<ele>55</ele>
<time>2011-05-03T12:41:51Z</time>
</trkpt>
<trkpt lat="45.07584" lon="13.62528">
<ele>55</ele>
<time>2011-05-03T12:41:55Z</time>
</trkpt>
<trkpt lat="45.07587" lon="13.62522">
<ele>55</ele>
<time>2011-05-03T12:42:00Z</time>
</trkpt>
<trkpt lat="45.0759" lon="13.62516">
<ele>55</ele>
<time>2011-05-03T12:42:05Z</time>
</trkpt>
<trkpt lat="45.07594" lon="13.6251">
<ele>55</ele>
<time>2011-05-03T12:42:10Z</time>
</trkpt>
<trkpt lat="45.07596" lon="13.62505">
<ele>55</ele>
<time>2011-05-03T12:42:14Z</time>
</trkpt>
<trkpt lat="45.07599" lon="13.625">
<ele>55</ele>
<time>2011-05-03T12:42:18Z</time>
</trkpt>
<trkpt lat="45.07602" lon="13.62493">
<ele>55</ele>
<time>2011-05-03T12:42:23Z</time>
</trkpt>
<trkpt lat="45.07605" lon="13.62486">
<ele>55</ele>
<time>2011-05-03T12:42:28Z</time>
</trkpt>
<trkpt lat="45.07608" lon="13.6248">
<ele>55</ele>
<time>2011-05-03T12:42:33Z</time>
</trkpt>
<trkpt lat="45.0761" lon="13.62474">
<ele>55</ele>
<time>2011-05-03T12:42:38Z</time>
</trkpt>
<trkpt lat="45.07613" lon="13.62468">
<ele>55</ele>
<time>2011-05-03T12:42:43Z</time>
</trkpt>
<trkpt lat="45.07616" lon="13.62462">
<ele>55</ele>
<time>2011-05-03T12:42:48Z</time>
</trkpt>
<trkpt lat="45.07619" lon="13.62457">
<ele>56</ele>
<time>2011-05-03T12:42:53Z</time>
</trkpt>
<trkpt lat="45.07622" lon="13.62451">
<ele>56</ele>
<time>2011-05-03T12:42:58Z</time>
</trkpt>
<trkpt lat="45.07626" lon="13.62445">
<ele>56</ele>
<time>2011-05-03T12:43:03Z</time>
</trkpt>
<trkpt lat="45.07629" lon="13.6244">
<ele>56</ele>
<time>2011-05-03T12:43:07Z</time>
</trkpt>
<trkpt lat="45.07633" lon="13.62436">
<ele>56</ele>
<time>2011-05-03T12:43:11Z</time>
</trkpt>
<trkpt lat="45.07637" lon="13.6243">
<ele>56</ele>
<time>2011-05-03T12:43:15Z</time>
</trkpt>
<trkpt lat="45.0764" lon="13.62426">
<ele>56</ele>
<time>2011-05-03T12:43:18Z</time>
</trkpt>
<trkpt lat="45.07644" lon="13.62421">
<ele>56</ele>
<time>2011-05-03T12:43:22Z</time>
</trkpt>
<trkpt lat="45.07649" lon="13.62416">
<ele>56</ele>
<time>2011-05-03T12:43:26Z</time>
</trkpt>
<trkpt lat="45.07653" lon="13.6241">
<ele>56</ele>
<time>2011-05-03T12:43:30Z</time>
</trkpt>
<trkpt lat="45.07657" lon="13.62405">
<ele>56</ele>
<time>2011-05-03T12:43:34Z</time>
</trkpt>
<trkpt lat="45.07661" lon="13.62399">
<ele>56</ele>
<time>2011-05-03T12:43:38Z</time>
</trkpt>
<trkpt lat="45.07665" lon="13.62394">
<ele>56</ele>
<time>2011-05-03T12:43:42Z</time>
</trkpt>
<trkpt lat="45.0767" lon="13.62389">
<ele>56</ele>
<time>2011-05-03T12:43:46Z</time>
</trkpt>
<trkpt lat="45.07674" lon="13.62384">
<ele>56</ele>
<time>2011-05-03T12:43:50Z</time>
</trkpt>
<trkpt lat="45.07678" lon="13.62379">
<ele>56</ele>
<time>2011-05-03T12:43:54Z</time>
</trkpt>
<trkpt lat="45.07681" lon="13.62374">
<ele>56</ele>
<time>2011-05-03T12:43:58Z</time>
</trkpt>
<trkpt lat="45.07686" lon="13.62369">
<ele>56</ele>
<time>2011-05-03T12:44:02Z</time>
</trkpt>
<trkpt lat="45.0769" lon="13.62365">
<ele>56</ele>
<time>2011-05-03T12:44:06Z</time>
</trkpt>
<trkpt lat="45.07694" lon="13.62361">
<ele>56</ele>
<time>2011-05-03T12:44:10Z</time>
</trkpt>
<trkpt lat="45.07699" lon="13.62358">
<ele>56</ele>
<time>2011-05-03T12:44:14Z</time>
</trkpt>
<trkpt lat="45.07703" lon="13.62354">
<ele>56</ele>
<time>2011-05-03T12:44:18Z</time>
</trkpt>
<trkpt lat="45.07708" lon="13.62351">
<ele>56</ele>
<time>2011-05-03T12:44:22Z</time>
</trkpt>
<trkpt lat="45.07712" lon="13.62348">
<ele>56</ele>
<time>2011-05-03T12:44:26Z</time>
</trkpt>
<trkpt lat="45.07717" lon="13.62345">
<ele>56</ele>
<time>2011-05-03T12:44:30Z</time>
</trkpt>
<trkpt lat="45.07721" lon="13.62343">
<ele>55</ele>
<time>2011-05-03T12:44:34Z</time>
</trkpt>
<trkpt lat="45.07725" lon="13.6234">
<ele>55</ele>
<time>2011-05-03T12:44:38Z</time>
</trkpt>
<trkpt lat="45.0773" lon="13.62338">
<ele>55</ele>
<time>2011-05-03T12:44:42Z</time>
</trkpt>
<trkpt lat="45.07734" lon="13.62334">
<ele>55</ele>
<time>2011-05-03T12:44:46Z</time>
</trkpt>
<trkpt lat="45.07738" lon="13.62331">
<ele>55</ele>
<time>2011-05-03T12:44:50Z</time>
</trkpt>
<trkpt lat="45.07742" lon="13.62328">
<ele>55</ele>
<time>2011-05-03T12:44:54Z</time>
</trkpt>
<trkpt lat="45.07746" lon="13.62326">
<ele>55</ele>
<time>2011-05-03T12:44:58Z</time>
</trkpt>
<trkpt lat="45.0775" lon="13.62323">
<ele>55</ele>
<time>2011-05-03T12:45:02Z</time>
</trkpt>
<trkpt lat="45.07754" lon="13.62321">
<ele>55</ele>
<time>2011-05-03T12:45:06Z</time>
</trkpt>
<trkpt lat="45.07759" lon="13.62319">
<ele>55</ele>
<time>2011-05-03T12:45:10Z</time>
</trkpt>
<trkpt lat="45.07763" lon="13.62316">
<ele>55</ele>
<time>2011-05-03T12:45:14Z</time>
</trkpt>
<trkpt lat="45.07768" lon="13.62313">
<ele>54</ele>
<time>2011-05-03T12:45:19Z</time>
</trkpt>
<trkpt lat="45.07773" lon="13.62309">
<ele>54</ele>
<time>2011-05-03T12:45:24Z</time>
</trkpt>
<trkpt lat="45.07778" lon="13.62306">
<ele>54</ele>
<time>2011-05-03T12:45:29Z</time>
</trkpt>
<trkpt lat="45.07782" lon="13.62304">
<ele>54</ele>
<time>2011-05-03T12:45:33Z</time>
</trkpt>
<trkpt lat="45.07786" lon="13.62301">
<ele>54</ele>
<time>2011-05-03T12:45:37Z</time>
</trkpt>
<trkpt lat="45.07791" lon="13.62299">
<ele>54</ele>
<time>2011-05-03T12:45:41Z</time>
</trkpt>
<trkpt lat="45.07795" lon="13.62296">
<ele>54</ele>
<time>2011-05-03T12:45:45Z</time>
</trkpt>
<trkpt lat="45.078" lon="13.62294">
<ele>54</ele>
<time>2011-05-03T12:45:49Z</time>
</trkpt>
<trkpt lat="45.07804" lon="13.62291">
<ele>54</ele>
<time>2011-05-03T12:45:53Z</time>
</trkpt>
<trkpt lat="45.0781" lon="13.62289">
<ele>54</ele>
<time>2011-05-03T12:45:57Z</time>
</trkpt>
<trkpt lat="45.07814" lon="13.62287">
<ele>54</ele>
<time>2011-05-03T12:46:01Z</time>
</trkpt>
<trkpt lat="45.07819" lon="13.62286">
<ele>54</ele>
<time>2011-05-03T12:46:05Z</time>
</trkpt>
<trkpt lat="45.07824" lon="13.62284">
<ele>54</ele>
<time>2011-05-03T12:46:09Z</time>
</trkpt>
<trkpt lat="45.07828" lon="13.62282">
<ele>54</ele>
<time>2011-05-03T12:46:13Z</time>
</trkpt>
<trkpt lat="45.07833" lon="13.62281">
<ele>54</ele>
<time>2011-05-03T12:46:17Z</time>
</trkpt>
<trkpt lat="45.07838" lon="13.6228">
<ele>54</ele>
<time>2011-05-03T12:46:21Z</time>
</trkpt>
<trkpt lat="45.07842" lon="13.62279">
<ele>54</ele>
<time>2011-05-03T12:46:25Z</time>
</trkpt>
<trkpt lat="45.07847" lon="13.62278">
<ele>54</ele>
<time>2011-05-03T12:46:29Z</time>
</trkpt>
<trkpt lat="45.07852" lon="13.62277">
<ele>54</ele>
<time>2011-05-03T12:46:34Z</time>
</trkpt>
<trkpt lat="45.07857" lon="13.62276">
<ele>54</ele>
<time>2011-05-03T12:46:39Z</time>
</trkpt>
<trkpt lat="45.07862" lon="13.62275">
<ele>54</ele>
<time>2011-05-03T12:46:44Z</time>
</trkpt>
<trkpt lat="45.07867" lon="13.62273">
<ele>54</ele>
<time>2011-05-03T12:46:48Z</time>
</trkpt>
<trkpt lat="45.07871" lon="13.62272">
<ele>54</ele>
<time>2011-05-03T12:46:52Z</time>
</trkpt>
<trkpt lat="45.07876" lon="13.6227">
<ele>54</ele>
<time>2011-05-03T12:46:56Z</time>
</trkpt>
<trkpt lat="45.0788" lon="13.62268">
<ele>54</ele>
<time>2011-05-03T12:47:00Z</time>
</trkpt>
<trkpt lat="45.07885" lon="13.62266">
<ele>54</ele>
<time>2011-05-03T12:47:05Z</time>
</trkpt>
<trkpt lat="45.0789" lon="13.62264">
<ele>54</ele>
<time>2011-05-03T12:47:10Z</time>
</trkpt>
<trkpt lat="45.07896" lon="13.62262">
<ele>54</ele>
<time>2011-05-03T12:47:15Z</time>
</trkpt>
<trkpt lat="45.079" lon="13.6226">
<ele>54</ele>
<time>2011-05-03T12:47:19Z</time>
</trkpt>
<trkpt lat="45.07905" lon="13.62257">
<ele>54</ele>
<time>2011-05-03T12:47:24Z</time>
</trkpt>
<trkpt lat="45.0791" lon="13.62255">
<ele>54</ele>
<time>2011-05-03T12:47:28Z</time>
</trkpt>
<trkpt lat="45.07914" lon="13.62253">
<ele>54</ele>
<time>2011-05-03T12:47:32Z</time>
</trkpt>
<trkpt lat="45.07919" lon="13.62252">
<ele>53</ele>
<time>2011-05-03T12:47:36Z</time>
</trkpt>
<trkpt lat="45.07924" lon="13.62249">
<ele>53</ele>
<time>2011-05-03T12:47:41Z</time>
</trkpt>
<trkpt lat="45.07928" lon="13.62247">
<ele>53</ele>
<time>2011-05-03T12:47:45Z</time>
</trkpt>
<trkpt lat="45.07933" lon="13.62244">
<ele>53</ele>
<time>2011-05-03T12:47:50Z</time>
</trkpt>
<trkpt lat="45.07937" lon="13.62241">
<ele>53</ele>
<time>2011-05-03T12:47:54Z</time>
</trkpt>
<trkpt lat="45.07942" lon="13.62238">
<ele>54</ele>
<time>2011-05-03T12:47:59Z</time>
</trkpt>
<trkpt lat="45.07946" lon="13.62235">
<ele>54</ele>
<time>2011-05-03T12:48:03Z</time>
</trkpt>
<trkpt lat="45.0795" lon="13.62232">
<ele>54</ele>
<time>2011-05-03T12:48:07Z</time>
</trkpt>
<trkpt lat="45.07954" lon="13.6223">
<ele>54</ele>
<time>2011-05-03T12:48:11Z</time>
</trkpt>
<trkpt lat="45.07959" lon="13.62226">
<ele>54</ele>
<time>2011-05-03T12:48:16Z</time>
</trkpt>
<trkpt lat="45.07964" lon="13.62224">
<ele>54</ele>
<time>2011-05-03T12:48:20Z</time>
</trkpt>
<trkpt lat="45.07968" lon="13.62221">
<ele>54</ele>
<time>2011-05-03T12:48:24Z</time>
</trkpt>
<trkpt lat="45.07972" lon="13.62219">
<ele>54</ele>
<time>2011-05-03T12:48:28Z</time>
</trkpt>
<trkpt lat="45.07977" lon="13.62216">
<ele>54</ele>
<time>2011-05-03T12:48:32Z</time>
</trkpt>
<trkpt lat="45.07981" lon="13.62213">
<ele>54</ele>
<time>2011-05-03T12:48:36Z</time>
</trkpt>
<trkpt lat="45.07986" lon="13.62211">
<ele>54</ele>
<time>2011-05-03T12:48:40Z</time>
</trkpt>
<trkpt lat="45.0799" lon="13.62208">
<ele>54</ele>
<time>2011-05-03T12:48:44Z</time>
</trkpt>
<trkpt lat="45.07994" lon="13.62206">
<ele>54</ele>
<time>2011-05-03T12:48:48Z</time>
</trkpt>
<trkpt lat="45.07999" lon="13.62203">
<ele>54</ele>
<time>2011-05-03T12:48:52Z</time>
</trkpt>
<trkpt lat="45.08003" lon="13.622">
<ele>54</ele>
<time>2011-05-03T12:48:56Z</time>
</trkpt>
<trkpt lat="45.08008" lon="13.62198">
<ele>54</ele>
<time>2011-05-03T12:49:00Z</time>
</trkpt>
<trkpt lat="45.08012" lon="13.62195">
<ele>54</ele>
<time>2011-05-03T12:49:04Z</time>
</trkpt>
<trkpt lat="45.08017" lon="13.62192">
<ele>54</ele>
<time>2011-05-03T12:49:08Z</time>
</trkpt>
<trkpt lat="45.08021" lon="13.62189">
<ele>54</ele>
<time>2011-05-03T12:49:12Z</time>
</trkpt>
<trkpt lat="45.08025" lon="13.62186">
<ele>54</ele>
<time>2011-05-03T12:49:16Z</time>
</trkpt>
<trkpt lat="45.08029" lon="13.62183">
<ele>54</ele>
<time>2011-05-03T12:49:20Z</time>
</trkpt>
<trkpt lat="45.08034" lon="13.6218">
<ele>54</ele>
<time>2011-05-03T12:49:25Z</time>
</trkpt>
<trkpt lat="45.08038" lon="13.62177">
<ele>54</ele>
<time>2011-05-03T12:49:29Z</time>
</trkpt>
<trkpt lat="45.08042" lon="13.62174">
<ele>54</ele>
<time>2011-05-03T12:49:33Z</time>
</trkpt>
<trkpt lat="45.08047" lon="13.62172">
<ele>54</ele>
<time>2011-05-03T12:49:37Z</time>
</trkpt>
<trkpt lat="45.08052" lon="13.62169">
<ele>54</ele>
<time>2011-05-03T12:49:41Z</time>
</trkpt>
<trkpt lat="45.08056" lon="13.62167">
<ele>54</ele>
<time>2011-05-03T12:49:45Z</time>
</trkpt>
<trkpt lat="45.0806" lon="13.62164">
<ele>54</ele>
<time>2011-05-03T12:49:49Z</time>
</trkpt>
<trkpt lat="45.08064" lon="13.62162">
<ele>54</ele>
<time>2011-05-03T12:49:53Z</time>
</trkpt>
<trkpt lat="45.08069" lon="13.6216">
<ele>54</ele>
<time>2011-05-03T12:49:57Z</time>
</trkpt>
<trkpt lat="45.08073" lon="13.62157">
<ele>54</ele>
<time>2011-05-03T12:50:01Z</time>
</trkpt>
<trkpt lat="45.08077" lon="13.62155">
<ele>53</ele>
<time>2011-05-03T12:50:05Z</time>
</trkpt>
<trkpt lat="45.08082" lon="13.62152">
<ele>53</ele>
<time>2011-05-03T12:50:09Z</time>
</trkpt>
<trkpt lat="45.08086" lon="13.6215">
<ele>53</ele>
<time>2011-05-03T12:50:13Z</time>
</trkpt>
<trkpt lat="45.0809" lon="13.62147">
<ele>53</ele>
<time>2011-05-03T12:50:17Z</time>
</trkpt>
<trkpt lat="45.08094" lon="13.62144">
<ele>53</ele>
<time>2011-05-03T12:50:21Z</time>
</trkpt>
<trkpt lat="45.08099" lon="13.62142">
<ele>53</ele>
<time>2011-05-03T12:50:25Z</time>
</trkpt>
<trkpt lat="45.08103" lon="13.62139">
<ele>53</ele>
<time>2011-05-03T12:50:29Z</time>
</trkpt>
<trkpt lat="45.08108" lon="13.62136">
<ele>53</ele>
<time>2011-05-03T12:50:33Z</time>
</trkpt>
<trkpt lat="45.08112" lon="13.62132">
<ele>53</ele>
<time>2011-05-03T12:50:37Z</time>
</trkpt>
<trkpt lat="45.08116" lon="13.62129">
<ele>53</ele>
<time>2011-05-03T12:50:41Z</time>
</trkpt>
<trkpt lat="45.08121" lon="13.62126">
<ele>53</ele>
<time>2011-05-03T12:50:45Z</time>
</trkpt>
<trkpt lat="45.08125" lon="13.62122">
<ele>53</ele>
<time>2011-05-03T12:50:49Z</time>
</trkpt>
<trkpt lat="45.0813" lon="13.62119">
<ele>53</ele>
<time>2011-05-03T12:50:53Z</time>
</trkpt>
<trkpt lat="45.08134" lon="13.62117">
<ele>53</ele>
<time>2011-05-03T12:50:57Z</time>
</trkpt>
<trkpt lat="45.08139" lon="13.62114">
<ele>53</ele>
<time>2011-05-03T12:51:01Z</time>
</trkpt>
<trkpt lat="45.08143" lon="13.62112">
<ele>53</ele>
<time>2011-05-03T12:51:05Z</time>
</trkpt>
<trkpt lat="45.08147" lon="13.62109">
<ele>53</ele>
<time>2011-05-03T12:51:09Z</time>
</trkpt>
<trkpt lat="45.08152" lon="13.62106">
<ele>54</ele>
<time>2011-05-03T12:51:13Z</time>
</trkpt>
<trkpt lat="45.08156" lon="13.62103">
<ele>54</ele>
<time>2011-05-03T12:51:17Z</time>
</trkpt>
<trkpt lat="45.0816" lon="13.62101">
<ele>54</ele>
<time>2011-05-03T12:51:21Z</time>
</trkpt>
<trkpt lat="45.08165" lon="13.62098">
<ele>54</ele>
<time>2011-05-03T12:51:25Z</time>
</trkpt>
<trkpt lat="45.08169" lon="13.62095">
<ele>54</ele>
<time>2011-05-03T12:51:29Z</time>
</trkpt>
<trkpt lat="45.08174" lon="13.62092">
<ele>54</ele>
<time>2011-05-03T12:51:34Z</time>
</trkpt>
<trkpt lat="45.08179" lon="13.62089">
<ele>54</ele>
<time>2011-05-03T12:51:39Z</time>
</trkpt>
<trkpt lat="45.08183" lon="13.62087">
<ele>54</ele>
<time>2011-05-03T12:51:43Z</time>
</trkpt>
<trkpt lat="45.08188" lon="13.62084">
<ele>54</ele>
<time>2011-05-03T12:51:48Z</time>
</trkpt>
<trkpt lat="45.08193" lon="13.62082">
<ele>54</ele>
<time>2011-05-03T12:51:53Z</time>
</trkpt>
<trkpt lat="45.08198" lon="13.6208">
<ele>54</ele>
<time>2011-05-03T12:51:58Z</time>
</trkpt>
<trkpt lat="45.08203" lon="13.62077">
<ele>54</ele>
<time>2011-05-03T12:52:03Z</time>
</trkpt>
<trkpt lat="45.08208" lon="13.62075">
<ele>54</ele>
<time>2011-05-03T12:52:08Z</time>
</trkpt>
<trkpt lat="45.08214" lon="13.62073">
<ele>54</ele>
<time>2011-05-03T12:52:13Z</time>
</trkpt>
<trkpt lat="45.08218" lon="13.62072">
<ele>54</ele>
<time>2011-05-03T12:52:17Z</time>
</trkpt>
<trkpt lat="45.08223" lon="13.6207">
<ele>54</ele>
<time>2011-05-03T12:52:22Z</time>
</trkpt>
<trkpt lat="45.08228" lon="13.62068">
<ele>54</ele>
<time>2011-05-03T12:52:27Z</time>
</trkpt>
<trkpt lat="45.08233" lon="13.62066">
<ele>54</ele>
<time>2011-05-03T12:52:31Z</time>
</trkpt>
<trkpt lat="45.08237" lon="13.62064">
<ele>54</ele>
<time>2011-05-03T12:52:35Z</time>
</trkpt>
<trkpt lat="45.08242" lon="13.62062">
<ele>54</ele>
<time>2011-05-03T12:52:39Z</time>
</trkpt>
<trkpt lat="45.08247" lon="13.6206">
<ele>54</ele>
<time>2011-05-03T12:52:44Z</time>
</trkpt>
<trkpt lat="45.08252" lon="13.62057">
<ele>54</ele>
<time>2011-05-03T12:52:49Z</time>
</trkpt>
<trkpt lat="45.08257" lon="13.62054">
<ele>54</ele>
<time>2011-05-03T12:52:54Z</time>
</trkpt>
<trkpt lat="45.08262" lon="13.62051">
<ele>54</ele>
<time>2011-05-03T12:52:59Z</time>
</trkpt>
<trkpt lat="45.08266" lon="13.62048">
<ele>54</ele>
<time>2011-05-03T12:53:04Z</time>
</trkpt>
<trkpt lat="45.0827" lon="13.62045">
<ele>54</ele>
<time>2011-05-03T12:53:09Z</time>
</trkpt>
<trkpt lat="45.08275" lon="13.62042">
<ele>54</ele>
<time>2011-05-03T12:53:14Z</time>
</trkpt>
<trkpt lat="45.0828" lon="13.62038">
<ele>54</ele>
<time>2011-05-03T12:53:19Z</time>
</trkpt>
<trkpt lat="45.08284" lon="13.62035">
<ele>54</ele>
<time>2011-05-03T12:53:24Z</time>
</trkpt>
<trkpt lat="45.08289" lon="13.62033">
<ele>54</ele>
<time>2011-05-03T12:53:29Z</time>
</trkpt>
<trkpt lat="45.08293" lon="13.6203">
<ele>54</ele>
<time>2011-05-03T12:53:34Z</time>
</trkpt>
<trkpt lat="45.08297" lon="13.62027">
<ele>54</ele>
<time>2011-05-03T12:53:39Z</time>
</trkpt>
<trkpt lat="45.08302" lon="13.62024">
<ele>54</ele>
<time>2011-05-03T12:53:44Z</time>
</trkpt>
<trkpt lat="45.08307" lon="13.62022">
<ele>53</ele>
<time>2011-05-03T12:53:50Z</time>
</trkpt>
<trkpt lat="45.08312" lon="13.62019">
<ele>53</ele>
<time>2011-05-03T12:53:56Z</time>
</trkpt>
<trkpt lat="45.08316" lon="13.62016">
<ele>53</ele>
<time>2011-05-03T12:54:01Z</time>
</trkpt>
<trkpt lat="45.0832" lon="13.62013">
<ele>53</ele>
<time>2011-05-03T12:54:06Z</time>
</trkpt>
<trkpt lat="45.08324" lon="13.6201">
<ele>52</ele>
<time>2011-05-03T12:54:11Z</time>
</trkpt>
<trkpt lat="45.08328" lon="13.62008">
<ele>52</ele>
<time>2011-05-03T12:54:16Z</time>
</trkpt>
<trkpt lat="45.08333" lon="13.62004">
<ele>52</ele>
<time>2011-05-03T12:54:22Z</time>
</trkpt>
<trkpt lat="45.08337" lon="13.62001">
<ele>52</ele>
<time>2011-05-03T12:54:28Z</time>
</trkpt>
<trkpt lat="45.08342" lon="13.61998">
<ele>51</ele>
<time>2011-05-03T12:54:34Z</time>
</trkpt>
<trkpt lat="45.08346" lon="13.61994">
<ele>51</ele>
<time>2011-05-03T12:54:39Z</time>
</trkpt>
<trkpt lat="45.0835" lon="13.61991">
<ele>51</ele>
<time>2011-05-03T12:54:45Z</time>
</trkpt>
<trkpt lat="45.08355" lon="13.61987">
<ele>51</ele>
<time>2011-05-03T12:54:51Z</time>
</trkpt>
<trkpt lat="45.08359" lon="13.61984">
<ele>50</ele>
<time>2011-05-03T12:54:57Z</time>
</trkpt>
<trkpt lat="45.08364" lon="13.61982">
<ele>50</ele>
<time>2011-05-03T12:55:03Z</time>
</trkpt>
<trkpt lat="45.08368" lon="13.61979">
<ele>50</ele>
<time>2011-05-03T12:55:08Z</time>
</trkpt>
<trkpt lat="45.08373" lon="13.61976">
<ele>50</ele>
<time>2011-05-03T12:55:13Z</time>
</trkpt>
<trkpt lat="45.08378" lon="13.61973">
<ele>50</ele>
<time>2011-05-03T12:55:18Z</time>
</trkpt>
<trkpt lat="45.08382" lon="13.61969">
<ele>50</ele>
<time>2011-05-03T12:55:23Z</time>
</trkpt>
<trkpt lat="45.08387" lon="13.61966">
<ele>50</ele>
<time>2011-05-03T12:55:28Z</time>
</trkpt>
<trkpt lat="45.08391" lon="13.61963">
<ele>50</ele>
<time>2011-05-03T12:55:33Z</time>
</trkpt>
<trkpt lat="45.08396" lon="13.61959">
<ele>50</ele>
<time>2011-05-03T12:55:38Z</time>
</trkpt>
<trkpt lat="45.084" lon="13.61956">
<ele>50</ele>
<time>2011-05-03T12:55:43Z</time>
</trkpt>
<trkpt lat="45.08405" lon="13.61952">
<ele>50</ele>
<time>2011-05-03T12:55:48Z</time>
</trkpt>
<trkpt lat="45.08409" lon="13.61948">
<ele>50</ele>
<time>2011-05-03T12:55:52Z</time>
</trkpt>
<trkpt lat="45.08413" lon="13.61944">
<ele>50</ele>
<time>2011-05-03T12:55:57Z</time>
</trkpt>
<trkpt lat="45.08418" lon="13.61941">
<ele>50</ele>
<time>2011-05-03T12:56:02Z</time>
</trkpt>
<trkpt lat="45.08422" lon="13.61937">
<ele>50</ele>
<time>2011-05-03T12:56:07Z</time>
</trkpt>
<trkpt lat="45.08427" lon="13.61934">
<ele>50</ele>
<time>2011-05-03T12:56:12Z</time>
</trkpt>
<trkpt lat="45.08432" lon="13.61929">
<ele>49</ele>
<time>2011-05-03T12:56:17Z</time>
</trkpt>
<trkpt lat="45.08436" lon="13.61925">
<ele>49</ele>
<time>2011-05-03T12:56:22Z</time>
</trkpt>
<trkpt lat="45.0844" lon="13.61922">
<ele>49</ele>
<time>2011-05-03T12:56:27Z</time>
</trkpt>
<trkpt lat="45.08445" lon="13.61918">
<ele>49</ele>
<time>2011-05-03T12:56:32Z</time>
</trkpt>
<trkpt lat="45.0845" lon="13.61914">
<ele>49</ele>
<time>2011-05-03T12:56:37Z</time>
</trkpt>
<trkpt lat="45.08454" lon="13.61911">
<ele>49</ele>
<time>2011-05-03T12:56:42Z</time>
</trkpt>
<trkpt lat="45.08459" lon="13.61907">
<ele>49</ele>
<time>2011-05-03T12:56:47Z</time>
</trkpt>
<trkpt lat="45.08463" lon="13.61903">
<ele>49</ele>
<time>2011-05-03T12:56:52Z</time>
</trkpt>
<trkpt lat="45.08468" lon="13.619">
<ele>49</ele>
<time>2011-05-03T12:56:57Z</time>
</trkpt>
<trkpt lat="45.08472" lon="13.61896">
<ele>49</ele>
<time>2011-05-03T12:57:02Z</time>
</trkpt>
<trkpt lat="45.08477" lon="13.61892">
<ele>49</ele>
<time>2011-05-03T12:57:07Z</time>
</trkpt>
<trkpt lat="45.08481" lon="13.61888">
<ele>49</ele>
<time>2011-05-03T12:57:12Z</time>
</trkpt>
<trkpt lat="45.08485" lon="13.61884">
<ele>49</ele>
<time>2011-05-03T12:57:17Z</time>
</trkpt>
<trkpt lat="45.08489" lon="13.61881">
<ele>49</ele>
<time>2011-05-03T12:57:22Z</time>
</trkpt>
<trkpt lat="45.08494" lon="13.61878">
<ele>48</ele>
<time>2011-05-03T12:57:27Z</time>
</trkpt>
<trkpt lat="45.08498" lon="13.61875">
<ele>48</ele>
<time>2011-05-03T12:57:32Z</time>
</trkpt>
<trkpt lat="45.08502" lon="13.61871">
<ele>48</ele>
<time>2011-05-03T12:57:37Z</time>
</trkpt>
<trkpt lat="45.08507" lon="13.61867">
<ele>48</ele>
<time>2011-05-03T12:57:42Z</time>
</trkpt>
<trkpt lat="45.0851" lon="13.61863">
<ele>48</ele>
<time>2011-05-03T12:57:46Z</time>
</trkpt>
<trkpt lat="45.08514" lon="13.61859">
<ele>48</ele>
<time>2011-05-03T12:57:50Z</time>
</trkpt>
<trkpt lat="45.08518" lon="13.61855">
<ele>48</ele>
<time>2011-05-03T12:57:54Z</time>
</trkpt>
<trkpt lat="45.08522" lon="13.6185">
<ele>48</ele>
<time>2011-05-03T12:57:58Z</time>
</trkpt>
<trkpt lat="45.08526" lon="13.61846">
<ele>48</ele>
<time>2011-05-03T12:58:02Z</time>
</trkpt>
<trkpt lat="45.0853" lon="13.61841">
<ele>48</ele>
<time>2011-05-03T12:58:06Z</time>
</trkpt>
<trkpt lat="45.08534" lon="13.61837">
<ele>48</ele>
<time>2011-05-03T12:58:10Z</time>
</trkpt>
<trkpt lat="45.08538" lon="13.61833">
<ele>48</ele>
<time>2011-05-03T12:58:14Z</time>
</trkpt>
<trkpt lat="45.08542" lon="13.61829">
<ele>48</ele>
<time>2011-05-03T12:58:18Z</time>
</trkpt>
<trkpt lat="45.08546" lon="13.61825">
<ele>49</ele>
<time>2011-05-03T12:58:22Z</time>
</trkpt>
<trkpt lat="45.0855" lon="13.61821">
<ele>49</ele>
<time>2011-05-03T12:58:26Z</time>
</trkpt>
<trkpt lat="45.08554" lon="13.61818">
<ele>49</ele>
<time>2011-05-03T12:58:30Z</time>
</trkpt>
<trkpt lat="45.08558" lon="13.61813">
<ele>49</ele>
<time>2011-05-03T12:58:35Z</time>
</trkpt>
<trkpt lat="45.08562" lon="13.61808">
<ele>49</ele>
<time>2011-05-03T12:58:39Z</time>
</trkpt>
<trkpt lat="45.08565" lon="13.61804">
<ele>49</ele>
<time>2011-05-03T12:58:43Z</time>
</trkpt>
<trkpt lat="45.08569" lon="13.618">
<ele>49</ele>
<time>2011-05-03T12:58:48Z</time>
</trkpt>
<trkpt lat="45.08572" lon="13.61794">
<ele>49</ele>
<time>2011-05-03T12:58:53Z</time>
</trkpt>
<trkpt lat="45.08576" lon="13.61789">
<ele>49</ele>
<time>2011-05-03T12:58:58Z</time>
</trkpt>
<trkpt lat="45.08579" lon="13.61783">
<ele>49</ele>
<time>2011-05-03T12:59:06Z</time>
</trkpt>
<trkpt lat="45.08582" lon="13.61778">
<ele>49</ele>
<time>2011-05-03T12:59:13Z</time>
</trkpt>
<trkpt lat="45.08585" lon="13.61772">
<ele>49</ele>
<time>2011-05-03T12:59:19Z</time>
</trkpt>
<trkpt lat="45.08588" lon="13.61767">
<ele>49</ele>
<time>2011-05-03T12:59:24Z</time>
</trkpt>
<trkpt lat="45.08592" lon="13.61763">
<ele>48</ele>
<time>2011-05-03T12:59:28Z</time>
</trkpt>
<trkpt lat="45.08596" lon="13.61758">
<ele>48</ele>
<time>2011-05-03T12:59:33Z</time>
</trkpt>
<trkpt lat="45.086" lon="13.61754">
<ele>48</ele>
<time>2011-05-03T12:59:38Z</time>
</trkpt>
<trkpt lat="45.08604" lon="13.61749">
<ele>48</ele>
<time>2011-05-03T12:59:43Z</time>
</trkpt>
<trkpt lat="45.08608" lon="13.61745">
<ele>48</ele>
<time>2011-05-03T12:59:48Z</time>
</trkpt>
<trkpt lat="45.08612" lon="13.61742">
<ele>47</ele>
<time>2011-05-03T12:59:53Z</time>
</trkpt>
<trkpt lat="45.08616" lon="13.61738">
<ele>47</ele>
<time>2011-05-03T12:59:58Z</time>
</trkpt>
<trkpt lat="45.0862" lon="13.61735">
<ele>47</ele>
<time>2011-05-03T13:00:03Z</time>
</trkpt>
<trkpt lat="45.08624" lon="13.61731">
<ele>47</ele>
<time>2011-05-03T13:00:08Z</time>
</trkpt>
<trkpt lat="45.08628" lon="13.61727">
<ele>47</ele>
<time>2011-05-03T13:00:13Z</time>
</trkpt>
<trkpt lat="45.08632" lon="13.61724">
<ele>47</ele>
<time>2011-05-03T13:00:19Z</time>
</trkpt>
<trkpt lat="45.08636" lon="13.61721">
<ele>47</ele>
<time>2011-05-03T13:00:25Z</time>
</trkpt>
<trkpt lat="45.08641" lon="13.61719">
<ele>47</ele>
<time>2011-05-03T13:00:31Z</time>
</trkpt>
<trkpt lat="45.08645" lon="13.61718">
<ele>47</ele>
<time>2011-05-03T13:00:36Z</time>
</trkpt>
<trkpt lat="45.08651" lon="13.61716">
<ele>47</ele>
<time>2011-05-03T13:00:41Z</time>
</trkpt>
<trkpt lat="45.08656" lon="13.61714">
<ele>47</ele>
<time>2011-05-03T13:00:46Z</time>
</trkpt>
<trkpt lat="45.0866" lon="13.61713">
<ele>47</ele>
<time>2011-05-03T13:00:51Z</time>
</trkpt>
<trkpt lat="45.08665" lon="13.61711">
<ele>47</ele>
<time>2011-05-03T13:00:56Z</time>
</trkpt>
<trkpt lat="45.0867" lon="13.61709">
<ele>47</ele>
<time>2011-05-03T13:01:01Z</time>
</trkpt>
<trkpt lat="45.08674" lon="13.61707">
<ele>47</ele>
<time>2011-05-03T13:01:06Z</time>
</trkpt>
<trkpt lat="45.08679" lon="13.61704">
<ele>47</ele>
<time>2011-05-03T13:01:12Z</time>
</trkpt>
<trkpt lat="45.08684" lon="13.61702">
<ele>48</ele>
<time>2011-05-03T13:01:17Z</time>
</trkpt>
<trkpt lat="45.08688" lon="13.61699">
<ele>48</ele>
<time>2011-05-03T13:01:22Z</time>
</trkpt>
<trkpt lat="45.08692" lon="13.61697">
<ele>48</ele>
<time>2011-05-03T13:01:27Z</time>
</trkpt>
<trkpt lat="45.08696" lon="13.61695">
<ele>48</ele>
<time>2011-05-03T13:01:32Z</time>
</trkpt>
<trkpt lat="45.087" lon="13.61692">
<ele>48</ele>
<time>2011-05-03T13:01:37Z</time>
</trkpt>
<trkpt lat="45.08705" lon="13.6169">
<ele>48</ele>
<time>2011-05-03T13:01:42Z</time>
</trkpt>
<trkpt lat="45.0871" lon="13.61687">
<ele>48</ele>
<time>2011-05-03T13:01:48Z</time>
</trkpt>
<trkpt lat="45.08714" lon="13.61686">
<ele>48</ele>
<time>2011-05-03T13:01:53Z</time>
</trkpt>
<trkpt lat="45.08719" lon="13.61685">
<ele>48</ele>
<time>2011-05-03T13:01:58Z</time>
</trkpt>
<trkpt lat="45.08723" lon="13.61683">
<ele>48</ele>
<time>2011-05-03T13:02:03Z</time>
</trkpt>
<trkpt lat="45.08728" lon="13.61681">
<ele>48</ele>
<time>2011-05-03T13:02:08Z</time>
</trkpt>
<trkpt lat="45.08732" lon="13.6168">
<ele>48</ele>
<time>2011-05-03T13:02:13Z</time>
</trkpt>
<trkpt lat="45.08737" lon="13.61678">
<ele>48</ele>
<time>2011-05-03T13:02:18Z</time>
</trkpt>
<trkpt lat="45.08741" lon="13.61675">
<ele>48</ele>
<time>2011-05-03T13:02:23Z</time>
</trkpt>
<trkpt lat="45.08746" lon="13.61672">
<ele>48</ele>
<time>2011-05-03T13:02:28Z</time>
</trkpt>
<trkpt lat="45.08751" lon="13.61668">
<ele>48</ele>
<time>2011-05-03T13:02:33Z</time>
</trkpt>
<trkpt lat="45.08754" lon="13.61664">
<ele>48</ele>
<time>2011-05-03T13:02:37Z</time>
</trkpt>
<trkpt lat="45.08758" lon="13.6166">
<ele>48</ele>
<time>2011-05-03T13:02:41Z</time>
</trkpt>
<trkpt lat="45.08762" lon="13.61655">
<ele>48</ele>
<time>2011-05-03T13:02:46Z</time>
</trkpt>
<trkpt lat="45.08766" lon="13.61651">
<ele>48</ele>
<time>2011-05-03T13:02:51Z</time>
</trkpt>
<trkpt lat="45.0877" lon="13.61646">
<ele>48</ele>
<time>2011-05-03T13:02:56Z</time>
</trkpt>
<trkpt lat="45.08774" lon="13.61642">
<ele>49</ele>
<time>2011-05-03T13:03:02Z</time>
</trkpt>
<trkpt lat="45.08778" lon="13.61638">
<ele>49</ele>
<time>2011-05-03T13:03:08Z</time>
</trkpt>
<trkpt lat="45.08782" lon="13.61634">
<ele>49</ele>
<time>2011-05-03T13:03:14Z</time>
</trkpt>
<trkpt lat="45.08787" lon="13.6163">
<ele>49</ele>
<time>2011-05-03T13:03:20Z</time>
</trkpt>
<trkpt lat="45.08791" lon="13.61625">
<ele>48</ele>
<time>2011-05-03T13:03:26Z</time>
</trkpt>
<trkpt lat="45.08794" lon="13.6162">
<ele>48</ele>
<time>2011-05-03T13:03:32Z</time>
</trkpt>
<trkpt lat="45.08798" lon="13.61616">
<ele>48</ele>
<time>2011-05-03T13:03:38Z</time>
</trkpt>
<trkpt lat="45.08802" lon="13.61611">
<ele>48</ele>
<time>2011-05-03T13:03:44Z</time>
</trkpt>
<trkpt lat="45.08805" lon="13.61606">
<ele>48</ele>
<time>2011-05-03T13:03:50Z</time>
</trkpt>
<trkpt lat="45.08808" lon="13.61601">
<ele>48</ele>
<time>2011-05-03T13:03:56Z</time>
</trkpt>
<trkpt lat="45.08811" lon="13.61596">
<ele>48</ele>
<time>2011-05-03T13:04:02Z</time>
</trkpt>
<trkpt lat="45.08814" lon="13.61591">
<ele>48</ele>
<time>2011-05-03T13:04:08Z</time>
</trkpt>
<trkpt lat="45.08818" lon="13.61587">
<ele>48</ele>
<time>2011-05-03T13:04:20Z</time>
</trkpt>
<trkpt lat="45.08822" lon="13.61582">
<ele>48</ele>
<time>2011-05-03T13:04:27Z</time>
</trkpt>
<trkpt lat="45.08826" lon="13.61579">
<ele>48</ele>
<time>2011-05-03T13:04:33Z</time>
</trkpt>
<trkpt lat="45.0883" lon="13.61576">
<ele>48</ele>
<time>2011-05-03T13:04:38Z</time>
</trkpt>
<trkpt lat="45.08835" lon="13.61572">
<ele>48</ele>
<time>2011-05-03T13:04:43Z</time>
</trkpt>
<trkpt lat="45.0884" lon="13.61569">
<ele>48</ele>
<time>2011-05-03T13:04:48Z</time>
</trkpt>
<trkpt lat="45.08844" lon="13.61566">
<ele>47</ele>
<time>2011-05-03T13:04:54Z</time>
</trkpt>
<trkpt lat="45.08849" lon="13.61563">
<ele>47</ele>
<time>2011-05-03T13:05:00Z</time>
</trkpt>
<trkpt lat="45.08854" lon="13.61561">
<ele>47</ele>
<time>2011-05-03T13:05:06Z</time>
</trkpt>
<trkpt lat="45.08859" lon="13.61558">
<ele>47</ele>
<time>2011-05-03T13:05:11Z</time>
</trkpt>
<trkpt lat="45.08863" lon="13.61556">
<ele>47</ele>
<time>2011-05-03T13:05:16Z</time>
</trkpt>
<trkpt lat="45.08868" lon="13.61555">
<ele>47</ele>
<time>2011-05-03T13:05:21Z</time>
</trkpt>
<trkpt lat="45.08872" lon="13.61553">
<ele>47</ele>
<time>2011-05-03T13:05:26Z</time>
</trkpt>
<trkpt lat="45.08877" lon="13.61551">
<ele>47</ele>
<time>2011-05-03T13:05:31Z</time>
</trkpt>
<trkpt lat="45.08882" lon="13.61549">
<ele>47</ele>
<time>2011-05-03T13:05:36Z</time>
</trkpt>
<trkpt lat="45.08886" lon="13.61547">
<ele>47</ele>
<time>2011-05-03T13:05:41Z</time>
</trkpt>
<trkpt lat="45.08891" lon="13.61545">
<ele>47</ele>
<time>2011-05-03T13:05:46Z</time>
</trkpt>
<trkpt lat="45.08896" lon="13.61543">
<ele>47</ele>
<time>2011-05-03T13:05:51Z</time>
</trkpt>
<trkpt lat="45.08901" lon="13.61542">
<ele>47</ele>
<time>2011-05-03T13:05:56Z</time>
</trkpt>
<trkpt lat="45.08906" lon="13.6154">
<ele>47</ele>
<time>2011-05-03T13:06:01Z</time>
</trkpt>
<trkpt lat="45.08912" lon="13.61539">
<ele>47</ele>
<time>2011-05-03T13:06:06Z</time>
</trkpt>
<trkpt lat="45.08917" lon="13.61537">
<ele>47</ele>
<time>2011-05-03T13:06:11Z</time>
</trkpt>
<trkpt lat="45.08921" lon="13.61536">
<ele>47</ele>
<time>2011-05-03T13:06:15Z</time>
</trkpt>
<trkpt lat="45.08927" lon="13.61534">
<ele>48</ele>
<time>2011-05-03T13:06:20Z</time>
</trkpt>
<trkpt lat="45.08932" lon="13.61532">
<ele>48</ele>
<time>2011-05-03T13:06:25Z</time>
</trkpt>
<trkpt lat="45.08937" lon="13.61531">
<ele>48</ele>
<time>2011-05-03T13:06:30Z</time>
</trkpt>
<trkpt lat="45.08942" lon="13.6153">
<ele>48</ele>
<time>2011-05-03T13:06:35Z</time>
</trkpt>
<trkpt lat="45.08948" lon="13.61528">
<ele>48</ele>
<time>2011-05-03T13:06:40Z</time>
</trkpt>
<trkpt lat="45.08953" lon="13.61527">
<ele>48</ele>
<time>2011-05-03T13:06:45Z</time>
</trkpt>
<trkpt lat="45.08957" lon="13.61526">
<ele>48</ele>
<time>2011-05-03T13:06:50Z</time>
</trkpt>
<trkpt lat="45.08962" lon="13.61524">
<ele>48</ele>
<time>2011-05-03T13:06:55Z</time>
</trkpt>
<trkpt lat="45.08966" lon="13.61522">
<ele>48</ele>
<time>2011-05-03T13:07:00Z</time>
</trkpt>
<trkpt lat="45.08971" lon="13.61521">
<ele>48</ele>
<time>2011-05-03T13:07:05Z</time>
</trkpt>
<trkpt lat="45.08975" lon="13.6152">
<ele>48</ele>
<time>2011-05-03T13:07:10Z</time>
</trkpt>
<trkpt lat="45.0898" lon="13.61517">
<ele>48</ele>
<time>2011-05-03T13:07:15Z</time>
</trkpt>
<trkpt lat="45.08985" lon="13.61516">
<ele>48</ele>
<time>2011-05-03T13:07:21Z</time>
</trkpt>
<trkpt lat="45.0899" lon="13.61515">
<ele>48</ele>
<time>2011-05-03T13:07:27Z</time>
</trkpt>
<trkpt lat="45.08994" lon="13.61516">
<ele>47</ele>
<time>2011-05-03T13:07:33Z</time>
</trkpt>
<trkpt lat="45.08999" lon="13.61516">
<ele>47</ele>
<time>2011-05-03T13:07:39Z</time>
</trkpt>
<trkpt lat="45.09004" lon="13.61516">
<ele>47</ele>
<time>2011-05-03T13:07:44Z</time>
</trkpt>
<trkpt lat="45.09009" lon="13.61516">
<ele>47</ele>
<time>2011-05-03T13:07:49Z</time>
</trkpt>
<trkpt lat="45.09014" lon="13.61516">
<ele>47</ele>
<time>2011-05-03T13:07:54Z</time>
</trkpt>
<trkpt lat="45.0902" lon="13.61516">
<ele>47</ele>
<time>2011-05-03T13:07:59Z</time>
</trkpt>
<trkpt lat="45.09025" lon="13.61516">
<ele>47</ele>
<time>2011-05-03T13:08:04Z</time>
</trkpt>
<trkpt lat="45.0903" lon="13.61516">
<ele>47</ele>
<time>2011-05-03T13:08:09Z</time>
</trkpt>
<trkpt lat="45.09035" lon="13.61515">
<ele>47</ele>
<time>2011-05-03T13:08:14Z</time>
</trkpt>
<trkpt lat="45.0904" lon="13.61515">
<ele>47</ele>
<time>2011-05-03T13:08:19Z</time>
</trkpt>
<trkpt lat="45.09045" lon="13.61514">
<ele>47</ele>
<time>2011-05-03T13:08:24Z</time>
</trkpt>
<trkpt lat="45.0905" lon="13.61513">
<ele>47</ele>
<time>2011-05-03T13:08:29Z</time>
</trkpt>
<trkpt lat="45.09055" lon="13.61511">
<ele>47</ele>
<time>2011-05-03T13:08:34Z</time>
</trkpt>
<trkpt lat="45.09058" lon="13.61506">
<ele>47</ele>
<time>2011-05-03T13:08:39Z</time>
</trkpt>
<trkpt lat="45.09058" lon="13.61499">
<ele>46</ele>
<time>2011-05-03T13:08:45Z</time>
</trkpt>
<trkpt lat="45.09054" lon="13.61495">
<ele>46</ele>
<time>2011-05-03T13:08:51Z</time>
</trkpt>
<trkpt lat="45.09049" lon="13.61494">
<ele>46</ele>
<time>2011-05-03T13:08:56Z</time>
</trkpt>
<trkpt lat="45.09044" lon="13.61495">
<ele>46</ele>
<time>2011-05-03T13:09:01Z</time>
</trkpt>
<trkpt lat="45.09039" lon="13.61496">
<ele>46</ele>
<time>2011-05-03T13:09:07Z</time>
</trkpt>
<trkpt lat="45.09034" lon="13.61496">
<ele>45</ele>
<time>2011-05-03T13:09:13Z</time>
</trkpt>
<trkpt lat="45.09029" lon="13.61496">
<ele>45</ele>
<time>2011-05-03T13:09:19Z</time>
</trkpt>
<trkpt lat="45.09024" lon="13.61496">
<ele>45</ele>
<time>2011-05-03T13:09:25Z</time>
</trkpt>
<trkpt lat="45.09019" lon="13.61495">
<ele>45</ele>
<time>2011-05-03T13:09:31Z</time>
</trkpt>
<trkpt lat="45.09014" lon="13.61494">
<ele>45</ele>
<time>2011-05-03T13:09:37Z</time>
</trkpt>
<trkpt lat="45.0901" lon="13.61493">
<ele>44</ele>
<time>2011-05-03T13:09:43Z</time>
</trkpt>
<trkpt lat="45.09005" lon="13.6149">
<ele>44</ele>
<time>2011-05-03T13:09:49Z</time>
</trkpt>
<trkpt lat="45.09001" lon="13.61488">
<ele>44</ele>
<time>2011-05-03T13:09:55Z</time>
</trkpt>
<trkpt lat="45.08996" lon="13.61486">
<ele>44</ele>
<time>2011-05-03T13:10:01Z</time>
</trkpt>
<trkpt lat="45.08991" lon="13.61484">
<ele>44</ele>
<time>2011-05-03T13:10:07Z</time>
</trkpt>
<trkpt lat="45.08986" lon="13.61482">
<ele>43</ele>
<time>2011-05-03T13:10:13Z</time>
</trkpt>
<trkpt lat="45.08981" lon="13.6148">
<ele>43</ele>
<time>2011-05-03T13:10:19Z</time>
</trkpt>
<trkpt lat="45.08976" lon="13.61477">
<ele>43</ele>
<time>2011-05-03T13:10:25Z</time>
</trkpt>
<trkpt lat="45.08971" lon="13.61474">
<ele>43</ele>
<time>2011-05-03T13:10:31Z</time>
</trkpt>
<trkpt lat="45.08967" lon="13.61472">
<ele>43</ele>
<time>2011-05-03T13:10:36Z</time>
</trkpt>
<trkpt lat="45.08962" lon="13.61469">
<ele>43</ele>
<time>2011-05-03T13:10:42Z</time>
</trkpt>
<trkpt lat="45.08957" lon="13.61467">
<ele>43</ele>
<time>2011-05-03T13:10:47Z</time>
</trkpt>
<trkpt lat="45.08952" lon="13.61464">
<ele>42</ele>
<time>2011-05-03T13:10:53Z</time>
</trkpt>
<trkpt lat="45.08947" lon="13.61461">
<ele>42</ele>
<time>2011-05-03T13:10:59Z</time>
</trkpt>
<trkpt lat="45.08943" lon="13.61458">
<ele>42</ele>
<time>2011-05-03T13:11:04Z</time>
</trkpt>
<trkpt lat="45.08939" lon="13.61456">
<ele>42</ele>
<time>2011-05-03T13:11:09Z</time>
</trkpt>
<trkpt lat="45.08934" lon="13.61453">
<ele>42</ele>
<time>2011-05-03T13:11:15Z</time>
</trkpt>
<trkpt lat="45.08929" lon="13.6145">
<ele>42</ele>
<time>2011-05-03T13:11:20Z</time>
</trkpt>
<trkpt lat="45.08925" lon="13.61448">
<ele>42</ele>
<time>2011-05-03T13:11:25Z</time>
</trkpt>
<trkpt lat="45.0892" lon="13.61446">
<ele>42</ele>
<time>2011-05-03T13:11:30Z</time>
</trkpt>
<trkpt lat="45.08916" lon="13.61443">
<ele>42</ele>
<time>2011-05-03T13:11:35Z</time>
</trkpt>
<trkpt lat="45.08911" lon="13.61441">
<ele>42</ele>
<time>2011-05-03T13:11:40Z</time>
</trkpt>
<trkpt lat="45.08906" lon="13.61438">
<ele>42</ele>
<time>2011-05-03T13:11:45Z</time>
</trkpt>
<trkpt lat="45.08902" lon="13.61435">
<ele>42</ele>
<time>2011-05-03T13:11:50Z</time>
</trkpt>
<trkpt lat="45.08897" lon="13.61431">
<ele>42</ele>
<time>2011-05-03T13:11:56Z</time>
</trkpt>
<trkpt lat="45.08893" lon="13.61427">
<ele>42</ele>
<time>2011-05-03T13:12:03Z</time>
</trkpt>
<trkpt lat="45.08888" lon="13.61425">
<ele>42</ele>
<time>2011-05-03T13:12:08Z</time>
</trkpt>
<trkpt lat="45.08884" lon="13.61422">
<ele>43</ele>
<time>2011-05-03T13:12:13Z</time>
</trkpt>
<trkpt lat="45.08879" lon="13.6142">
<ele>43</ele>
<time>2011-05-03T13:12:18Z</time>
</trkpt>
<trkpt lat="45.08875" lon="13.61418">
<ele>43</ele>
<time>2011-05-03T13:12:23Z</time>
</trkpt>
<trkpt lat="45.0887" lon="13.61416">
<ele>43</ele>
<time>2011-05-03T13:12:28Z</time>
</trkpt>
<trkpt lat="45.08865" lon="13.61414">
<ele>43</ele>
<time>2011-05-03T13:12:33Z</time>
</trkpt>
<trkpt lat="45.0886" lon="13.61414">
<ele>44</ele>
<time>2011-05-03T13:12:38Z</time>
</trkpt>
<trkpt lat="45.08856" lon="13.61413">
<ele>44</ele>
<time>2011-05-03T13:12:43Z</time>
</trkpt>
<trkpt lat="45.0885" lon="13.61412">
<ele>44</ele>
<time>2011-05-03T13:12:48Z</time>
</trkpt>
<trkpt lat="45.08845" lon="13.61412">
<ele>44</ele>
<time>2011-05-03T13:12:53Z</time>
</trkpt>
<trkpt lat="45.0884" lon="13.61411">
<ele>44</ele>
<time>2011-05-03T13:12:58Z</time>
</trkpt>
<trkpt lat="45.08835" lon="13.61411">
<ele>44</ele>
<time>2011-05-03T13:13:03Z</time>
</trkpt>
<trkpt lat="45.0883" lon="13.6141">
<ele>44</ele>
<time>2011-05-03T13:13:08Z</time>
</trkpt>
<trkpt lat="45.08825" lon="13.61408">
<ele>44</ele>
<time>2011-05-03T13:13:13Z</time>
</trkpt>
<trkpt lat="45.08821" lon="13.61407">
<ele>44</ele>
<time>2011-05-03T13:13:18Z</time>
</trkpt>
<trkpt lat="45.08816" lon="13.61404">
<ele>44</ele>
<time>2011-05-03T13:13:24Z</time>
</trkpt>
<trkpt lat="45.08811" lon="13.61401">
<ele>44</ele>
<time>2011-05-03T13:13:29Z</time>
</trkpt>
<trkpt lat="45.08806" lon="13.61398">
<ele>44</ele>
<time>2011-05-03T13:13:35Z</time>
</trkpt>
<trkpt lat="45.08802" lon="13.61396">
<ele>44</ele>
<time>2011-05-03T13:13:40Z</time>
</trkpt>
<trkpt lat="45.08797" lon="13.61393">
<ele>45</ele>
<time>2011-05-03T13:13:45Z</time>
</trkpt>
<trkpt lat="45.08793" lon="13.6139">
<ele>45</ele>
<time>2011-05-03T13:13:50Z</time>
</trkpt>
<trkpt lat="45.08788" lon="13.61387">
<ele>45</ele>
<time>2011-05-03T13:13:55Z</time>
</trkpt>
<trkpt lat="45.08784" lon="13.61383">
<ele>45</ele>
<time>2011-05-03T13:14:00Z</time>
</trkpt>
<trkpt lat="45.0878" lon="13.6138">
<ele>45</ele>
<time>2011-05-03T13:14:06Z</time>
</trkpt>
<trkpt lat="45.08775" lon="13.61377">
<ele>45</ele>
<time>2011-05-03T13:14:11Z</time>
</trkpt>
<trkpt lat="45.08771" lon="13.61374">
<ele>45</ele>
<time>2011-05-03T13:14:17Z</time>
</trkpt>
<trkpt lat="45.08767" lon="13.61371">
<ele>45</ele>
<time>2011-05-03T13:14:23Z</time>
</trkpt>
<trkpt lat="45.08762" lon="13.61368">
<ele>45</ele>
<time>2011-05-03T13:14:30Z</time>
</trkpt>
<trkpt lat="45.08758" lon="13.61365">
<ele>46</ele>
<time>2011-05-03T13:14:37Z</time>
</trkpt>
<trkpt lat="45.08753" lon="13.61362">
<ele>46</ele>
<time>2011-05-03T13:14:43Z</time>
</trkpt>
<trkpt lat="45.08749" lon="13.61359">
<ele>46</ele>
<time>2011-05-03T13:14:49Z</time>
</trkpt>
<trkpt lat="45.08744" lon="13.61356">
<ele>46</ele>
<time>2011-05-03T13:14:56Z</time>
</trkpt>
<trkpt lat="45.08741" lon="13.61352">
<ele>46</ele>
<time>2011-05-03T13:15:03Z</time>
</trkpt>
<trkpt lat="45.08736" lon="13.61349">
<ele>46</ele>
<time>2011-05-03T13:15:10Z</time>
</trkpt>
<trkpt lat="45.08732" lon="13.61347">
<ele>46</ele>
<time>2011-05-03T13:15:18Z</time>
</trkpt>
<trkpt lat="45.08727" lon="13.61346">
<ele>46</ele>
<time>2011-05-03T13:15:26Z</time>
</trkpt>
<trkpt lat="45.08722" lon="13.61343">
<ele>46</ele>
<time>2011-05-03T13:15:33Z</time>
</trkpt>
<trkpt lat="45.08717" lon="13.61341">
<ele>46</ele>
<time>2011-05-03T13:15:39Z</time>
</trkpt>
<trkpt lat="45.08712" lon="13.61338">
<ele>46</ele>
<time>2011-05-03T13:15:45Z</time>
</trkpt>
<trkpt lat="45.08708" lon="13.61336">
<ele>46</ele>
<time>2011-05-03T13:15:51Z</time>
</trkpt>
<trkpt lat="45.08703" lon="13.61334">
<ele>45</ele>
<time>2011-05-03T13:15:58Z</time>
</trkpt>
<trkpt lat="45.08698" lon="13.61331">
<ele>45</ele>
<time>2011-05-03T13:16:06Z</time>
</trkpt>
<trkpt lat="45.08693" lon="13.61329">
<ele>45</ele>
<time>2011-05-03T13:16:13Z</time>
</trkpt>
<trkpt lat="45.08688" lon="13.61328">
<ele>45</ele>
<time>2011-05-03T13:16:19Z</time>
</trkpt>
<trkpt lat="45.08683" lon="13.61327">
<ele>45</ele>
<time>2011-05-03T13:16:25Z</time>
</trkpt>
<trkpt lat="45.08678" lon="13.61327">
<ele>45</ele>
<time>2011-05-03T13:16:31Z</time>
</trkpt>
<trkpt lat="45.08673" lon="13.61326">
<ele>45</ele>
<time>2011-05-03T13:16:37Z</time>
</trkpt>
<trkpt lat="45.08669" lon="13.61325">
<ele>45</ele>
<time>2011-05-03T13:16:43Z</time>
</trkpt>
<trkpt lat="45.08664" lon="13.61324">
<ele>45</ele>
<time>2011-05-03T13:16:49Z</time>
</trkpt>
<trkpt lat="45.08659" lon="13.61323">
<ele>45</ele>
<time>2011-05-03T13:16:55Z</time>
</trkpt>
<trkpt lat="45.08654" lon="13.61322">
<ele>45</ele>
<time>2011-05-03T13:17:01Z</time>
</trkpt>
<trkpt lat="45.08649" lon="13.61321">
<ele>44</ele>
<time>2011-05-03T13:17:06Z</time>
</trkpt>
<trkpt lat="45.08644" lon="13.6132">
<ele>44</ele>
<time>2011-05-03T13:17:11Z</time>
</trkpt>
<trkpt lat="45.08639" lon="13.61319">
<ele>44</ele>
<time>2011-05-03T13:17:17Z</time>
</trkpt>
<trkpt lat="45.08634" lon="13.61318">
<ele>44</ele>
<time>2011-05-03T13:17:23Z</time>
</trkpt>
<trkpt lat="45.08629" lon="13.61318">
<ele>44</ele>
<time>2011-05-03T13:17:29Z</time>
</trkpt>
<trkpt lat="45.08624" lon="13.61317">
<ele>44</ele>
<time>2011-05-03T13:17:35Z</time>
</trkpt>
<trkpt lat="45.08618" lon="13.61317">
<ele>44</ele>
<time>2011-05-03T13:17:41Z</time>
</trkpt>
<trkpt lat="45.08614" lon="13.61318">
<ele>44</ele>
<time>2011-05-03T13:17:46Z</time>
</trkpt>
<trkpt lat="45.08609" lon="13.61319">
<ele>44</ele>
<time>2011-05-03T13:17:51Z</time>
</trkpt>
<trkpt lat="45.08603" lon="13.61321">
<ele>43</ele>
<time>2011-05-03T13:17:56Z</time>
</trkpt>
<trkpt lat="45.08598" lon="13.61322">
<ele>43</ele>
<time>2011-05-03T13:18:00Z</time>
</trkpt>
<trkpt lat="45.08594" lon="13.61324">
<ele>43</ele>
<time>2011-05-03T13:18:04Z</time>
</trkpt>
<trkpt lat="45.08588" lon="13.61326">
<ele>43</ele>
<time>2011-05-03T13:18:08Z</time>
</trkpt>
<trkpt lat="45.08583" lon="13.61328">
<ele>43</ele>
<time>2011-05-03T13:18:12Z</time>
</trkpt>
<trkpt lat="45.08578" lon="13.6133">
<ele>43</ele>
<time>2011-05-03T13:18:16Z</time>
</trkpt>
<trkpt lat="45.08573" lon="13.61332">
<ele>43</ele>
<time>2011-05-03T13:18:20Z</time>
</trkpt>
<trkpt lat="45.08568" lon="13.61334">
<ele>43</ele>
<time>2011-05-03T13:18:24Z</time>
</trkpt>
<trkpt lat="45.08562" lon="13.61336">
<ele>43</ele>
<time>2011-05-03T13:18:28Z</time>
</trkpt>
<trkpt lat="45.08557" lon="13.61338">
<ele>43</ele>
<time>2011-05-03T13:18:32Z</time>
</trkpt>
<trkpt lat="45.08552" lon="13.61339">
<ele>43</ele>
<time>2011-05-03T13:18:36Z</time>
</trkpt>
<trkpt lat="45.08547" lon="13.61341">
<ele>43</ele>
<time>2011-05-03T13:18:40Z</time>
</trkpt>
<trkpt lat="45.08542" lon="13.61343">
<ele>43</ele>
<time>2011-05-03T13:18:44Z</time>
</trkpt>
<trkpt lat="45.08536" lon="13.61345">
<ele>43</ele>
<time>2011-05-03T13:18:48Z</time>
</trkpt>
<trkpt lat="45.0853" lon="13.61347">
<ele>43</ele>
<time>2011-05-03T13:18:52Z</time>
</trkpt>
<trkpt lat="45.08525" lon="13.61349">
<ele>43</ele>
<time>2011-05-03T13:18:56Z</time>
</trkpt>
<trkpt lat="45.0852" lon="13.61351">
<ele>43</ele>
<time>2011-05-03T13:19:00Z</time>
</trkpt>
<trkpt lat="45.08514" lon="13.61352">
<ele>43</ele>
<time>2011-05-03T13:19:04Z</time>
</trkpt>
<trkpt lat="45.08509" lon="13.61354">
<ele>42</ele>
<time>2011-05-03T13:19:08Z</time>
</trkpt>
<trkpt lat="45.08504" lon="13.61356">
<ele>42</ele>
<time>2011-05-03T13:19:11Z</time>
</trkpt>
<trkpt lat="45.08499" lon="13.61358">
<ele>42</ele>
<time>2011-05-03T13:19:15Z</time>
</trkpt>
<trkpt lat="45.08493" lon="13.6136">
<ele>42</ele>
<time>2011-05-03T13:19:19Z</time>
</trkpt>
<trkpt lat="45.08488" lon="13.61362">
<ele>42</ele>
<time>2011-05-03T13:19:23Z</time>
</trkpt>
<trkpt lat="45.08482" lon="13.61364">
<ele>42</ele>
<time>2011-05-03T13:19:27Z</time>
</trkpt>
<trkpt lat="45.08477" lon="13.61365">
<ele>42</ele>
<time>2011-05-03T13:19:30Z</time>
</trkpt>
<trkpt lat="45.08473" lon="13.61367">
<ele>42</ele>
<time>2011-05-03T13:19:33Z</time>
</trkpt>
<trkpt lat="45.08468" lon="13.61368">
<ele>42</ele>
<time>2011-05-03T13:19:36Z</time>
</trkpt>
<trkpt lat="45.08464" lon="13.61369">
<ele>42</ele>
<time>2011-05-03T13:19:39Z</time>
</trkpt>
<trkpt lat="45.08458" lon="13.6137">
<ele>42</ele>
<time>2011-05-03T13:19:43Z</time>
</trkpt>
<trkpt lat="45.08452" lon="13.61372">
<ele>42</ele>
<time>2011-05-03T13:19:47Z</time>
</trkpt>
<trkpt lat="45.08447" lon="13.61374">
<ele>42</ele>
<time>2011-05-03T13:19:50Z</time>
</trkpt>
<trkpt lat="45.08442" lon="13.61377">
<ele>42</ele>
<time>2011-05-03T13:19:54Z</time>
</trkpt>
<trkpt lat="45.08437" lon="13.61379">
<ele>42</ele>
<time>2011-05-03T13:19:57Z</time>
</trkpt>
<trkpt lat="45.08433" lon="13.6138">
<ele>42</ele>
<time>2011-05-03T13:20:00Z</time>
</trkpt>
<trkpt lat="45.08428" lon="13.61382">
<ele>42</ele>
<time>2011-05-03T13:20:03Z</time>
</trkpt>
<trkpt lat="45.08424" lon="13.61382">
<ele>42</ele>
<time>2011-05-03T13:20:06Z</time>
</trkpt>
<trkpt lat="45.08418" lon="13.61383">
<ele>42</ele>
<time>2011-05-03T13:20:10Z</time>
</trkpt>
<trkpt lat="45.08412" lon="13.61385">
<ele>42</ele>
<time>2011-05-03T13:20:14Z</time>
</trkpt>
<trkpt lat="45.08407" lon="13.61388">
<ele>42</ele>
<time>2011-05-03T13:20:18Z</time>
</trkpt>
<trkpt lat="45.08401" lon="13.61391">
<ele>42</ele>
<time>2011-05-03T13:20:22Z</time>
</trkpt>
<trkpt lat="45.08396" lon="13.61394">
<ele>42</ele>
<time>2011-05-03T13:20:26Z</time>
</trkpt>
<trkpt lat="45.08391" lon="13.61398">
<ele>42</ele>
<time>2011-05-03T13:20:30Z</time>
</trkpt>
<trkpt lat="45.08385" lon="13.614">
<ele>42</ele>
<time>2011-05-03T13:20:34Z</time>
</trkpt>
<trkpt lat="45.0838" lon="13.61403">
<ele>42</ele>
<time>2011-05-03T13:20:38Z</time>
</trkpt>
<trkpt lat="45.08374" lon="13.61404">
<ele>43</ele>
<time>2011-05-03T13:20:42Z</time>
</trkpt>
<trkpt lat="45.08368" lon="13.61406">
<ele>43</ele>
<time>2011-05-03T13:20:46Z</time>
</trkpt>
<trkpt lat="45.08363" lon="13.61408">
<ele>43</ele>
<time>2011-05-03T13:20:50Z</time>
</trkpt>
<trkpt lat="45.08357" lon="13.6141">
<ele>43</ele>
<time>2011-05-03T13:20:54Z</time>
</trkpt>
<trkpt lat="45.08352" lon="13.61413">
<ele>43</ele>
<time>2011-05-03T13:20:58Z</time>
</trkpt>
<trkpt lat="45.08346" lon="13.61416">
<ele>43</ele>
<time>2011-05-03T13:21:02Z</time>
</trkpt>
<trkpt lat="45.08341" lon="13.61419">
<ele>43</ele>
<time>2011-05-03T13:21:06Z</time>
</trkpt>
<trkpt lat="45.08335" lon="13.61421">
<ele>43</ele>
<time>2011-05-03T13:21:10Z</time>
</trkpt>
<trkpt lat="45.0833" lon="13.61423">
<ele>43</ele>
<time>2011-05-03T13:21:14Z</time>
</trkpt>
<trkpt lat="45.08324" lon="13.61426">
<ele>43</ele>
<time>2011-05-03T13:21:18Z</time>
</trkpt>
<trkpt lat="45.08319" lon="13.61428">
<ele>43</ele>
<time>2011-05-03T13:21:22Z</time>
</trkpt>
<trkpt lat="45.08313" lon="13.6143">
<ele>43</ele>
<time>2011-05-03T13:21:26Z</time>
</trkpt>
<trkpt lat="45.08308" lon="13.61432">
<ele>43</ele>
<time>2011-05-03T13:21:30Z</time>
</trkpt>
<trkpt lat="45.08302" lon="13.61434">
<ele>43</ele>
<time>2011-05-03T13:21:34Z</time>
</trkpt>
<trkpt lat="45.08297" lon="13.61437">
<ele>43</ele>
<time>2011-05-03T13:21:38Z</time>
</trkpt>
<trkpt lat="45.08291" lon="13.61438">
<ele>43</ele>
<time>2011-05-03T13:21:42Z</time>
</trkpt>
<trkpt lat="45.08286" lon="13.6144">
<ele>43</ele>
<time>2011-05-03T13:21:46Z</time>
</trkpt>
<trkpt lat="45.0828" lon="13.61442">
<ele>43</ele>
<time>2011-05-03T13:21:50Z</time>
</trkpt>
<trkpt lat="45.08275" lon="13.61444">
<ele>43</ele>
<time>2011-05-03T13:21:54Z</time>
</trkpt>
<trkpt lat="45.0827" lon="13.61446">
<ele>43</ele>
<time>2011-05-03T13:21:58Z</time>
</trkpt>
<trkpt lat="45.08265" lon="13.61448">
<ele>43</ele>
<time>2011-05-03T13:22:02Z</time>
</trkpt>
<trkpt lat="45.0826" lon="13.6145">
<ele>43</ele>
<time>2011-05-03T13:22:06Z</time>
</trkpt>
<trkpt lat="45.08255" lon="13.61452">
<ele>43</ele>
<time>2011-05-03T13:22:10Z</time>
</trkpt>
<trkpt lat="45.0825" lon="13.61454">
<ele>43</ele>
<time>2011-05-03T13:22:14Z</time>
</trkpt>
<trkpt lat="45.08246" lon="13.61456">
<ele>43</ele>
<time>2011-05-03T13:22:18Z</time>
</trkpt>
<trkpt lat="45.08241" lon="13.61458">
<ele>43</ele>
<time>2011-05-03T13:22:22Z</time>
</trkpt>
<trkpt lat="45.08236" lon="13.6146">
<ele>43</ele>
<time>2011-05-03T13:22:26Z</time>
</trkpt>
<trkpt lat="45.08232" lon="13.61462">
<ele>43</ele>
<time>2011-05-03T13:22:30Z</time>
</trkpt>
<trkpt lat="45.08227" lon="13.61464">
<ele>43</ele>
<time>2011-05-03T13:22:34Z</time>
</trkpt>
<trkpt lat="45.08223" lon="13.61466">
<ele>43</ele>
<time>2011-05-03T13:22:38Z</time>
</trkpt>
<trkpt lat="45.08217" lon="13.61468">
<ele>43</ele>
<time>2011-05-03T13:22:43Z</time>
</trkpt>
<trkpt lat="45.08212" lon="13.6147">
<ele>44</ele>
<time>2011-05-03T13:22:48Z</time>
</trkpt>
<trkpt lat="45.08207" lon="13.61473">
<ele>44</ele>
<time>2011-05-03T13:22:53Z</time>
</trkpt>
<trkpt lat="45.08203" lon="13.61475">
<ele>44</ele>
<time>2011-05-03T13:22:58Z</time>
</trkpt>
<trkpt lat="45.08198" lon="13.61478">
<ele>44</ele>
<time>2011-05-03T13:23:03Z</time>
</trkpt>
<trkpt lat="45.08192" lon="13.6148">
<ele>44</ele>
<time>2011-05-03T13:23:08Z</time>
</trkpt>
<trkpt lat="45.08188" lon="13.61482">
<ele>44</ele>
<time>2011-05-03T13:23:12Z</time>
</trkpt>
<trkpt lat="45.08183" lon="13.61485">
<ele>44</ele>
<time>2011-05-03T13:23:17Z</time>
</trkpt>
<trkpt lat="45.08178" lon="13.61488">
<ele>44</ele>
<time>2011-05-03T13:23:22Z</time>
</trkpt>
<trkpt lat="45.08173" lon="13.6149">
<ele>44</ele>
<time>2011-05-03T13:23:27Z</time>
</trkpt>
<trkpt lat="45.08168" lon="13.61493">
<ele>44</ele>
<time>2011-05-03T13:23:32Z</time>
</trkpt>
<trkpt lat="45.08163" lon="13.61495">
<ele>44</ele>
<time>2011-05-03T13:23:37Z</time>
</trkpt>
<trkpt lat="45.08158" lon="13.61498">
<ele>44</ele>
<time>2011-05-03T13:23:42Z</time>
</trkpt>
<trkpt lat="45.08153" lon="13.615">
<ele>44</ele>
<time>2011-05-03T13:23:47Z</time>
</trkpt>
<trkpt lat="45.08148" lon="13.61503">
<ele>44</ele>
<time>2011-05-03T13:23:52Z</time>
</trkpt>
<trkpt lat="45.08144" lon="13.61505">
<ele>44</ele>
<time>2011-05-03T13:23:57Z</time>
</trkpt>
<trkpt lat="45.08139" lon="13.61507">
<ele>44</ele>
<time>2011-05-03T13:24:02Z</time>
</trkpt>
<trkpt lat="45.08134" lon="13.6151">
<ele>44</ele>
<time>2011-05-03T13:24:07Z</time>
</trkpt>
<trkpt lat="45.08129" lon="13.61512">
<ele>44</ele>
<time>2011-05-03T13:24:12Z</time>
</trkpt>
<trkpt lat="45.08125" lon="13.61514">
<ele>45</ele>
<time>2011-05-03T13:24:17Z</time>
</trkpt>
<trkpt lat="45.0812" lon="13.61516">
<ele>45</ele>
<time>2011-05-03T13:24:22Z</time>
</trkpt>
<trkpt lat="45.08115" lon="13.61518">
<ele>45</ele>
<time>2011-05-03T13:24:27Z</time>
</trkpt>
<trkpt lat="45.0811" lon="13.61521">
<ele>45</ele>
<time>2011-05-03T13:24:32Z</time>
</trkpt>
<trkpt lat="45.08106" lon="13.61523">
<ele>45</ele>
<time>2011-05-03T13:24:37Z</time>
</trkpt>
<trkpt lat="45.08101" lon="13.61525">
<ele>45</ele>
<time>2011-05-03T13:24:42Z</time>
</trkpt>
<trkpt lat="45.08096" lon="13.61527">
<ele>45</ele>
<time>2011-05-03T13:24:47Z</time>
</trkpt>
<trkpt lat="45.08092" lon="13.6153">
<ele>45</ele>
<time>2011-05-03T13:24:52Z</time>
</trkpt>
<trkpt lat="45.08086" lon="13.61532">
<ele>45</ele>
<time>2011-05-03T13:24:58Z</time>
</trkpt>
<trkpt lat="45.08082" lon="13.61535">
<ele>45</ele>
<time>2011-05-03T13:25:03Z</time>
</trkpt>
<trkpt lat="45.08078" lon="13.61537">
<ele>45</ele>
<time>2011-05-03T13:25:08Z</time>
</trkpt>
<trkpt lat="45.08073" lon="13.6154">
<ele>45</ele>
<time>2011-05-03T13:25:14Z</time>
</trkpt>
<trkpt lat="45.08068" lon="13.61542">
<ele>45</ele>
<time>2011-05-03T13:25:20Z</time>
</trkpt>
<trkpt lat="45.08063" lon="13.61545">
<ele>45</ele>
<time>2011-05-03T13:25:26Z</time>
</trkpt>
<trkpt lat="45.08059" lon="13.61547">
<ele>45</ele>
<time>2011-05-03T13:25:31Z</time>
</trkpt>
<trkpt lat="45.08054" lon="13.61548">
<ele>45</ele>
<time>2011-05-03T13:25:36Z</time>
</trkpt>
<trkpt lat="45.0805" lon="13.6155">
<ele>45</ele>
<time>2011-05-03T13:25:41Z</time>
</trkpt>
<trkpt lat="45.08045" lon="13.61553">
<ele>45</ele>
<time>2011-05-03T13:25:47Z</time>
</trkpt>
<trkpt lat="45.0804" lon="13.61555">
<ele>45</ele>
<time>2011-05-03T13:25:52Z</time>
</trkpt>
<trkpt lat="45.08035" lon="13.61557">
<ele>45</ele>
<time>2011-05-03T13:25:57Z</time>
</trkpt>
<trkpt lat="45.0803" lon="13.61559">
<ele>45</ele>
<time>2011-05-03T13:26:02Z</time>
</trkpt>
<trkpt lat="45.08025" lon="13.6156">
<ele>45</ele>
<time>2011-05-03T13:26:07Z</time>
</trkpt>
<trkpt lat="45.08021" lon="13.61562">
<ele>45</ele>
<time>2011-05-03T13:26:12Z</time>
</trkpt>
<trkpt lat="45.08016" lon="13.61565">
<ele>46</ele>
<time>2011-05-03T13:26:17Z</time>
</trkpt>
<trkpt lat="45.08012" lon="13.61567">
<ele>46</ele>
<time>2011-05-03T13:26:22Z</time>
</trkpt>
<trkpt lat="45.08007" lon="13.61569">
<ele>46</ele>
<time>2011-05-03T13:26:27Z</time>
</trkpt>
<trkpt lat="45.08003" lon="13.61571">
<ele>46</ele>
<time>2011-05-03T13:26:32Z</time>
</trkpt>
<trkpt lat="45.07998" lon="13.61574">
<ele>46</ele>
<time>2011-05-03T13:26:37Z</time>
</trkpt>
<trkpt lat="45.07993" lon="13.61576">
<ele>46</ele>
<time>2011-05-03T13:26:42Z</time>
</trkpt>
<trkpt lat="45.07988" lon="13.61578">
<ele>46</ele>
<time>2011-05-03T13:26:47Z</time>
</trkpt>
<trkpt lat="45.07984" lon="13.61581">
<ele>46</ele>
<time>2011-05-03T13:26:52Z</time>
</trkpt>
<trkpt lat="45.07978" lon="13.61583">
<ele>46</ele>
<time>2011-05-03T13:26:58Z</time>
</trkpt>
<trkpt lat="45.07974" lon="13.61585">
<ele>46</ele>
<time>2011-05-03T13:27:03Z</time>
</trkpt>
<trkpt lat="45.07968" lon="13.61587">
<ele>46</ele>
<time>2011-05-03T13:27:09Z</time>
</trkpt>
<trkpt lat="45.07963" lon="13.61589">
<ele>46</ele>
<time>2011-05-03T13:27:15Z</time>
</trkpt>
<trkpt lat="45.07958" lon="13.61592">
<ele>46</ele>
<time>2011-05-03T13:27:21Z</time>
</trkpt>
<trkpt lat="45.07954" lon="13.61594">
<ele>46</ele>
<time>2011-05-03T13:27:27Z</time>
</trkpt>
<trkpt lat="45.07948" lon="13.61597">
<ele>46</ele>
<time>2011-05-03T13:27:33Z</time>
</trkpt>
<trkpt lat="45.07944" lon="13.616">
<ele>46</ele>
<time>2011-05-03T13:27:39Z</time>
</trkpt>
<trkpt lat="45.07939" lon="13.61603">
<ele>46</ele>
<time>2011-05-03T13:27:45Z</time>
</trkpt>
<trkpt lat="45.07934" lon="13.61605">
<ele>47</ele>
<time>2011-05-03T13:27:51Z</time>
</trkpt>
<trkpt lat="45.0793" lon="13.61608">
<ele>47</ele>
<time>2011-05-03T13:27:57Z</time>
</trkpt>
<trkpt lat="45.07925" lon="13.6161">
<ele>47</ele>
<time>2011-05-03T13:28:03Z</time>
</trkpt>
<trkpt lat="45.07921" lon="13.61613">
<ele>47</ele>
<time>2011-05-03T13:28:09Z</time>
</trkpt>
<trkpt lat="45.07916" lon="13.61616">
<ele>47</ele>
<time>2011-05-03T13:28:15Z</time>
</trkpt>
<trkpt lat="45.07912" lon="13.61619">
<ele>47</ele>
<time>2011-05-03T13:28:21Z</time>
</trkpt>
<trkpt lat="45.07908" lon="13.61622">
<ele>47</ele>
<time>2011-05-03T13:28:27Z</time>
</trkpt>
<trkpt lat="45.07903" lon="13.61625">
<ele>47</ele>
<time>2011-05-03T13:28:33Z</time>
</trkpt>
<trkpt lat="45.07899" lon="13.61628">
<ele>47</ele>
<time>2011-05-03T13:28:39Z</time>
</trkpt>
<trkpt lat="45.07894" lon="13.6163">
<ele>47</ele>
<time>2011-05-03T13:28:46Z</time>
</trkpt>
<trkpt lat="45.0789" lon="13.61633">
<ele>47</ele>
<time>2011-05-03T13:28:53Z</time>
</trkpt>
<trkpt lat="45.07886" lon="13.61637">
<ele>47</ele>
<time>2011-05-03T13:29:00Z</time>
</trkpt>
<trkpt lat="45.07882" lon="13.6164">
<ele>47</ele>
<time>2011-05-03T13:29:07Z</time>
</trkpt>
<trkpt lat="45.07878" lon="13.61643">
<ele>47</ele>
<time>2011-05-03T13:29:14Z</time>
</trkpt>
<trkpt lat="45.07874" lon="13.61647">
<ele>47</ele>
<time>2011-05-03T13:29:21Z</time>
</trkpt>
<trkpt lat="45.0787" lon="13.6165">
<ele>46</ele>
<time>2011-05-03T13:29:28Z</time>
</trkpt>
<trkpt lat="45.07865" lon="13.61654">
<ele>46</ele>
<time>2011-05-03T13:29:35Z</time>
</trkpt>
<trkpt lat="45.07861" lon="13.61658">
<ele>46</ele>
<time>2011-05-03T13:29:43Z</time>
</trkpt>
<trkpt lat="45.07858" lon="13.61663">
<ele>46</ele>
<time>2011-05-03T13:29:51Z</time>
</trkpt>
<trkpt lat="45.07853" lon="13.61666">
<ele>46</ele>
<time>2011-05-03T13:29:58Z</time>
</trkpt>
<trkpt lat="45.07849" lon="13.61669">
<ele>45</ele>
<time>2011-05-03T13:30:05Z</time>
</trkpt>
<trkpt lat="45.07845" lon="13.61672">
<ele>45</ele>
<time>2011-05-03T13:30:12Z</time>
</trkpt>
<trkpt lat="45.0784" lon="13.61675">
<ele>45</ele>
<time>2011-05-03T13:30:20Z</time>
</trkpt>
<trkpt lat="45.07836" lon="13.61678">
<ele>44</ele>
<time>2011-05-03T13:30:27Z</time>
</trkpt>
<trkpt lat="45.07832" lon="13.61681">
<ele>44</ele>
<time>2011-05-03T13:30:35Z</time>
</trkpt>
<trkpt lat="45.07828" lon="13.61684">
<ele>44</ele>
<time>2011-05-03T13:30:43Z</time>
</trkpt>
<trkpt lat="45.07824" lon="13.61687">
<ele>45</ele>
<time>2011-05-03T13:30:51Z</time>
</trkpt>
<trkpt lat="45.07819" lon="13.6169">
<ele>45</ele>
<time>2011-05-03T13:30:58Z</time>
</trkpt>
<trkpt lat="45.07815" lon="13.61693">
<ele>45</ele>
<time>2011-05-03T13:31:06Z</time>
</trkpt>
<trkpt lat="45.07811" lon="13.61697">
<ele>45</ele>
<time>2011-05-03T13:31:14Z</time>
</trkpt>
<trkpt lat="45.07807" lon="13.617">
<ele>45</ele>
<time>2011-05-03T13:31:21Z</time>
</trkpt>
<trkpt lat="45.07803" lon="13.61703">
<ele>45</ele>
<time>2011-05-03T13:31:28Z</time>
</trkpt>
<trkpt lat="45.07799" lon="13.61707">
<ele>44</ele>
<time>2011-05-03T13:31:36Z</time>
</trkpt>
<trkpt lat="45.07795" lon="13.61711">
<ele>44</ele>
<time>2011-05-03T13:31:44Z</time>
</trkpt>
<trkpt lat="45.07791" lon="13.61715">
<ele>44</ele>
<time>2011-05-03T13:31:52Z</time>
</trkpt>
<trkpt lat="45.07787" lon="13.61719">
<ele>44</ele>
<time>2011-05-03T13:32:00Z</time>
</trkpt>
<trkpt lat="45.07783" lon="13.61722">
<ele>44</ele>
<time>2011-05-03T13:32:07Z</time>
</trkpt>
<trkpt lat="45.0778" lon="13.61726">
<ele>44</ele>
<time>2011-05-03T13:32:14Z</time>
</trkpt>
<trkpt lat="45.07776" lon="13.61731">
<ele>43</ele>
<time>2011-05-03T13:32:22Z</time>
</trkpt>
<trkpt lat="45.07773" lon="13.61735">
<ele>43</ele>
<time>2011-05-03T13:32:30Z</time>
</trkpt>
<trkpt lat="45.07768" lon="13.61738">
<ele>43</ele>
<time>2011-05-03T13:32:39Z</time>
</trkpt>
<trkpt lat="45.07764" lon="13.61741">
<ele>43</ele>
<time>2011-05-03T13:32:47Z</time>
</trkpt>
<trkpt lat="45.0776" lon="13.61745">
<ele>43</ele>
<time>2011-05-03T13:32:54Z</time>
</trkpt>
<trkpt lat="45.07756" lon="13.61748">
<ele>43</ele>
<time>2011-05-03T13:33:01Z</time>
</trkpt>
<trkpt lat="45.07752" lon="13.61752">
<ele>43</ele>
<time>2011-05-03T13:33:08Z</time>
</trkpt>
<trkpt lat="45.07748" lon="13.61755">
<ele>43</ele>
<time>2011-05-03T13:33:16Z</time>
</trkpt>
<trkpt lat="45.07744" lon="13.61759">
<ele>42</ele>
<time>2011-05-03T13:33:24Z</time>
</trkpt>
<trkpt lat="45.0774" lon="13.61762">
<ele>42</ele>
<time>2011-05-03T13:33:32Z</time>
</trkpt>
<trkpt lat="45.07735" lon="13.61766">
<ele>42</ele>
<time>2011-05-03T13:33:40Z</time>
</trkpt>
<trkpt lat="45.07731" lon="13.61769">
<ele>42</ele>
<time>2011-05-03T13:33:48Z</time>
</trkpt>
<trkpt lat="45.07727" lon="13.61772">
<ele>42</ele>
<time>2011-05-03T13:33:56Z</time>
</trkpt>
<trkpt lat="45.07722" lon="13.61776">
<ele>42</ele>
<time>2011-05-03T13:34:04Z</time>
</trkpt>
<trkpt lat="45.07718" lon="13.6178">
<ele>42</ele>
<time>2011-05-03T13:34:11Z</time>
</trkpt>
<trkpt lat="45.07714" lon="13.61784">
<ele>42</ele>
<time>2011-05-03T13:34:19Z</time>
</trkpt>
<trkpt lat="45.0771" lon="13.61788">
<ele>42</ele>
<time>2011-05-03T13:34:28Z</time>
</trkpt>
<trkpt lat="45.07706" lon="13.61791">
<ele>43</ele>
<time>2011-05-03T13:34:36Z</time>
</trkpt>
<trkpt lat="45.07702" lon="13.61793">
<ele>43</ele>
<time>2011-05-03T13:34:44Z</time>
</trkpt>
<trkpt lat="45.07697" lon="13.61796">
<ele>43</ele>
<time>2011-05-03T13:34:52Z</time>
</trkpt>
<trkpt lat="45.07693" lon="13.61799">
<ele>43</ele>
<time>2011-05-03T13:35:01Z</time>
</trkpt>
<trkpt lat="45.07688" lon="13.61803">
<ele>43</ele>
<time>2011-05-03T13:35:10Z</time>
</trkpt>
<trkpt lat="45.07684" lon="13.61807">
<ele>43</ele>
<time>2011-05-03T13:35:18Z</time>
</trkpt>
<trkpt lat="45.0768" lon="13.6181">
<ele>43</ele>
<time>2011-05-03T13:35:27Z</time>
</trkpt>
<trkpt lat="45.07676" lon="13.61814">
<ele>44</ele>
<time>2011-05-03T13:35:35Z</time>
</trkpt>
<trkpt lat="45.07672" lon="13.61817">
<ele>44</ele>
<time>2011-05-03T13:35:43Z</time>
</trkpt>
<trkpt lat="45.07668" lon="13.61821">
<ele>44</ele>
<time>2011-05-03T13:35:51Z</time>
</trkpt>
<trkpt lat="45.07664" lon="13.61825">
<ele>44</ele>
<time>2011-05-03T13:36:00Z</time>
</trkpt>
<trkpt lat="45.0766" lon="13.61828">
<ele>44</ele>
<time>2011-05-03T13:36:09Z</time>
</trkpt>
<trkpt lat="45.07655" lon="13.6183">
<ele>45</ele>
<time>2011-05-03T13:36:18Z</time>
</trkpt>
<trkpt lat="45.0765" lon="13.61833">
<ele>45</ele>
<time>2011-05-03T13:36:28Z</time>
</trkpt>
<trkpt lat="45.07646" lon="13.61835">
<ele>45</ele>
<time>2011-05-03T13:36:36Z</time>
</trkpt>
<trkpt lat="45.07641" lon="13.61837">
<ele>45</ele>
<time>2011-05-03T13:36:44Z</time>
</trkpt>
<trkpt lat="45.07636" lon="13.6184">
<ele>45</ele>
<time>2011-05-03T13:36:52Z</time>
</trkpt>
<trkpt lat="45.07632" lon="13.61842">
<ele>45</ele>
<time>2011-05-03T13:36:59Z</time>
</trkpt>
<trkpt lat="45.07627" lon="13.61844">
<ele>45</ele>
<time>2011-05-03T13:37:06Z</time>
</trkpt>
<trkpt lat="45.07623" lon="13.61846">
<ele>45</ele>
<time>2011-05-03T13:37:13Z</time>
</trkpt>
<trkpt lat="45.07618" lon="13.61848">
<ele>45</ele>
<time>2011-05-03T13:37:20Z</time>
</trkpt>
<trkpt lat="45.07613" lon="13.6185">
<ele>45</ele>
<time>2011-05-03T13:37:27Z</time>
</trkpt>
<trkpt lat="45.07608" lon="13.61852">
<ele>45</ele>
<time>2011-05-03T13:37:34Z</time>
</trkpt>
<trkpt lat="45.07604" lon="13.61854">
<ele>45</ele>
<time>2011-05-03T13:37:41Z</time>
</trkpt>
<trkpt lat="45.07599" lon="13.61855">
<ele>45</ele>
<time>2011-05-03T13:37:48Z</time>
</trkpt>
<trkpt lat="45.07594" lon="13.61856">
<ele>45</ele>
<time>2011-05-03T13:37:55Z</time>
</trkpt>
<trkpt lat="45.07589" lon="13.61858">
<ele>45</ele>
<time>2011-05-03T13:38:02Z</time>
</trkpt>
<trkpt lat="45.07584" lon="13.61859">
<ele>45</ele>
<time>2011-05-03T13:38:08Z</time>
</trkpt>
<trkpt lat="45.0758" lon="13.61861">
<ele>45</ele>
<time>2011-05-03T13:38:14Z</time>
</trkpt>
<trkpt lat="45.07575" lon="13.61862">
<ele>45</ele>
<time>2011-05-03T13:38:20Z</time>
</trkpt>
<trkpt lat="45.0757" lon="13.61863">
<ele>45</ele>
<time>2011-05-03T13:38:26Z</time>
</trkpt>
<trkpt lat="45.07565" lon="13.61864">
<ele>46</ele>
<time>2011-05-03T13:38:32Z</time>
</trkpt>
<trkpt lat="45.0756" lon="13.61865">
<ele>46</ele>
<time>2011-05-03T13:38:37Z</time>
</trkpt>
<trkpt lat="45.07555" lon="13.61866">
<ele>46</ele>
<time>2011-05-03T13:38:42Z</time>
</trkpt>
<trkpt lat="45.07551" lon="13.61867">
<ele>46</ele>
<time>2011-05-03T13:38:47Z</time>
</trkpt>
<trkpt lat="45.07545" lon="13.61868">
<ele>46</ele>
<time>2011-05-03T13:38:52Z</time>
</trkpt>
<trkpt lat="45.0754" lon="13.61869">
<ele>46</ele>
<time>2011-05-03T13:38:57Z</time>
</trkpt>
<trkpt lat="45.07535" lon="13.6187">
<ele>46</ele>
<time>2011-05-03T13:39:02Z</time>
</trkpt>
<trkpt lat="45.0753" lon="13.6187">
<ele>46</ele>
<time>2011-05-03T13:39:07Z</time>
</trkpt>
<trkpt lat="45.07525" lon="13.6187">
<ele>46</ele>
<time>2011-05-03T13:39:12Z</time>
</trkpt>
<trkpt lat="45.0752" lon="13.6187">
<ele>46</ele>
<time>2011-05-03T13:39:17Z</time>
</trkpt>
<trkpt lat="45.07514" lon="13.61869">
<ele>46</ele>
<time>2011-05-03T13:39:22Z</time>
</trkpt>
<trkpt lat="45.07509" lon="13.6187">
<ele>46</ele>
<time>2011-05-03T13:39:27Z</time>
</trkpt>
<trkpt lat="45.07504" lon="13.6187">
<ele>46</ele>
<time>2011-05-03T13:39:31Z</time>
</trkpt>
<trkpt lat="45.075" lon="13.61872">
<ele>46</ele>
<time>2011-05-03T13:39:35Z</time>
</trkpt>
<trkpt lat="45.07495" lon="13.61873">
<ele>46</ele>
<time>2011-05-03T13:39:40Z</time>
</trkpt>
<trkpt lat="45.07489" lon="13.61875">
<ele>46</ele>
<time>2011-05-03T13:39:45Z</time>
</trkpt>
<trkpt lat="45.07484" lon="13.61876">
<ele>46</ele>
<time>2011-05-03T13:39:50Z</time>
</trkpt>
<trkpt lat="45.07478" lon="13.61877">
<ele>46</ele>
<time>2011-05-03T13:39:55Z</time>
</trkpt>
<trkpt lat="45.07473" lon="13.61877">
<ele>46</ele>
<time>2011-05-03T13:40:00Z</time>
</trkpt>
<trkpt lat="45.07468" lon="13.61877">
<ele>46</ele>
<time>2011-05-03T13:40:04Z</time>
</trkpt>
<trkpt lat="45.07463" lon="13.61878">
<ele>46</ele>
<time>2011-05-03T13:40:09Z</time>
</trkpt>
<trkpt lat="45.07458" lon="13.61878">
<ele>46</ele>
<time>2011-05-03T13:40:14Z</time>
</trkpt>
<trkpt lat="45.07452" lon="13.61879">
<ele>46</ele>
<time>2011-05-03T13:40:19Z</time>
</trkpt>
<trkpt lat="45.07448" lon="13.61879">
<ele>46</ele>
<time>2011-05-03T13:40:24Z</time>
</trkpt>
<trkpt lat="45.07443" lon="13.61879">
<ele>46</ele>
<time>2011-05-03T13:40:29Z</time>
</trkpt>
<trkpt lat="45.07437" lon="13.6188">
<ele>46</ele>
<time>2011-05-03T13:40:34Z</time>
</trkpt>
<trkpt lat="45.07432" lon="13.61882">
<ele>46</ele>
<time>2011-05-03T13:40:39Z</time>
</trkpt>
<trkpt lat="45.07427" lon="13.61883">
<ele>46</ele>
<time>2011-05-03T13:40:44Z</time>
</trkpt>
<trkpt lat="45.07422" lon="13.61884">
<ele>46</ele>
<time>2011-05-03T13:40:49Z</time>
</trkpt>
<trkpt lat="45.07417" lon="13.61885">
<ele>45</ele>
<time>2011-05-03T13:40:54Z</time>
</trkpt>
<trkpt lat="45.07412" lon="13.61886">
<ele>45</ele>
<time>2011-05-03T13:40:59Z</time>
</trkpt>
<trkpt lat="45.07407" lon="13.61887">
<ele>45</ele>
<time>2011-05-03T13:41:04Z</time>
</trkpt>
<trkpt lat="45.07401" lon="13.61887">
<ele>46</ele>
<time>2011-05-03T13:41:09Z</time>
</trkpt>
<trkpt lat="45.07397" lon="13.61887">
<ele>46</ele>
<time>2011-05-03T13:41:13Z</time>
</trkpt>
<trkpt lat="45.07391" lon="13.61887">
<ele>46</ele>
<time>2011-05-03T13:41:18Z</time>
</trkpt>
<trkpt lat="45.07386" lon="13.61887">
<ele>46</ele>
<time>2011-05-03T13:41:22Z</time>
</trkpt>
<trkpt lat="45.07381" lon="13.61888">
<ele>46</ele>
<time>2011-05-03T13:41:26Z</time>
</trkpt>
<trkpt lat="45.07376" lon="13.61889">
<ele>46</ele>
<time>2011-05-03T13:41:30Z</time>
</trkpt>
<trkpt lat="45.07371" lon="13.6189">
<ele>46</ele>
<time>2011-05-03T13:41:35Z</time>
</trkpt>
<trkpt lat="45.07366" lon="13.61891">
<ele>46</ele>
<time>2011-05-03T13:41:39Z</time>
</trkpt>
<trkpt lat="45.07362" lon="13.61891">
<ele>46</ele>
<time>2011-05-03T13:41:43Z</time>
</trkpt>
<trkpt lat="45.07357" lon="13.61892">
<ele>46</ele>
<time>2011-05-03T13:41:47Z</time>
</trkpt>
<trkpt lat="45.07351" lon="13.61893">
<ele>46</ele>
<time>2011-05-03T13:41:52Z</time>
</trkpt>
<trkpt lat="45.07347" lon="13.61894">
<ele>46</ele>
<time>2011-05-03T13:41:56Z</time>
</trkpt>
<trkpt lat="45.07342" lon="13.61894">
<ele>46</ele>
<time>2011-05-03T13:42:00Z</time>
</trkpt>
<trkpt lat="45.07338" lon="13.61895">
<ele>47</ele>
<time>2011-05-03T13:42:04Z</time>
</trkpt>
<trkpt lat="45.07333" lon="13.61896">
<ele>47</ele>
<time>2011-05-03T13:42:08Z</time>
</trkpt>
<trkpt lat="45.07327" lon="13.61896">
<ele>47</ele>
<time>2011-05-03T13:42:13Z</time>
</trkpt>
<trkpt lat="45.07322" lon="13.61897">
<ele>47</ele>
<time>2011-05-03T13:42:18Z</time>
</trkpt>
<trkpt lat="45.07316" lon="13.61897">
<ele>47</ele>
<time>2011-05-03T13:42:23Z</time>
</trkpt>
<trkpt lat="45.07312" lon="13.61898">
<ele>47</ele>
<time>2011-05-03T13:42:27Z</time>
</trkpt>
<trkpt lat="45.07307" lon="13.61898">
<ele>47</ele>
<time>2011-05-03T13:42:31Z</time>
</trkpt>
<trkpt lat="45.07302" lon="13.61899">
<ele>47</ele>
<time>2011-05-03T13:42:35Z</time>
</trkpt>
<trkpt lat="45.07298" lon="13.61899">
<ele>47</ele>
<time>2011-05-03T13:42:39Z</time>
</trkpt>
<trkpt lat="45.07293" lon="13.61899">
<ele>47</ele>
<time>2011-05-03T13:42:43Z</time>
</trkpt>
<trkpt lat="45.07289" lon="13.61899">
<ele>47</ele>
<time>2011-05-03T13:42:47Z</time>
</trkpt>
<trkpt lat="45.07284" lon="13.61899">
<ele>47</ele>
<time>2011-05-03T13:42:51Z</time>
</trkpt>
<trkpt lat="45.07278" lon="13.61899">
<ele>47</ele>
<time>2011-05-03T13:42:56Z</time>
</trkpt>
<trkpt lat="45.07274" lon="13.61899">
<ele>47</ele>
<time>2011-05-03T13:43:00Z</time>
</trkpt>
<trkpt lat="45.07269" lon="13.619">
<ele>47</ele>
<time>2011-05-03T13:43:04Z</time>
</trkpt>
<trkpt lat="45.07264" lon="13.619">
<ele>47</ele>
<time>2011-05-03T13:43:08Z</time>
</trkpt>
<trkpt lat="45.0726" lon="13.61899">
<ele>47</ele>
<time>2011-05-03T13:43:12Z</time>
</trkpt>
<trkpt lat="45.07255" lon="13.61898">
<ele>46</ele>
<time>2011-05-03T13:43:16Z</time>
</trkpt>
<trkpt lat="45.0725" lon="13.61897">
<ele>46</ele>
<time>2011-05-03T13:43:20Z</time>
</trkpt>
<trkpt lat="45.07245" lon="13.61896">
<ele>46</ele>
<time>2011-05-03T13:43:24Z</time>
</trkpt>
<trkpt lat="45.0724" lon="13.61894">
<ele>46</ele>
<time>2011-05-03T13:43:28Z</time>
</trkpt>
<trkpt lat="45.07235" lon="13.61893">
<ele>46</ele>
<time>2011-05-03T13:43:32Z</time>
</trkpt>
<trkpt lat="45.0723" lon="13.61892">
<ele>46</ele>
<time>2011-05-03T13:43:36Z</time>
</trkpt>
<trkpt lat="45.07225" lon="13.61891">
<ele>46</ele>
<time>2011-05-03T13:43:40Z</time>
</trkpt>
<trkpt lat="45.0722" lon="13.6189">
<ele>46</ele>
<time>2011-05-03T13:43:44Z</time>
</trkpt>
<trkpt lat="45.07215" lon="13.61888">
<ele>46</ele>
<time>2011-05-03T13:43:48Z</time>
</trkpt>
<trkpt lat="45.0721" lon="13.61886">
<ele>46</ele>
<time>2011-05-03T13:43:52Z</time>
</trkpt>
<trkpt lat="45.07205" lon="13.61884">
<ele>46</ele>
<time>2011-05-03T13:43:56Z</time>
</trkpt>
<trkpt lat="45.07201" lon="13.61882">
<ele>46</ele>
<time>2011-05-03T13:44:00Z</time>
</trkpt>
<trkpt lat="45.07196" lon="13.61881">
<ele>46</ele>
<time>2011-05-03T13:44:04Z</time>
</trkpt>
<trkpt lat="45.07192" lon="13.61879">
<ele>46</ele>
<time>2011-05-03T13:44:08Z</time>
</trkpt>
<trkpt lat="45.07186" lon="13.61878">
<ele>45</ele>
<time>2011-05-03T13:44:13Z</time>
</trkpt>
<trkpt lat="45.07181" lon="13.61877">
<ele>45</ele>
<time>2011-05-03T13:44:18Z</time>
</trkpt>
<trkpt lat="45.07176" lon="13.61876">
<ele>45</ele>
<time>2011-05-03T13:44:22Z</time>
</trkpt>
<trkpt lat="45.07171" lon="13.61876">
<ele>45</ele>
<time>2011-05-03T13:44:26Z</time>
</trkpt>
<trkpt lat="45.07167" lon="13.61875">
<ele>45</ele>
<time>2011-05-03T13:44:30Z</time>
</trkpt>
<trkpt lat="45.07162" lon="13.61874">
<ele>45</ele>
<time>2011-05-03T13:44:34Z</time>
</trkpt>
<trkpt lat="45.07158" lon="13.61872">
<ele>45</ele>
<time>2011-05-03T13:44:38Z</time>
</trkpt>
<trkpt lat="45.07153" lon="13.6187">
<ele>45</ele>
<time>2011-05-03T13:44:42Z</time>
</trkpt>
<trkpt lat="45.07148" lon="13.61868">
<ele>45</ele>
<time>2011-05-03T13:44:47Z</time>
</trkpt>
<trkpt lat="45.07143" lon="13.61866">
<ele>45</ele>
<time>2011-05-03T13:44:51Z</time>
</trkpt>
<trkpt lat="45.07138" lon="13.61865">
<ele>45</ele>
<time>2011-05-03T13:44:56Z</time>
</trkpt>
<trkpt lat="45.07133" lon="13.61863">
<ele>45</ele>
<time>2011-05-03T13:45:00Z</time>
</trkpt>
<trkpt lat="45.07128" lon="13.61863">
<ele>45</ele>
<time>2011-05-03T13:45:04Z</time>
</trkpt>
<trkpt lat="45.07124" lon="13.61863">
<ele>45</ele>
<time>2011-05-03T13:45:08Z</time>
</trkpt>
<trkpt lat="45.07119" lon="13.61863">
<ele>45</ele>
<time>2011-05-03T13:45:12Z</time>
</trkpt>
<trkpt lat="45.07114" lon="13.61863">
<ele>45</ele>
<time>2011-05-03T13:45:17Z</time>
</trkpt>
<trkpt lat="45.07108" lon="13.61863">
<ele>45</ele>
<time>2011-05-03T13:45:22Z</time>
</trkpt>
<trkpt lat="45.07103" lon="13.61863">
<ele>45</ele>
<time>2011-05-03T13:45:26Z</time>
</trkpt>
<trkpt lat="45.07098" lon="13.61863">
<ele>45</ele>
<time>2011-05-03T13:45:30Z</time>
</trkpt>
<trkpt lat="45.07093" lon="13.61863">
<ele>45</ele>
<time>2011-05-03T13:45:35Z</time>
</trkpt>
<trkpt lat="45.07087" lon="13.61862">
<ele>45</ele>
<time>2011-05-03T13:45:40Z</time>
</trkpt>
<trkpt lat="45.07082" lon="13.61862">
<ele>45</ele>
<time>2011-05-03T13:45:45Z</time>
</trkpt>
<trkpt lat="45.07076" lon="13.61862">
<ele>45</ele>
<time>2011-05-03T13:45:50Z</time>
</trkpt>
<trkpt lat="45.07071" lon="13.61863">
<ele>45</ele>
<time>2011-05-03T13:45:55Z</time>
</trkpt>
<trkpt lat="45.07066" lon="13.61863">
<ele>45</ele>
<time>2011-05-03T13:46:00Z</time>
</trkpt>
<trkpt lat="45.07061" lon="13.61864">
<ele>45</ele>
<time>2011-05-03T13:46:05Z</time>
</trkpt>
<trkpt lat="45.07056" lon="13.61863">
<ele>45</ele>
<time>2011-05-03T13:46:10Z</time>
</trkpt>
<trkpt lat="45.0705" lon="13.61862">
<ele>45</ele>
<time>2011-05-03T13:46:15Z</time>
</trkpt>
<trkpt lat="45.07046" lon="13.6186">
<ele>45</ele>
<time>2011-05-03T13:46:20Z</time>
</trkpt>
<trkpt lat="45.07041" lon="13.61858">
<ele>45</ele>
<time>2011-05-03T13:46:25Z</time>
</trkpt>
<trkpt lat="45.07036" lon="13.61857">
<ele>45</ele>
<time>2011-05-03T13:46:30Z</time>
</trkpt>
<trkpt lat="45.07031" lon="13.61856">
<ele>45</ele>
<time>2011-05-03T13:46:35Z</time>
</trkpt>
<trkpt lat="45.07026" lon="13.61855">
<ele>45</ele>
<time>2011-05-03T13:46:40Z</time>
</trkpt>
<trkpt lat="45.07021" lon="13.61853">
<ele>45</ele>
<time>2011-05-03T13:46:45Z</time>
</trkpt>
<trkpt lat="45.07016" lon="13.61851">
<ele>45</ele>
<time>2011-05-03T13:46:50Z</time>
</trkpt>
<trkpt lat="45.07011" lon="13.61849">
<ele>45</ele>
<time>2011-05-03T13:46:55Z</time>
</trkpt>
<trkpt lat="45.07006" lon="13.61847">
<ele>45</ele>
<time>2011-05-03T13:47:00Z</time>
</trkpt>
<trkpt lat="45.07001" lon="13.61844">
<ele>45</ele>
<time>2011-05-03T13:47:05Z</time>
</trkpt>
<trkpt lat="45.06996" lon="13.61841">
<ele>45</ele>
<time>2011-05-03T13:47:10Z</time>
</trkpt>
<trkpt lat="45.06992" lon="13.61837">
<ele>45</ele>
<time>2011-05-03T13:47:15Z</time>
</trkpt>
<trkpt lat="45.06988" lon="13.61834">
<ele>45</ele>
<time>2011-05-03T13:47:20Z</time>
</trkpt>
<trkpt lat="45.06983" lon="13.61831">
<ele>45</ele>
<time>2011-05-03T13:47:25Z</time>
</trkpt>
<trkpt lat="45.06978" lon="13.61828">
<ele>46</ele>
<time>2011-05-03T13:47:30Z</time>
</trkpt>
<trkpt lat="45.06974" lon="13.61826">
<ele>46</ele>
<time>2011-05-03T13:47:35Z</time>
</trkpt>
<trkpt lat="45.06969" lon="13.61823">
<ele>46</ele>
<time>2011-05-03T13:47:40Z</time>
</trkpt>
<trkpt lat="45.06965" lon="13.61821">
<ele>46</ele>
<time>2011-05-03T13:47:45Z</time>
</trkpt>
<trkpt lat="45.0696" lon="13.61819">
<ele>46</ele>
<time>2011-05-03T13:47:50Z</time>
</trkpt>
<trkpt lat="45.06956" lon="13.61815">
<ele>46</ele>
<time>2011-05-03T13:47:56Z</time>
</trkpt>
<trkpt lat="45.06952" lon="13.61812">
<ele>46</ele>
<time>2011-05-03T13:48:02Z</time>
</trkpt>
<trkpt lat="45.06948" lon="13.61808">
<ele>47</ele>
<time>2011-05-03T13:48:09Z</time>
</trkpt>
<trkpt lat="45.06943" lon="13.61806">
<ele>47</ele>
<time>2011-05-03T13:48:16Z</time>
</trkpt>
<trkpt lat="45.06938" lon="13.61804">
<ele>47</ele>
<time>2011-05-03T13:48:23Z</time>
</trkpt>
<trkpt lat="45.06933" lon="13.61803">
<ele>47</ele>
<time>2011-05-03T13:48:29Z</time>
</trkpt>
<trkpt lat="45.06928" lon="13.61801">
<ele>47</ele>
<time>2011-05-03T13:48:35Z</time>
</trkpt>
<trkpt lat="45.06924" lon="13.61798">
<ele>47</ele>
<time>2011-05-03T13:48:41Z</time>
</trkpt>
<trkpt lat="45.06919" lon="13.61796">
<ele>47</ele>
<time>2011-05-03T13:48:46Z</time>
</trkpt>
<trkpt lat="45.06915" lon="13.61794">
<ele>47</ele>
<time>2011-05-03T13:48:51Z</time>
</trkpt>
<trkpt lat="45.0691" lon="13.61792">
<ele>47</ele>
<time>2011-05-03T13:48:57Z</time>
</trkpt>
<trkpt lat="45.06905" lon="13.6179">
<ele>47</ele>
<time>2011-05-03T13:49:03Z</time>
</trkpt>
<trkpt lat="45.069" lon="13.61787">
<ele>47</ele>
<time>2011-05-03T13:49:09Z</time>
</trkpt>
<trkpt lat="45.06895" lon="13.61785">
<ele>47</ele>
<time>2011-05-03T13:49:15Z</time>
</trkpt>
<trkpt lat="45.0689" lon="13.61783">
<ele>47</ele>
<time>2011-05-03T13:49:21Z</time>
</trkpt>
<trkpt lat="45.06885" lon="13.6178">
<ele>47</ele>
<time>2011-05-03T13:49:27Z</time>
</trkpt>
<trkpt lat="45.06881" lon="13.61778">
<ele>47</ele>
<time>2011-05-03T13:49:33Z</time>
</trkpt>
<trkpt lat="45.06876" lon="13.61776">
<ele>47</ele>
<time>2011-05-03T13:49:39Z</time>
</trkpt>
<trkpt lat="45.06872" lon="13.61774">
<ele>47</ele>
<time>2011-05-03T13:49:44Z</time>
</trkpt>
<trkpt lat="45.06866" lon="13.61772">
<ele>47</ele>
<time>2011-05-03T13:49:50Z</time>
</trkpt>
<trkpt lat="45.06862" lon="13.6177">
<ele>47</ele>
<time>2011-05-03T13:49:56Z</time>
</trkpt>
<trkpt lat="45.06857" lon="13.61768">
<ele>47</ele>
<time>2011-05-03T13:50:02Z</time>
</trkpt>
<trkpt lat="45.06852" lon="13.61765">
<ele>47</ele>
<time>2011-05-03T13:50:08Z</time>
</trkpt>
<trkpt lat="45.06847" lon="13.61763">
<ele>47</ele>
<time>2011-05-03T13:50:14Z</time>
</trkpt>
<trkpt lat="45.06842" lon="13.6176">
<ele>47</ele>
<time>2011-05-03T13:50:20Z</time>
</trkpt>
<trkpt lat="45.06838" lon="13.61758">
<ele>47</ele>
<time>2011-05-03T13:50:25Z</time>
</trkpt>
<trkpt lat="45.06833" lon="13.61756">
<ele>47</ele>
<time>2011-05-03T13:50:30Z</time>
</trkpt>
<trkpt lat="45.06829" lon="13.61752">
<ele>47</ele>
<time>2011-05-03T13:50:36Z</time>
</trkpt>
<trkpt lat="45.06824" lon="13.61749">
<ele>47</ele>
<time>2011-05-03T13:50:42Z</time>
</trkpt>
<trkpt lat="45.0682" lon="13.61746">
<ele>48</ele>
<time>2011-05-03T13:50:48Z</time>
</trkpt>
<trkpt lat="45.06815" lon="13.61745">
<ele>48</ele>
<time>2011-05-03T13:50:54Z</time>
</trkpt>
<trkpt lat="45.0681" lon="13.61744">
<ele>48</ele>
<time>2011-05-03T13:51:00Z</time>
</trkpt>
<trkpt lat="45.06805" lon="13.61743">
<ele>48</ele>
<time>2011-05-03T13:51:05Z</time>
</trkpt>
<trkpt lat="45.068" lon="13.61742">
<ele>48</ele>
<time>2011-05-03T13:51:10Z</time>
</trkpt>
<trkpt lat="45.06796" lon="13.61741">
<ele>48</ele>
<time>2011-05-03T13:51:15Z</time>
</trkpt>
<trkpt lat="45.06791" lon="13.61739">
<ele>48</ele>
<time>2011-05-03T13:51:20Z</time>
</trkpt>
<trkpt lat="45.06787" lon="13.61737">
<ele>48</ele>
<time>2011-05-03T13:51:25Z</time>
</trkpt>
<trkpt lat="45.06782" lon="13.61735">
<ele>48</ele>
<time>2011-05-03T13:51:31Z</time>
</trkpt>
<trkpt lat="45.06778" lon="13.61733">
<ele>48</ele>
<time>2011-05-03T13:51:36Z</time>
</trkpt>
<trkpt lat="45.06773" lon="13.6173">
<ele>49</ele>
<time>2011-05-03T13:51:42Z</time>
</trkpt>
<trkpt lat="45.06768" lon="13.61728">
<ele>49</ele>
<time>2011-05-03T13:51:48Z</time>
</trkpt>
<trkpt lat="45.06763" lon="13.61726">
<ele>49</ele>
<time>2011-05-03T13:51:54Z</time>
</trkpt>
<trkpt lat="45.06758" lon="13.61724">
<ele>49</ele>
<time>2011-05-03T13:52:00Z</time>
</trkpt>
<trkpt lat="45.06753" lon="13.61722">
<ele>49</ele>
<time>2011-05-03T13:52:06Z</time>
</trkpt>
<trkpt lat="45.06748" lon="13.6172">
<ele>49</ele>
<time>2011-05-03T13:52:11Z</time>
</trkpt>
<trkpt lat="45.06743" lon="13.61719">
<ele>49</ele>
<time>2011-05-03T13:52:16Z</time>
</trkpt>
<trkpt lat="45.06738" lon="13.61718">
<ele>49</ele>
<time>2011-05-03T13:52:21Z</time>
</trkpt>
<trkpt lat="45.06733" lon="13.61716">
<ele>49</ele>
<time>2011-05-03T13:52:26Z</time>
</trkpt>
<trkpt lat="45.06728" lon="13.61715">
<ele>49</ele>
<time>2011-05-03T13:52:31Z</time>
</trkpt>
<trkpt lat="45.06724" lon="13.61713">
<ele>49</ele>
<time>2011-05-03T13:52:36Z</time>
</trkpt>
<trkpt lat="45.06719" lon="13.61711">
<ele>49</ele>
<time>2011-05-03T13:52:41Z</time>
</trkpt>
<trkpt lat="45.06714" lon="13.61709">
<ele>49</ele>
<time>2011-05-03T13:52:46Z</time>
</trkpt>
<trkpt lat="45.06709" lon="13.61708">
<ele>49</ele>
<time>2011-05-03T13:52:51Z</time>
</trkpt>
<trkpt lat="45.06705" lon="13.61706">
<ele>49</ele>
<time>2011-05-03T13:52:56Z</time>
</trkpt>
<trkpt lat="45.067" lon="13.61704">
<ele>49</ele>
<time>2011-05-03T13:53:01Z</time>
</trkpt>
<trkpt lat="45.06695" lon="13.61703">
<ele>49</ele>
<time>2011-05-03T13:53:05Z</time>
</trkpt>
<trkpt lat="45.0669" lon="13.61702">
<ele>49</ele>
<time>2011-05-03T13:53:10Z</time>
</trkpt>
<trkpt lat="45.06685" lon="13.61701">
<ele>49</ele>
<time>2011-05-03T13:53:14Z</time>
</trkpt>
<trkpt lat="45.0668" lon="13.61699">
<ele>49</ele>
<time>2011-05-03T13:53:19Z</time>
</trkpt>
<trkpt lat="45.06675" lon="13.61697">
<ele>49</ele>
<time>2011-05-03T13:53:24Z</time>
</trkpt>
<trkpt lat="45.0667" lon="13.61695">
<ele>49</ele>
<time>2011-05-03T13:53:29Z</time>
</trkpt>
<trkpt lat="45.06666" lon="13.61693">
<ele>49</ele>
<time>2011-05-03T13:53:34Z</time>
</trkpt>
<trkpt lat="45.06661" lon="13.61691">
<ele>49</ele>
<time>2011-05-03T13:53:39Z</time>
</trkpt>
<trkpt lat="45.06656" lon="13.61689">
<ele>49</ele>
<time>2011-05-03T13:53:44Z</time>
</trkpt>
<trkpt lat="45.06651" lon="13.61688">
<ele>49</ele>
<time>2011-05-03T13:53:49Z</time>
</trkpt>
<trkpt lat="45.06646" lon="13.61686">
<ele>49</ele>
<time>2011-05-03T13:53:54Z</time>
</trkpt>
<trkpt lat="45.06641" lon="13.61684">
<ele>49</ele>
<time>2011-05-03T13:53:59Z</time>
</trkpt>
<trkpt lat="45.06636" lon="13.61682">
<ele>49</ele>
<time>2011-05-03T13:54:04Z</time>
</trkpt>
<trkpt lat="45.06631" lon="13.61681">
<ele>49</ele>
<time>2011-05-03T13:54:09Z</time>
</trkpt>
<trkpt lat="45.06627" lon="13.61679">
<ele>49</ele>
<time>2011-05-03T13:54:14Z</time>
</trkpt>
<trkpt lat="45.06622" lon="13.61677">
<ele>49</ele>
<time>2011-05-03T13:54:19Z</time>
</trkpt>
<trkpt lat="45.06617" lon="13.61675">
<ele>49</ele>
<time>2011-05-03T13:54:24Z</time>
</trkpt>
<trkpt lat="45.06612" lon="13.61673">
<ele>49</ele>
<time>2011-05-03T13:54:29Z</time>
</trkpt>
<trkpt lat="45.06608" lon="13.61672">
<ele>49</ele>
<time>2011-05-03T13:54:34Z</time>
</trkpt>
<trkpt lat="45.06603" lon="13.6167">
<ele>49</ele>
<time>2011-05-03T13:54:39Z</time>
</trkpt>
<trkpt lat="45.06598" lon="13.61668">
<ele>49</ele>
<time>2011-05-03T13:54:45Z</time>
</trkpt>
<trkpt lat="45.06593" lon="13.61665">
<ele>49</ele>
<time>2011-05-03T13:54:51Z</time>
</trkpt>
<trkpt lat="45.06588" lon="13.61663">
<ele>49</ele>
<time>2011-05-03T13:54:57Z</time>
</trkpt>
<trkpt lat="45.06584" lon="13.6166">
<ele>49</ele>
<time>2011-05-03T13:55:03Z</time>
</trkpt>
<trkpt lat="45.06579" lon="13.61657">
<ele>49</ele>
<time>2011-05-03T13:55:09Z</time>
</trkpt>
<trkpt lat="45.06574" lon="13.61654">
<ele>48</ele>
<time>2011-05-03T13:55:15Z</time>
</trkpt>
<trkpt lat="45.06569" lon="13.61651">
<ele>49</ele>
<time>2011-05-03T13:55:21Z</time>
</trkpt>
<trkpt lat="45.06564" lon="13.61649">
<ele>49</ele>
<time>2011-05-03T13:55:28Z</time>
</trkpt>
<trkpt lat="45.06559" lon="13.61646">
<ele>49</ele>
<time>2011-05-03T13:55:35Z</time>
</trkpt>
<trkpt lat="45.06554" lon="13.61644">
<ele>49</ele>
<time>2011-05-03T13:55:42Z</time>
</trkpt>
<trkpt lat="45.0655" lon="13.61642">
<ele>49</ele>
<time>2011-05-03T13:55:49Z</time>
</trkpt>
<trkpt lat="45.06545" lon="13.6164">
<ele>49</ele>
<time>2011-05-03T13:55:56Z</time>
</trkpt>
<trkpt lat="45.0654" lon="13.61639">
<ele>49</ele>
<time>2011-05-03T13:56:04Z</time>
</trkpt>
<trkpt lat="45.06535" lon="13.61638">
<ele>49</ele>
<time>2011-05-03T13:56:11Z</time>
</trkpt>
<trkpt lat="45.06531" lon="13.61636">
<ele>49</ele>
<time>2011-05-03T13:56:18Z</time>
</trkpt>
<trkpt lat="45.06526" lon="13.61635">
<ele>49</ele>
<time>2011-05-03T13:56:26Z</time>
</trkpt>
<trkpt lat="45.06522" lon="13.61632">
<ele>49</ele>
<time>2011-05-03T13:56:34Z</time>
</trkpt>
<trkpt lat="45.06518" lon="13.61628">
<ele>49</ele>
<time>2011-05-03T13:56:45Z</time>
</trkpt>
<trkpt lat="45.06514" lon="13.61627">
<ele>49</ele>
<time>2011-05-03T13:56:55Z</time>
</trkpt>
<trkpt lat="45.06509" lon="13.61628">
<ele>49</ele>
<time>2011-05-03T13:57:04Z</time>
</trkpt>
<trkpt lat="45.06504" lon="13.6163">
<ele>50</ele>
<time>2011-05-03T13:57:11Z</time>
</trkpt>
<trkpt lat="45.065" lon="13.61632">
<ele>50</ele>
<time>2011-05-03T13:57:17Z</time>
</trkpt>
<trkpt lat="45.06495" lon="13.61634">
<ele>50</ele>
<time>2011-05-03T13:57:23Z</time>
</trkpt>
<trkpt lat="45.0649" lon="13.61636">
<ele>50</ele>
<time>2011-05-03T13:57:28Z</time>
</trkpt>
<trkpt lat="45.06486" lon="13.61637">
<ele>50</ele>
<time>2011-05-03T13:57:33Z</time>
</trkpt>
<trkpt lat="45.06481" lon="13.61638">
<ele>50</ele>
<time>2011-05-03T13:57:39Z</time>
</trkpt>
<trkpt lat="45.06476" lon="13.6164">
<ele>50</ele>
<time>2011-05-03T13:57:45Z</time>
</trkpt>
<trkpt lat="45.06471" lon="13.61641">
<ele>50</ele>
<time>2011-05-03T13:57:50Z</time>
</trkpt>
<trkpt lat="45.06467" lon="13.61642">
<ele>50</ele>
<time>2011-05-03T13:57:55Z</time>
</trkpt>
<trkpt lat="45.06462" lon="13.61644">
<ele>50</ele>
<time>2011-05-03T13:58:01Z</time>
</trkpt>
<trkpt lat="45.06457" lon="13.61646">
<ele>50</ele>
<time>2011-05-03T13:58:07Z</time>
</trkpt>
<trkpt lat="45.06452" lon="13.61648">
<ele>50</ele>
<time>2011-05-03T13:58:12Z</time>
</trkpt>
<trkpt lat="45.06447" lon="13.6165">
<ele>50</ele>
<time>2011-05-03T13:58:17Z</time>
</trkpt>
<trkpt lat="45.06442" lon="13.61652">
<ele>50</ele>
<time>2011-05-03T13:58:22Z</time>
</trkpt>
<trkpt lat="45.06438" lon="13.61654">
<ele>49</ele>
<time>2011-05-03T13:58:26Z</time>
</trkpt>
<trkpt lat="45.06433" lon="13.61655">
<ele>49</ele>
<time>2011-05-03T13:58:30Z</time>
</trkpt>
<trkpt lat="45.06428" lon="13.61656">
<ele>49</ele>
<time>2011-05-03T13:58:34Z</time>
</trkpt>
<trkpt lat="45.06424" lon="13.61656">
<ele>49</ele>
<time>2011-05-03T13:58:38Z</time>
</trkpt>
<trkpt lat="45.06418" lon="13.61656">
<ele>49</ele>
<time>2011-05-03T13:58:43Z</time>
</trkpt>
<trkpt lat="45.06413" lon="13.61656">
<ele>49</ele>
<time>2011-05-03T13:58:47Z</time>
</trkpt>
<trkpt lat="45.06409" lon="13.61655">
<ele>49</ele>
<time>2011-05-03T13:58:51Z</time>
</trkpt>
<trkpt lat="45.06404" lon="13.61655">
<ele>49</ele>
<time>2011-05-03T13:58:55Z</time>
</trkpt>
<trkpt lat="45.06398" lon="13.61654">
<ele>49</ele>
<time>2011-05-03T13:59:00Z</time>
</trkpt>
<trkpt lat="45.06393" lon="13.61653">
<ele>49</ele>
<time>2011-05-03T13:59:05Z</time>
</trkpt>
<trkpt lat="45.06387" lon="13.61652">
<ele>49</ele>
<time>2011-05-03T13:59:10Z</time>
</trkpt>
<trkpt lat="45.06382" lon="13.61651">
<ele>49</ele>
<time>2011-05-03T13:59:15Z</time>
</trkpt>
<trkpt lat="45.06377" lon="13.61649">
<ele>49</ele>
<time>2011-05-03T13:59:20Z</time>
</trkpt>
<trkpt lat="45.06372" lon="13.61647">
<ele>49</ele>
<time>2011-05-03T13:59:25Z</time>
</trkpt>
<trkpt lat="45.06367" lon="13.61645">
<ele>49</ele>
<time>2011-05-03T13:59:30Z</time>
</trkpt>
<trkpt lat="45.06363" lon="13.61643">
<ele>49</ele>
<time>2011-05-03T13:59:35Z</time>
</trkpt>
<trkpt lat="45.06358" lon="13.61641">
<ele>49</ele>
<time>2011-05-03T13:59:41Z</time>
</trkpt>
<trkpt lat="45.06353" lon="13.61639">
<ele>49</ele>
<time>2011-05-03T13:59:47Z</time>
</trkpt>
<trkpt lat="45.06348" lon="13.61636">
<ele>49</ele>
<time>2011-05-03T13:59:53Z</time>
</trkpt>
<trkpt lat="45.06344" lon="13.61634">
<ele>49</ele>
<time>2011-05-03T14:00:00Z</time>
</trkpt>
<trkpt lat="45.06339" lon="13.61633">
<ele>49</ele>
<time>2011-05-03T14:00:07Z</time>
</trkpt>
<trkpt lat="45.06334" lon="13.61632">
<ele>49</ele>
<time>2011-05-03T14:00:14Z</time>
</trkpt>
<trkpt lat="45.06329" lon="13.61631">
<ele>49</ele>
<time>2011-05-03T14:00:21Z</time>
</trkpt>
<trkpt lat="45.06324" lon="13.6163">
<ele>49</ele>
<time>2011-05-03T14:00:27Z</time>
</trkpt>
<trkpt lat="45.06319" lon="13.6163">
<ele>49</ele>
<time>2011-05-03T14:00:33Z</time>
</trkpt>
<trkpt lat="45.06314" lon="13.6163">
<ele>49</ele>
<time>2011-05-03T14:00:38Z</time>
</trkpt>
<trkpt lat="45.06309" lon="13.6163">
<ele>49</ele>
<time>2011-05-03T14:00:43Z</time>
</trkpt>
<trkpt lat="45.06304" lon="13.6163">
<ele>49</ele>
<time>2011-05-03T14:00:49Z</time>
</trkpt>
<trkpt lat="45.06299" lon="13.61629">
<ele>49</ele>
<time>2011-05-03T14:00:55Z</time>
</trkpt>
<trkpt lat="45.06294" lon="13.61628">
<ele>49</ele>
<time>2011-05-03T14:01:00Z</time>
</trkpt>
<trkpt lat="45.06289" lon="13.61628">
<ele>49</ele>
<time>2011-05-03T14:01:05Z</time>
</trkpt>
<trkpt lat="45.06285" lon="13.61627">
<ele>48</ele>
<time>2011-05-03T14:01:10Z</time>
</trkpt>
<trkpt lat="45.0628" lon="13.61626">
<ele>48</ele>
<time>2011-05-03T14:01:15Z</time>
</trkpt>
<trkpt lat="45.06275" lon="13.61626">
<ele>48</ele>
<time>2011-05-03T14:01:20Z</time>
</trkpt>
<trkpt lat="45.0627" lon="13.61626">
<ele>48</ele>
<time>2011-05-03T14:01:25Z</time>
</trkpt>
<trkpt lat="45.06265" lon="13.61625">
<ele>48</ele>
<time>2011-05-03T14:01:30Z</time>
</trkpt>
<trkpt lat="45.0626" lon="13.61624">
<ele>48</ele>
<time>2011-05-03T14:01:36Z</time>
</trkpt>
<trkpt lat="45.06254" lon="13.61624">
<ele>48</ele>
<time>2011-05-03T14:01:42Z</time>
</trkpt>
<trkpt lat="45.06249" lon="13.61623">
<ele>48</ele>
<time>2011-05-03T14:01:48Z</time>
</trkpt>
<trkpt lat="45.06244" lon="13.61622">
<ele>47</ele>
<time>2011-05-03T14:01:54Z</time>
</trkpt>
<trkpt lat="45.06239" lon="13.61621">
<ele>47</ele>
<time>2011-05-03T14:01:59Z</time>
</trkpt>
<trkpt lat="45.06234" lon="13.6162">
<ele>47</ele>
<time>2011-05-03T14:02:04Z</time>
</trkpt>
<trkpt lat="45.06229" lon="13.61618">
<ele>47</ele>
<time>2011-05-03T14:02:10Z</time>
</trkpt>
<trkpt lat="45.06224" lon="13.61617">
<ele>47</ele>
<time>2011-05-03T14:02:16Z</time>
</trkpt>
<trkpt lat="45.0622" lon="13.61617">
<ele>47</ele>
<time>2011-05-03T14:02:23Z</time>
</trkpt>
<trkpt lat="45.06215" lon="13.61618">
<ele>47</ele>
<time>2011-05-03T14:02:30Z</time>
</trkpt>
<trkpt lat="45.0621" lon="13.61618">
<ele>47</ele>
<time>2011-05-03T14:02:37Z</time>
</trkpt>
<trkpt lat="45.06204" lon="13.61617">
<ele>47</ele>
<time>2011-05-03T14:02:45Z</time>
</trkpt>
<trkpt lat="45.062" lon="13.61618">
<ele>47</ele>
<time>2011-05-03T14:02:52Z</time>
</trkpt>
<trkpt lat="45.06195" lon="13.61618">
<ele>46</ele>
<time>2011-05-03T14:02:58Z</time>
</trkpt>
<trkpt lat="45.0619" lon="13.61617">
<ele>46</ele>
<time>2011-05-03T14:03:04Z</time>
</trkpt>
<trkpt lat="45.06186" lon="13.61616">
<ele>46</ele>
<time>2011-05-03T14:03:10Z</time>
</trkpt>
<trkpt lat="45.06181" lon="13.61616">
<ele>46</ele>
<time>2011-05-03T14:03:16Z</time>
</trkpt>
<trkpt lat="45.06176" lon="13.61616">
<ele>46</ele>
<time>2011-05-03T14:03:22Z</time>
</trkpt>
<trkpt lat="45.06172" lon="13.61616">
<ele>46</ele>
<time>2011-05-03T14:03:29Z</time>
</trkpt>
<trkpt lat="45.06166" lon="13.61615">
<ele>46</ele>
<time>2011-05-03T14:03:36Z</time>
</trkpt>
<trkpt lat="45.06161" lon="13.61615">
<ele>46</ele>
<time>2011-05-03T14:03:43Z</time>
</trkpt>
<trkpt lat="45.06156" lon="13.61615">
<ele>46</ele>
<time>2011-05-03T14:03:50Z</time>
</trkpt>
<trkpt lat="45.06151" lon="13.61615">
<ele>46</ele>
<time>2011-05-03T14:03:58Z</time>
</trkpt>
<trkpt lat="45.06147" lon="13.61616">
<ele>46</ele>
<time>2011-05-03T14:04:05Z</time>
</trkpt>
<trkpt lat="45.06142" lon="13.61616">
<ele>46</ele>
<time>2011-05-03T14:04:13Z</time>
</trkpt>
<trkpt lat="45.06137" lon="13.61617">
<ele>46</ele>
<time>2011-05-03T14:04:22Z</time>
</trkpt>
<trkpt lat="45.06132" lon="13.61618">
<ele>46</ele>
<time>2011-05-03T14:04:32Z</time>
</trkpt>
<trkpt lat="45.06128" lon="13.6162">
<ele>47</ele>
<time>2011-05-03T14:04:40Z</time>
</trkpt>
<trkpt lat="45.06123" lon="13.61623">
<ele>47</ele>
<time>2011-05-03T14:04:47Z</time>
</trkpt>
<trkpt lat="45.06118" lon="13.61625">
<ele>47</ele>
<time>2011-05-03T14:04:54Z</time>
</trkpt>
<trkpt lat="45.06114" lon="13.61627">
<ele>47</ele>
<time>2011-05-03T14:05:00Z</time>
</trkpt>
<trkpt lat="45.06109" lon="13.61628">
<ele>47</ele>
<time>2011-05-03T14:05:05Z</time>
</trkpt>
<trkpt lat="45.06104" lon="13.61629">
<ele>47</ele>
<time>2011-05-03T14:05:10Z</time>
</trkpt>
<trkpt lat="45.061" lon="13.6163">
<ele>47</ele>
<time>2011-05-03T14:05:15Z</time>
</trkpt>
<trkpt lat="45.06095" lon="13.6163">
<ele>47</ele>
<time>2011-05-03T14:05:20Z</time>
</trkpt>
<trkpt lat="45.0609" lon="13.61631">
<ele>47</ele>
<time>2011-05-03T14:05:25Z</time>
</trkpt>
<trkpt lat="45.06085" lon="13.61632">
<ele>47</ele>
<time>2011-05-03T14:05:30Z</time>
</trkpt>
<trkpt lat="45.0608" lon="13.61634">
<ele>47</ele>
<time>2011-05-03T14:05:35Z</time>
</trkpt>
<trkpt lat="45.06075" lon="13.61636">
<ele>47</ele>
<time>2011-05-03T14:05:40Z</time>
</trkpt>
<trkpt lat="45.0607" lon="13.61638">
<ele>47</ele>
<time>2011-05-03T14:05:45Z</time>
</trkpt>
<trkpt lat="45.06065" lon="13.6164">
<ele>47</ele>
<time>2011-05-03T14:05:50Z</time>
</trkpt>
<trkpt lat="45.06059" lon="13.61641">
<ele>47</ele>
<time>2011-05-03T14:05:55Z</time>
</trkpt>
<trkpt lat="45.06054" lon="13.61642">
<ele>47</ele>
<time>2011-05-03T14:06:00Z</time>
</trkpt>
<trkpt lat="45.06049" lon="13.61644">
<ele>47</ele>
<time>2011-05-03T14:06:05Z</time>
</trkpt>
<trkpt lat="45.06043" lon="13.61646">
<ele>47</ele>
<time>2011-05-03T14:06:10Z</time>
</trkpt>
<trkpt lat="45.06038" lon="13.61647">
<ele>47</ele>
<time>2011-05-03T14:06:15Z</time>
</trkpt>
<trkpt lat="45.06033" lon="13.61648">
<ele>47</ele>
<time>2011-05-03T14:06:20Z</time>
</trkpt>
<trkpt lat="45.06027" lon="13.61649">
<ele>47</ele>
<time>2011-05-03T14:06:25Z</time>
</trkpt>
<trkpt lat="45.06022" lon="13.61651">
<ele>47</ele>
<time>2011-05-03T14:06:29Z</time>
</trkpt>
<trkpt lat="45.06018" lon="13.61651">
<ele>47</ele>
<time>2011-05-03T14:06:33Z</time>
</trkpt>
<trkpt lat="45.06012" lon="13.61652">
<ele>47</ele>
<time>2011-05-03T14:06:38Z</time>
</trkpt>
<trkpt lat="45.06007" lon="13.61653">
<ele>47</ele>
<time>2011-05-03T14:06:43Z</time>
</trkpt>
<trkpt lat="45.06002" lon="13.61654">
<ele>47</ele>
<time>2011-05-03T14:06:48Z</time>
</trkpt>
<trkpt lat="45.05996" lon="13.61655">
<ele>47</ele>
<time>2011-05-03T14:06:53Z</time>
</trkpt>
<trkpt lat="45.05991" lon="13.61656">
<ele>47</ele>
<time>2011-05-03T14:06:58Z</time>
</trkpt>
<trkpt lat="45.05986" lon="13.61656">
<ele>47</ele>
<time>2011-05-03T14:07:03Z</time>
</trkpt>
<trkpt lat="45.05982" lon="13.61657">
<ele>47</ele>
<time>2011-05-03T14:07:08Z</time>
</trkpt>
<trkpt lat="45.05976" lon="13.61657">
<ele>47</ele>
<time>2011-05-03T14:07:13Z</time>
</trkpt>
<trkpt lat="45.05971" lon="13.61658">
<ele>47</ele>
<time>2011-05-03T14:07:18Z</time>
</trkpt>
<trkpt lat="45.05966" lon="13.61658">
<ele>47</ele>
<time>2011-05-03T14:07:23Z</time>
</trkpt>
<trkpt lat="45.05962" lon="13.61658">
<ele>47</ele>
<time>2011-05-03T14:07:28Z</time>
</trkpt>
<trkpt lat="45.05957" lon="13.61658">
<ele>47</ele>
<time>2011-05-03T14:07:33Z</time>
</trkpt>
<trkpt lat="45.05952" lon="13.61658">
<ele>47</ele>
<time>2011-05-03T14:07:38Z</time>
</trkpt>
<trkpt lat="45.05947" lon="13.61658">
<ele>47</ele>
<time>2011-05-03T14:07:44Z</time>
</trkpt>
<trkpt lat="45.05942" lon="13.61658">
<ele>48</ele>
<time>2011-05-03T14:07:50Z</time>
</trkpt>
<trkpt lat="45.05937" lon="13.61658">
<ele>48</ele>
<time>2011-05-03T14:07:56Z</time>
</trkpt>
<trkpt lat="45.05932" lon="13.61658">
<ele>48</ele>
<time>2011-05-03T14:08:01Z</time>
</trkpt>
<trkpt lat="45.05927" lon="13.61658">
<ele>48</ele>
<time>2011-05-03T14:08:07Z</time>
</trkpt>
<trkpt lat="45.05922" lon="13.61658">
<ele>48</ele>
<time>2011-05-03T14:08:14Z</time>
</trkpt>
<trkpt lat="45.05916" lon="13.61658">
<ele>48</ele>
<time>2011-05-03T14:08:20Z</time>
</trkpt>
<trkpt lat="45.05912" lon="13.61658">
<ele>48</ele>
<time>2011-05-03T14:08:25Z</time>
</trkpt>
<trkpt lat="45.05907" lon="13.61657">
<ele>48</ele>
<time>2011-05-03T14:08:32Z</time>
</trkpt>
<trkpt lat="45.05902" lon="13.61656">
<ele>48</ele>
<time>2011-05-03T14:08:39Z</time>
</trkpt>
<trkpt lat="45.05897" lon="13.61656">
<ele>48</ele>
<time>2011-05-03T14:08:46Z</time>
</trkpt>
<trkpt lat="45.05893" lon="13.61656">
<ele>48</ele>
<time>2011-05-03T14:08:52Z</time>
</trkpt>
<trkpt lat="45.05888" lon="13.61656">
<ele>49</ele>
<time>2011-05-03T14:08:58Z</time>
</trkpt>
<trkpt lat="45.05883" lon="13.61656">
<ele>49</ele>
<time>2011-05-03T14:09:04Z</time>
</trkpt>
<trkpt lat="45.05877" lon="13.61657">
<ele>49</ele>
<time>2011-05-03T14:09:10Z</time>
</trkpt>
<trkpt lat="45.05872" lon="13.61657">
<ele>49</ele>
<time>2011-05-03T14:09:16Z</time>
</trkpt>
<trkpt lat="45.05867" lon="13.61657">
<ele>49</ele>
<time>2011-05-03T14:09:21Z</time>
</trkpt>
<trkpt lat="45.05862" lon="13.61658">
<ele>49</ele>
<time>2011-05-03T14:09:27Z</time>
</trkpt>
<trkpt lat="45.05857" lon="13.61659">
<ele>49</ele>
<time>2011-05-03T14:09:32Z</time>
</trkpt>
<trkpt lat="45.05852" lon="13.61661">
<ele>49</ele>
<time>2011-05-03T14:09:37Z</time>
</trkpt>
<trkpt lat="45.05848" lon="13.61662">
<ele>49</ele>
<time>2011-05-03T14:09:42Z</time>
</trkpt>
<trkpt lat="45.05842" lon="13.61664">
<ele>49</ele>
<time>2011-05-03T14:09:47Z</time>
</trkpt>
<trkpt lat="45.05837" lon="13.61665">
<ele>49</ele>
<time>2011-05-03T14:09:52Z</time>
</trkpt>
<trkpt lat="45.05832" lon="13.61666">
<ele>49</ele>
<time>2011-05-03T14:09:57Z</time>
</trkpt>
<trkpt lat="45.05827" lon="13.61668">
<ele>49</ele>
<time>2011-05-03T14:10:02Z</time>
</trkpt>
<trkpt lat="45.05822" lon="13.61669">
<ele>49</ele>
<time>2011-05-03T14:10:07Z</time>
</trkpt>
<trkpt lat="45.05818" lon="13.61671">
<ele>49</ele>
<time>2011-05-03T14:10:12Z</time>
</trkpt>
<trkpt lat="45.05813" lon="13.61672">
<ele>49</ele>
<time>2011-05-03T14:10:17Z</time>
</trkpt>
<trkpt lat="45.05808" lon="13.61674">
<ele>49</ele>
<time>2011-05-03T14:10:22Z</time>
</trkpt>
<trkpt lat="45.05803" lon="13.61676">
<ele>49</ele>
<time>2011-05-03T14:10:27Z</time>
</trkpt>
<trkpt lat="45.05798" lon="13.61677">
<ele>49</ele>
<time>2011-05-03T14:10:32Z</time>
</trkpt>
<trkpt lat="45.05794" lon="13.61678">
<ele>49</ele>
<time>2011-05-03T14:10:37Z</time>
</trkpt>
<trkpt lat="45.05789" lon="13.61679">
<ele>49</ele>
<time>2011-05-03T14:10:42Z</time>
</trkpt>
<trkpt lat="45.05784" lon="13.6168">
<ele>49</ele>
<time>2011-05-03T14:10:48Z</time>
</trkpt>
<trkpt lat="45.05779" lon="13.6168">
<ele>49</ele>
<time>2011-05-03T14:10:54Z</time>
</trkpt>
<trkpt lat="45.05773" lon="13.61681">
<ele>49</ele>
<time>2011-05-03T14:11:00Z</time>
</trkpt>
<trkpt lat="45.05768" lon="13.61682">
<ele>49</ele>
<time>2011-05-03T14:11:06Z</time>
</trkpt>
<trkpt lat="45.05763" lon="13.61682">
<ele>49</ele>
<time>2011-05-03T14:11:12Z</time>
</trkpt>
<trkpt lat="45.05758" lon="13.61683">
<ele>49</ele>
<time>2011-05-03T14:11:18Z</time>
</trkpt>
<trkpt lat="45.05754" lon="13.61685">
<ele>49</ele>
<time>2011-05-03T14:11:24Z</time>
</trkpt>
<trkpt lat="45.05749" lon="13.61686">
<ele>49</ele>
<time>2011-05-03T14:11:30Z</time>
</trkpt>
<trkpt lat="45.05744" lon="13.61687">
<ele>49</ele>
<time>2011-05-03T14:11:36Z</time>
</trkpt>
<trkpt lat="45.05739" lon="13.61688">
<ele>49</ele>
<time>2011-05-03T14:11:42Z</time>
</trkpt>
<trkpt lat="45.05734" lon="13.61688">
<ele>49</ele>
<time>2011-05-03T14:11:48Z</time>
</trkpt>
<trkpt lat="45.0573" lon="13.61689">
<ele>49</ele>
<time>2011-05-03T14:11:54Z</time>
</trkpt>
<trkpt lat="45.05725" lon="13.61689">
<ele>49</ele>
<time>2011-05-03T14:12:01Z</time>
</trkpt>
<trkpt lat="45.0572" lon="13.61689">
<ele>49</ele>
<time>2011-05-03T14:12:09Z</time>
</trkpt>
<trkpt lat="45.05716" lon="13.6169">
<ele>49</ele>
<time>2011-05-03T14:12:17Z</time>
</trkpt>
<trkpt lat="45.05711" lon="13.61691">
<ele>49</ele>
<time>2011-05-03T14:12:25Z</time>
</trkpt>
<trkpt lat="45.05706" lon="13.61692">
<ele>49</ele>
<time>2011-05-03T14:12:37Z</time>
</trkpt>
<trkpt lat="45.05702" lon="13.61693">
<ele>49</ele>
<time>2011-05-03T14:12:55Z</time>
</trkpt>
<trkpt lat="45.05706" lon="13.61695">
<ele>49</ele>
<time>2011-05-03T14:13:36Z</time>
</trkpt>
<trkpt lat="45.0571" lon="13.61698">
<ele>49</ele>
<time>2011-05-03T14:13:47Z</time>
</trkpt>
<trkpt lat="45.05713" lon="13.61703">
<ele>49</ele>
<time>2011-05-03T14:14:01Z</time>
</trkpt>
<trkpt lat="45.05716" lon="13.61708">
<ele>49</ele>
<time>2011-05-03T14:14:13Z</time>
</trkpt>
<trkpt lat="45.05719" lon="13.61712">
<ele>49</ele>
<time>2011-05-03T14:14:23Z</time>
</trkpt>
<trkpt lat="45.05723" lon="13.61716">
<ele>49</ele>
<time>2011-05-03T14:14:32Z</time>
</trkpt>
<trkpt lat="45.05727" lon="13.61718">
<ele>49</ele>
<time>2011-05-03T14:14:43Z</time>
</trkpt>
<trkpt lat="45.05732" lon="13.6172">
<ele>49</ele>
<time>2011-05-03T14:14:54Z</time>
</trkpt>
<trkpt lat="45.05736" lon="13.61722">
<ele>49</ele>
<time>2011-05-03T14:15:04Z</time>
</trkpt>
<trkpt lat="45.05741" lon="13.61723">
<ele>49</ele>
<time>2011-05-03T14:15:15Z</time>
</trkpt>
<trkpt lat="45.05745" lon="13.61726">
<ele>49</ele>
<time>2011-05-03T14:15:25Z</time>
</trkpt>
<trkpt lat="45.05749" lon="13.6173">
<ele>49</ele>
<time>2011-05-03T14:15:35Z</time>
</trkpt>
<trkpt lat="45.05753" lon="13.61734">
<ele>49</ele>
<time>2011-05-03T14:15:44Z</time>
</trkpt>
<trkpt lat="45.05758" lon="13.61737">
<ele>49</ele>
<time>2011-05-03T14:15:54Z</time>
</trkpt>
<trkpt lat="45.05762" lon="13.61739">
<ele>49</ele>
<time>2011-05-03T14:16:03Z</time>
</trkpt>
<trkpt lat="45.05766" lon="13.61741">
<ele>49</ele>
<time>2011-05-03T14:16:14Z</time>
</trkpt>
<trkpt lat="45.05771" lon="13.61742">
<ele>49</ele>
<time>2011-05-03T14:16:28Z</time>
</trkpt>
<trkpt lat="45.05775" lon="13.61744">
<ele>49</ele>
<time>2011-05-03T14:16:39Z</time>
</trkpt>
<trkpt lat="45.05779" lon="13.61748">
<ele>48</ele>
<time>2011-05-03T14:16:50Z</time>
</trkpt>
<trkpt lat="45.05782" lon="13.61752">
<ele>48</ele>
<time>2011-05-03T14:17:02Z</time>
</trkpt>
<trkpt lat="45.05786" lon="13.61756">
<ele>48</ele>
<time>2011-05-03T14:17:15Z</time>
</trkpt>
<trkpt lat="45.0579" lon="13.6176">
<ele>48</ele>
<time>2011-05-03T14:17:26Z</time>
</trkpt>
<trkpt lat="45.05794" lon="13.61764">
<ele>47</ele>
<time>2011-05-03T14:17:35Z</time>
</trkpt>
<trkpt lat="45.05797" lon="13.61768">
<ele>47</ele>
<time>2011-05-03T14:17:44Z</time>
</trkpt>
<trkpt lat="45.05801" lon="13.61773">
<ele>47</ele>
<time>2011-05-03T14:17:53Z</time>
</trkpt>
<trkpt lat="45.05804" lon="13.61777">
<ele>47</ele>
<time>2011-05-03T14:18:02Z</time>
</trkpt>
<trkpt lat="45.05808" lon="13.6178">
<ele>47</ele>
<time>2011-05-03T14:18:10Z</time>
</trkpt>
<trkpt lat="45.05813" lon="13.61782">
<ele>47</ele>
<time>2011-05-03T14:18:19Z</time>
</trkpt>
<trkpt lat="45.05817" lon="13.61784">
<ele>47</ele>
<time>2011-05-03T14:18:29Z</time>
</trkpt>
<trkpt lat="45.05821" lon="13.61788">
<ele>46</ele>
<time>2011-05-03T14:18:43Z</time>
</trkpt>
<trkpt lat="45.05825" lon="13.61792">
<ele>46</ele>
<time>2011-05-03T14:18:53Z</time>
</trkpt>
<trkpt lat="45.05829" lon="13.61795">
<ele>46</ele>
<time>2011-05-03T14:19:06Z</time>
</trkpt>
<trkpt lat="45.05833" lon="13.61799">
<ele>46</ele>
<time>2011-05-03T14:19:17Z</time>
</trkpt>
<trkpt lat="45.05837" lon="13.61802">
<ele>46</ele>
<time>2011-05-03T14:19:26Z</time>
</trkpt>
<trkpt lat="45.05841" lon="13.61806">
<ele>45</ele>
<time>2011-05-03T14:19:37Z</time>
</trkpt>
<trkpt lat="45.05846" lon="13.61808">
<ele>45</ele>
<time>2011-05-03T14:19:45Z</time>
</trkpt>
<trkpt lat="45.0585" lon="13.61811">
<ele>45</ele>
<time>2011-05-03T14:19:54Z</time>
</trkpt>
<trkpt lat="45.05854" lon="13.61813">
<ele>44</ele>
<time>2011-05-03T14:20:03Z</time>
</trkpt>
<trkpt lat="45.05858" lon="13.61815">
<ele>44</ele>
<time>2011-05-03T14:20:13Z</time>
</trkpt>
<trkpt lat="45.05863" lon="13.61816">
<ele>44</ele>
<time>2011-05-03T14:20:24Z</time>
</trkpt>
<trkpt lat="45.05868" lon="13.61818">
<ele>44</ele>
<time>2011-05-03T14:20:34Z</time>
</trkpt>
<trkpt lat="45.05872" lon="13.61819">
<ele>44</ele>
<time>2011-05-03T14:20:44Z</time>
</trkpt>
<trkpt lat="45.05876" lon="13.6182">
<ele>45</ele>
<time>2011-05-03T14:20:55Z</time>
</trkpt>
<trkpt lat="45.05881" lon="13.61822">
<ele>45</ele>
<time>2011-05-03T14:21:08Z</time>
</trkpt>
<trkpt lat="45.05886" lon="13.61822">
<ele>45</ele>
<time>2011-05-03T14:21:19Z</time>
</trkpt>
<trkpt lat="45.0589" lon="13.61823">
<ele>45</ele>
<time>2011-05-03T14:21:29Z</time>
</trkpt>
<trkpt lat="45.05895" lon="13.61823">
<ele>45</ele>
<time>2011-05-03T14:21:38Z</time>
</trkpt>
<trkpt lat="45.059" lon="13.61824">
<ele>45</ele>
<time>2011-05-03T14:21:50Z</time>
</trkpt>
<trkpt lat="45.05904" lon="13.61825">
<ele>45</ele>
<time>2011-05-03T14:22:00Z</time>
</trkpt>
<trkpt lat="45.05909" lon="13.61826">
<ele>45</ele>
<time>2011-05-03T14:22:10Z</time>
</trkpt>
<trkpt lat="45.05913" lon="13.61826">
<ele>45</ele>
<time>2011-05-03T14:22:18Z</time>
</trkpt>
<trkpt lat="45.05918" lon="13.61827">
<ele>45</ele>
<time>2011-05-03T14:22:28Z</time>
</trkpt>
<trkpt lat="45.05923" lon="13.6183">
<ele>46</ele>
<time>2011-05-03T14:22:38Z</time>
</trkpt>
<trkpt lat="45.05927" lon="13.61832">
<ele>46</ele>
<time>2011-05-03T14:22:45Z</time>
</trkpt>
<trkpt lat="45.05932" lon="13.61835">
<ele>46</ele>
<time>2011-05-03T14:22:53Z</time>
</trkpt>
<trkpt lat="45.05936" lon="13.61837">
<ele>46</ele>
<time>2011-05-03T14:23:02Z</time>
</trkpt>
<trkpt lat="45.0594" lon="13.61839">
<ele>45</ele>
<time>2011-05-03T14:23:11Z</time>
</trkpt>
<trkpt lat="45.05945" lon="13.61842">
<ele>45</ele>
<time>2011-05-03T14:23:19Z</time>
</trkpt>
<trkpt lat="45.05949" lon="13.61844">
<ele>45</ele>
<time>2011-05-03T14:23:27Z</time>
</trkpt>
<trkpt lat="45.05954" lon="13.61845">
<ele>45</ele>
<time>2011-05-03T14:23:35Z</time>
</trkpt>
<trkpt lat="45.05958" lon="13.61847">
<ele>45</ele>
<time>2011-05-03T14:23:44Z</time>
</trkpt>
<trkpt lat="45.05963" lon="13.61847">
<ele>45</ele>
<time>2011-05-03T14:23:59Z</time>
</trkpt>
<trkpt lat="45.05967" lon="13.61847">
<ele>45</ele>
<time>2011-05-03T14:24:11Z</time>
</trkpt>
<trkpt lat="45.05972" lon="13.61846">
<ele>45</ele>
<time>2011-05-03T14:24:25Z</time>
</trkpt>
<trkpt lat="45.05976" lon="13.61844">
<ele>45</ele>
<time>2011-05-03T14:24:35Z</time>
</trkpt>
<trkpt lat="45.05981" lon="13.61842">
<ele>45</ele>
<time>2011-05-03T14:24:45Z</time>
</trkpt>
<trkpt lat="45.05986" lon="13.61842">
<ele>45</ele>
<time>2011-05-03T14:24:54Z</time>
</trkpt>
<trkpt lat="45.0599" lon="13.61842">
<ele>45</ele>
<time>2011-05-03T14:24:59Z</time>
</trkpt>
<trkpt lat="45.05995" lon="13.61842">
<ele>45</ele>
<time>2011-05-03T14:25:05Z</time>
</trkpt>
<trkpt lat="45.06" lon="13.61844">
<ele>45</ele>
<time>2011-05-03T14:25:15Z</time>
</trkpt>
<trkpt lat="45.06004" lon="13.61844">
<ele>46</ele>
<time>2011-05-03T14:25:24Z</time>
</trkpt>
<trkpt lat="45.06009" lon="13.61844">
<ele>46</ele>
<time>2011-05-03T14:25:32Z</time>
</trkpt>
<trkpt lat="45.06014" lon="13.61845">
<ele>46</ele>
<time>2011-05-03T14:25:40Z</time>
</trkpt>
<trkpt lat="45.06018" lon="13.61844">
<ele>46</ele>
<time>2011-05-03T14:25:47Z</time>
</trkpt>
<trkpt lat="45.06023" lon="13.61844">
<ele>46</ele>
<time>2011-05-03T14:25:55Z</time>
</trkpt>
<trkpt lat="45.06028" lon="13.61843">
<ele>46</ele>
<time>2011-05-03T14:26:06Z</time>
</trkpt>
<trkpt lat="45.06033" lon="13.61842">
<ele>46</ele>
<time>2011-05-03T14:26:14Z</time>
</trkpt>
<trkpt lat="45.06038" lon="13.61841">
<ele>46</ele>
<time>2011-05-03T14:26:19Z</time>
</trkpt>
<trkpt lat="45.06043" lon="13.6184">
<ele>46</ele>
<time>2011-05-03T14:26:23Z</time>
</trkpt>
<trkpt lat="45.06049" lon="13.61841">
<ele>46</ele>
<time>2011-05-03T14:26:28Z</time>
</trkpt>
<trkpt lat="45.06054" lon="13.61841">
<ele>46</ele>
<time>2011-05-03T14:26:34Z</time>
</trkpt>
<trkpt lat="45.06059" lon="13.61841">
<ele>46</ele>
<time>2011-05-03T14:26:40Z</time>
</trkpt>
<trkpt lat="45.06064" lon="13.61842">
<ele>46</ele>
<time>2011-05-03T14:26:46Z</time>
</trkpt>
<trkpt lat="45.06069" lon="13.61842">
<ele>46</ele>
<time>2011-05-03T14:26:52Z</time>
</trkpt>
<trkpt lat="45.06074" lon="13.61843">
<ele>46</ele>
<time>2011-05-03T14:26:59Z</time>
</trkpt>
<trkpt lat="45.06078" lon="13.61844">
<ele>46</ele>
<time>2011-05-03T14:27:05Z</time>
</trkpt>
<trkpt lat="45.06083" lon="13.61845">
<ele>46</ele>
<time>2011-05-03T14:27:11Z</time>
</trkpt>
<trkpt lat="45.06088" lon="13.61845">
<ele>46</ele>
<time>2011-05-03T14:27:17Z</time>
</trkpt>
<trkpt lat="45.06093" lon="13.61846">
<ele>46</ele>
<time>2011-05-03T14:27:24Z</time>
</trkpt>
<trkpt lat="45.06098" lon="13.61847">
<ele>46</ele>
<time>2011-05-03T14:27:31Z</time>
</trkpt>
<trkpt lat="45.06102" lon="13.61848">
<ele>46</ele>
<time>2011-05-03T14:27:38Z</time>
</trkpt>
<trkpt lat="45.06107" lon="13.61849">
<ele>46</ele>
<time>2011-05-03T14:27:45Z</time>
</trkpt>
<trkpt lat="45.06112" lon="13.61849">
<ele>46</ele>
<time>2011-05-03T14:27:52Z</time>
</trkpt>
<trkpt lat="45.06117" lon="13.6185">
<ele>46</ele>
<time>2011-05-03T14:27:59Z</time>
</trkpt>
<trkpt lat="45.06121" lon="13.61851">
<ele>46</ele>
<time>2011-05-03T14:28:06Z</time>
</trkpt>
<trkpt lat="45.06126" lon="13.61852">
<ele>47</ele>
<time>2011-05-03T14:28:13Z</time>
</trkpt>
<trkpt lat="45.0613" lon="13.61853">
<ele>47</ele>
<time>2011-05-03T14:28:21Z</time>
</trkpt>
<trkpt lat="45.06135" lon="13.61853">
<ele>47</ele>
<time>2011-05-03T14:28:30Z</time>
</trkpt>
<trkpt lat="45.0614" lon="13.61853">
<ele>46</ele>
<time>2011-05-03T14:28:37Z</time>
</trkpt>
<trkpt lat="45.06144" lon="13.61852">
<ele>46</ele>
<time>2011-05-03T14:28:44Z</time>
</trkpt>
<trkpt lat="45.06149" lon="13.61852">
<ele>46</ele>
<time>2011-05-03T14:28:51Z</time>
</trkpt>
<trkpt lat="45.06154" lon="13.61852">
<ele>46</ele>
<time>2011-05-03T14:28:58Z</time>
</trkpt>
<trkpt lat="45.06158" lon="13.61852">
<ele>46</ele>
<time>2011-05-03T14:29:05Z</time>
</trkpt>
<trkpt lat="45.06163" lon="13.61852">
<ele>46</ele>
<time>2011-05-03T14:29:12Z</time>
</trkpt>
<trkpt lat="45.06168" lon="13.61852">
<ele>46</ele>
<time>2011-05-03T14:29:19Z</time>
</trkpt>
<trkpt lat="45.06172" lon="13.61852">
<ele>46</ele>
<time>2011-05-03T14:29:26Z</time>
</trkpt>
<trkpt lat="45.06177" lon="13.61851">
<ele>46</ele>
<time>2011-05-03T14:29:33Z</time>
</trkpt>
<trkpt lat="45.06182" lon="13.61851">
<ele>46</ele>
<time>2011-05-03T14:29:40Z</time>
</trkpt>
<trkpt lat="45.06187" lon="13.61851">
<ele>46</ele>
<time>2011-05-03T14:29:51Z</time>
</trkpt>
<trkpt lat="45.06191" lon="13.61851">
<ele>46</ele>
<time>2011-05-03T14:29:58Z</time>
</trkpt>
<trkpt lat="45.06196" lon="13.6185">
<ele>46</ele>
<time>2011-05-03T14:30:05Z</time>
</trkpt>
<trkpt lat="45.06201" lon="13.6185">
<ele>46</ele>
<time>2011-05-03T14:30:13Z</time>
</trkpt>
<trkpt lat="45.06206" lon="13.6185">
<ele>46</ele>
<time>2011-05-03T14:30:20Z</time>
</trkpt>
<trkpt lat="45.0621" lon="13.6185">
<ele>46</ele>
<time>2011-05-03T14:30:27Z</time>
</trkpt>
<trkpt lat="45.06215" lon="13.6185">
<ele>46</ele>
<time>2011-05-03T14:30:34Z</time>
</trkpt>
<trkpt lat="45.0622" lon="13.61849">
<ele>46</ele>
<time>2011-05-03T14:30:42Z</time>
</trkpt>
<trkpt lat="45.06224" lon="13.61849">
<ele>46</ele>
<time>2011-05-03T14:30:49Z</time>
</trkpt>
<trkpt lat="45.06229" lon="13.61849">
<ele>46</ele>
<time>2011-05-03T14:30:57Z</time>
</trkpt>
<trkpt lat="45.06234" lon="13.61849">
<ele>46</ele>
<time>2011-05-03T14:31:04Z</time>
</trkpt>
<trkpt lat="45.06238" lon="13.61849">
<ele>46</ele>
<time>2011-05-03T14:31:11Z</time>
</trkpt>
<trkpt lat="45.06243" lon="13.6185">
<ele>46</ele>
<time>2011-05-03T14:31:17Z</time>
</trkpt>
<trkpt lat="45.06247" lon="13.61851">
<ele>46</ele>
<time>2011-05-03T14:31:23Z</time>
</trkpt>
<trkpt lat="45.06252" lon="13.61852">
<ele>46</ele>
<time>2011-05-03T14:31:30Z</time>
</trkpt>
<trkpt lat="45.06257" lon="13.61852">
<ele>46</ele>
<time>2011-05-03T14:31:38Z</time>
</trkpt>
<trkpt lat="45.06262" lon="13.61853">
<ele>46</ele>
<time>2011-05-03T14:31:46Z</time>
</trkpt>
<trkpt lat="45.06267" lon="13.61853">
<ele>47</ele>
<time>2011-05-03T14:31:54Z</time>
</trkpt>
<trkpt lat="45.06272" lon="13.61853">
<ele>47</ele>
<time>2011-05-03T14:32:01Z</time>
</trkpt>
<trkpt lat="45.06277" lon="13.61854">
<ele>47</ele>
<time>2011-05-03T14:32:08Z</time>
</trkpt>
<trkpt lat="45.06282" lon="13.61854">
<ele>47</ele>
<time>2011-05-03T14:32:15Z</time>
</trkpt>
<trkpt lat="45.06286" lon="13.61855">
<ele>47</ele>
<time>2011-05-03T14:32:23Z</time>
</trkpt>
<trkpt lat="45.06291" lon="13.61856">
<ele>47</ele>
<time>2011-05-03T14:32:31Z</time>
</trkpt>
<trkpt lat="45.06296" lon="13.61857">
<ele>47</ele>
<time>2011-05-03T14:32:39Z</time>
</trkpt>
<trkpt lat="45.06301" lon="13.61857">
<ele>46</ele>
<time>2011-05-03T14:32:46Z</time>
</trkpt>
<trkpt lat="45.06306" lon="13.61856">
<ele>46</ele>
<time>2011-05-03T14:32:53Z</time>
</trkpt>
<trkpt lat="45.0631" lon="13.61855">
<ele>46</ele>
<time>2011-05-03T14:33:00Z</time>
</trkpt>
<trkpt lat="45.06315" lon="13.61854">
<ele>46</ele>
<time>2011-05-03T14:33:07Z</time>
</trkpt>
<trkpt lat="45.0632" lon="13.61853">
<ele>46</ele>
<time>2011-05-03T14:33:15Z</time>
</trkpt>
<trkpt lat="45.06325" lon="13.61853">
<ele>46</ele>
<time>2011-05-03T14:33:27Z</time>
</trkpt>
<trkpt lat="45.0633" lon="13.61853">
<ele>46</ele>
<time>2011-05-03T14:33:35Z</time>
</trkpt>
<trkpt lat="45.06335" lon="13.61853">
<ele>46</ele>
<time>2011-05-03T14:33:41Z</time>
</trkpt>
<trkpt lat="45.0634" lon="13.61853">
<ele>46</ele>
<time>2011-05-03T14:33:47Z</time>
</trkpt>
<trkpt lat="45.06345" lon="13.61854">
<ele>46</ele>
<time>2011-05-03T14:33:53Z</time>
</trkpt>
<trkpt lat="45.0635" lon="13.61854">
<ele>46</ele>
<time>2011-05-03T14:33:59Z</time>
</trkpt>
<trkpt lat="45.06355" lon="13.61854">
<ele>46</ele>
<time>2011-05-03T14:34:06Z</time>
</trkpt>
<trkpt lat="45.06359" lon="13.61854">
<ele>47</ele>
<time>2011-05-03T14:34:12Z</time>
</trkpt>
<trkpt lat="45.06364" lon="13.61855">
<ele>47</ele>
<time>2011-05-03T14:34:18Z</time>
</trkpt>
<trkpt lat="45.06369" lon="13.61855">
<ele>47</ele>
<time>2011-05-03T14:34:24Z</time>
</trkpt>
<trkpt lat="45.06374" lon="13.61855">
<ele>47</ele>
<time>2011-05-03T14:34:31Z</time>
</trkpt>
<trkpt lat="45.06379" lon="13.61855">
<ele>47</ele>
<time>2011-05-03T14:34:38Z</time>
</trkpt>
<trkpt lat="45.06384" lon="13.61854">
<ele>47</ele>
<time>2011-05-03T14:34:48Z</time>
</trkpt>
<trkpt lat="45.06388" lon="13.61854">
<ele>47</ele>
<time>2011-05-03T14:34:55Z</time>
</trkpt>
<trkpt lat="45.06393" lon="13.61854">
<ele>47</ele>
<time>2011-05-03T14:35:01Z</time>
</trkpt>
<trkpt lat="45.06398" lon="13.61853">
<ele>47</ele>
<time>2011-05-03T14:35:07Z</time>
</trkpt>
<trkpt lat="45.06402" lon="13.61853">
<ele>47</ele>
<time>2011-05-03T14:35:13Z</time>
</trkpt>
<trkpt lat="45.06407" lon="13.61853">
<ele>47</ele>
<time>2011-05-03T14:35:20Z</time>
</trkpt>
<trkpt lat="45.06412" lon="13.61852">
<ele>47</ele>
<time>2011-05-03T14:35:27Z</time>
</trkpt>
<trkpt lat="45.06417" lon="13.61852">
<ele>47</ele>
<time>2011-05-03T14:35:34Z</time>
</trkpt>
<trkpt lat="45.06422" lon="13.61852">
<ele>47</ele>
<time>2011-05-03T14:35:41Z</time>
</trkpt>
<trkpt lat="45.06427" lon="13.61852">
<ele>47</ele>
<time>2011-05-03T14:35:47Z</time>
</trkpt>
<trkpt lat="45.06431" lon="13.61852">
<ele>47</ele>
<time>2011-05-03T14:35:53Z</time>
</trkpt>
<trkpt lat="45.06436" lon="13.61852">
<ele>47</ele>
<time>2011-05-03T14:35:59Z</time>
</trkpt>
<trkpt lat="45.06441" lon="13.61851">
<ele>47</ele>
<time>2011-05-03T14:36:05Z</time>
</trkpt>
<trkpt lat="45.06445" lon="13.61852">
<ele>47</ele>
<time>2011-05-03T14:36:11Z</time>
</trkpt>
<trkpt lat="45.0645" lon="13.61853">
<ele>47</ele>
<time>2011-05-03T14:36:18Z</time>
</trkpt>
<trkpt lat="45.06455" lon="13.61854">
<ele>47</ele>
<time>2011-05-03T14:36:25Z</time>
</trkpt>
<trkpt lat="45.0646" lon="13.61856">
<ele>47</ele>
<time>2011-05-03T14:36:33Z</time>
</trkpt>
<trkpt lat="45.06465" lon="13.61858">
<ele>48</ele>
<time>2011-05-03T14:36:40Z</time>
</trkpt>
<trkpt lat="45.0647" lon="13.61859">
<ele>48</ele>
<time>2011-05-03T14:36:47Z</time>
</trkpt>
<trkpt lat="45.06475" lon="13.61861">
<ele>48</ele>
<time>2011-05-03T14:36:54Z</time>
</trkpt>
<trkpt lat="45.0648" lon="13.61862">
<ele>48</ele>
<time>2011-05-03T14:37:01Z</time>
</trkpt>
<trkpt lat="45.06484" lon="13.61863">
<ele>48</ele>
<time>2011-05-03T14:37:07Z</time>
</trkpt>
<trkpt lat="45.06489" lon="13.61865">
<ele>48</ele>
<time>2011-05-03T14:37:13Z</time>
</trkpt>
<trkpt lat="45.06494" lon="13.61868">
<ele>48</ele>
<time>2011-05-03T14:37:19Z</time>
</trkpt>
<trkpt lat="45.06498" lon="13.61871">
<ele>48</ele>
<time>2011-05-03T14:37:24Z</time>
</trkpt>
<trkpt lat="45.06502" lon="13.61874">
<ele>48</ele>
<time>2011-05-03T14:37:30Z</time>
</trkpt>
<trkpt lat="45.06507" lon="13.61879">
<ele>49</ele>
<time>2011-05-03T14:37:36Z</time>
</trkpt>
<trkpt lat="45.06511" lon="13.61882">
<ele>49</ele>
<time>2011-05-03T14:37:42Z</time>
</trkpt>
<trkpt lat="45.06515" lon="13.61885">
<ele>49</ele>
<time>2011-05-03T14:37:48Z</time>
</trkpt>
<trkpt lat="45.0652" lon="13.61888">
<ele>48</ele>
<time>2011-05-03T14:37:55Z</time>
</trkpt>
<trkpt lat="45.06524" lon="13.6189">
<ele>48</ele>
<time>2011-05-03T14:38:02Z</time>
</trkpt>
<trkpt lat="45.06529" lon="13.61891">
<ele>48</ele>
<time>2011-05-03T14:38:09Z</time>
</trkpt>
<trkpt lat="45.06534" lon="13.61893">
<ele>48</ele>
<time>2011-05-03T14:38:16Z</time>
</trkpt>
<trkpt lat="45.06539" lon="13.61896">
<ele>48</ele>
<time>2011-05-03T14:38:23Z</time>
</trkpt>
<trkpt lat="45.06543" lon="13.61898">
<ele>48</ele>
<time>2011-05-03T14:38:30Z</time>
</trkpt>
<trkpt lat="45.06548" lon="13.61901">
<ele>48</ele>
<time>2011-05-03T14:38:37Z</time>
</trkpt>
<trkpt lat="45.06552" lon="13.61904">
<ele>48</ele>
<time>2011-05-03T14:38:45Z</time>
</trkpt>
<trkpt lat="45.06556" lon="13.61907">
<ele>48</ele>
<time>2011-05-03T14:38:52Z</time>
</trkpt>
<trkpt lat="45.0656" lon="13.61911">
<ele>48</ele>
<time>2011-05-03T14:39:00Z</time>
</trkpt>
<trkpt lat="45.06564" lon="13.61915">
<ele>48</ele>
<time>2011-05-03T14:39:08Z</time>
</trkpt>
<trkpt lat="45.06568" lon="13.61919">
<ele>48</ele>
<time>2011-05-03T14:39:15Z</time>
</trkpt>
<trkpt lat="45.06572" lon="13.61923">
<ele>48</ele>
<time>2011-05-03T14:39:22Z</time>
</trkpt>
<trkpt lat="45.06576" lon="13.61927">
<ele>48</ele>
<time>2011-05-03T14:39:30Z</time>
</trkpt>
<trkpt lat="45.06579" lon="13.61931">
<ele>48</ele>
<time>2011-05-03T14:39:37Z</time>
</trkpt>
<trkpt lat="45.06583" lon="13.61935">
<ele>48</ele>
<time>2011-05-03T14:39:44Z</time>
</trkpt>
<trkpt lat="45.06586" lon="13.61939">
<ele>47</ele>
<time>2011-05-03T14:39:52Z</time>
</trkpt>
<trkpt lat="45.0659" lon="13.61943">
<ele>47</ele>
<time>2011-05-03T14:40:01Z</time>
</trkpt>
<trkpt lat="45.06593" lon="13.61947">
<ele>47</ele>
<time>2011-05-03T14:40:09Z</time>
</trkpt>
<trkpt lat="45.06596" lon="13.61952">
<ele>47</ele>
<time>2011-05-03T14:40:17Z</time>
</trkpt>
<trkpt lat="45.066" lon="13.61957">
<ele>47</ele>
<time>2011-05-03T14:40:25Z</time>
</trkpt>
<trkpt lat="45.06603" lon="13.61962">
<ele>47</ele>
<time>2011-05-03T14:40:33Z</time>
</trkpt>
<trkpt lat="45.06607" lon="13.61967">
<ele>47</ele>
<time>2011-05-03T14:40:41Z</time>
</trkpt>
<trkpt lat="45.0661" lon="13.61972">
<ele>47</ele>
<time>2011-05-03T14:40:50Z</time>
</trkpt>
<trkpt lat="45.06613" lon="13.61976">
<ele>47</ele>
<time>2011-05-03T14:40:58Z</time>
</trkpt>
<trkpt lat="45.06617" lon="13.61981">
<ele>47</ele>
<time>2011-05-03T14:41:06Z</time>
</trkpt>
<trkpt lat="45.0662" lon="13.61986">
<ele>47</ele>
<time>2011-05-03T14:41:14Z</time>
</trkpt>
<trkpt lat="45.06622" lon="13.61991">
<ele>46</ele>
<time>2011-05-03T14:41:23Z</time>
</trkpt>
<trkpt lat="45.06625" lon="13.61996">
<ele>46</ele>
<time>2011-05-03T14:41:32Z</time>
</trkpt>
<trkpt lat="45.06628" lon="13.62001">
<ele>46</ele>
<time>2011-05-03T14:41:40Z</time>
</trkpt>
<trkpt lat="45.06631" lon="13.62006">
<ele>46</ele>
<time>2011-05-03T14:41:49Z</time>
</trkpt>
<trkpt lat="45.06634" lon="13.62012">
<ele>46</ele>
<time>2011-05-03T14:41:58Z</time>
</trkpt>
<trkpt lat="45.06637" lon="13.62017">
<ele>46</ele>
<time>2011-05-03T14:42:07Z</time>
</trkpt>
<trkpt lat="45.0664" lon="13.62022">
<ele>46</ele>
<time>2011-05-03T14:42:19Z</time>
</trkpt>
<trkpt lat="45.06643" lon="13.62026">
<ele>46</ele>
<time>2011-05-03T14:42:30Z</time>
</trkpt>
<trkpt lat="45.06647" lon="13.6203">
<ele>46</ele>
<time>2011-05-03T14:42:39Z</time>
</trkpt>
<trkpt lat="45.06651" lon="13.62034">
<ele>46</ele>
<time>2011-05-03T14:42:48Z</time>
</trkpt>
<trkpt lat="45.06655" lon="13.62038">
<ele>46</ele>
<time>2011-05-03T14:42:57Z</time>
</trkpt>
<trkpt lat="45.06658" lon="13.62043">
<ele>46</ele>
<time>2011-05-03T14:43:05Z</time>
</trkpt>
<trkpt lat="45.06662" lon="13.62047">
<ele>46</ele>
<time>2011-05-03T14:43:13Z</time>
</trkpt>
<trkpt lat="45.06665" lon="13.62052">
<ele>45</ele>
<time>2011-05-03T14:43:22Z</time>
</trkpt>
<trkpt lat="45.06669" lon="13.62056">
<ele>45</ele>
<time>2011-05-03T14:43:31Z</time>
</trkpt>
<trkpt lat="45.06673" lon="13.6206">
<ele>45</ele>
<time>2011-05-03T14:43:41Z</time>
</trkpt>
<trkpt lat="45.06677" lon="13.62064">
<ele>45</ele>
<time>2011-05-03T14:43:51Z</time>
</trkpt>
<trkpt lat="45.06681" lon="13.62068">
<ele>45</ele>
<time>2011-05-03T14:44:00Z</time>
</trkpt>
<trkpt lat="45.06684" lon="13.62072">
<ele>45</ele>
<time>2011-05-03T14:44:09Z</time>
</trkpt>
<trkpt lat="45.06688" lon="13.62077">
<ele>45</ele>
<time>2011-05-03T14:44:19Z</time>
</trkpt>
<trkpt lat="45.06691" lon="13.62081">
<ele>45</ele>
<time>2011-05-03T14:44:30Z</time>
</trkpt>
<trkpt lat="45.06695" lon="13.62086">
<ele>45</ele>
<time>2011-05-03T14:44:40Z</time>
</trkpt>
<trkpt lat="45.06699" lon="13.62089">
<ele>45</ele>
<time>2011-05-03T14:44:50Z</time>
</trkpt>
<trkpt lat="45.06703" lon="13.62092">
<ele>45</ele>
<time>2011-05-03T14:45:00Z</time>
</trkpt>
<trkpt lat="45.06707" lon="13.62096">
<ele>45</ele>
<time>2011-05-03T14:45:09Z</time>
</trkpt>
<trkpt lat="45.06711" lon="13.621">
<ele>45</ele>
<time>2011-05-03T14:45:17Z</time>
</trkpt>
<trkpt lat="45.06716" lon="13.62103">
<ele>45</ele>
<time>2011-05-03T14:45:25Z</time>
</trkpt>
<trkpt lat="45.0672" lon="13.62106">
<ele>45</ele>
<time>2011-05-03T14:45:32Z</time>
</trkpt>
<trkpt lat="45.06724" lon="13.62108">
<ele>45</ele>
<time>2011-05-03T14:45:39Z</time>
</trkpt>
<trkpt lat="45.06728" lon="13.62111">
<ele>45</ele>
<time>2011-05-03T14:45:49Z</time>
</trkpt>
<trkpt lat="45.06732" lon="13.62116">
<ele>45</ele>
<time>2011-05-03T14:46:00Z</time>
</trkpt>
<trkpt lat="45.06736" lon="13.62119">
<ele>45</ele>
<time>2011-05-03T14:46:10Z</time>
</trkpt>
<trkpt lat="45.0674" lon="13.62122">
<ele>45</ele>
<time>2011-05-03T14:46:20Z</time>
</trkpt>
<trkpt lat="45.06744" lon="13.62126">
<ele>45</ele>
<time>2011-05-03T14:46:30Z</time>
</trkpt>
<trkpt lat="45.06749" lon="13.6213">
<ele>44</ele>
<time>2011-05-03T14:46:39Z</time>
</trkpt>
<trkpt lat="45.06753" lon="13.62134">
<ele>44</ele>
<time>2011-05-03T14:46:48Z</time>
</trkpt>
<trkpt lat="45.06756" lon="13.62138">
<ele>44</ele>
<time>2011-05-03T14:46:56Z</time>
</trkpt>
<trkpt lat="45.0676" lon="13.62142">
<ele>44</ele>
<time>2011-05-03T14:47:04Z</time>
</trkpt>
<trkpt lat="45.06764" lon="13.62146">
<ele>44</ele>
<time>2011-05-03T14:47:11Z</time>
</trkpt>
<trkpt lat="45.06768" lon="13.62149">
<ele>44</ele>
<time>2011-05-03T14:47:18Z</time>
</trkpt>
<trkpt lat="45.06772" lon="13.62153">
<ele>44</ele>
<time>2011-05-03T14:47:26Z</time>
</trkpt>
<trkpt lat="45.06776" lon="13.62157">
<ele>44</ele>
<time>2011-05-03T14:47:34Z</time>
</trkpt>
<trkpt lat="45.0678" lon="13.6216">
<ele>44</ele>
<time>2011-05-03T14:47:41Z</time>
</trkpt>
<trkpt lat="45.06784" lon="13.62164">
<ele>44</ele>
<time>2011-05-03T14:47:49Z</time>
</trkpt>
<trkpt lat="45.06787" lon="13.62168">
<ele>45</ele>
<time>2011-05-03T14:47:57Z</time>
</trkpt>
<trkpt lat="45.06791" lon="13.62172">
<ele>45</ele>
<time>2011-05-03T14:48:06Z</time>
</trkpt>
<trkpt lat="45.06796" lon="13.62175">
<ele>45</ele>
<time>2011-05-03T14:48:14Z</time>
</trkpt>
<trkpt lat="45.06799" lon="13.62179">
<ele>45</ele>
<time>2011-05-03T14:48:23Z</time>
</trkpt>
<trkpt lat="45.06803" lon="13.62184">
<ele>45</ele>
<time>2011-05-03T14:48:33Z</time>
</trkpt>
<trkpt lat="45.06806" lon="13.62188">
<ele>46</ele>
<time>2011-05-03T14:48:42Z</time>
</trkpt>
<trkpt lat="45.0681" lon="13.62193">
<ele>46</ele>
<time>2011-05-03T14:48:51Z</time>
</trkpt>
<trkpt lat="45.06812" lon="13.62198">
<ele>46</ele>
<time>2011-05-03T14:48:59Z</time>
</trkpt>
<trkpt lat="45.06815" lon="13.62204">
<ele>46</ele>
<time>2011-05-03T14:49:07Z</time>
</trkpt>
<trkpt lat="45.06818" lon="13.62209">
<ele>46</ele>
<time>2011-05-03T14:49:15Z</time>
</trkpt>
<trkpt lat="45.06822" lon="13.62213">
<ele>47</ele>
<time>2011-05-03T14:49:23Z</time>
</trkpt>
<trkpt lat="45.06824" lon="13.62218">
<ele>47</ele>
<time>2011-05-03T14:49:33Z</time>
</trkpt>
<trkpt lat="45.06827" lon="13.62223">
<ele>47</ele>
<time>2011-05-03T14:49:43Z</time>
</trkpt>
<trkpt lat="45.0683" lon="13.62228">
<ele>47</ele>
<time>2011-05-03T14:49:54Z</time>
</trkpt>
<trkpt lat="45.06833" lon="13.62234">
<ele>47</ele>
<time>2011-05-03T14:50:05Z</time>
</trkpt>
<trkpt lat="45.06835" lon="13.62239">
<ele>46</ele>
<time>2011-05-03T14:50:16Z</time>
</trkpt>
<trkpt lat="45.06838" lon="13.62244">
<ele>46</ele>
<time>2011-05-03T14:50:27Z</time>
</trkpt>
<trkpt lat="45.06841" lon="13.6225">
<ele>46</ele>
<time>2011-05-03T14:50:40Z</time>
</trkpt>
<trkpt lat="45.06844" lon="13.62255">
<ele>45</ele>
<time>2011-05-03T14:50:52Z</time>
</trkpt>
<trkpt lat="45.06846" lon="13.62261">
<ele>45</ele>
<time>2011-05-03T14:51:06Z</time>
</trkpt>
<trkpt lat="45.0685" lon="13.62266">
<ele>45</ele>
<time>2011-05-03T14:51:18Z</time>
</trkpt>
<trkpt lat="45.06853" lon="13.62271">
<ele>45</ele>
<time>2011-05-03T14:51:29Z</time>
</trkpt>
<trkpt lat="45.06856" lon="13.62276">
<ele>45</ele>
<time>2011-05-03T14:51:43Z</time>
</trkpt>
<trkpt lat="45.06859" lon="13.62281">
<ele>45</ele>
<time>2011-05-03T14:51:54Z</time>
</trkpt>
<trkpt lat="45.06862" lon="13.62286">
<ele>45</ele>
<time>2011-05-03T14:52:07Z</time>
</trkpt>
<trkpt lat="45.06865" lon="13.62291">
<ele>45</ele>
<time>2011-05-03T14:52:22Z</time>
</trkpt>
<trkpt lat="45.06868" lon="13.62295">
<ele>45</ele>
<time>2011-05-03T14:52:39Z</time>
</trkpt>
<trkpt lat="45.06871" lon="13.623">
<ele>45</ele>
<time>2011-05-03T14:52:52Z</time>
</trkpt>
<trkpt lat="45.06874" lon="13.62305">
<ele>45</ele>
<time>2011-05-03T14:53:10Z</time>
</trkpt>
<trkpt lat="45.06876" lon="13.62311">
<ele>45</ele>
<time>2011-05-03T14:53:28Z</time>
</trkpt>
<trkpt lat="45.06877" lon="13.62317">
<ele>45</ele>
<time>2011-05-03T14:53:44Z</time>
</trkpt>
<trkpt lat="45.06878" lon="13.62323">
<ele>45</ele>
<time>2011-05-03T14:53:58Z</time>
</trkpt>
<trkpt lat="45.06879" lon="13.6233">
<ele>45</ele>
<time>2011-05-03T14:54:09Z</time>
</trkpt>
<trkpt lat="45.06881" lon="13.62336">
<ele>45</ele>
<time>2011-05-03T14:54:21Z</time>
</trkpt>
<trkpt lat="45.06881" lon="13.62342">
<ele>44</ele>
<time>2011-05-03T14:54:34Z</time>
</trkpt>
<trkpt lat="45.06882" lon="13.62348">
<ele>44</ele>
<time>2011-05-03T14:54:47Z</time>
</trkpt>
<trkpt lat="45.06883" lon="13.62355">
<ele>44</ele>
<time>2011-05-03T14:55:03Z</time>
</trkpt>
<trkpt lat="45.06884" lon="13.62361">
<ele>44</ele>
<time>2011-05-03T14:55:17Z</time>
</trkpt>
<trkpt lat="45.06885" lon="13.62367">
<ele>44</ele>
<time>2011-05-03T14:55:35Z</time>
</trkpt>
<trkpt lat="45.06888" lon="13.62374">
<ele>44</ele>
<time>2011-05-03T14:55:41Z</time>
</trkpt>
<trkpt lat="45.06892" lon="13.62378">
<ele>44</ele>
<time>2011-05-03T14:55:44Z</time>
</trkpt>
<trkpt lat="45.06896" lon="13.62384">
<ele>44</ele>
<time>2011-05-03T14:55:47Z</time>
</trkpt>
<trkpt lat="45.06902" lon="13.62389">
<ele>44</ele>
<time>2011-05-03T14:55:50Z</time>
</trkpt>
<trkpt lat="45.06906" lon="13.62394">
<ele>44</ele>
<time>2011-05-03T14:55:52Z</time>
</trkpt>
<trkpt lat="45.0691" lon="13.62399">
<ele>44</ele>
<time>2011-05-03T14:55:54Z</time>
</trkpt>
<trkpt lat="45.06915" lon="13.62403">
<ele>44</ele>
<time>2011-05-03T14:55:56Z</time>
</trkpt>
<trkpt lat="45.0692" lon="13.62407">
<ele>44</ele>
<time>2011-05-03T14:55:58Z</time>
</trkpt>
<trkpt lat="45.06925" lon="13.62411">
<ele>44</ele>
<time>2011-05-03T14:56:00Z</time>
</trkpt>
<trkpt lat="45.0693" lon="13.62415">
<ele>44</ele>
<time>2011-05-03T14:56:02Z</time>
</trkpt>
<trkpt lat="45.06935" lon="13.62419">
<ele>44</ele>
<time>2011-05-03T14:56:04Z</time>
</trkpt>
<trkpt lat="45.0694" lon="13.62424">
<ele>44</ele>
<time>2011-05-03T14:56:06Z</time>
</trkpt>
<trkpt lat="45.06946" lon="13.62428">
<ele>44</ele>
<time>2011-05-03T14:56:08Z</time>
</trkpt>
<trkpt lat="45.06951" lon="13.62432">
<ele>44</ele>
<time>2011-05-03T14:56:10Z</time>
</trkpt>
<trkpt lat="45.06957" lon="13.62437">
<ele>44</ele>
<time>2011-05-03T14:56:12Z</time>
</trkpt>
<trkpt lat="45.06962" lon="13.62441">
<ele>44</ele>
<time>2011-05-03T14:56:14Z</time>
</trkpt>
<trkpt lat="45.06967" lon="13.62446">
<ele>44</ele>
<time>2011-05-03T14:56:16Z</time>
</trkpt>
<trkpt lat="45.06973" lon="13.6245">
<ele>44</ele>
<time>2011-05-03T14:56:18Z</time>
</trkpt>
<trkpt lat="45.06978" lon="13.62454">
<ele>44</ele>
<time>2011-05-03T14:56:20Z</time>
</trkpt>
<trkpt lat="45.06983" lon="13.62459">
<ele>44</ele>
<time>2011-05-03T14:56:22Z</time>
</trkpt>
<trkpt lat="45.06989" lon="13.62463">
<ele>44</ele>
<time>2011-05-03T14:56:24Z</time>
</trkpt>
<trkpt lat="45.06994" lon="13.62468">
<ele>44</ele>
<time>2011-05-03T14:56:26Z</time>
</trkpt>
<trkpt lat="45.07" lon="13.62472">
<ele>44</ele>
<time>2011-05-03T14:56:28Z</time>
</trkpt>
<trkpt lat="45.07005" lon="13.62476">
<ele>44</ele>
<time>2011-05-03T14:56:30Z</time>
</trkpt>
<trkpt lat="45.07011" lon="13.6248">
<ele>44</ele>
<time>2011-05-03T14:56:32Z</time>
</trkpt>
<trkpt lat="45.07016" lon="13.62485">
<ele>44</ele>
<time>2011-05-03T14:56:34Z</time>
</trkpt>
<trkpt lat="45.07022" lon="13.6249">
<ele>44</ele>
<time>2011-05-03T14:56:36Z</time>
</trkpt>
<trkpt lat="45.07028" lon="13.62494">
<ele>44</ele>
<time>2011-05-03T14:56:38Z</time>
</trkpt>
<trkpt lat="45.07033" lon="13.62499">
<ele>44</ele>
<time>2011-05-03T14:56:40Z</time>
</trkpt>
<trkpt lat="45.07039" lon="13.62504">
<ele>45</ele>
<time>2011-05-03T14:56:42Z</time>
</trkpt>
<trkpt lat="45.07045" lon="13.62508">
<ele>45</ele>
<time>2011-05-03T14:56:44Z</time>
</trkpt>
<trkpt lat="45.0705" lon="13.62513">
<ele>45</ele>
<time>2011-05-03T14:56:46Z</time>
</trkpt>
<trkpt lat="45.07056" lon="13.62518">
<ele>45</ele>
<time>2011-05-03T14:56:48Z</time>
</trkpt>
<trkpt lat="45.07062" lon="13.62522">
<ele>45</ele>
<time>2011-05-03T14:56:50Z</time>
</trkpt>
<trkpt lat="45.07067" lon="13.62527">
<ele>45</ele>
<time>2011-05-03T14:56:52Z</time>
</trkpt>
<trkpt lat="45.07073" lon="13.62531">
<ele>45</ele>
<time>2011-05-03T14:56:54Z</time>
</trkpt>
<trkpt lat="45.07078" lon="13.62536">
<ele>45</ele>
<time>2011-05-03T14:56:56Z</time>
</trkpt>
<trkpt lat="45.07084" lon="13.6254">
<ele>45</ele>
<time>2011-05-03T14:56:58Z</time>
</trkpt>
<trkpt lat="45.07089" lon="13.62545">
<ele>45</ele>
<time>2011-05-03T14:57:00Z</time>
</trkpt>
<trkpt lat="45.07094" lon="13.6255">
<ele>45</ele>
<time>2011-05-03T14:57:02Z</time>
</trkpt>
<trkpt lat="45.07099" lon="13.62555">
<ele>45</ele>
<time>2011-05-03T14:57:04Z</time>
</trkpt>
<trkpt lat="45.07104" lon="13.6256">
<ele>45</ele>
<time>2011-05-03T14:57:06Z</time>
</trkpt>
<trkpt lat="45.07109" lon="13.62565">
<ele>45</ele>
<time>2011-05-03T14:57:08Z</time>
</trkpt>
<trkpt lat="45.07113" lon="13.6257">
<ele>45</ele>
<time>2011-05-03T14:57:10Z</time>
</trkpt>
<trkpt lat="45.07118" lon="13.62575">
<ele>45</ele>
<time>2011-05-03T14:57:12Z</time>
</trkpt>
<trkpt lat="45.07122" lon="13.6258">
<ele>45</ele>
<time>2011-05-03T14:57:14Z</time>
</trkpt>
<trkpt lat="45.07127" lon="13.62586">
<ele>45</ele>
<time>2011-05-03T14:57:16Z</time>
</trkpt>
<trkpt lat="45.07131" lon="13.62591">
<ele>45</ele>
<time>2011-05-03T14:57:18Z</time>
</trkpt>
<trkpt lat="45.07135" lon="13.62597">
<ele>45</ele>
<time>2011-05-03T14:57:20Z</time>
</trkpt>
<trkpt lat="45.07139" lon="13.62603">
<ele>45</ele>
<time>2011-05-03T14:57:22Z</time>
</trkpt>
<trkpt lat="45.07143" lon="13.62608">
<ele>45</ele>
<time>2011-05-03T14:57:24Z</time>
</trkpt>
<trkpt lat="45.07147" lon="13.62614">
<ele>45</ele>
<time>2011-05-03T14:57:26Z</time>
</trkpt>
<trkpt lat="45.07151" lon="13.6262">
<ele>45</ele>
<time>2011-05-03T14:57:28Z</time>
</trkpt>
<trkpt lat="45.07155" lon="13.62625">
<ele>45</ele>
<time>2011-05-03T14:57:30Z</time>
</trkpt>
<trkpt lat="45.07159" lon="13.62631">
<ele>45</ele>
<time>2011-05-03T14:57:32Z</time>
</trkpt>
<trkpt lat="45.07163" lon="13.62636">
<ele>45</ele>
<time>2011-05-03T14:57:34Z</time>
</trkpt>
<trkpt lat="45.07167" lon="13.62642">
<ele>45</ele>
<time>2011-05-03T14:57:36Z</time>
</trkpt>
<trkpt lat="45.07171" lon="13.62648">
<ele>45</ele>
<time>2011-05-03T14:57:38Z</time>
</trkpt>
<trkpt lat="45.07175" lon="13.62653">
<ele>45</ele>
<time>2011-05-03T14:57:40Z</time>
</trkpt>
<trkpt lat="45.0718" lon="13.62658">
<ele>45</ele>
<time>2011-05-03T14:57:42Z</time>
</trkpt>
<trkpt lat="45.07184" lon="13.62664">
<ele>45</ele>
<time>2011-05-03T14:57:44Z</time>
</trkpt>
<trkpt lat="45.07188" lon="13.6267">
<ele>45</ele>
<time>2011-05-03T14:57:46Z</time>
</trkpt>
<trkpt lat="45.07192" lon="13.62676">
<ele>45</ele>
<time>2011-05-03T14:57:48Z</time>
</trkpt>
<trkpt lat="45.07196" lon="13.62682">
<ele>45</ele>
<time>2011-05-03T14:57:50Z</time>
</trkpt>
<trkpt lat="45.072" lon="13.62687">
<ele>45</ele>
<time>2011-05-03T14:57:52Z</time>
</trkpt>
<trkpt lat="45.07204" lon="13.62693">
<ele>45</ele>
<time>2011-05-03T14:57:54Z</time>
</trkpt>
<trkpt lat="45.07208" lon="13.62699">
<ele>45</ele>
<time>2011-05-03T14:57:56Z</time>
</trkpt>
<trkpt lat="45.07212" lon="13.62705">
<ele>45</ele>
<time>2011-05-03T14:57:58Z</time>
</trkpt>
<trkpt lat="45.07216" lon="13.62711">
<ele>45</ele>
<time>2011-05-03T14:58:00Z</time>
</trkpt>
<trkpt lat="45.0722" lon="13.62716">
<ele>45</ele>
<time>2011-05-03T14:58:02Z</time>
</trkpt>
<trkpt lat="45.07224" lon="13.62722">
<ele>45</ele>
<time>2011-05-03T14:58:04Z</time>
</trkpt>
<trkpt lat="45.07228" lon="13.62727">
<ele>45</ele>
<time>2011-05-03T14:58:06Z</time>
</trkpt>
<trkpt lat="45.07232" lon="13.62733">
<ele>45</ele>
<time>2011-05-03T14:58:08Z</time>
</trkpt>
<trkpt lat="45.07236" lon="13.62739">
<ele>45</ele>
<time>2011-05-03T14:58:10Z</time>
</trkpt>
<trkpt lat="45.07239" lon="13.62744">
<ele>45</ele>
<time>2011-05-03T14:58:12Z</time>
</trkpt>
<trkpt lat="45.07243" lon="13.6275">
<ele>45</ele>
<time>2011-05-03T14:58:14Z</time>
</trkpt>
<trkpt lat="45.07247" lon="13.62756">
<ele>45</ele>
<time>2011-05-03T14:58:16Z</time>
</trkpt>
<trkpt lat="45.07251" lon="13.62762">
<ele>45</ele>
<time>2011-05-03T14:58:18Z</time>
</trkpt>
<trkpt lat="45.07255" lon="13.62767">
<ele>45</ele>
<time>2011-05-03T14:58:20Z</time>
</trkpt>
<trkpt lat="45.07259" lon="13.62773">
<ele>45</ele>
<time>2011-05-03T14:58:22Z</time>
</trkpt>
<trkpt lat="45.07263" lon="13.62779">
<ele>45</ele>
<time>2011-05-03T14:58:24Z</time>
</trkpt>
<trkpt lat="45.07267" lon="13.62784">
<ele>45</ele>
<time>2011-05-03T14:58:26Z</time>
</trkpt>
<trkpt lat="45.07271" lon="13.6279">
<ele>45</ele>
<time>2011-05-03T14:58:28Z</time>
</trkpt>
<trkpt lat="45.07275" lon="13.62796">
<ele>45</ele>
<time>2011-05-03T14:58:30Z</time>
</trkpt>
<trkpt lat="45.07279" lon="13.62802">
<ele>45</ele>
<time>2011-05-03T14:58:32Z</time>
</trkpt>
<trkpt lat="45.07283" lon="13.62808">
<ele>45</ele>
<time>2011-05-03T14:58:34Z</time>
</trkpt>
<trkpt lat="45.07287" lon="13.62814">
<ele>45</ele>
<time>2011-05-03T14:58:36Z</time>
</trkpt>
<trkpt lat="45.07292" lon="13.62819">
<ele>45</ele>
<time>2011-05-03T14:58:38Z</time>
</trkpt>
<trkpt lat="45.07296" lon="13.62825">
<ele>45</ele>
<time>2011-05-03T14:58:40Z</time>
</trkpt>
<trkpt lat="45.073" lon="13.6283">
<ele>45</ele>
<time>2011-05-03T14:58:42Z</time>
</trkpt>
<trkpt lat="45.07304" lon="13.62836">
<ele>45</ele>
<time>2011-05-03T14:58:44Z</time>
</trkpt>
<trkpt lat="45.07308" lon="13.62842">
<ele>45</ele>
<time>2011-05-03T14:58:46Z</time>
</trkpt>
<trkpt lat="45.07312" lon="13.62847">
<ele>45</ele>
<time>2011-05-03T14:58:48Z</time>
</trkpt>
<trkpt lat="45.07317" lon="13.62853">
<ele>45</ele>
<time>2011-05-03T14:58:50Z</time>
</trkpt>
<trkpt lat="45.07321" lon="13.62858">
<ele>45</ele>
<time>2011-05-03T14:58:52Z</time>
</trkpt>
<trkpt lat="45.07325" lon="13.62864">
<ele>45</ele>
<time>2011-05-03T14:58:54Z</time>
</trkpt>
<trkpt lat="45.07329" lon="13.62869">
<ele>45</ele>
<time>2011-05-03T14:58:56Z</time>
</trkpt>
<trkpt lat="45.07334" lon="13.62875">
<ele>45</ele>
<time>2011-05-03T14:58:58Z</time>
</trkpt>
<trkpt lat="45.07338" lon="13.62881">
<ele>45</ele>
<time>2011-05-03T14:59:00Z</time>
</trkpt>
<trkpt lat="45.07342" lon="13.62887">
<ele>45</ele>
<time>2011-05-03T14:59:02Z</time>
</trkpt>
<trkpt lat="45.07346" lon="13.62892">
<ele>45</ele>
<time>2011-05-03T14:59:04Z</time>
</trkpt>
<trkpt lat="45.0735" lon="13.62898">
<ele>45</ele>
<time>2011-05-03T14:59:06Z</time>
</trkpt>
<trkpt lat="45.07354" lon="13.62903">
<ele>45</ele>
<time>2011-05-03T14:59:08Z</time>
</trkpt>
<trkpt lat="45.07358" lon="13.62908">
<ele>45</ele>
<time>2011-05-03T14:59:10Z</time>
</trkpt>
<trkpt lat="45.07362" lon="13.62914">
<ele>45</ele>
<time>2011-05-03T14:59:12Z</time>
</trkpt>
<trkpt lat="45.07366" lon="13.62919">
<ele>45</ele>
<time>2011-05-03T14:59:14Z</time>
</trkpt>
<trkpt lat="45.0737" lon="13.62924">
<ele>45</ele>
<time>2011-05-03T14:59:16Z</time>
</trkpt>
<trkpt lat="45.07374" lon="13.62929">
<ele>45</ele>
<time>2011-05-03T14:59:18Z</time>
</trkpt>
<trkpt lat="45.07378" lon="13.62934">
<ele>45</ele>
<time>2011-05-03T14:59:20Z</time>
</trkpt>
<trkpt lat="45.07382" lon="13.6294">
<ele>45</ele>
<time>2011-05-03T14:59:22Z</time>
</trkpt>
<trkpt lat="45.07386" lon="13.62945">
<ele>45</ele>
<time>2011-05-03T14:59:24Z</time>
</trkpt>
<trkpt lat="45.07391" lon="13.6295">
<ele>45</ele>
<time>2011-05-03T14:59:26Z</time>
</trkpt>
<trkpt lat="45.07395" lon="13.62956">
<ele>45</ele>
<time>2011-05-03T14:59:28Z</time>
</trkpt>
<trkpt lat="45.074" lon="13.62961">
<ele>45</ele>
<time>2011-05-03T14:59:30Z</time>
</trkpt>
<trkpt lat="45.07404" lon="13.62966">
<ele>45</ele>
<time>2011-05-03T14:59:32Z</time>
</trkpt>
<trkpt lat="45.07408" lon="13.62971">
<ele>45</ele>
<time>2011-05-03T14:59:34Z</time>
</trkpt>
<trkpt lat="45.07413" lon="13.62976">
<ele>45</ele>
<time>2011-05-03T14:59:36Z</time>
</trkpt>
<trkpt lat="45.07417" lon="13.62982">
<ele>45</ele>
<time>2011-05-03T14:59:38Z</time>
</trkpt>
<trkpt lat="45.07422" lon="13.62987">
<ele>45</ele>
<time>2011-05-03T14:59:40Z</time>
</trkpt>
<trkpt lat="45.07426" lon="13.62992">
<ele>45</ele>
<time>2011-05-03T14:59:42Z</time>
</trkpt>
<trkpt lat="45.07431" lon="13.62997">
<ele>45</ele>
<time>2011-05-03T14:59:44Z</time>
</trkpt>
<trkpt lat="45.07435" lon="13.63001">
<ele>45</ele>
<time>2011-05-03T14:59:46Z</time>
</trkpt>
<trkpt lat="45.0744" lon="13.63006">
<ele>45</ele>
<time>2011-05-03T14:59:48Z</time>
</trkpt>
<trkpt lat="45.07445" lon="13.6301">
<ele>45</ele>
<time>2011-05-03T14:59:50Z</time>
</trkpt>
<trkpt lat="45.07449" lon="13.63014">
<ele>45</ele>
<time>2011-05-03T14:59:52Z</time>
</trkpt>
<trkpt lat="45.07454" lon="13.63019">
<ele>45</ele>
<time>2011-05-03T14:59:54Z</time>
</trkpt>
<trkpt lat="45.07459" lon="13.63023">
<ele>45</ele>
<time>2011-05-03T14:59:56Z</time>
</trkpt>
<trkpt lat="45.07463" lon="13.63028">
<ele>45</ele>
<time>2011-05-03T14:59:58Z</time>
</trkpt>
<trkpt lat="45.07468" lon="13.63033">
<ele>45</ele>
<time>2011-05-03T15:00:00Z</time>
</trkpt>
<trkpt lat="45.07473" lon="13.63037">
<ele>45</ele>
<time>2011-05-03T15:00:02Z</time>
</trkpt>
<trkpt lat="45.07478" lon="13.63042">
<ele>45</ele>
<time>2011-05-03T15:00:04Z</time>
</trkpt>
<trkpt lat="45.07482" lon="13.63046">
<ele>45</ele>
<time>2011-05-03T15:00:06Z</time>
</trkpt>
<trkpt lat="45.07487" lon="13.63051">
<ele>45</ele>
<time>2011-05-03T15:00:08Z</time>
</trkpt>
<trkpt lat="45.07492" lon="13.63055">
<ele>45</ele>
<time>2011-05-03T15:00:10Z</time>
</trkpt>
<trkpt lat="45.07496" lon="13.63059">
<ele>45</ele>
<time>2011-05-03T15:00:12Z</time>
</trkpt>
<trkpt lat="45.07501" lon="13.63064">
<ele>45</ele>
<time>2011-05-03T15:00:14Z</time>
</trkpt>
<trkpt lat="45.07506" lon="13.63068">
<ele>45</ele>
<time>2011-05-03T15:00:16Z</time>
</trkpt>
<trkpt lat="45.0751" lon="13.63072">
<ele>45</ele>
<time>2011-05-03T15:00:18Z</time>
</trkpt>
<trkpt lat="45.07515" lon="13.63077">
<ele>45</ele>
<time>2011-05-03T15:00:20Z</time>
</trkpt>
<trkpt lat="45.07519" lon="13.63082">
<ele>45</ele>
<time>2011-05-03T15:00:22Z</time>
</trkpt>
<trkpt lat="45.07523" lon="13.63087">
<ele>45</ele>
<time>2011-05-03T15:00:24Z</time>
</trkpt>
<trkpt lat="45.07528" lon="13.63092">
<ele>45</ele>
<time>2011-05-03T15:00:26Z</time>
</trkpt>
<trkpt lat="45.07532" lon="13.63097">
<ele>45</ele>
<time>2011-05-03T15:00:28Z</time>
</trkpt>
<trkpt lat="45.07536" lon="13.63102">
<ele>45</ele>
<time>2011-05-03T15:00:30Z</time>
</trkpt>
<trkpt lat="45.07541" lon="13.63108">
<ele>45</ele>
<time>2011-05-03T15:00:32Z</time>
</trkpt>
<trkpt lat="45.07545" lon="13.63113">
<ele>45</ele>
<time>2011-05-03T15:00:34Z</time>
</trkpt>
<trkpt lat="45.07549" lon="13.63118">
<ele>45</ele>
<time>2011-05-03T15:00:36Z</time>
</trkpt>
<trkpt lat="45.07554" lon="13.63122">
<ele>45</ele>
<time>2011-05-03T15:00:38Z</time>
</trkpt>
<trkpt lat="45.07558" lon="13.63128">
<ele>45</ele>
<time>2011-05-03T15:00:40Z</time>
</trkpt>
<trkpt lat="45.07562" lon="13.63133">
<ele>45</ele>
<time>2011-05-03T15:00:42Z</time>
</trkpt>
<trkpt lat="45.07567" lon="13.63138">
<ele>45</ele>
<time>2011-05-03T15:00:44Z</time>
</trkpt>
<trkpt lat="45.07571" lon="13.63143">
<ele>45</ele>
<time>2011-05-03T15:00:46Z</time>
</trkpt>
<trkpt lat="45.07576" lon="13.63148">
<ele>45</ele>
<time>2011-05-03T15:00:48Z</time>
</trkpt>
<trkpt lat="45.0758" lon="13.63153">
<ele>45</ele>
<time>2011-05-03T15:00:50Z</time>
</trkpt>
<trkpt lat="45.07585" lon="13.63159">
<ele>45</ele>
<time>2011-05-03T15:00:52Z</time>
</trkpt>
<trkpt lat="45.07589" lon="13.63164">
<ele>45</ele>
<time>2011-05-03T15:00:54Z</time>
</trkpt>
<trkpt lat="45.07594" lon="13.63169">
<ele>45</ele>
<time>2011-05-03T15:00:56Z</time>
</trkpt>
<trkpt lat="45.07599" lon="13.63174">
<ele>45</ele>
<time>2011-05-03T15:00:58Z</time>
</trkpt>
<trkpt lat="45.07603" lon="13.6318">
<ele>45</ele>
<time>2011-05-03T15:01:00Z</time>
</trkpt>
<trkpt lat="45.07607" lon="13.63185">
<ele>45</ele>
<time>2011-05-03T15:01:02Z</time>
</trkpt>
<trkpt lat="45.07612" lon="13.6319">
<ele>45</ele>
<time>2011-05-03T15:01:04Z</time>
</trkpt>
<trkpt lat="45.07616" lon="13.63196">
<ele>45</ele>
<time>2011-05-03T15:01:06Z</time>
</trkpt>
<trkpt lat="45.0762" lon="13.632">
<ele>45</ele>
<time>2011-05-03T15:01:08Z</time>
</trkpt>
<trkpt lat="45.07625" lon="13.63205">
<ele>46</ele>
<time>2011-05-03T15:01:10Z</time>
</trkpt>
<trkpt lat="45.07628" lon="13.6321">
<ele>46</ele>
<time>2011-05-03T15:01:12Z</time>
</trkpt>
<trkpt lat="45.07632" lon="13.63214">
<ele>46</ele>
<time>2011-05-03T15:01:14Z</time>
</trkpt>
<trkpt lat="45.07636" lon="13.63218">
<ele>46</ele>
<time>2011-05-03T15:01:16Z</time>
</trkpt>
<trkpt lat="45.0764" lon="13.63224">
<ele>46</ele>
<time>2011-05-03T15:01:19Z</time>
</trkpt>
<trkpt lat="45.07644" lon="13.6323">
<ele>46</ele>
<time>2011-05-03T15:01:22Z</time>
</trkpt>
<trkpt lat="45.07648" lon="13.63236">
<ele>46</ele>
<time>2011-05-03T15:01:25Z</time>
</trkpt>
<trkpt lat="45.07651" lon="13.63243">
<ele>46</ele>
<time>2011-05-03T15:01:28Z</time>
</trkpt>
<trkpt lat="45.07654" lon="13.6325">
<ele>46</ele>
<time>2011-05-03T15:01:31Z</time>
</trkpt>
<trkpt lat="45.07656" lon="13.63258">
<ele>46</ele>
<time>2011-05-03T15:01:34Z</time>
</trkpt>
<trkpt lat="45.07658" lon="13.63266">
<ele>46</ele>
<time>2011-05-03T15:01:37Z</time>
</trkpt>
<trkpt lat="45.0766" lon="13.63273">
<ele>46</ele>
<time>2011-05-03T15:01:40Z</time>
</trkpt>
<trkpt lat="45.07662" lon="13.6328">
<ele>46</ele>
<time>2011-05-03T15:01:43Z</time>
</trkpt>
<trkpt lat="45.07663" lon="13.63287">
<ele>46</ele>
<time>2011-05-03T15:01:46Z</time>
</trkpt>
<trkpt lat="45.07664" lon="13.63295">
<ele>46</ele>
<time>2011-05-03T15:01:49Z</time>
</trkpt>
<trkpt lat="45.07665" lon="13.63302">
<ele>46</ele>
<time>2011-05-03T15:01:52Z</time>
</trkpt>
<trkpt lat="45.07666" lon="13.63309">
<ele>46</ele>
<time>2011-05-03T15:01:55Z</time>
</trkpt>
<trkpt lat="45.07667" lon="13.63316">
<ele>46</ele>
<time>2011-05-03T15:01:58Z</time>
</trkpt>
<trkpt lat="45.07668" lon="13.63324">
<ele>46</ele>
<time>2011-05-03T15:02:01Z</time>
</trkpt>
<trkpt lat="45.0767" lon="13.63332">
<ele>46</ele>
<time>2011-05-03T15:02:04Z</time>
</trkpt>
<trkpt lat="45.07671" lon="13.63339">
<ele>47</ele>
<time>2011-05-03T15:02:07Z</time>
</trkpt>
<trkpt lat="45.07672" lon="13.63347">
<ele>47</ele>
<time>2011-05-03T15:02:10Z</time>
</trkpt>
<trkpt lat="45.07674" lon="13.63354">
<ele>47</ele>
<time>2011-05-03T15:02:13Z</time>
</trkpt>
<trkpt lat="45.07675" lon="13.63362">
<ele>47</ele>
<time>2011-05-03T15:02:16Z</time>
</trkpt>
<trkpt lat="45.07676" lon="13.6337">
<ele>47</ele>
<time>2011-05-03T15:02:19Z</time>
</trkpt>
<trkpt lat="45.07677" lon="13.63378">
<ele>47</ele>
<time>2011-05-03T15:02:22Z</time>
</trkpt>
<trkpt lat="45.07678" lon="13.63386">
<ele>47</ele>
<time>2011-05-03T15:02:25Z</time>
</trkpt>
<trkpt lat="45.0768" lon="13.63393">
<ele>47</ele>
<time>2011-05-03T15:02:28Z</time>
</trkpt>
<trkpt lat="45.07681" lon="13.63401">
<ele>47</ele>
<time>2011-05-03T15:02:31Z</time>
</trkpt>
<trkpt lat="45.07683" lon="13.63409">
<ele>47</ele>
<time>2011-05-03T15:02:34Z</time>
</trkpt>
<trkpt lat="45.07685" lon="13.63417">
<ele>47</ele>
<time>2011-05-03T15:02:37Z</time>
</trkpt>
<trkpt lat="45.07686" lon="13.63426">
<ele>47</ele>
<time>2011-05-03T15:02:40Z</time>
</trkpt>
<trkpt lat="45.07688" lon="13.63434">
<ele>47</ele>
<time>2011-05-03T15:02:43Z</time>
</trkpt>
<trkpt lat="45.0769" lon="13.63441">
<ele>47</ele>
<time>2011-05-03T15:02:46Z</time>
</trkpt>
<trkpt lat="45.07692" lon="13.63449">
<ele>47</ele>
<time>2011-05-03T15:02:49Z</time>
</trkpt>
<trkpt lat="45.07693" lon="13.63456">
<ele>47</ele>
<time>2011-05-03T15:02:52Z</time>
</trkpt>
<trkpt lat="45.07695" lon="13.63464">
<ele>47</ele>
<time>2011-05-03T15:02:55Z</time>
</trkpt>
<trkpt lat="45.07697" lon="13.63471">
<ele>47</ele>
<time>2011-05-03T15:02:58Z</time>
</trkpt>
<trkpt lat="45.07698" lon="13.63478">
<ele>47</ele>
<time>2011-05-03T15:03:01Z</time>
</trkpt>
<trkpt lat="45.077" lon="13.63485">
<ele>47</ele>
<time>2011-05-03T15:03:04Z</time>
</trkpt>
<trkpt lat="45.07702" lon="13.63491">
<ele>47</ele>
<time>2011-05-03T15:03:07Z</time>
</trkpt>
<trkpt lat="45.07704" lon="13.63498">
<ele>47</ele>
<time>2011-05-03T15:03:10Z</time>
</trkpt>
<trkpt lat="45.07706" lon="13.63504">
<ele>47</ele>
<time>2011-05-03T15:03:13Z</time>
</trkpt>
<trkpt lat="45.07708" lon="13.6351">
<ele>47</ele>
<time>2011-05-03T15:03:16Z</time>
</trkpt>
<trkpt lat="45.07711" lon="13.63516">
<ele>47</ele>
<time>2011-05-03T15:03:19Z</time>
</trkpt>
<trkpt lat="45.07713" lon="13.63521">
<ele>47</ele>
<time>2011-05-03T15:03:22Z</time>
</trkpt>
<trkpt lat="45.07716" lon="13.63528">
<ele>47</ele>
<time>2011-05-03T15:03:26Z</time>
</trkpt>
<trkpt lat="45.07718" lon="13.63535">
<ele>48</ele>
<time>2011-05-03T15:03:30Z</time>
</trkpt>
<trkpt lat="45.0772" lon="13.63542">
<ele>48</ele>
<time>2011-05-03T15:03:34Z</time>
</trkpt>
<trkpt lat="45.07722" lon="13.63548">
<ele>48</ele>
<time>2011-05-03T15:03:38Z</time>
</trkpt>
<trkpt lat="45.07725" lon="13.63553">
<ele>48</ele>
<time>2011-05-03T15:03:42Z</time>
</trkpt>
<trkpt lat="45.07728" lon="13.6356">
<ele>48</ele>
<time>2011-05-03T15:03:47Z</time>
</trkpt>
<trkpt lat="45.0773" lon="13.63566">
<ele>48</ele>
<time>2011-05-03T15:03:52Z</time>
</trkpt>
<trkpt lat="45.07733" lon="13.63572">
<ele>48</ele>
<time>2011-05-03T15:03:57Z</time>
</trkpt>
<trkpt lat="45.07736" lon="13.63578">
<ele>48</ele>
<time>2011-05-03T15:04:02Z</time>
</trkpt>
<trkpt lat="45.07738" lon="13.63585">
<ele>48</ele>
<time>2011-05-03T15:04:07Z</time>
</trkpt>
<trkpt lat="45.0774" lon="13.63593">
<ele>48</ele>
<time>2011-05-03T15:04:12Z</time>
</trkpt>
<trkpt lat="45.07742" lon="13.63599">
<ele>48</ele>
<time>2011-05-03T15:04:16Z</time>
</trkpt>
<trkpt lat="45.07745" lon="13.63605">
<ele>48</ele>
<time>2011-05-03T15:04:20Z</time>
</trkpt>
<trkpt lat="45.07747" lon="13.63612">
<ele>48</ele>
<time>2011-05-03T15:04:24Z</time>
</trkpt>
<trkpt lat="45.07749" lon="13.63619">
<ele>48</ele>
<time>2011-05-03T15:04:28Z</time>
</trkpt>
<trkpt lat="45.07751" lon="13.63626">
<ele>48</ele>
<time>2011-05-03T15:04:32Z</time>
</trkpt>
<trkpt lat="45.07754" lon="13.63633">
<ele>48</ele>
<time>2011-05-03T15:04:36Z</time>
</trkpt>
<trkpt lat="45.07758" lon="13.63639">
<ele>48</ele>
<time>2011-05-03T15:04:40Z</time>
</trkpt>
<trkpt lat="45.07762" lon="13.63641">
<ele>48</ele>
<time>2011-05-03T15:04:48Z</time>
</trkpt>
<trkpt lat="45.07758" lon="13.63645">
<ele>48</ele>
<time>2011-05-03T15:05:04Z</time>
</trkpt>
<trkpt lat="45.07753" lon="13.63645">
<ele>48</ele>
<time>2011-05-03T15:05:11Z</time>
</trkpt>
<trkpt lat="45.07748" lon="13.63645">
<ele>48</ele>
<time>2011-05-03T15:05:17Z</time>
</trkpt>
<trkpt lat="45.07743" lon="13.63646">
<ele>48</ele>
<time>2011-05-03T15:05:22Z</time>
</trkpt>
<trkpt lat="45.07738" lon="13.63646">
<ele>48</ele>
<time>2011-05-03T15:05:27Z</time>
</trkpt>
<trkpt lat="45.07733" lon="13.63647">
<ele>48</ele>
<time>2011-05-03T15:05:32Z</time>
</trkpt>
<trkpt lat="45.07728" lon="13.63647">
<ele>48</ele>
<time>2011-05-03T15:05:37Z</time>
</trkpt>
<trkpt lat="45.07723" lon="13.63645">
<ele>48</ele>
<time>2011-05-03T15:05:42Z</time>
</trkpt>
<trkpt lat="45.07718" lon="13.63643">
<ele>48</ele>
<time>2011-05-03T15:05:47Z</time>
</trkpt>
<trkpt lat="45.07714" lon="13.6364">
<ele>48</ele>
<time>2011-05-03T15:05:51Z</time>
</trkpt>
<trkpt lat="45.07709" lon="13.63636">
<ele>48</ele>
<time>2011-05-03T15:05:56Z</time>
</trkpt>
<trkpt lat="45.07706" lon="13.63631">
<ele>48</ele>
<time>2011-05-03T15:06:00Z</time>
</trkpt>
<trkpt lat="45.07702" lon="13.63625">
<ele>48</ele>
<time>2011-05-03T15:06:05Z</time>
</trkpt>
<trkpt lat="45.077" lon="13.63618">
<ele>47</ele>
<time>2011-05-03T15:06:10Z</time>
</trkpt>
<trkpt lat="45.077" lon="13.63611">
<ele>47</ele>
<time>2011-05-03T15:06:15Z</time>
</trkpt>
<trkpt lat="45.077" lon="13.63604">
<ele>47</ele>
<time>2011-05-03T15:06:20Z</time>
</trkpt>
<trkpt lat="45.07701" lon="13.63598">
<ele>47</ele>
<time>2011-05-03T15:06:25Z</time>
</trkpt>
<trkpt lat="45.07704" lon="13.63592">
<ele>47</ele>
<time>2011-05-03T15:06:30Z</time>
</trkpt>
<trkpt lat="45.07707" lon="13.63587">
<ele>47</ele>
<time>2011-05-03T15:06:35Z</time>
</trkpt>
<trkpt lat="45.07712" lon="13.63584">
<ele>47</ele>
<time>2011-05-03T15:06:42Z</time>
</trkpt>
<trkpt lat="45.07716" lon="13.63582">
<ele>47</ele>
<time>2011-05-03T15:07:05Z</time>
</trkpt>
<trkpt lat="45.0772" lon="13.63581">
<ele>48</ele>
<time>2011-05-03T15:14:45Z</time>
</trkpt>
<trkpt lat="45.07716" lon="13.63583">
<ele>49</ele>
<time>2011-05-03T15:18:23Z</time>
</trkpt>
</trkseg>
</trk>
</gpx>
